<?xml version='1.0' encoding='UTF-8'?><gpx version="1.1" creator="JPX - https://github.com/jenetics/jpx" xmlns="http://www.topografix.com/GPX/1/1"><trk><trkseg><trkpt lat="45.6291252" lon="11.2391046"><ele>644.0</ele><time>2026-04-25T14:12:17.995Z</time></trkpt><trkpt lat="45.629318" lon="11.2390829"><ele>644.0</ele><time>2026-04-25T14:12:20.069Z</time></trkpt><trkpt lat="45.6295262" lon="11.2389785"><ele>644.0</ele><time>2026-04-25T14:12:22.036Z</time></trkpt><trkpt lat="45.6296574" lon="11.238839"><ele>643.0</ele><time>2026-04-25T14:12:23.6Z</time></trkpt><trkpt lat="45.6297178" lon="11.2387711"><ele>642.0</ele><time>2026-04-25T14:12:25.057Z</time></trkpt><trkpt lat="45.6298608" lon="11.238642"><ele>641.0</ele><time>2026-04-25T14:12:26.098Z</time></trkpt><trkpt lat="45.6300922" lon="11.2385025"><ele>641.0</ele><time>2026-04-25T14:12:28.077Z</time></trkpt><trkpt lat="45.6302715" lon="11.2384349"><ele>641.0</ele><time>2026-04-25T14:12:29.001Z</time></trkpt><trkpt lat="45.6304055" lon="11.2383806"><ele>641.0</ele><time>2026-04-25T14:12:30.001Z</time></trkpt><trkpt lat="45.6305128" lon="11.2383213"><ele>641.0</ele><time>2026-04-25T14:12:31.001Z</time></trkpt><trkpt lat="45.6306033" lon="11.2382558"><ele>641.0</ele><time>2026-04-25T14:12:32.001Z</time></trkpt><trkpt lat="45.6306797" lon="11.2381888"><ele>641.0</ele><time>2026-04-25T14:12:33.001Z</time></trkpt><trkpt lat="45.6307506" lon="11.2381381"><ele>641.0</ele><time>2026-04-25T14:12:34.001Z</time></trkpt><trkpt lat="45.6308189" lon="11.2381074"><ele>641.0</ele><time>2026-04-25T14:12:35.001Z</time></trkpt><trkpt lat="45.6309412" lon="11.2381236"><ele>641.0</ele><time>2026-04-25T14:12:37.001Z</time></trkpt><trkpt lat="45.6310053" lon="11.2381918"><ele>641.0</ele><time>2026-04-25T14:12:38.001Z</time></trkpt><trkpt lat="45.6310661" lon="11.2382754"><ele>643.1999999999999</ele><time>2026-04-25T14:12:39.001Z</time></trkpt><trkpt lat="45.6311352" lon="11.2383792"><ele>645.4</ele><time>2026-04-25T14:12:40.001Z</time></trkpt><trkpt lat="45.6312093" lon="11.2384792"><ele>647.6</ele><time>2026-04-25T14:12:41.001Z</time></trkpt><trkpt lat="45.6312864" lon="11.2385676"><ele>649.8</ele><time>2026-04-25T14:12:42.001Z</time></trkpt><trkpt lat="45.6313714" lon="11.2386577"><ele>652.0</ele><time>2026-04-25T14:12:43.001Z</time></trkpt><trkpt lat="45.6314454" lon="11.2387362"><ele>652.0</ele><time>2026-04-25T14:12:44.001Z</time></trkpt><trkpt lat="45.6315215" lon="11.2388081"><ele>652.0</ele><time>2026-04-25T14:12:45.001Z</time></trkpt><trkpt lat="45.6315942" lon="11.2388713"><ele>652.0</ele><time>2026-04-25T14:12:46.001Z</time></trkpt><trkpt lat="45.6316689" lon="11.2389209"><ele>652.0</ele><time>2026-04-25T14:12:47.001Z</time></trkpt><trkpt lat="45.6317456" lon="11.2389641"><ele>652.0</ele><time>2026-04-25T14:12:48.001Z</time></trkpt><trkpt lat="45.631824" lon="11.2390022"><ele>652.0</ele><time>2026-04-25T14:12:49.001Z</time></trkpt><trkpt lat="45.6319101" lon="11.2390314"><ele>653.8333333333334</ele><time>2026-04-25T14:12:50.001Z</time></trkpt><trkpt lat="45.6319944" lon="11.2390559"><ele>655.6666666666667</ele><time>2026-04-25T14:12:51.001Z</time></trkpt><trkpt lat="45.6320754" lon="11.2390945"><ele>657.5</ele><time>2026-04-25T14:12:52.001Z</time></trkpt><trkpt lat="45.6321527" lon="11.2391353"><ele>659.3333333333334</ele><time>2026-04-25T14:12:53.001Z</time></trkpt><trkpt lat="45.6322265" lon="11.2391777"><ele>661.1666666666666</ele><time>2026-04-25T14:12:54.002Z</time></trkpt><trkpt lat="45.6322983" lon="11.2392269"><ele>663.0</ele><time>2026-04-25T14:12:55.001Z</time></trkpt><trkpt lat="45.6323542" lon="11.2392847"><ele>663.0</ele><time>2026-04-25T14:12:56.002Z</time></trkpt><trkpt lat="45.6324167" lon="11.2393458"><ele>663.0</ele><time>2026-04-25T14:12:57.001Z</time></trkpt><trkpt lat="45.632494" lon="11.23939"><ele>663.0</ele><time>2026-04-25T14:12:58.001Z</time></trkpt><trkpt lat="45.6325742" lon="11.2394206"><ele>663.0</ele><time>2026-04-25T14:12:59.001Z</time></trkpt><trkpt lat="45.6326496" lon="11.2394361"><ele>663.0</ele><time>2026-04-25T14:13:00.001Z</time></trkpt><trkpt lat="45.6327249" lon="11.2394235"><ele>663.0</ele><time>2026-04-25T14:13:01.001Z</time></trkpt><trkpt lat="45.6327846" lon="11.2393657"><ele>663.3333333333334</ele><time>2026-04-25T14:13:02.001Z</time></trkpt><trkpt lat="45.6328324" lon="11.2392956"><ele>663.6666666666666</ele><time>2026-04-25T14:13:03.001Z</time></trkpt><trkpt lat="45.6328855" lon="11.2392126"><ele>664.0</ele><time>2026-04-25T14:13:04.001Z</time></trkpt><trkpt lat="45.6329481" lon="11.2391352"><ele>664.3333333333333</ele><time>2026-04-25T14:13:05.001Z</time></trkpt><trkpt lat="45.6330105" lon="11.2390526"><ele>664.6666666666666</ele><time>2026-04-25T14:13:06.001Z</time></trkpt><trkpt lat="45.6330747" lon="11.2389732"><ele>665.0</ele><time>2026-04-25T14:13:07.001Z</time></trkpt><trkpt lat="45.6331421" lon="11.2389019"><ele>665.0</ele><time>2026-04-25T14:13:08.001Z</time></trkpt><trkpt lat="45.6332118" lon="11.2388419"><ele>665.0</ele><time>2026-04-25T14:13:09.001Z</time></trkpt><trkpt lat="45.6332785" lon="11.2387897"><ele>665.0</ele><time>2026-04-25T14:13:10.001Z</time></trkpt><trkpt lat="45.633347" lon="11.2387415"><ele>665.0</ele><time>2026-04-25T14:13:11.001Z</time></trkpt><trkpt lat="45.633425" lon="11.238696"><ele>665.0</ele><time>2026-04-25T14:13:12.001Z</time></trkpt><trkpt lat="45.6335038" lon="11.2386493"><ele>665.0</ele><time>2026-04-25T14:13:13.001Z</time></trkpt><trkpt lat="45.6335871" lon="11.2385981"><ele>667.3333333333333</ele><time>2026-04-25T14:13:14.001Z</time></trkpt><trkpt lat="45.6336619" lon="11.2385595"><ele>669.6666666666666</ele><time>2026-04-25T14:13:15.001Z</time></trkpt><trkpt lat="45.6337333" lon="11.2385273"><ele>672.0</ele><time>2026-04-25T14:13:16.001Z</time></trkpt><trkpt lat="45.6338026" lon="11.2384965"><ele>674.3333333333334</ele><time>2026-04-25T14:13:17.001Z</time></trkpt><trkpt lat="45.6338833" lon="11.2384654"><ele>676.6666666666667</ele><time>2026-04-25T14:13:18.001Z</time></trkpt><trkpt lat="45.6339672" lon="11.2384411"><ele>679.0</ele><time>2026-04-25T14:13:19.001Z</time></trkpt><trkpt lat="45.6340463" lon="11.2384159"><ele>679.0</ele><time>2026-04-25T14:13:20.001Z</time></trkpt><trkpt lat="45.6341107" lon="11.2383847"><ele>679.0</ele><time>2026-04-25T14:13:21.001Z</time></trkpt><trkpt lat="45.6341763" lon="11.2383269"><ele>679.0</ele><time>2026-04-25T14:13:23.001Z</time></trkpt><trkpt lat="45.6341686" lon="11.2381881"><ele>679.0</ele><time>2026-04-25T14:14:01.077Z</time></trkpt><trkpt lat="45.6341149" lon="11.2382533"><ele>679.0</ele><time>2026-04-25T14:14:05.06Z</time></trkpt><trkpt lat="45.6340536" lon="11.2383527"><ele>679.0</ele><time>2026-04-25T14:14:08.055Z</time></trkpt><trkpt lat="45.6339865" lon="11.2384078"><ele>679.0</ele><time>2026-04-25T14:14:10.034Z</time></trkpt><trkpt lat="45.6338768" lon="11.2384464"><ele>679.0</ele><time>2026-04-25T14:14:12.001Z</time></trkpt><trkpt lat="45.6337658" lon="11.2384749"><ele>679.0</ele><time>2026-04-25T14:14:14.001Z</time></trkpt><trkpt lat="45.6336768" lon="11.2385072"><ele>679.0</ele><time>2026-04-25T14:14:16.001Z</time></trkpt><trkpt lat="45.6336144" lon="11.2385243"><ele>679.0</ele><time>2026-04-25T14:14:20.001Z</time></trkpt><trkpt lat="45.6335186" lon="11.2385776"><ele>676.2</ele><time>2026-04-25T14:14:28.001Z</time></trkpt><trkpt lat="45.6334299" lon="11.2386378"><ele>673.4000000000001</ele><time>2026-04-25T14:14:30.065Z</time></trkpt><trkpt lat="45.6332903" lon="11.2386851"><ele>670.6</ele><time>2026-04-25T14:14:34.023Z</time></trkpt><trkpt lat="45.633213" lon="11.2387483"><ele>667.8</ele><time>2026-04-25T14:14:36.002Z</time></trkpt><trkpt lat="45.6331445" lon="11.2388023"><ele>665.0</ele><time>2026-04-25T14:14:38.015Z</time></trkpt><trkpt lat="45.6330557" lon="11.2388296"><ele>665.0</ele><time>2026-04-25T14:14:40.064Z</time></trkpt><trkpt lat="45.6329929" lon="11.2388629"><ele>665.0</ele><time>2026-04-25T14:14:41.001Z</time></trkpt><trkpt lat="45.6329359" lon="11.2389043"><ele>665.0</ele><time>2026-04-25T14:14:42.001Z</time></trkpt><trkpt lat="45.632848" lon="11.2390005"><ele>665.0</ele><time>2026-04-25T14:14:44.001Z</time></trkpt><trkpt lat="45.6327752" lon="11.2390861"><ele>665.0</ele><time>2026-04-25T14:14:46.001Z</time></trkpt><trkpt lat="45.6327104" lon="11.2391015"><ele>665.0</ele><time>2026-04-25T14:14:48.001Z</time></trkpt><trkpt lat="45.6326832" lon="11.2390047"><ele>665.0</ele><time>2026-04-25T14:14:51.001Z</time></trkpt><trkpt lat="45.6327247" lon="11.2389068"><ele>665.0</ele><time>2026-04-25T14:14:54.001Z</time></trkpt><trkpt lat="45.6327747" lon="11.2387972"><ele>665.0</ele><time>2026-04-25T14:14:56.084Z</time></trkpt><trkpt lat="45.6328194" lon="11.2386936"><ele>665.0</ele><time>2026-04-25T14:14:58.063Z</time></trkpt><trkpt lat="45.632881" lon="11.2385871"><ele>665.0</ele><time>2026-04-25T14:15:00.001Z</time></trkpt><trkpt lat="45.6329401" lon="11.2384953"><ele>665.0</ele><time>2026-04-25T14:15:02.001Z</time></trkpt><trkpt lat="45.6330115" lon="11.2384182"><ele>665.0</ele><time>2026-04-25T14:15:04.001Z</time></trkpt><trkpt lat="45.6330493" lon="11.2383396"><ele>665.0</ele><time>2026-04-25T14:15:07.001Z</time></trkpt><trkpt lat="45.6329684" lon="11.2382987"><ele>665.0</ele><time>2026-04-25T14:16:09.09Z</time></trkpt></trkseg><trkseg><trkpt lat="45.6326783" lon="11.2384033"><ele>650.0</ele><time>2026-04-25T14:26:49.046Z</time></trkpt><trkpt lat="45.6326936" lon="11.2383134"><ele>650.0</ele><time>2026-04-25T14:26:52.002Z</time></trkpt><trkpt lat="45.632708" lon="11.2382114"><ele>650.0</ele><time>2026-04-25T14:26:59.011Z</time></trkpt><trkpt lat="45.6326968" lon="11.2381087"><ele>650.0</ele><time>2026-04-25T14:27:03.073Z</time></trkpt><trkpt lat="45.6326406" lon="11.2380569"><ele>650.0</ele><time>2026-04-25T14:27:06.094Z</time></trkpt><trkpt lat="45.6325986" lon="11.2379832"><ele>650.0</ele><time>2026-04-25T14:27:09.114Z</time></trkpt><trkpt lat="45.6325585" lon="11.2378982"><ele>650.0</ele><time>2026-04-25T14:27:12.03Z</time></trkpt><trkpt lat="45.6325431" lon="11.2378009"><ele>647.4</ele><time>2026-04-25T14:27:14.113Z</time></trkpt><trkpt lat="45.6325358" lon="11.2376968"><ele>644.8</ele><time>2026-04-25T14:27:16.079Z</time></trkpt><trkpt lat="45.6325356" lon="11.2375915"><ele>642.2</ele><time>2026-04-25T14:27:18.004Z</time></trkpt><trkpt lat="45.6325376" lon="11.2374862"><ele>639.6</ele><time>2026-04-25T14:27:20.05Z</time></trkpt><trkpt lat="45.6325613" lon="11.2373968"><ele>637.0</ele><time>2026-04-25T14:27:22.122Z</time></trkpt><trkpt lat="45.632616" lon="11.2371705"><ele>638.2</ele><time>2026-04-25T14:27:25.103Z</time></trkpt><trkpt lat="45.6326523" lon="11.2370551"><ele>639.4000000000001</ele><time>2026-04-25T14:27:26.09Z</time></trkpt><trkpt lat="45.6327231" lon="11.2369585"><ele>640.5999999999999</ele><time>2026-04-25T14:27:27.965Z</time></trkpt><trkpt lat="45.6327903" lon="11.2368608"><ele>641.8</ele><time>2026-04-25T14:27:30.048Z</time></trkpt><trkpt lat="45.6328427" lon="11.236752"><ele>643.0</ele><time>2026-04-25T14:27:32.027Z</time></trkpt><trkpt lat="45.6328911" lon="11.2366567"><ele>643.0</ele><time>2026-04-25T14:27:34.099Z</time></trkpt><trkpt lat="45.6329399" lon="11.2365739"><ele>643.0</ele><time>2026-04-25T14:27:36.036Z</time></trkpt><trkpt lat="45.6329876" lon="11.2364832"><ele>643.0</ele><time>2026-04-25T14:27:38.068Z</time></trkpt><trkpt lat="45.6330049" lon="11.2363808"><ele>643.0</ele><time>2026-04-25T14:27:40.046Z</time></trkpt><trkpt lat="45.633021" lon="11.2362607"><ele>643.0</ele><time>2026-04-25T14:27:42.025Z</time></trkpt><trkpt lat="45.6330625" lon="11.2361023"><ele>643.0</ele><time>2026-04-25T14:27:44.108Z</time></trkpt><trkpt lat="45.6330858" lon="11.2359465"><ele>639.4</ele><time>2026-04-25T14:27:46.087Z</time></trkpt><trkpt lat="45.6331011" lon="11.2357963"><ele>635.8</ele><time>2026-04-25T14:27:48.066Z</time></trkpt><trkpt lat="45.6331283" lon="11.2356712"><ele>632.2</ele><time>2026-04-25T14:27:50.045Z</time></trkpt><trkpt lat="45.633153" lon="11.235551"><ele>628.6</ele><time>2026-04-25T14:27:52.008Z</time></trkpt><trkpt lat="45.6331928" lon="11.2354595"><ele>625.0</ele><time>2026-04-25T14:27:54.04Z</time></trkpt><trkpt lat="45.6332804" lon="11.2354289"><ele>618.8333333333334</ele><time>2026-04-25T14:27:56.969Z</time></trkpt><trkpt lat="45.6333587" lon="11.2354286"><ele>612.6666666666667</ele><time>2026-04-25T14:27:59.039Z</time></trkpt><trkpt lat="45.63345" lon="11.2354292"><ele>606.5</ele><time>2026-04-25T14:28:01.004Z</time></trkpt><trkpt lat="45.6335379" lon="11.2354142"><ele>600.3333333333334</ele><time>2026-04-25T14:28:03.105Z</time></trkpt><trkpt lat="45.6336165" lon="11.2353732"><ele>594.1666666666666</ele><time>2026-04-25T14:28:05.061Z</time></trkpt><trkpt lat="45.6337041" lon="11.2353389"><ele>588.0</ele><time>2026-04-25T14:28:07.11Z</time></trkpt><trkpt lat="45.6337945" lon="11.2353092"><ele>588.0</ele><time>2026-04-25T14:28:09.038Z</time></trkpt><trkpt lat="45.6338742" lon="11.235271"><ele>588.0</ele><time>2026-04-25T14:28:11.083Z</time></trkpt><trkpt lat="45.633881" lon="11.2351735"><ele>588.0</ele><time>2026-04-25T14:28:14.037Z</time></trkpt><trkpt lat="45.6337982" lon="11.2351906"><ele>588.0</ele><time>2026-04-25T14:28:17.002Z</time></trkpt><trkpt lat="45.6337248" lon="11.2352237"><ele>588.0</ele><time>2026-04-25T14:28:20.059Z</time></trkpt><trkpt lat="45.6337627" lon="11.2353456"><ele>588.0</ele><time>2026-04-25T14:28:21.081Z</time></trkpt><trkpt lat="45.6337251" lon="11.2354257"><ele>587.5</ele><time>2026-04-25T14:28:23.11Z</time></trkpt><trkpt lat="45.6336377" lon="11.2354488"><ele>587.0</ele><time>2026-04-25T14:28:25.972Z</time></trkpt><trkpt lat="45.6335566" lon="11.2354682"><ele>586.5</ele><time>2026-04-25T14:28:29.035Z</time></trkpt><trkpt lat="45.6334935" lon="11.2354339"><ele>586.0</ele><time>2026-04-25T14:28:31.073Z</time></trkpt><trkpt lat="45.6334084" lon="11.235378"><ele>585.5</ele><time>2026-04-25T14:28:34.065Z</time></trkpt><trkpt lat="45.6333175" lon="11.2353674"><ele>585.0</ele><time>2026-04-25T14:28:37.101Z</time></trkpt><trkpt lat="45.6332529" lon="11.2354033"><ele>585.0</ele><time>2026-04-25T14:28:39.033Z</time></trkpt><trkpt lat="45.6331788" lon="11.2354299"><ele>585.0</ele><time>2026-04-25T14:28:41.078Z</time></trkpt><trkpt lat="45.6331016" lon="11.2354267"><ele>585.0</ele><time>2026-04-25T14:28:43.01Z</time></trkpt><trkpt lat="45.6330286" lon="11.2354296"><ele>585.0</ele><time>2026-04-25T14:28:44.978Z</time></trkpt><trkpt lat="45.6329656" lon="11.2354718"><ele>585.0</ele><time>2026-04-25T14:28:46.97Z</time></trkpt><trkpt lat="45.6328931" lon="11.2355245"><ele>585.0</ele><time>2026-04-25T14:28:50.002Z</time></trkpt><trkpt lat="45.6328357" lon="11.2355949"><ele>587.1666666666666</ele><time>2026-04-25T14:28:52.946Z</time></trkpt><trkpt lat="45.6327562" lon="11.2356414"><ele>589.3333333333334</ele><time>2026-04-25T14:28:56.095Z</time></trkpt><trkpt lat="45.6326622" lon="11.2356392"><ele>591.5</ele><time>2026-04-25T14:28:59.049Z</time></trkpt><trkpt lat="45.6325834" lon="11.2356542"><ele>593.6666666666667</ele><time>2026-04-25T14:29:02.004Z</time></trkpt><trkpt lat="45.632521" lon="11.2356695"><ele>595.8333333333334</ele><time>2026-04-25T14:29:04.049Z</time></trkpt><trkpt lat="45.6324448" lon="11.235685"><ele>598.0</ele><time>2026-04-25T14:29:06.094Z</time></trkpt><trkpt lat="45.6323746" lon="11.2357287"><ele>598.0</ele><time>2026-04-25T14:29:08.026Z</time></trkpt><trkpt lat="45.6322916" lon="11.2357428"><ele>598.0</ele><time>2026-04-25T14:29:11.093Z</time></trkpt><trkpt lat="45.6323185" lon="11.2356514"><ele>598.0</ele><time>2026-04-25T14:29:17.109Z</time></trkpt><trkpt lat="45.632334" lon="11.2355503"><ele>598.0</ele><time>2026-04-25T14:29:21.066Z</time></trkpt><trkpt lat="45.6323582" lon="11.2354583"><ele>598.0</ele><time>2026-04-25T14:29:24.071Z</time></trkpt><trkpt lat="45.6323949" lon="11.2353562"><ele>598.0</ele><time>2026-04-25T14:29:27.002Z</time></trkpt><trkpt lat="45.6324358" lon="11.235236"><ele>594.3333333333334</ele><time>2026-04-25T14:29:30.068Z</time></trkpt><trkpt lat="45.6324498" lon="11.2351032"><ele>590.6666666666667</ele><time>2026-04-25T14:29:33.022Z</time></trkpt><trkpt lat="45.6324783" lon="11.2350099"><ele>587.0</ele><time>2026-04-25T14:29:35.067Z</time></trkpt><trkpt lat="45.6325248" lon="11.234948"><ele>583.3333333333334</ele><time>2026-04-25T14:29:37.034Z</time></trkpt><trkpt lat="45.6326087" lon="11.2349437"><ele>579.6666666666666</ele><time>2026-04-25T14:29:40.067Z</time></trkpt><trkpt lat="45.6326765" lon="11.2349267"><ele>576.0</ele><time>2026-04-25T14:29:43.021Z</time></trkpt><trkpt lat="45.6327588" lon="11.2349068"><ele>577.5</ele><time>2026-04-25T14:29:46.089Z</time></trkpt><trkpt lat="45.6328308" lon="11.2349054"><ele>579.0</ele><time>2026-04-25T14:29:48.037Z</time></trkpt><trkpt lat="45.6329073" lon="11.2348993"><ele>580.5</ele><time>2026-04-25T14:29:50.065Z</time></trkpt><trkpt lat="45.6329906" lon="11.234903"><ele>582.0</ele><time>2026-04-25T14:29:52.002Z</time></trkpt><trkpt lat="45.6330741" lon="11.2348981"><ele>583.5</ele><time>2026-04-25T14:29:54.112Z</time></trkpt><trkpt lat="45.6331513" lon="11.2348655"><ele>585.0</ele><time>2026-04-25T14:29:56.087Z</time></trkpt><trkpt lat="45.6332391" lon="11.2348463"><ele>585.0</ele><time>2026-04-25T14:29:58.019Z</time></trkpt><trkpt lat="45.6333383" lon="11.2348351"><ele>585.0</ele><time>2026-04-25T14:30:00.089Z</time></trkpt><trkpt lat="45.633436" lon="11.2348162"><ele>585.0</ele><time>2026-04-25T14:30:02.109Z</time></trkpt><trkpt lat="45.6335262" lon="11.2347639"><ele>585.0</ele><time>2026-04-25T14:30:04.041Z</time></trkpt><trkpt lat="45.6336228" lon="11.2347116"><ele>585.0</ele><time>2026-04-25T14:30:06.086Z</time></trkpt><trkpt lat="45.6337091" lon="11.23469"><ele>577.0</ele><time>2026-04-25T14:30:08.017Z</time></trkpt><trkpt lat="45.6337827" lon="11.2346915"><ele>569.0</ele><time>2026-04-25T14:30:10.063Z</time></trkpt><trkpt lat="45.633847" lon="11.2346605"><ele>561.0</ele><time>2026-04-25T14:30:12.108Z</time></trkpt><trkpt lat="45.6339123" lon="11.2346351"><ele>553.0</ele><time>2026-04-25T14:30:14.051Z</time></trkpt><trkpt lat="45.6339945" lon="11.2346254"><ele>545.0</ele><time>2026-04-25T14:30:16.111Z</time></trkpt><trkpt lat="45.6341063" lon="11.2346258"><ele>537.0</ele><time>2026-04-25T14:30:18.654Z</time></trkpt><trkpt lat="45.6341904" lon="11.2346538"><ele>536.9999999999999</ele><time>2026-04-25T14:30:20.835Z</time></trkpt><trkpt lat="45.6342624" lon="11.234692"><ele>537.0</ele><time>2026-04-25T14:30:22.99Z</time></trkpt><trkpt lat="45.634316" lon="11.234747"><ele>537.0</ele><time>2026-04-25T14:30:25.06Z</time></trkpt><trkpt lat="45.6343791" lon="11.2347605"><ele>537.0</ele><time>2026-04-25T14:30:29.068Z</time></trkpt><trkpt lat="45.6343405" lon="11.2346863"><ele>537.0</ele><time>2026-04-25T14:30:34.036Z</time></trkpt><trkpt lat="45.6342675" lon="11.2346697"><ele>536.9999999999999</ele><time>2026-04-25T14:30:50.057Z</time></trkpt><trkpt lat="45.6342072" lon="11.2346226"><ele>537.0</ele><time>2026-04-25T14:30:52.102Z</time></trkpt><trkpt lat="45.6341405" lon="11.2345865"><ele>537.0</ele><time>2026-04-25T14:30:54.034Z</time></trkpt><trkpt lat="45.634054" lon="11.2345689"><ele>537.0</ele><time>2026-04-25T14:30:56.078Z</time></trkpt><trkpt lat="45.6339702" lon="11.2345405"><ele>537.0</ele><time>2026-04-25T14:30:58.01Z</time></trkpt><trkpt lat="45.6338827" lon="11.2345267"><ele>537.0</ele><time>2026-04-25T14:31:00.055Z</time></trkpt><trkpt lat="45.6337929" lon="11.2345377"><ele>537.0</ele><time>2026-04-25T14:31:02.1Z</time></trkpt><trkpt lat="45.6337163" lon="11.2345585"><ele>537.0</ele><time>2026-04-25T14:31:04.032Z</time></trkpt><trkpt lat="45.6336532" lon="11.2345598"><ele>536.5714285714286</ele><time>2026-04-25T14:31:06.077Z</time></trkpt><trkpt lat="45.6335792" lon="11.2344738"><ele>536.1428571428571</ele><time>2026-04-25T14:31:08.969Z</time></trkpt><trkpt lat="45.6335308" lon="11.2344057"><ele>535.7142857142858</ele><time>2026-04-25T14:31:11.076Z</time></trkpt><trkpt lat="45.6334692" lon="11.2343779"><ele>535.2857142857142</ele><time>2026-04-25T14:31:13.048Z</time></trkpt><trkpt lat="45.6333962" lon="11.2343618"><ele>534.8571428571429</ele><time>2026-04-25T14:31:15.113Z</time></trkpt><trkpt lat="45.6333289" lon="11.2343451"><ele>534.4285714285714</ele><time>2026-04-25T14:31:17.098Z</time></trkpt><trkpt lat="45.6332603" lon="11.2343276"><ele>534.0</ele><time>2026-04-25T14:31:19.029Z</time></trkpt><trkpt lat="45.6331769" lon="11.234315"><ele>534.0000000000001</ele><time>2026-04-25T14:31:21.075Z</time></trkpt><trkpt lat="45.6331027" lon="11.234305"><ele>534.0</ele><time>2026-04-25T14:31:23.032Z</time></trkpt><trkpt lat="45.6330309" lon="11.2342956"><ele>534.0</ele><time>2026-04-25T14:31:25.051Z</time></trkpt><trkpt lat="45.63296" lon="11.2342756"><ele>534.0</ele><time>2026-04-25T14:31:27.096Z</time></trkpt><trkpt lat="45.6328865" lon="11.2342626"><ele>534.0</ele><time>2026-04-25T14:31:29.028Z</time></trkpt><trkpt lat="45.6328099" lon="11.2342386"><ele>534.0000000000001</ele><time>2026-04-25T14:31:31.073Z</time></trkpt><trkpt lat="45.6327462" lon="11.2341963"><ele>534.0</ele><time>2026-04-25T14:31:32.99Z</time></trkpt><trkpt lat="45.6326834" lon="11.2341545"><ele>534.5</ele><time>2026-04-25T14:31:35.05Z</time></trkpt><trkpt lat="45.6326213" lon="11.2341262"><ele>535.0</ele><time>2026-04-25T14:31:37.095Z</time></trkpt><trkpt lat="45.632528" lon="11.2341021"><ele>535.5</ele><time>2026-04-25T14:31:40.049Z</time></trkpt><trkpt lat="45.6324528" lon="11.2341034"><ele>536.0</ele><time>2026-04-25T14:31:42.094Z</time></trkpt><trkpt lat="45.6323766" lon="11.234088"><ele>536.5</ele><time>2026-04-25T14:31:44.026Z</time></trkpt><trkpt lat="45.632311" lon="11.2340465"><ele>537.0</ele><time>2026-04-25T14:31:46.071Z</time></trkpt><trkpt lat="45.6322519" lon="11.2339763"><ele>531.3333333333334</ele><time>2026-04-25T14:31:48.116Z</time></trkpt><trkpt lat="45.6321955" lon="11.2338999"><ele>525.6666666666666</ele><time>2026-04-25T14:31:50.048Z</time></trkpt><trkpt lat="45.6321321" lon="11.2338392"><ele>520.0</ele><time>2026-04-25T14:31:52.093Z</time></trkpt><trkpt lat="45.6320589" lon="11.2338102"><ele>514.3333333333333</ele><time>2026-04-25T14:31:54.024Z</time></trkpt><trkpt lat="45.6319973" lon="11.2337344"><ele>508.66666666666663</ele><time>2026-04-25T14:31:56.07Z</time></trkpt><trkpt lat="45.6319504" lon="11.2336049"><ele>503.0</ele><time>2026-04-25T14:31:58.002Z</time></trkpt><trkpt lat="45.6319025" lon="11.2334735"><ele>502.99999999999994</ele><time>2026-04-25T14:32:00.046Z</time></trkpt><trkpt lat="45.6318329" lon="11.2333997"><ele>503.0</ele><time>2026-04-25T14:32:02.091Z</time></trkpt><trkpt lat="45.6317684" lon="11.2333878"><ele>503.0</ele><time>2026-04-25T14:32:04.023Z</time></trkpt><trkpt lat="45.6317004" lon="11.2334146"><ele>503.0</ele><time>2026-04-25T14:32:06.068Z</time></trkpt><trkpt lat="45.6316411" lon="11.2334741"><ele>502.99999999999994</ele><time>2026-04-25T14:32:09.022Z</time></trkpt><trkpt lat="45.6315844" lon="11.2335219"><ele>503.0</ele><time>2026-04-25T14:32:16.067Z</time></trkpt><trkpt lat="45.6316517" lon="11.233375"><ele>503.0</ele><time>2026-04-25T14:32:19.002Z</time></trkpt><trkpt lat="45.63162" lon="11.2334633"><ele>503.00000000000006</ele><time>2026-04-25T14:32:31.002Z</time></trkpt><trkpt lat="45.6316033" lon="11.2335733"><ele>503.0</ele><time>2026-04-25T14:32:35.002Z</time></trkpt><trkpt lat="45.63155" lon="11.2336417"><ele>503.0</ele><time>2026-04-25T14:32:38.002Z</time></trkpt><trkpt lat="45.63149" lon="11.233575"><ele>503.00000000000006</ele><time>2026-04-25T14:32:43.002Z</time></trkpt><trkpt lat="45.631485" lon="11.23348"><ele>503.0</ele><time>2026-04-25T14:32:46.002Z</time></trkpt><trkpt lat="45.6314783" lon="11.23339"><ele>503.0</ele><time>2026-04-25T14:32:48.002Z</time></trkpt><trkpt lat="45.6315067" lon="11.2332667"><ele>502.99999999999994</ele><time>2026-04-25T14:32:50.002Z</time></trkpt><trkpt lat="45.6315417" lon="11.23316"><ele>503.0</ele><time>2026-04-25T14:32:52.002Z</time></trkpt><trkpt lat="45.63159" lon="11.2330917"><ele>503.0</ele><time>2026-04-25T14:32:54.002Z</time></trkpt><trkpt lat="45.6316783" lon="11.2330367"><ele>503.0</ele><time>2026-04-25T14:32:57.002Z</time></trkpt><trkpt lat="45.6317633" lon="11.23302"><ele>502.99999999999994</ele><time>2026-04-25T14:32:59.002Z</time></trkpt><trkpt lat="45.63183" lon="11.2330233"><ele>503.0</ele><time>2026-04-25T14:33:01.002Z</time></trkpt><trkpt lat="45.6319133" lon="11.2330633"><ele>502.0</ele><time>2026-04-25T14:33:03.002Z</time></trkpt><trkpt lat="45.6320017" lon="11.2331317"><ele>500.99999999999994</ele><time>2026-04-25T14:33:05.002Z</time></trkpt><trkpt lat="45.6320883" lon="11.2332167"><ele>499.99999999999994</ele><time>2026-04-25T14:33:07.002Z</time></trkpt><trkpt lat="45.6321733" lon="11.2332883"><ele>499.0</ele><time>2026-04-25T14:33:09.002Z</time></trkpt><trkpt lat="45.6322483" lon="11.2333383"><ele>498.0</ele><time>2026-04-25T14:33:11.002Z</time></trkpt><trkpt lat="45.6323167" lon="11.2333567"><ele>498.0</ele><time>2026-04-25T14:33:13.002Z</time></trkpt><trkpt lat="45.632395" lon="11.23336"><ele>497.99999999999994</ele><time>2026-04-25T14:33:15.002Z</time></trkpt><trkpt lat="45.6324833" lon="11.2333167"><ele>497.99999999999994</ele><time>2026-04-25T14:33:17.002Z</time></trkpt><trkpt lat="45.632585" lon="11.2332567"><ele>498.0</ele><time>2026-04-25T14:33:19.002Z</time></trkpt><trkpt lat="45.632695" lon="11.233205"><ele>498.0</ele><time>2026-04-25T14:33:21.002Z</time></trkpt><trkpt lat="45.632755" lon="11.23317"><ele>493.0</ele><time>2026-04-25T14:33:22.002Z</time></trkpt><trkpt lat="45.6328167" lon="11.2331367"><ele>487.99999999999994</ele><time>2026-04-25T14:33:23.002Z</time></trkpt><trkpt lat="45.63294" lon="11.2330917"><ele>482.99999999999994</ele><time>2026-04-25T14:33:25.002Z</time></trkpt><trkpt lat="45.6330583" lon="11.2330683"><ele>478.0</ele><time>2026-04-25T14:33:27.002Z</time></trkpt><trkpt lat="45.6331583" lon="11.2330333"><ele>473.0</ele><time>2026-04-25T14:33:29.002Z</time></trkpt><trkpt lat="45.633265" lon="11.2329867"><ele>473.0</ele><time>2026-04-25T14:33:31.002Z</time></trkpt><trkpt lat="45.6333683" lon="11.2329617"><ele>472.99999999999994</ele><time>2026-04-25T14:33:33.002Z</time></trkpt><trkpt lat="45.6334667" lon="11.2328967"><ele>472.99999999999994</ele><time>2026-04-25T14:33:35.002Z</time></trkpt><trkpt lat="45.633585" lon="11.2328783"><ele>473.0</ele><time>2026-04-25T14:33:37.002Z</time></trkpt><trkpt lat="45.6336533" lon="11.23287"><ele>473.0</ele><time>2026-04-25T14:33:38.002Z</time></trkpt><trkpt lat="45.63372" lon="11.232855"><ele>476.59999999999997</ele><time>2026-04-25T14:33:39.002Z</time></trkpt><trkpt lat="45.633835" lon="11.2327967"><ele>480.19999999999993</ele><time>2026-04-25T14:33:41.002Z</time></trkpt><trkpt lat="45.6339183" lon="11.2327883"><ele>483.8</ele><time>2026-04-25T14:33:43.002Z</time></trkpt><trkpt lat="45.63404" lon="11.2326183"><ele>487.4</ele><time>2026-04-25T14:34:14.001Z</time></trkpt><trkpt lat="45.63398" lon="11.232575"><ele>491.0</ele><time>2026-04-25T14:34:21.001Z</time></trkpt><trkpt lat="45.633915" lon="11.2326133"><ele>490.99999999999994</ele><time>2026-04-25T14:34:26.001Z</time></trkpt><trkpt lat="45.6338367" lon="11.2325783"><ele>491.0</ele><time>2026-04-25T14:34:30.001Z</time></trkpt><trkpt lat="45.6337633" lon="11.2325533"><ele>491.0</ele><time>2026-04-25T14:34:35.001Z</time></trkpt><trkpt lat="45.6336967" lon="11.2325167"><ele>491.0</ele><time>2026-04-25T14:34:39.001Z</time></trkpt><trkpt lat="45.6336367" lon="11.23244"><ele>490.99999999999994</ele><time>2026-04-25T14:34:46.001Z</time></trkpt><trkpt lat="45.6335733" lon="11.2323733"><ele>491.0</ele><time>2026-04-25T14:34:50.001Z</time></trkpt><trkpt lat="45.6335133" lon="11.2323083"><ele>490.20000000000005</ele><time>2026-04-25T14:34:54.001Z</time></trkpt><trkpt lat="45.63344" lon="11.232265"><ele>489.40000000000003</ele><time>2026-04-25T14:34:56.001Z</time></trkpt><trkpt lat="45.6333467" lon="11.2322533"><ele>488.6</ele><time>2026-04-25T14:34:58.001Z</time></trkpt><trkpt lat="45.6332533" lon="11.2322233"><ele>487.8</ele><time>2026-04-25T14:35:00.001Z</time></trkpt><trkpt lat="45.6331467" lon="11.2321883"><ele>487.0</ele><time>2026-04-25T14:35:02.002Z</time></trkpt><trkpt lat="45.6330383" lon="11.2321433"><ele>487.00000000000006</ele><time>2026-04-25T14:35:04.001Z</time></trkpt><trkpt lat="45.63298" lon="11.2321"><ele>487.0</ele><time>2026-04-25T14:35:05.001Z</time></trkpt><trkpt lat="45.6328917" lon="11.231995"><ele>487.0</ele><time>2026-04-25T14:35:07.001Z</time></trkpt><trkpt lat="45.6328317" lon="11.231935"><ele>487.0</ele><time>2026-04-25T14:35:08.001Z</time></trkpt><trkpt lat="45.6327617" lon="11.2318883"><ele>487.00000000000006</ele><time>2026-04-25T14:35:09.001Z</time></trkpt><trkpt lat="45.632705" lon="11.23184"><ele>487.0</ele><time>2026-04-25T14:35:10.001Z</time></trkpt><trkpt lat="45.6326133" lon="11.2317783"><ele>488.20000000000005</ele><time>2026-04-25T14:35:12.001Z</time></trkpt><trkpt lat="45.6325433" lon="11.2317317"><ele>489.40000000000003</ele><time>2026-04-25T14:35:14.001Z</time></trkpt><trkpt lat="45.63249" lon="11.23165"><ele>490.59999999999997</ele><time>2026-04-25T14:35:16.001Z</time></trkpt><trkpt lat="45.6324317" lon="11.2315367"><ele>491.79999999999995</ele><time>2026-04-25T14:35:18.001Z</time></trkpt><trkpt lat="45.6323767" lon="11.231395"><ele>493.0</ele><time>2026-04-25T14:35:20.001Z</time></trkpt><trkpt lat="45.63233" lon="11.2312833"><ele>493.00000000000006</ele><time>2026-04-25T14:35:22.001Z</time></trkpt><trkpt lat="45.6323" lon="11.2311767"><ele>493.0</ele><time>2026-04-25T14:35:24.001Z</time></trkpt><trkpt lat="45.6322683" lon="11.231065"><ele>493.0</ele><time>2026-04-25T14:35:26.001Z</time></trkpt><trkpt lat="45.6322317" lon="11.230945"><ele>493.0</ele><time>2026-04-25T14:35:28.001Z</time></trkpt><trkpt lat="45.632185" lon="11.2308167"><ele>493.00000000000006</ele><time>2026-04-25T14:35:30.001Z</time></trkpt><trkpt lat="45.6321467" lon="11.2307083"><ele>493.0</ele><time>2026-04-25T14:35:32.001Z</time></trkpt><trkpt lat="45.63211" lon="11.2306317"><ele>492.83333333333337</ele><time>2026-04-25T14:35:34.001Z</time></trkpt><trkpt lat="45.6320883" lon="11.23054"><ele>492.6666666666667</ele><time>2026-04-25T14:35:36.001Z</time></trkpt><trkpt lat="45.63205" lon="11.2304183"><ele>492.5</ele><time>2026-04-25T14:35:39.001Z</time></trkpt><trkpt lat="45.6320233" lon="11.2303283"><ele>492.33333333333337</ele><time>2026-04-25T14:35:41.001Z</time></trkpt><trkpt lat="45.63197" lon="11.23024"><ele>492.1666666666667</ele><time>2026-04-25T14:35:44.001Z</time></trkpt><trkpt lat="45.6318767" lon="11.230245"><ele>492.0</ele><time>2026-04-25T14:35:47.001Z</time></trkpt><trkpt lat="45.6318133" lon="11.2302567"><ele>492.0</ele><time>2026-04-25T14:35:49.002Z</time></trkpt><trkpt lat="45.6317217" lon="11.2302417"><ele>492.00000000000006</ele><time>2026-04-25T14:35:51.001Z</time></trkpt><trkpt lat="45.6316133" lon="11.23025"><ele>492.00000000000006</ele><time>2026-04-25T14:35:53.001Z</time></trkpt><trkpt lat="45.6315483" lon="11.2302283"><ele>492.0</ele><time>2026-04-25T14:35:54.001Z</time></trkpt><trkpt lat="45.6314833" lon="11.2302167"><ele>492.0</ele><time>2026-04-25T14:35:55.001Z</time></trkpt><trkpt lat="45.63137" lon="11.2301717"><ele>492.0</ele><time>2026-04-25T14:35:57.001Z</time></trkpt><trkpt lat="45.6312567" lon="11.2301433"><ele>492.00000000000006</ele><time>2026-04-25T14:35:59.001Z</time></trkpt><trkpt lat="45.631145" lon="11.2301183"><ele>492.00000000000006</ele><time>2026-04-25T14:36:01.001Z</time></trkpt><trkpt lat="45.63108" lon="11.2300983"><ele>492.0</ele><time>2026-04-25T14:36:02.001Z</time></trkpt><trkpt lat="45.6309617" lon="11.2300433"><ele>492.0</ele><time>2026-04-25T14:36:04.002Z</time></trkpt><trkpt lat="45.6308567" lon="11.229995"><ele>490.6</ele><time>2026-04-25T14:36:06.001Z</time></trkpt><trkpt lat="45.6307317" lon="11.2299533"><ele>489.20000000000005</ele><time>2026-04-25T14:36:08.001Z</time></trkpt><trkpt lat="45.630655" lon="11.2299467"><ele>487.8</ele><time>2026-04-25T14:36:09.001Z</time></trkpt><trkpt lat="45.6305783" lon="11.2299383"><ele>486.4</ele><time>2026-04-25T14:36:10.001Z</time></trkpt><trkpt lat="45.6305133" lon="11.2299017"><ele>485.0</ele><time>2026-04-25T14:36:11.001Z</time></trkpt><trkpt lat="45.6304083" lon="11.22986"><ele>485.0</ele><time>2026-04-25T14:36:13.001Z</time></trkpt><trkpt lat="45.6303167" lon="11.2297867"><ele>485.0</ele><time>2026-04-25T14:36:15.001Z</time></trkpt><trkpt lat="45.6302367" lon="11.2296583"><ele>485.0</ele><time>2026-04-25T14:36:17.001Z</time></trkpt><trkpt lat="45.6301683" lon="11.2295367"><ele>485.0</ele><time>2026-04-25T14:36:19.001Z</time></trkpt><trkpt lat="45.6301033" lon="11.2294033"><ele>485.0</ele><time>2026-04-25T14:36:21.001Z</time></trkpt><trkpt lat="45.6300617" lon="11.229335"><ele>484.99999999999994</ele><time>2026-04-25T14:36:22.001Z</time></trkpt><trkpt lat="45.6300083" lon="11.229275"><ele>485.0</ele><time>2026-04-25T14:36:23.001Z</time></trkpt><trkpt lat="45.62996" lon="11.229215"><ele>485.0</ele><time>2026-04-25T14:36:24.001Z</time></trkpt><trkpt lat="45.6299033" lon="11.2291567"><ele>485.0</ele><time>2026-04-25T14:36:25.001Z</time></trkpt><trkpt lat="45.629855" lon="11.2290983"><ele>484.99999999999994</ele><time>2026-04-25T14:36:26.001Z</time></trkpt><trkpt lat="45.6297483" lon="11.229005"><ele>485.0</ele><time>2026-04-25T14:36:28.001Z</time></trkpt><trkpt lat="45.62969" lon="11.228955"><ele>484.7142857142858</ele><time>2026-04-25T14:36:29.001Z</time></trkpt><trkpt lat="45.6296367" lon="11.2288933"><ele>484.42857142857144</ele><time>2026-04-25T14:36:30.001Z</time></trkpt><trkpt lat="45.6295917" lon="11.2288217"><ele>484.14285714285717</ele><time>2026-04-25T14:36:31.001Z</time></trkpt><trkpt lat="45.62954" lon="11.228765"><ele>483.8571428571429</ele><time>2026-04-25T14:36:32.001Z</time></trkpt><trkpt lat="45.62949" lon="11.2286933"><ele>483.57142857142856</ele><time>2026-04-25T14:36:33.001Z</time></trkpt><trkpt lat="45.629435" lon="11.22862"><ele>483.2857142857143</ele><time>2026-04-25T14:36:34.001Z</time></trkpt><trkpt lat="45.62937" lon="11.2285517"><ele>483.0</ele><time>2026-04-25T14:36:35.001Z</time></trkpt><trkpt lat="45.6292983" lon="11.228485"><ele>483.0</ele><time>2026-04-25T14:36:36.001Z</time></trkpt><trkpt lat="45.629215" lon="11.228415"><ele>482.99999999999994</ele><time>2026-04-25T14:36:37.001Z</time></trkpt><trkpt lat="45.6291317" lon="11.228355"><ele>482.99999999999994</ele><time>2026-04-25T14:36:38.001Z</time></trkpt><trkpt lat="45.6290433" lon="11.22831"><ele>483.0</ele><time>2026-04-25T14:36:39.001Z</time></trkpt><trkpt lat="45.628955" lon="11.2282733"><ele>483.0</ele><time>2026-04-25T14:36:40.001Z</time></trkpt><trkpt lat="45.6288667" lon="11.2282433"><ele>483.0</ele><time>2026-04-25T14:36:41.001Z</time></trkpt><trkpt lat="45.6287817" lon="11.2282033"><ele>483.0</ele><time>2026-04-25T14:36:42.001Z</time></trkpt><trkpt lat="45.6287" lon="11.228165"><ele>483.0</ele><time>2026-04-25T14:36:43.001Z</time></trkpt><trkpt lat="45.6286217" lon="11.2281233"><ele>483.0</ele><time>2026-04-25T14:36:44.001Z</time></trkpt><trkpt lat="45.62855" lon="11.2280767"><ele>483.0</ele><time>2026-04-25T14:36:45.001Z</time></trkpt><trkpt lat="45.6284817" lon="11.22803"><ele>483.0</ele><time>2026-04-25T14:36:46.001Z</time></trkpt><trkpt lat="45.628415" lon="11.2279783"><ele>485.3333333333333</ele><time>2026-04-25T14:36:47.001Z</time></trkpt><trkpt lat="45.6283533" lon="11.22793"><ele>487.66666666666663</ele><time>2026-04-25T14:36:48.001Z</time></trkpt><trkpt lat="45.628295" lon="11.2278883"><ele>490.0</ele><time>2026-04-25T14:36:49.001Z</time></trkpt><trkpt lat="45.6282333" lon="11.227835"><ele>492.3333333333333</ele><time>2026-04-25T14:36:50.001Z</time></trkpt><trkpt lat="45.6281633" lon="11.2277783"><ele>494.66666666666663</ele><time>2026-04-25T14:36:51.001Z</time></trkpt><trkpt lat="45.6280867" lon="11.2277333"><ele>497.0</ele><time>2026-04-25T14:36:52.001Z</time></trkpt><trkpt lat="45.6280067" lon="11.2276933"><ele>496.99999999999994</ele><time>2026-04-25T14:36:53.001Z</time></trkpt><trkpt lat="45.6279267" lon="11.2276733"><ele>497.0</ele><time>2026-04-25T14:36:54.001Z</time></trkpt><trkpt lat="45.627845" lon="11.227655"><ele>497.0</ele><time>2026-04-25T14:36:55.001Z</time></trkpt><trkpt lat="45.6277617" lon="11.227655"><ele>497.0</ele><time>2026-04-25T14:36:56.001Z</time></trkpt><trkpt lat="45.6276767" lon="11.2276717"><ele>496.99999999999994</ele><time>2026-04-25T14:36:57.001Z</time></trkpt><trkpt lat="45.62759" lon="11.2277017"><ele>497.0</ele><time>2026-04-25T14:36:58.001Z</time></trkpt><trkpt lat="45.6275067" lon="11.22773"><ele>495.49999999999994</ele><time>2026-04-25T14:36:59.001Z</time></trkpt><trkpt lat="45.6274217" lon="11.22774"><ele>494.0</ele><time>2026-04-25T14:37:00.001Z</time></trkpt><trkpt lat="45.6273417" lon="11.2277467"><ele>492.5</ele><time>2026-04-25T14:37:01.001Z</time></trkpt><trkpt lat="45.62727" lon="11.22776"><ele>491.0</ele><time>2026-04-25T14:37:02.001Z</time></trkpt><trkpt lat="45.6271933" lon="11.22776"><ele>489.49999999999994</ele><time>2026-04-25T14:37:03.001Z</time></trkpt><trkpt lat="45.6271183" lon="11.22775"><ele>488.0</ele><time>2026-04-25T14:37:04.001Z</time></trkpt><trkpt lat="45.6270517" lon="11.2277367"><ele>486.25</ele><time>2026-04-25T14:37:05.001Z</time></trkpt><trkpt lat="45.626945" lon="11.2277167"><ele>484.5</ele><time>2026-04-25T14:37:07.001Z</time></trkpt><trkpt lat="45.626875" lon="11.2276933"><ele>482.75</ele><time>2026-04-25T14:37:09.001Z</time></trkpt><trkpt lat="45.6267067" lon="11.2276367"><ele>481.0</ele><time>2026-04-25T14:37:21.001Z</time></trkpt><trkpt lat="45.6265967" lon="11.2275967"><ele>481.0</ele><time>2026-04-25T14:37:23.001Z</time></trkpt><trkpt lat="45.6265117" lon="11.227555"><ele>481.0</ele><time>2026-04-25T14:37:24.001Z</time></trkpt><trkpt lat="45.6264183" lon="11.2275067"><ele>481.0</ele><time>2026-04-25T14:37:25.001Z</time></trkpt><trkpt lat="45.62631" lon="11.2274667"><ele>481.0</ele><time>2026-04-25T14:37:26.001Z</time></trkpt><trkpt lat="45.62622" lon="11.2274083"><ele>481.0</ele><time>2026-04-25T14:37:27.001Z</time></trkpt><trkpt lat="45.6261267" lon="11.22735"><ele>482.20000000000005</ele><time>2026-04-25T14:37:28.001Z</time></trkpt><trkpt lat="45.62604" lon="11.2272967"><ele>483.40000000000003</ele><time>2026-04-25T14:37:29.001Z</time></trkpt><trkpt lat="45.625955" lon="11.2272517"><ele>484.6</ele><time>2026-04-25T14:37:30.001Z</time></trkpt><trkpt lat="45.6258667" lon="11.2272083"><ele>485.8</ele><time>2026-04-25T14:37:31.001Z</time></trkpt><trkpt lat="45.62577" lon="11.22718"><ele>487.0</ele><time>2026-04-25T14:37:32.001Z</time></trkpt><trkpt lat="45.6256767" lon="11.22716"><ele>487.0</ele><time>2026-04-25T14:37:33.001Z</time></trkpt><trkpt lat="45.6255817" lon="11.2271317"><ele>487.00000000000006</ele><time>2026-04-25T14:37:34.001Z</time></trkpt><trkpt lat="45.6254883" lon="11.227105"><ele>487.00000000000006</ele><time>2026-04-25T14:37:35.001Z</time></trkpt><trkpt lat="45.6254" lon="11.2270783"><ele>487.0</ele><time>2026-04-25T14:37:36.001Z</time></trkpt><trkpt lat="45.6253067" lon="11.22704"><ele>487.0</ele><time>2026-04-25T14:37:37.001Z</time></trkpt><trkpt lat="45.6252167" lon="11.2269917"><ele>483.40000000000003</ele><time>2026-04-25T14:37:38.001Z</time></trkpt><trkpt lat="45.6251317" lon="11.2269467"><ele>479.80000000000007</ele><time>2026-04-25T14:37:39.001Z</time></trkpt><trkpt lat="45.6250617" lon="11.2268633"><ele>476.2</ele><time>2026-04-25T14:37:40.001Z</time></trkpt><trkpt lat="45.6249933" lon="11.2267633"><ele>472.6</ele><time>2026-04-25T14:37:41.001Z</time></trkpt><trkpt lat="45.6249267" lon="11.2266733"><ele>469.0</ele><time>2026-04-25T14:37:42.001Z</time></trkpt><trkpt lat="45.624855" lon="11.2265733"><ele>468.0</ele><time>2026-04-25T14:37:43.001Z</time></trkpt><trkpt lat="45.62478" lon="11.2264767"><ele>467.0</ele><time>2026-04-25T14:37:44.001Z</time></trkpt><trkpt lat="45.6247083" lon="11.2263767"><ele>466.0</ele><time>2026-04-25T14:37:45.001Z</time></trkpt><trkpt lat="45.624625" lon="11.2262867"><ele>465.0</ele><time>2026-04-25T14:37:46.001Z</time></trkpt><trkpt lat="45.624535" lon="11.2262083"><ele>464.0</ele><time>2026-04-25T14:37:47.001Z</time></trkpt><trkpt lat="45.62444" lon="11.2261367"><ele>464.0</ele><time>2026-04-25T14:37:48.001Z</time></trkpt><trkpt lat="45.62435" lon="11.2260817"><ele>464.0</ele><time>2026-04-25T14:37:49.001Z</time></trkpt><trkpt lat="45.624255" lon="11.2259883"><ele>464.0</ele><time>2026-04-25T14:37:50.001Z</time></trkpt><trkpt lat="45.6241667" lon="11.225885"><ele>464.0</ele><time>2026-04-25T14:37:51.001Z</time></trkpt><trkpt lat="45.6240717" lon="11.22577"><ele>471.0</ele><time>2026-04-25T14:37:52.001Z</time></trkpt><trkpt lat="45.62399" lon="11.225605"><ele>478.0</ele><time>2026-04-25T14:37:53.001Z</time></trkpt><trkpt lat="45.6239017" lon="11.2254933"><ele>485.0</ele><time>2026-04-25T14:37:54.001Z</time></trkpt><trkpt lat="45.6238017" lon="11.2254033"><ele>492.0</ele><time>2026-04-25T14:37:55.001Z</time></trkpt><trkpt lat="45.6237033" lon="11.22532"><ele>484.75</ele><time>2026-04-25T14:37:56.001Z</time></trkpt><trkpt lat="45.6236017" lon="11.2252433"><ele>477.5</ele><time>2026-04-25T14:37:57.001Z</time></trkpt><trkpt lat="45.6235033" lon="11.2251667"><ele>470.25</ele><time>2026-04-25T14:37:58.001Z</time></trkpt><trkpt lat="45.6234083" lon="11.2250867"><ele>463.0</ele><time>2026-04-25T14:37:59.001Z</time></trkpt><trkpt lat="45.6233067" lon="11.2250117"><ele>463.0</ele><time>2026-04-25T14:38:00.001Z</time></trkpt><trkpt lat="45.623215" lon="11.22492"><ele>462.99999999999994</ele><time>2026-04-25T14:38:01.001Z</time></trkpt><trkpt lat="45.623125" lon="11.22483"><ele>462.99999999999994</ele><time>2026-04-25T14:38:02.001Z</time></trkpt><trkpt lat="45.62305" lon="11.224735"><ele>463.0</ele><time>2026-04-25T14:38:03.001Z</time></trkpt><trkpt lat="45.62298" lon="11.2246433"><ele>463.0</ele><time>2026-04-25T14:38:04.001Z</time></trkpt><trkpt lat="45.6229283" lon="11.224545"><ele>463.1666666666667</ele><time>2026-04-25T14:38:05.001Z</time></trkpt><trkpt lat="45.622895" lon="11.224445"><ele>463.33333333333337</ele><time>2026-04-25T14:38:06.001Z</time></trkpt><trkpt lat="45.6228783" lon="11.22433"><ele>463.5</ele><time>2026-04-25T14:38:07.001Z</time></trkpt><trkpt lat="45.622865" lon="11.2242367"><ele>463.66666666666663</ele><time>2026-04-25T14:38:08.001Z</time></trkpt><trkpt lat="45.6228783" lon="11.2241333"><ele>463.8333333333333</ele><time>2026-04-25T14:38:09.002Z</time></trkpt><trkpt lat="45.6229217" lon="11.22402"><ele>464.0</ele><time>2026-04-25T14:38:10.001Z</time></trkpt><trkpt lat="45.623" lon="11.22389"><ele>458.25</ele><time>2026-04-25T14:38:11.001Z</time></trkpt><trkpt lat="45.6231467" lon="11.2238017"><ele>452.5</ele><time>2026-04-25T14:38:12.001Z</time></trkpt><trkpt lat="45.6232733" lon="11.2237133"><ele>446.75</ele><time>2026-04-25T14:38:13.001Z</time></trkpt><trkpt lat="45.6233883" lon="11.2236417"><ele>441.0</ele><time>2026-04-25T14:38:14.001Z</time></trkpt><trkpt lat="45.6235033" lon="11.223555"><ele>441.0</ele><time>2026-04-25T14:38:15.001Z</time></trkpt><trkpt lat="45.623625" lon="11.2234717"><ele>441.0</ele><time>2026-04-25T14:38:16.001Z</time></trkpt><trkpt lat="45.62374" lon="11.2233917"><ele>441.0</ele><time>2026-04-25T14:38:17.001Z</time></trkpt><trkpt lat="45.623855" lon="11.2233067"><ele>441.0</ele><time>2026-04-25T14:38:18.001Z</time></trkpt><trkpt lat="45.623955" lon="11.2231967"><ele>441.25</ele><time>2026-04-25T14:38:19.001Z</time></trkpt><trkpt lat="45.62404" lon="11.2230783"><ele>441.5</ele><time>2026-04-25T14:38:20.001Z</time></trkpt><trkpt lat="45.62412" lon="11.2229567"><ele>441.75</ele><time>2026-04-25T14:38:21.001Z</time></trkpt><trkpt lat="45.6242017" lon="11.22284"><ele>442.0</ele><time>2026-04-25T14:38:22.001Z</time></trkpt><trkpt lat="45.6242733" lon="11.222715"><ele>442.00000000000006</ele><time>2026-04-25T14:38:23.001Z</time></trkpt><trkpt lat="45.6243467" lon="11.2226317"><ele>442.0</ele><time>2026-04-25T14:38:24.001Z</time></trkpt><trkpt lat="45.62441" lon="11.2225317"><ele>442.0</ele><time>2026-04-25T14:38:25.001Z</time></trkpt><trkpt lat="45.624465" lon="11.2224433"><ele>442.0</ele><time>2026-04-25T14:38:26.001Z</time></trkpt><trkpt lat="45.62451" lon="11.2223533"><ele>442.00000000000006</ele><time>2026-04-25T14:38:27.001Z</time></trkpt><trkpt lat="45.624535" lon="11.2222667"><ele>442.0</ele><time>2026-04-25T14:38:28.001Z</time></trkpt><trkpt lat="45.6245" lon="11.2221117"><ele>442.0</ele><time>2026-04-25T14:38:30.002Z</time></trkpt><trkpt lat="45.6243883" lon="11.2220633"><ele>442.0</ele><time>2026-04-25T14:38:32.001Z</time></trkpt><trkpt lat="45.6243017" lon="11.2221233"><ele>442.0</ele><time>2026-04-25T14:38:33.001Z</time></trkpt><trkpt lat="45.6242167" lon="11.2222433"><ele>442.0</ele><time>2026-04-25T14:38:34.001Z</time></trkpt><trkpt lat="45.6241267" lon="11.222395"><ele>442.0</ele><time>2026-04-25T14:38:35.001Z</time></trkpt><trkpt lat="45.624055" lon="11.222555"><ele>442.0</ele><time>2026-04-25T14:38:36.001Z</time></trkpt><trkpt lat="45.6239983" lon="11.2226983"><ele>442.0</ele><time>2026-04-25T14:38:37.001Z</time></trkpt><trkpt lat="45.6239383" lon="11.2228283"><ele>442.0</ele><time>2026-04-25T14:38:38.001Z</time></trkpt><trkpt lat="45.62387" lon="11.2229533"><ele>442.0</ele><time>2026-04-25T14:38:39.001Z</time></trkpt><trkpt lat="45.62379" lon="11.223055"><ele>442.00000000000006</ele><time>2026-04-25T14:38:40.001Z</time></trkpt><trkpt lat="45.623705" lon="11.22315"><ele>442.00000000000006</ele><time>2026-04-25T14:38:41.001Z</time></trkpt><trkpt lat="45.6236117" lon="11.2232267"><ele>442.0</ele><time>2026-04-25T14:38:42.001Z</time></trkpt><trkpt lat="45.623505" lon="11.2232767"><ele>442.0</ele><time>2026-04-25T14:38:43.001Z</time></trkpt><trkpt lat="45.6233967" lon="11.223315"><ele>441.75</ele><time>2026-04-25T14:38:44.001Z</time></trkpt><trkpt lat="45.623285" lon="11.2233533"><ele>441.5</ele><time>2026-04-25T14:38:45.001Z</time></trkpt><trkpt lat="45.6231767" lon="11.2234217"><ele>441.25</ele><time>2026-04-25T14:38:46.001Z</time></trkpt><trkpt lat="45.6230683" lon="11.223495"><ele>441.0</ele><time>2026-04-25T14:38:47.001Z</time></trkpt><trkpt lat="45.6229517" lon="11.2235533"><ele>441.0</ele><time>2026-04-25T14:38:48.001Z</time></trkpt><trkpt lat="45.6228383" lon="11.2236283"><ele>441.0</ele><time>2026-04-25T14:38:49.001Z</time></trkpt><trkpt lat="45.6227267" lon="11.2237183"><ele>441.0</ele><time>2026-04-25T14:38:50.001Z</time></trkpt><trkpt lat="45.622625" lon="11.223815"><ele>441.0</ele><time>2026-04-25T14:38:51.001Z</time></trkpt><trkpt lat="45.6225333" lon="11.22393"><ele>440.0</ele><time>2026-04-25T14:38:52.001Z</time></trkpt><trkpt lat="45.622425" lon="11.2240183"><ele>439.0</ele><time>2026-04-25T14:38:53.001Z</time></trkpt><trkpt lat="45.6223067" lon="11.2240617"><ele>438.0</ele><time>2026-04-25T14:38:54.001Z</time></trkpt><trkpt lat="45.6222067" lon="11.2241183"><ele>437.0</ele><time>2026-04-25T14:38:55.001Z</time></trkpt><trkpt lat="45.6220967" lon="11.22417"><ele>437.0</ele><time>2026-04-25T14:38:56.001Z</time></trkpt><trkpt lat="45.6219833" lon="11.224215"><ele>437.0</ele><time>2026-04-25T14:38:57.001Z</time></trkpt><trkpt lat="45.6218683" lon="11.22426"><ele>437.0</ele><time>2026-04-25T14:38:58.001Z</time></trkpt><trkpt lat="45.6217667" lon="11.2243317"><ele>437.0</ele><time>2026-04-25T14:38:59.001Z</time></trkpt><trkpt lat="45.6216633" lon="11.22437"><ele>431.6</ele><time>2026-04-25T14:39:00.001Z</time></trkpt><trkpt lat="45.6215617" lon="11.2244017"><ele>426.20000000000005</ele><time>2026-04-25T14:39:01.001Z</time></trkpt><trkpt lat="45.6214583" lon="11.224415"><ele>420.8</ele><time>2026-04-25T14:39:02.001Z</time></trkpt><trkpt lat="45.62137" lon="11.2244417"><ele>415.4</ele><time>2026-04-25T14:39:03.001Z</time></trkpt><trkpt lat="45.62129" lon="11.2244867"><ele>410.0</ele><time>2026-04-25T14:39:04.001Z</time></trkpt><trkpt lat="45.62121" lon="11.22453"><ele>409.8333333333333</ele><time>2026-04-25T14:39:05.001Z</time></trkpt><trkpt lat="45.62114" lon="11.2245767"><ele>409.66666666666663</ele><time>2026-04-25T14:39:06.001Z</time></trkpt><trkpt lat="45.62111" lon="11.2246633"><ele>409.5</ele><time>2026-04-25T14:39:07.001Z</time></trkpt><trkpt lat="45.62111" lon="11.2247667"><ele>409.33333333333337</ele><time>2026-04-25T14:39:08.001Z</time></trkpt><trkpt lat="45.621135" lon="11.2248867"><ele>409.1666666666667</ele><time>2026-04-25T14:39:09.001Z</time></trkpt><trkpt lat="45.6211867" lon="11.2250233"><ele>409.0</ele><time>2026-04-25T14:39:10.001Z</time></trkpt><trkpt lat="45.6212483" lon="11.2251783"><ele>409.0</ele><time>2026-04-25T14:39:11.001Z</time></trkpt><trkpt lat="45.621325" lon="11.225325"><ele>409.0</ele><time>2026-04-25T14:39:12.001Z</time></trkpt><trkpt lat="45.6213883" lon="11.22546"><ele>409.0</ele><time>2026-04-25T14:39:13.001Z</time></trkpt><trkpt lat="45.6214617" lon="11.2255783"><ele>409.0</ele><time>2026-04-25T14:39:14.001Z</time></trkpt><trkpt lat="45.6215517" lon="11.2256833"><ele>405.6</ele><time>2026-04-25T14:39:15.001Z</time></trkpt><trkpt lat="45.6216367" lon="11.2257833"><ele>402.2</ele><time>2026-04-25T14:39:16.001Z</time></trkpt><trkpt lat="45.621705" lon="11.2258667"><ele>398.8</ele><time>2026-04-25T14:39:17.001Z</time></trkpt><trkpt lat="45.6217583" lon="11.2259617"><ele>395.40000000000003</ele><time>2026-04-25T14:39:18.001Z</time></trkpt><trkpt lat="45.6217933" lon="11.2260533"><ele>392.0</ele><time>2026-04-25T14:39:19.001Z</time></trkpt><trkpt lat="45.6218067" lon="11.2262083"><ele>392.0</ele><time>2026-04-25T14:39:21.001Z</time></trkpt><trkpt lat="45.6217367" lon="11.2262567"><ele>392.0</ele><time>2026-04-25T14:39:24.001Z</time></trkpt><trkpt lat="45.6215933" lon="11.226175"><ele>392.0</ele><time>2026-04-25T14:39:26.001Z</time></trkpt><trkpt lat="45.621475" lon="11.2260917"><ele>392.0</ele><time>2026-04-25T14:39:27.001Z</time></trkpt><trkpt lat="45.6213483" lon="11.2260183"><ele>392.0</ele><time>2026-04-25T14:39:28.001Z</time></trkpt><trkpt lat="45.6212367" lon="11.2259617"><ele>392.0</ele><time>2026-04-25T14:39:29.001Z</time></trkpt><trkpt lat="45.621125" lon="11.2259133"><ele>392.0</ele><time>2026-04-25T14:39:30.001Z</time></trkpt><trkpt lat="45.621025" lon="11.225875"><ele>392.0</ele><time>2026-04-25T14:39:31.001Z</time></trkpt><trkpt lat="45.6209233" lon="11.225845"><ele>392.0</ele><time>2026-04-25T14:39:32.001Z</time></trkpt><trkpt lat="45.62082" lon="11.22582"><ele>388.8</ele><time>2026-04-25T14:39:33.001Z</time></trkpt><trkpt lat="45.6207133" lon="11.22581"><ele>385.6</ele><time>2026-04-25T14:39:34.001Z</time></trkpt><trkpt lat="45.6206017" lon="11.2258033"><ele>382.40000000000003</ele><time>2026-04-25T14:39:35.001Z</time></trkpt><trkpt lat="45.6204983" lon="11.2258117"><ele>379.20000000000005</ele><time>2026-04-25T14:39:36.001Z</time></trkpt><trkpt lat="45.620395" lon="11.2258233"><ele>376.0</ele><time>2026-04-25T14:39:37.001Z</time></trkpt><trkpt lat="45.62029" lon="11.2258417"><ele>373.20000000000005</ele><time>2026-04-25T14:39:38.001Z</time></trkpt><trkpt lat="45.620195" lon="11.22586"><ele>370.40000000000003</ele><time>2026-04-25T14:39:39.001Z</time></trkpt><trkpt lat="45.6200883" lon="11.225855"><ele>367.6</ele><time>2026-04-25T14:39:40.001Z</time></trkpt><trkpt lat="45.619985" lon="11.2258733"><ele>364.8</ele><time>2026-04-25T14:39:41.001Z</time></trkpt><trkpt lat="45.6198883" lon="11.2258983"><ele>362.0</ele><time>2026-04-25T14:39:42.001Z</time></trkpt><trkpt lat="45.61978" lon="11.2259367"><ele>362.0</ele><time>2026-04-25T14:39:43.001Z</time></trkpt><trkpt lat="45.6196883" lon="11.2259633"><ele>362.0</ele><time>2026-04-25T14:39:44.001Z</time></trkpt><trkpt lat="45.6195917" lon="11.22599"><ele>362.0</ele><time>2026-04-25T14:39:45.001Z</time></trkpt><trkpt lat="45.6194967" lon="11.2260183"><ele>362.0</ele><time>2026-04-25T14:39:46.001Z</time></trkpt><trkpt lat="45.6194083" lon="11.2260467"><ele>362.0</ele><time>2026-04-25T14:39:47.001Z</time></trkpt><trkpt lat="45.6193267" lon="11.226085"><ele>360.1666666666667</ele><time>2026-04-25T14:39:48.001Z</time></trkpt><trkpt lat="45.6192583" lon="11.2261283"><ele>358.33333333333337</ele><time>2026-04-25T14:39:49.001Z</time></trkpt><trkpt lat="45.6191833" lon="11.2261683"><ele>356.5</ele><time>2026-04-25T14:39:50.001Z</time></trkpt><trkpt lat="45.6190833" lon="11.226185"><ele>354.6666666666667</ele><time>2026-04-25T14:39:52.001Z</time></trkpt><trkpt lat="45.619015" lon="11.2262717"><ele>352.8333333333333</ele><time>2026-04-25T14:39:56.001Z</time></trkpt><trkpt lat="45.6191117" lon="11.2262667"><ele>351.0</ele><time>2026-04-25T14:39:59.001Z</time></trkpt><trkpt lat="45.6192083" lon="11.2262267"><ele>351.0</ele><time>2026-04-25T14:40:01.001Z</time></trkpt><trkpt lat="45.6193033" lon="11.2261817"><ele>351.0</ele><time>2026-04-25T14:40:03.001Z</time></trkpt><trkpt lat="45.6193833" lon="11.2261417"><ele>351.0</ele><time>2026-04-25T14:40:05.001Z</time></trkpt><trkpt lat="45.619465" lon="11.2261017"><ele>351.0</ele><time>2026-04-25T14:40:07.001Z</time></trkpt><trkpt lat="45.6195633" lon="11.226055"><ele>351.0</ele><time>2026-04-25T14:40:09.001Z</time></trkpt><trkpt lat="45.6196717" lon="11.22602"><ele>352.0</ele><time>2026-04-25T14:40:11.001Z</time></trkpt><trkpt lat="45.61977" lon="11.2259233"><ele>353.0</ele><time>2026-04-25T14:40:13.002Z</time></trkpt><trkpt lat="45.6198233" lon="11.22586"><ele>354.0</ele><time>2026-04-25T14:40:14.002Z</time></trkpt><trkpt lat="45.619875" lon="11.225785"><ele>355.0</ele><time>2026-04-25T14:40:15.001Z</time></trkpt><trkpt lat="45.61993" lon="11.22571"><ele>356.0</ele><time>2026-04-25T14:40:16.001Z</time></trkpt><trkpt lat="45.6199917" lon="11.2256317"><ele>357.0</ele><time>2026-04-25T14:40:17.001Z</time></trkpt><trkpt lat="45.620045" lon="11.2255183"><ele>357.0</ele><time>2026-04-25T14:40:18.001Z</time></trkpt><trkpt lat="45.6200617" lon="11.22535"><ele>357.0</ele><time>2026-04-25T14:40:19.001Z</time></trkpt><trkpt lat="45.620095" lon="11.2251967"><ele>357.0</ele><time>2026-04-25T14:40:20.001Z</time></trkpt><trkpt lat="45.620135" lon="11.225005"><ele>357.0</ele><time>2026-04-25T14:40:21.001Z</time></trkpt><trkpt lat="45.6201733" lon="11.2248217"><ele>354.40000000000003</ele><time>2026-04-25T14:40:22.001Z</time></trkpt><trkpt lat="45.6202083" lon="11.2246733"><ele>351.8</ele><time>2026-04-25T14:40:23.002Z</time></trkpt><trkpt lat="45.6202283" lon="11.2245083"><ele>349.2</ele><time>2026-04-25T14:40:24.001Z</time></trkpt><trkpt lat="45.6202483" lon="11.2243533"><ele>346.6</ele><time>2026-04-25T14:40:25.001Z</time></trkpt><trkpt lat="45.620265" lon="11.2242083"><ele>344.0</ele><time>2026-04-25T14:40:26.001Z</time></trkpt><trkpt lat="45.6202717" lon="11.2240617"><ele>343.1666666666667</ele><time>2026-04-25T14:40:27.001Z</time></trkpt><trkpt lat="45.620295" lon="11.2239383"><ele>342.33333333333337</ele><time>2026-04-25T14:40:28.001Z</time></trkpt><trkpt lat="45.6203183" lon="11.2238233"><ele>341.5</ele><time>2026-04-25T14:40:29.001Z</time></trkpt><trkpt lat="45.6203433" lon="11.2237033"><ele>340.6666666666667</ele><time>2026-04-25T14:40:30.001Z</time></trkpt><trkpt lat="45.620385" lon="11.2235933"><ele>339.8333333333333</ele><time>2026-04-25T14:40:31.001Z</time></trkpt><trkpt lat="45.6204517" lon="11.2234967"><ele>339.0</ele><time>2026-04-25T14:40:32.001Z</time></trkpt><trkpt lat="45.6205483" lon="11.22341"><ele>340.6666666666667</ele><time>2026-04-25T14:40:33.001Z</time></trkpt><trkpt lat="45.6206433" lon="11.2233533"><ele>342.3333333333333</ele><time>2026-04-25T14:40:34.001Z</time></trkpt><trkpt lat="45.62073" lon="11.2233067"><ele>344.0</ele><time>2026-04-25T14:40:35.001Z</time></trkpt><trkpt lat="45.6208183" lon="11.2232883"><ele>345.66666666666663</ele><time>2026-04-25T14:40:36.001Z</time></trkpt><trkpt lat="45.6208833" lon="11.22327"><ele>347.3333333333333</ele><time>2026-04-25T14:40:37.001Z</time></trkpt><trkpt lat="45.6209633" lon="11.2232617"><ele>349.0</ele><time>2026-04-25T14:40:39.002Z</time></trkpt><trkpt lat="45.6207933" lon="11.2233083"><ele>349.0</ele><time>2026-04-25T14:40:44.001Z</time></trkpt><trkpt lat="45.62069" lon="11.22334"><ele>349.0</ele><time>2026-04-25T14:40:45.001Z</time></trkpt><trkpt lat="45.620595" lon="11.223375"><ele>349.0</ele><time>2026-04-25T14:40:46.001Z</time></trkpt><trkpt lat="45.6204983" lon="11.2234183"><ele>349.0</ele><time>2026-04-25T14:40:47.001Z</time></trkpt><trkpt lat="45.6204117" lon="11.223465"><ele>349.0</ele><time>2026-04-25T14:40:48.001Z</time></trkpt><trkpt lat="45.6203333" lon="11.2235183"><ele>348.16666666666663</ele><time>2026-04-25T14:40:49.001Z</time></trkpt><trkpt lat="45.6202483" lon="11.2235717"><ele>347.3333333333333</ele><time>2026-04-25T14:40:50.001Z</time></trkpt><trkpt lat="45.6201717" lon="11.2236367"><ele>346.5</ele><time>2026-04-25T14:40:51.001Z</time></trkpt><trkpt lat="45.620105" lon="11.22372"><ele>345.6666666666667</ele><time>2026-04-25T14:40:52.001Z</time></trkpt><trkpt lat="45.62005" lon="11.2238033"><ele>344.83333333333337</ele><time>2026-04-25T14:40:53.001Z</time></trkpt><trkpt lat="45.6200117" lon="11.2238933"><ele>344.0</ele><time>2026-04-25T14:40:54.001Z</time></trkpt><trkpt lat="45.6199767" lon="11.2239983"><ele>344.0</ele><time>2026-04-25T14:40:55.001Z</time></trkpt><trkpt lat="45.619955" lon="11.2241167"><ele>344.0</ele><time>2026-04-25T14:40:56.001Z</time></trkpt><trkpt lat="45.6199367" lon="11.2242383"><ele>344.0</ele><time>2026-04-25T14:40:57.001Z</time></trkpt><trkpt lat="45.61991" lon="11.2243817"><ele>344.0</ele><time>2026-04-25T14:40:58.001Z</time></trkpt><trkpt lat="45.6198617" lon="11.22451"><ele>344.0</ele><time>2026-04-25T14:40:59.001Z</time></trkpt><trkpt lat="45.6197933" lon="11.2246183"><ele>344.0</ele><time>2026-04-25T14:41:00.001Z</time></trkpt><trkpt lat="45.6197" lon="11.2247367"><ele>344.0</ele><time>2026-04-25T14:41:01.001Z</time></trkpt><trkpt lat="45.6196" lon="11.224845"><ele>344.0</ele><time>2026-04-25T14:41:02.001Z</time></trkpt><trkpt lat="45.61949" lon="11.2249317"><ele>344.0</ele><time>2026-04-25T14:41:03.001Z</time></trkpt><trkpt lat="45.6193833" lon="11.2249967"><ele>342.79999999999995</ele><time>2026-04-25T14:41:04.001Z</time></trkpt><trkpt lat="45.6192817" lon="11.2250717"><ele>341.59999999999997</ele><time>2026-04-25T14:41:05.001Z</time></trkpt><trkpt lat="45.6191933" lon="11.225155"><ele>340.4</ele><time>2026-04-25T14:41:06.001Z</time></trkpt><trkpt lat="45.6191033" lon="11.22526"><ele>339.2</ele><time>2026-04-25T14:41:07.001Z</time></trkpt><trkpt lat="45.6190267" lon="11.2253767"><ele>338.0</ele><time>2026-04-25T14:41:08.001Z</time></trkpt><trkpt lat="45.6189367" lon="11.22551"><ele>338.0</ele><time>2026-04-25T14:41:09.001Z</time></trkpt><trkpt lat="45.6188433" lon="11.2256367"><ele>338.0</ele><time>2026-04-25T14:41:10.002Z</time></trkpt><trkpt lat="45.61875" lon="11.225745"><ele>338.0</ele><time>2026-04-25T14:41:11.001Z</time></trkpt><trkpt lat="45.6186533" lon="11.2258533"><ele>338.0</ele><time>2026-04-25T14:41:12.001Z</time></trkpt><trkpt lat="45.61858" lon="11.2259783"><ele>337.0</ele><time>2026-04-25T14:41:13.001Z</time></trkpt><trkpt lat="45.6185167" lon="11.22611"><ele>336.0</ele><time>2026-04-25T14:41:14.001Z</time></trkpt><trkpt lat="45.6184517" lon="11.22626"><ele>335.0</ele><time>2026-04-25T14:41:15.001Z</time></trkpt><trkpt lat="45.6183817" lon="11.226405"><ele>334.0</ele><time>2026-04-25T14:41:16.001Z</time></trkpt><trkpt lat="45.6183183" lon="11.2265517"><ele>336.0</ele><time>2026-04-25T14:41:17.001Z</time></trkpt><trkpt lat="45.61825" lon="11.2266917"><ele>338.0</ele><time>2026-04-25T14:41:18.001Z</time></trkpt><trkpt lat="45.6181783" lon="11.226815"><ele>340.0</ele><time>2026-04-25T14:41:19.001Z</time></trkpt><trkpt lat="45.6180967" lon="11.2269417"><ele>342.0</ele><time>2026-04-25T14:41:20.001Z</time></trkpt><trkpt lat="45.6180333" lon="11.2270683"><ele>342.0</ele><time>2026-04-25T14:41:21.002Z</time></trkpt><trkpt lat="45.6179783" lon="11.2271983"><ele>342.0</ele><time>2026-04-25T14:41:22.001Z</time></trkpt><trkpt lat="45.6179317" lon="11.2273283"><ele>342.0</ele><time>2026-04-25T14:41:23.001Z</time></trkpt><trkpt lat="45.617895" lon="11.22746"><ele>342.0</ele><time>2026-04-25T14:41:24.001Z</time></trkpt><trkpt lat="45.617865" lon="11.2275833"><ele>342.0</ele><time>2026-04-25T14:41:25.001Z</time></trkpt><trkpt lat="45.6178417" lon="11.2277"><ele>340.0</ele><time>2026-04-25T14:41:26.001Z</time></trkpt><trkpt lat="45.6178167" lon="11.2278133"><ele>338.0</ele><time>2026-04-25T14:41:27.001Z</time></trkpt><trkpt lat="45.617785" lon="11.2279033"><ele>336.0</ele><time>2026-04-25T14:41:28.001Z</time></trkpt><trkpt lat="45.61773" lon="11.2280433"><ele>334.0</ele><time>2026-04-25T14:41:30.001Z</time></trkpt><trkpt lat="45.6176517" lon="11.2281633"><ele>332.0</ele><time>2026-04-25T14:41:32.001Z</time></trkpt><trkpt lat="45.6175483" lon="11.2282617"><ele>332.0</ele><time>2026-04-25T14:41:34.001Z</time></trkpt><trkpt lat="45.617445" lon="11.22835"><ele>332.0</ele><time>2026-04-25T14:41:36.001Z</time></trkpt><trkpt lat="45.6173633" lon="11.2283967"><ele>332.0</ele><time>2026-04-25T14:41:38.001Z</time></trkpt><trkpt lat="45.61728" lon="11.2283633"><ele>332.0</ele><time>2026-04-25T14:42:15.001Z</time></trkpt><trkpt lat="45.6173433" lon="11.2284"><ele>332.0</ele><time>2026-04-25T14:43:21.001Z</time></trkpt><trkpt lat="45.617405" lon="11.2283583"><ele>332.0</ele><time>2026-04-25T14:43:23.001Z</time></trkpt><trkpt lat="45.6174617" lon="11.2283117"><ele>332.0</ele><time>2026-04-25T14:43:24.001Z</time></trkpt><trkpt lat="45.6175317" lon="11.228245"><ele>332.0</ele><time>2026-04-25T14:43:25.001Z</time></trkpt><trkpt lat="45.6175983" lon="11.228165"><ele>332.0</ele><time>2026-04-25T14:43:26.001Z</time></trkpt><trkpt lat="45.6176633" lon="11.2280783"><ele>332.0</ele><time>2026-04-25T14:43:27.001Z</time></trkpt><trkpt lat="45.6177167" lon="11.2279683"><ele>332.0</ele><time>2026-04-25T14:43:28.001Z</time></trkpt><trkpt lat="45.6177633" lon="11.227845"><ele>331.40000000000003</ele><time>2026-04-25T14:43:29.001Z</time></trkpt><trkpt lat="45.617785" lon="11.2277083"><ele>330.8</ele><time>2026-04-25T14:43:30.001Z</time></trkpt><trkpt lat="45.6178117" lon="11.2275617"><ele>330.2</ele><time>2026-04-25T14:43:31.001Z</time></trkpt><trkpt lat="45.6178383" lon="11.227415"><ele>329.6</ele><time>2026-04-25T14:43:32.001Z</time></trkpt><trkpt lat="45.6178733" lon="11.2272733"><ele>329.0</ele><time>2026-04-25T14:43:33.001Z</time></trkpt><trkpt lat="45.6179133" lon="11.2271267"><ele>330.25</ele><time>2026-04-25T14:43:34.001Z</time></trkpt><trkpt lat="45.6179833" lon="11.2269583"><ele>331.5</ele><time>2026-04-25T14:43:35.001Z</time></trkpt><trkpt lat="45.618055" lon="11.2267833"><ele>332.75</ele><time>2026-04-25T14:43:36.001Z</time></trkpt><trkpt lat="45.6181483" lon="11.2266233"><ele>334.0</ele><time>2026-04-25T14:43:37.001Z</time></trkpt><trkpt lat="45.61825" lon="11.2264767"><ele>334.0</ele><time>2026-04-25T14:43:38.001Z</time></trkpt><trkpt lat="45.6183517" lon="11.226345"><ele>334.0</ele><time>2026-04-25T14:43:39.002Z</time></trkpt><trkpt lat="45.6184333" lon="11.2262217"><ele>334.0</ele><time>2026-04-25T14:43:40.001Z</time></trkpt><trkpt lat="45.6185" lon="11.2260967"><ele>334.0</ele><time>2026-04-25T14:43:41.001Z</time></trkpt><trkpt lat="45.6185767" lon="11.225985"><ele>335.0</ele><time>2026-04-25T14:43:42.001Z</time></trkpt><trkpt lat="45.6186533" lon="11.2258783"><ele>336.0</ele><time>2026-04-25T14:43:43.001Z</time></trkpt><trkpt lat="45.618735" lon="11.2257683"><ele>337.0</ele><time>2026-04-25T14:43:44.001Z</time></trkpt><trkpt lat="45.61884" lon="11.2256633"><ele>338.0</ele><time>2026-04-25T14:43:45.001Z</time></trkpt><trkpt lat="45.61893" lon="11.2255333"><ele>338.0</ele><time>2026-04-25T14:43:46.001Z</time></trkpt><trkpt lat="45.6190217" lon="11.2254167"><ele>338.0</ele><time>2026-04-25T14:43:47.001Z</time></trkpt><trkpt lat="45.6190967" lon="11.2253067"><ele>338.0</ele><time>2026-04-25T14:43:48.001Z</time></trkpt><trkpt lat="45.6191767" lon="11.2252117"><ele>338.0</ele><time>2026-04-25T14:43:49.001Z</time></trkpt><trkpt lat="45.6192667" lon="11.2251233"><ele>338.0</ele><time>2026-04-25T14:43:50.001Z</time></trkpt><trkpt lat="45.6193683" lon="11.225035"><ele>338.0</ele><time>2026-04-25T14:43:51.001Z</time></trkpt><trkpt lat="45.61947" lon="11.2249633"><ele>338.0</ele><time>2026-04-25T14:43:52.001Z</time></trkpt><trkpt lat="45.6195783" lon="11.22488"><ele>338.0</ele><time>2026-04-25T14:43:53.001Z</time></trkpt><trkpt lat="45.6196833" lon="11.22479"><ele>338.0</ele><time>2026-04-25T14:43:54.001Z</time></trkpt><trkpt lat="45.6197817" lon="11.2246833"><ele>339.5</ele><time>2026-04-25T14:43:55.001Z</time></trkpt><trkpt lat="45.6198683" lon="11.224575"><ele>341.0</ele><time>2026-04-25T14:43:56.001Z</time></trkpt><trkpt lat="45.61993" lon="11.2244317"><ele>342.5</ele><time>2026-04-25T14:43:57.001Z</time></trkpt><trkpt lat="45.61998" lon="11.2242767"><ele>344.0</ele><time>2026-04-25T14:43:58.001Z</time></trkpt><trkpt lat="45.6200133" lon="11.2241233"><ele>343.0</ele><time>2026-04-25T14:43:59.001Z</time></trkpt><trkpt lat="45.620035" lon="11.2239583"><ele>342.0</ele><time>2026-04-25T14:44:00.001Z</time></trkpt><trkpt lat="45.62006" lon="11.22381"><ele>341.0</ele><time>2026-04-25T14:44:01.001Z</time></trkpt><trkpt lat="45.6201033" lon="11.2236817"><ele>340.0</ele><time>2026-04-25T14:44:02.001Z</time></trkpt><trkpt lat="45.6201683" lon="11.2235683"><ele>339.0</ele><time>2026-04-25T14:44:03.001Z</time></trkpt><trkpt lat="45.6202633" lon="11.2234667"><ele>341.5</ele><time>2026-04-25T14:44:04.001Z</time></trkpt><trkpt lat="45.6203617" lon="11.2233833"><ele>344.0</ele><time>2026-04-25T14:44:05.001Z</time></trkpt><trkpt lat="45.6204783" lon="11.22333"><ele>346.5</ele><time>2026-04-25T14:44:06.001Z</time></trkpt><trkpt lat="45.6206" lon="11.2233"><ele>349.0</ele><time>2026-04-25T14:44:07.001Z</time></trkpt><trkpt lat="45.6207117" lon="11.2232633"><ele>349.0</ele><time>2026-04-25T14:44:08.001Z</time></trkpt><trkpt lat="45.6208217" lon="11.22323"><ele>349.0</ele><time>2026-04-25T14:44:09.001Z</time></trkpt><trkpt lat="45.62094" lon="11.2231967"><ele>349.0</ele><time>2026-04-25T14:44:10.001Z</time></trkpt><trkpt lat="45.6210783" lon="11.2231567"><ele>349.0</ele><time>2026-04-25T14:44:11.001Z</time></trkpt><trkpt lat="45.6212167" lon="11.2231133"><ele>348.25</ele><time>2026-04-25T14:44:12.001Z</time></trkpt><trkpt lat="45.6213383" lon="11.2230233"><ele>347.5</ele><time>2026-04-25T14:44:13.001Z</time></trkpt><trkpt lat="45.62147" lon="11.2229183"><ele>346.75</ele><time>2026-04-25T14:44:14.001Z</time></trkpt><trkpt lat="45.6216017" lon="11.222805"><ele>346.0</ele><time>2026-04-25T14:44:15.001Z</time></trkpt><trkpt lat="45.6217283" lon="11.2226883"><ele>346.0</ele><time>2026-04-25T14:44:16.001Z</time></trkpt><trkpt lat="45.62186" lon="11.2225683"><ele>346.0</ele><time>2026-04-25T14:44:17.001Z</time></trkpt><trkpt lat="45.6219833" lon="11.222445"><ele>346.0</ele><time>2026-04-25T14:44:18.001Z</time></trkpt><trkpt lat="45.6220983" lon="11.2223217"><ele>345.75</ele><time>2026-04-25T14:44:19.001Z</time></trkpt><trkpt lat="45.62221" lon="11.222205"><ele>345.5</ele><time>2026-04-25T14:44:20.001Z</time></trkpt><trkpt lat="45.6223283" lon="11.2220883"><ele>345.25</ele><time>2026-04-25T14:44:21.001Z</time></trkpt><trkpt lat="45.622445" lon="11.221975"><ele>345.0</ele><time>2026-04-25T14:44:22.001Z</time></trkpt><trkpt lat="45.622555" lon="11.2218583"><ele>345.0</ele><time>2026-04-25T14:44:23.001Z</time></trkpt><trkpt lat="45.6226567" lon="11.22171"><ele>345.0</ele><time>2026-04-25T14:44:24.001Z</time></trkpt><trkpt lat="45.6227483" lon="11.2215417"><ele>345.0</ele><time>2026-04-25T14:44:25.001Z</time></trkpt><trkpt lat="45.6228383" lon="11.2213583"><ele>348.3333333333333</ele><time>2026-04-25T14:44:26.001Z</time></trkpt><trkpt lat="45.6229233" lon="11.2211567"><ele>351.66666666666663</ele><time>2026-04-25T14:44:27.001Z</time></trkpt><trkpt lat="45.623005" lon="11.2209517"><ele>355.0</ele><time>2026-04-25T14:44:28.001Z</time></trkpt><trkpt lat="45.6230883" lon="11.22077"><ele>352.0</ele><time>2026-04-25T14:44:29.001Z</time></trkpt><trkpt lat="45.6231583" lon="11.2205833"><ele>349.0</ele><time>2026-04-25T14:44:30.001Z</time></trkpt><trkpt lat="45.6232433" lon="11.2204083"><ele>346.0</ele><time>2026-04-25T14:44:31.001Z</time></trkpt><trkpt lat="45.6233183" lon="11.2202317"><ele>343.0</ele><time>2026-04-25T14:44:32.001Z</time></trkpt><trkpt lat="45.623385" lon="11.2200667"><ele>343.0</ele><time>2026-04-25T14:44:33.001Z</time></trkpt><trkpt lat="45.6234567" lon="11.2198967"><ele>343.0</ele><time>2026-04-25T14:44:34.001Z</time></trkpt><trkpt lat="45.6235233" lon="11.219725"><ele>343.0</ele><time>2026-04-25T14:44:35.001Z</time></trkpt><trkpt lat="45.623585" lon="11.2195567"><ele>343.0</ele><time>2026-04-25T14:44:36.001Z</time></trkpt><trkpt lat="45.6236417" lon="11.21939"><ele>345.0</ele><time>2026-04-25T14:44:37.001Z</time></trkpt><trkpt lat="45.6237083" lon="11.2192183"><ele>347.0</ele><time>2026-04-25T14:44:38.001Z</time></trkpt><trkpt lat="45.62378" lon="11.2190567"><ele>349.0</ele><time>2026-04-25T14:44:39.001Z</time></trkpt><trkpt lat="45.6238483" lon="11.2188833"><ele>351.0</ele><time>2026-04-25T14:44:40.001Z</time></trkpt><trkpt lat="45.6239267" lon="11.218715"><ele>351.0</ele><time>2026-04-25T14:44:41.001Z</time></trkpt><trkpt lat="45.6240117" lon="11.2185767"><ele>351.0</ele><time>2026-04-25T14:44:42.001Z</time></trkpt><trkpt lat="45.6240933" lon="11.218435"><ele>351.0</ele><time>2026-04-25T14:44:43.001Z</time></trkpt><trkpt lat="45.6241867" lon="11.2183117"><ele>351.0</ele><time>2026-04-25T14:44:44.001Z</time></trkpt><trkpt lat="45.6242883" lon="11.2181983"><ele>350.5</ele><time>2026-04-25T14:44:45.001Z</time></trkpt><trkpt lat="45.6243933" lon="11.2180917"><ele>350.0</ele><time>2026-04-25T14:44:46.001Z</time></trkpt><trkpt lat="45.6245267" lon="11.217975"><ele>349.5</ele><time>2026-04-25T14:44:47.001Z</time></trkpt><trkpt lat="45.6246383" lon="11.2178433"><ele>349.0</ele><time>2026-04-25T14:44:48.001Z</time></trkpt><trkpt lat="45.6247333" lon="11.21771"><ele>350.75</ele><time>2026-04-25T14:44:49.001Z</time></trkpt><trkpt lat="45.6248233" lon="11.2175583"><ele>352.5</ele><time>2026-04-25T14:44:50.001Z</time></trkpt><trkpt lat="45.6249" lon="11.21739"><ele>354.25</ele><time>2026-04-25T14:44:51.001Z</time></trkpt><trkpt lat="45.6249667" lon="11.2172117"><ele>356.0</ele><time>2026-04-25T14:44:52.001Z</time></trkpt><trkpt lat="45.625025" lon="11.2170383"><ele>356.0</ele><time>2026-04-25T14:44:53.001Z</time></trkpt><trkpt lat="45.625095" lon="11.2168683"><ele>356.0</ele><time>2026-04-25T14:44:54.001Z</time></trkpt><trkpt lat="45.6251417" lon="11.2166833"><ele>356.0</ele><time>2026-04-25T14:44:55.001Z</time></trkpt><trkpt lat="45.6251683" lon="11.2164833"><ele>356.0</ele><time>2026-04-25T14:44:56.001Z</time></trkpt><trkpt lat="45.6252233" lon="11.2162967"><ele>355.75</ele><time>2026-04-25T14:44:57.001Z</time></trkpt><trkpt lat="45.6252683" lon="11.21611"><ele>355.5</ele><time>2026-04-25T14:44:58.001Z</time></trkpt><trkpt lat="45.6253117" lon="11.2159267"><ele>355.25</ele><time>2026-04-25T14:44:59.001Z</time></trkpt><trkpt lat="45.6253233" lon="11.215735"><ele>355.0</ele><time>2026-04-25T14:45:00.001Z</time></trkpt><trkpt lat="45.625335" lon="11.2155317"><ele>356.5</ele><time>2026-04-25T14:45:01.001Z</time></trkpt><trkpt lat="45.6253633" lon="11.2153317"><ele>358.0</ele><time>2026-04-25T14:45:02.001Z</time></trkpt><trkpt lat="45.6254233" lon="11.2151583"><ele>359.5</ele><time>2026-04-25T14:45:03.001Z</time></trkpt><trkpt lat="45.6254533" lon="11.2149633"><ele>361.0</ele><time>2026-04-25T14:45:04.001Z</time></trkpt><trkpt lat="45.6254917" lon="11.2147733"><ele>361.0</ele><time>2026-04-25T14:45:05.001Z</time></trkpt><trkpt lat="45.6255683" lon="11.2144017"><ele>361.0</ele><time>2026-04-25T14:45:07.001Z</time></trkpt><trkpt lat="45.62563" lon="11.2142483"><ele>361.0</ele><time>2026-04-25T14:45:08.001Z</time></trkpt><trkpt lat="45.6256967" lon="11.2140883"><ele>361.25</ele><time>2026-04-25T14:45:09.001Z</time></trkpt><trkpt lat="45.6257767" lon="11.2139367"><ele>361.5</ele><time>2026-04-25T14:45:10.002Z</time></trkpt><trkpt lat="45.625835" lon="11.21377"><ele>361.75</ele><time>2026-04-25T14:45:11.001Z</time></trkpt><trkpt lat="45.6258883" lon="11.213605"><ele>362.0</ele><time>2026-04-25T14:45:12.001Z</time></trkpt><trkpt lat="45.6259433" lon="11.213435"><ele>362.0</ele><time>2026-04-25T14:45:13.001Z</time></trkpt><trkpt lat="45.625995" lon="11.21327"><ele>362.0</ele><time>2026-04-25T14:45:14.001Z</time></trkpt><trkpt lat="45.6260283" lon="11.2131033"><ele>362.0</ele><time>2026-04-25T14:45:15.001Z</time></trkpt><trkpt lat="45.6260817" lon="11.2129417"><ele>362.0</ele><time>2026-04-25T14:45:16.001Z</time></trkpt><trkpt lat="45.6261383" lon="11.2127883"><ele>368.25</ele><time>2026-04-25T14:45:17.002Z</time></trkpt><trkpt lat="45.626235" lon="11.2126317"><ele>374.5</ele><time>2026-04-25T14:45:18.001Z</time></trkpt><trkpt lat="45.6263267" lon="11.2125"><ele>380.75</ele><time>2026-04-25T14:45:19.001Z</time></trkpt><trkpt lat="45.6264083" lon="11.212355"><ele>387.0</ele><time>2026-04-25T14:45:20.001Z</time></trkpt><trkpt lat="45.62647" lon="11.2122"><ele>387.0</ele><time>2026-04-25T14:45:21.001Z</time></trkpt><trkpt lat="45.6264667" lon="11.2120233"><ele>387.0</ele><time>2026-04-25T14:45:22.001Z</time></trkpt><trkpt lat="45.6264517" lon="11.2118533"><ele>387.0</ele><time>2026-04-25T14:45:23.001Z</time></trkpt><trkpt lat="45.62644" lon="11.2116767"><ele>387.0</ele><time>2026-04-25T14:45:24.001Z</time></trkpt><trkpt lat="45.626415" lon="11.211475"><ele>388.75</ele><time>2026-04-25T14:45:25.001Z</time></trkpt><trkpt lat="45.626395" lon="11.2112883"><ele>390.5</ele><time>2026-04-25T14:45:26.001Z</time></trkpt><trkpt lat="45.6263683" lon="11.2110983"><ele>392.25</ele><time>2026-04-25T14:45:27.001Z</time></trkpt><trkpt lat="45.6263333" lon="11.2109067"><ele>394.0</ele><time>2026-04-25T14:45:28.001Z</time></trkpt><trkpt lat="45.6262883" lon="11.2107117"><ele>396.33333333333337</ele><time>2026-04-25T14:45:29.001Z</time></trkpt><trkpt lat="45.6262417" lon="11.21053"><ele>398.66666666666663</ele><time>2026-04-25T14:45:30.001Z</time></trkpt><trkpt lat="45.6261383" lon="11.2101583"><ele>401.0</ele><time>2026-04-25T14:45:32.001Z</time></trkpt><trkpt lat="45.6260883" lon="11.20999"><ele>393.75</ele><time>2026-04-25T14:45:33.001Z</time></trkpt><trkpt lat="45.6260467" lon="11.2098283"><ele>386.5</ele><time>2026-04-25T14:45:34.001Z</time></trkpt><trkpt lat="45.6259983" lon="11.2096733"><ele>379.25</ele><time>2026-04-25T14:45:35.001Z</time></trkpt><trkpt lat="45.6259683" lon="11.2095117"><ele>372.0</ele><time>2026-04-25T14:45:36.001Z</time></trkpt><trkpt lat="45.6259633" lon="11.2093567"><ele>372.0</ele><time>2026-04-25T14:45:37.001Z</time></trkpt><trkpt lat="45.6259883" lon="11.2092133"><ele>372.0</ele><time>2026-04-25T14:45:38.001Z</time></trkpt><trkpt lat="45.62602" lon="11.2090683"><ele>372.0</ele><time>2026-04-25T14:45:39.001Z</time></trkpt><trkpt lat="45.6260717" lon="11.2089417"><ele>372.0</ele><time>2026-04-25T14:45:40.001Z</time></trkpt><trkpt lat="45.6261533" lon="11.208835"><ele>372.0</ele><time>2026-04-25T14:45:41.001Z</time></trkpt><trkpt lat="45.6262317" lon="11.20873"><ele>373.8</ele><time>2026-04-25T14:45:42.001Z</time></trkpt><trkpt lat="45.6263183" lon="11.2086517"><ele>375.6</ele><time>2026-04-25T14:45:43.001Z</time></trkpt><trkpt lat="45.6263867" lon="11.20859"><ele>377.40000000000003</ele><time>2026-04-25T14:45:44.001Z</time></trkpt><trkpt lat="45.626465" lon="11.2084883"><ele>379.20000000000005</ele><time>2026-04-25T14:45:45.001Z</time></trkpt><trkpt lat="45.6265317" lon="11.208375"><ele>381.0</ele><time>2026-04-25T14:45:46.001Z</time></trkpt><trkpt lat="45.62658" lon="11.2082517"><ele>379.6</ele><time>2026-04-25T14:45:47.001Z</time></trkpt><trkpt lat="45.62661" lon="11.2081367"><ele>378.20000000000005</ele><time>2026-04-25T14:45:48.001Z</time></trkpt><trkpt lat="45.6266133" lon="11.2080217"><ele>376.79999999999995</ele><time>2026-04-25T14:45:49.001Z</time></trkpt><trkpt lat="45.6265983" lon="11.207905"><ele>375.4</ele><time>2026-04-25T14:45:50.001Z</time></trkpt><trkpt lat="45.6265583" lon="11.2077667"><ele>374.0</ele><time>2026-04-25T14:45:51.001Z</time></trkpt><trkpt lat="45.6265267" lon="11.20762"><ele>374.0</ele><time>2026-04-25T14:45:52.001Z</time></trkpt><trkpt lat="45.6264767" lon="11.2074333"><ele>374.0</ele><time>2026-04-25T14:45:53.001Z</time></trkpt><trkpt lat="45.626435" lon="11.207265"><ele>374.0</ele><time>2026-04-25T14:45:54.002Z</time></trkpt><trkpt lat="45.6263933" lon="11.2071167"><ele>374.0</ele><time>2026-04-25T14:45:55.001Z</time></trkpt><trkpt lat="45.6263433" lon="11.2069633"><ele>376.75</ele><time>2026-04-25T14:45:56.001Z</time></trkpt><trkpt lat="45.6263183" lon="11.20681"><ele>379.5</ele><time>2026-04-25T14:45:57.001Z</time></trkpt><trkpt lat="45.62631" lon="11.2066467"><ele>382.25</ele><time>2026-04-25T14:45:58.001Z</time></trkpt><trkpt lat="45.626305" lon="11.2064717"><ele>385.0</ele><time>2026-04-25T14:45:59.001Z</time></trkpt><trkpt lat="45.6262967" lon="11.2062917"><ele>392.5</ele><time>2026-04-25T14:46:00.001Z</time></trkpt><trkpt lat="45.6262833" lon="11.2060983"><ele>400.0</ele><time>2026-04-25T14:46:01.001Z</time></trkpt><trkpt lat="45.6262617" lon="11.2058917"><ele>407.5</ele><time>2026-04-25T14:46:02.001Z</time></trkpt><trkpt lat="45.6262383" lon="11.205675"><ele>415.0</ele><time>2026-04-25T14:46:03.001Z</time></trkpt><trkpt lat="45.6262017" lon="11.2054317"><ele>412.0</ele><time>2026-04-25T14:46:04.001Z</time></trkpt><trkpt lat="45.6261467" lon="11.20518"><ele>409.0</ele><time>2026-04-25T14:46:05.001Z</time></trkpt><trkpt lat="45.62611" lon="11.20494"><ele>406.0</ele><time>2026-04-25T14:46:06.001Z</time></trkpt><trkpt lat="45.6260767" lon="11.2047"><ele>406.0</ele><time>2026-04-25T14:46:07.001Z</time></trkpt><trkpt lat="45.6260467" lon="11.2044733"><ele>406.0</ele><time>2026-04-25T14:46:08.001Z</time></trkpt><trkpt lat="45.6260133" lon="11.2042567"><ele>406.0</ele><time>2026-04-25T14:46:09.001Z</time></trkpt><trkpt lat="45.6259817" lon="11.2040567"><ele>407.75</ele><time>2026-04-25T14:46:10.001Z</time></trkpt><trkpt lat="45.6259583" lon="11.20385"><ele>409.5</ele><time>2026-04-25T14:46:11.001Z</time></trkpt><trkpt lat="45.625935" lon="11.2036517"><ele>411.25</ele><time>2026-04-25T14:46:12.001Z</time></trkpt><trkpt lat="45.6259233" lon="11.2034583"><ele>413.0</ele><time>2026-04-25T14:46:13.001Z</time></trkpt><trkpt lat="45.6259217" lon="11.2032683"><ele>413.75</ele><time>2026-04-25T14:46:14.001Z</time></trkpt><trkpt lat="45.62592" lon="11.2030767"><ele>414.5</ele><time>2026-04-25T14:46:15.001Z</time></trkpt><trkpt lat="45.6259167" lon="11.2028883"><ele>415.25</ele><time>2026-04-25T14:46:16.001Z</time></trkpt><trkpt lat="45.6259167" lon="11.2027017"><ele>416.0</ele><time>2026-04-25T14:46:17.001Z</time></trkpt><trkpt lat="45.6259033" lon="11.2025383"><ele>416.0</ele><time>2026-04-25T14:46:18.001Z</time></trkpt><trkpt lat="45.6258733" lon="11.2023917"><ele>416.0</ele><time>2026-04-25T14:46:19.001Z</time></trkpt><trkpt lat="45.6258317" lon="11.20226"><ele>416.0</ele><time>2026-04-25T14:46:20.001Z</time></trkpt><trkpt lat="45.62576" lon="11.2021683"><ele>416.0</ele><time>2026-04-25T14:46:21.001Z</time></trkpt><trkpt lat="45.6256617" lon="11.2022217"><ele>416.0</ele><time>2026-04-25T14:46:22.001Z</time></trkpt><trkpt lat="45.6255617" lon="11.2021233"><ele>417.0</ele><time>2026-04-25T14:46:23.001Z</time></trkpt><trkpt lat="45.6254617" lon="11.2020183"><ele>418.0</ele><time>2026-04-25T14:46:24.001Z</time></trkpt><trkpt lat="45.6253267" lon="11.2019467"><ele>419.0</ele><time>2026-04-25T14:46:25.001Z</time></trkpt><trkpt lat="45.6252133" lon="11.2018417"><ele>420.0</ele><time>2026-04-25T14:46:26.001Z</time></trkpt><trkpt lat="45.625105" lon="11.2017383"><ele>420.0</ele><time>2026-04-25T14:46:27.001Z</time></trkpt><trkpt lat="45.625005" lon="11.201685"><ele>420.0</ele><time>2026-04-25T14:46:28.001Z</time></trkpt><trkpt lat="45.6249083" lon="11.2016317"><ele>420.0</ele><time>2026-04-25T14:46:29.001Z</time></trkpt><trkpt lat="45.62481" lon="11.2016167"><ele>420.0</ele><time>2026-04-25T14:46:30.002Z</time></trkpt><trkpt lat="45.624735" lon="11.2015717"><ele>420.0</ele><time>2026-04-25T14:46:31.001Z</time></trkpt><trkpt lat="45.6246633" lon="11.2015117"><ele>419.8333333333333</ele><time>2026-04-25T14:46:32.001Z</time></trkpt><trkpt lat="45.6246033" lon="11.2014333"><ele>419.66666666666663</ele><time>2026-04-25T14:46:33.001Z</time></trkpt><trkpt lat="45.624555" lon="11.201345"><ele>419.5</ele><time>2026-04-25T14:46:34.001Z</time></trkpt><trkpt lat="45.6245083" lon="11.2012483"><ele>419.3333333333333</ele><time>2026-04-25T14:46:35.001Z</time></trkpt><trkpt lat="45.6244633" lon="11.2011333"><ele>419.16666666666663</ele><time>2026-04-25T14:46:36.001Z</time></trkpt><trkpt lat="45.6243967" lon="11.2010117"><ele>419.0</ele><time>2026-04-25T14:46:37.001Z</time></trkpt><trkpt lat="45.6243083" lon="11.200865"><ele>419.0</ele><time>2026-04-25T14:46:38.001Z</time></trkpt><trkpt lat="45.6241967" lon="11.2006983"><ele>419.0</ele><time>2026-04-25T14:46:39.001Z</time></trkpt><trkpt lat="45.62406" lon="11.2005217"><ele>419.0</ele><time>2026-04-25T14:46:40.001Z</time></trkpt><trkpt lat="45.6239433" lon="11.200355"><ele>419.75</ele><time>2026-04-25T14:46:41.001Z</time></trkpt><trkpt lat="45.6238233" lon="11.2002133"><ele>420.5</ele><time>2026-04-25T14:46:42.001Z</time></trkpt><trkpt lat="45.6237067" lon="11.2001217"><ele>421.25</ele><time>2026-04-25T14:46:43.001Z</time></trkpt><trkpt lat="45.6236033" lon="11.20003"><ele>422.0</ele><time>2026-04-25T14:46:44.001Z</time></trkpt><trkpt lat="45.6235033" lon="11.1999467"><ele>426.75</ele><time>2026-04-25T14:46:45.001Z</time></trkpt><trkpt lat="45.6234183" lon="11.1998233"><ele>431.5</ele><time>2026-04-25T14:46:46.001Z</time></trkpt><trkpt lat="45.6233567" lon="11.199635"><ele>436.25</ele><time>2026-04-25T14:46:47.001Z</time></trkpt><trkpt lat="45.6232833" lon="11.1994467"><ele>441.0</ele><time>2026-04-25T14:46:48.001Z</time></trkpt><trkpt lat="45.6232067" lon="11.1992567"><ele>441.0</ele><time>2026-04-25T14:46:49.001Z</time></trkpt><trkpt lat="45.6231383" lon="11.1990917"><ele>441.0</ele><time>2026-04-25T14:46:50.001Z</time></trkpt><trkpt lat="45.62308" lon="11.1989583"><ele>441.0</ele><time>2026-04-25T14:46:51.001Z</time></trkpt><trkpt lat="45.623045" lon="11.198815"><ele>441.0</ele><time>2026-04-25T14:46:52.001Z</time></trkpt><trkpt lat="45.6230267" lon="11.1986467"><ele>449.33333333333337</ele><time>2026-04-25T14:46:53.001Z</time></trkpt><trkpt lat="45.6230117" lon="11.1984567"><ele>457.6666666666667</ele><time>2026-04-25T14:46:54.001Z</time></trkpt><trkpt lat="45.6229933" lon="11.1982383"><ele>466.0</ele><time>2026-04-25T14:46:55.001Z</time></trkpt><trkpt lat="45.6229583" lon="11.1980117"><ele>474.0</ele><time>2026-04-25T14:46:56.001Z</time></trkpt><trkpt lat="45.6229" lon="11.1977917"><ele>482.0</ele><time>2026-04-25T14:46:57.001Z</time></trkpt><trkpt lat="45.6228467" lon="11.1975783"><ele>490.0</ele><time>2026-04-25T14:46:58.001Z</time></trkpt><trkpt lat="45.6227967" lon="11.1973783"><ele>484.2</ele><time>2026-04-25T14:46:59.002Z</time></trkpt><trkpt lat="45.6227333" lon="11.1972217"><ele>478.4</ele><time>2026-04-25T14:47:00.001Z</time></trkpt><trkpt lat="45.6226567" lon="11.1971217"><ele>472.6</ele><time>2026-04-25T14:47:01.001Z</time></trkpt><trkpt lat="45.6226017" lon="11.1970217"><ele>466.8</ele><time>2026-04-25T14:47:02.001Z</time></trkpt><trkpt lat="45.6225583" lon="11.1969317"><ele>461.0</ele><time>2026-04-25T14:47:03.001Z</time></trkpt><trkpt lat="45.62253" lon="11.1968217"><ele>461.0</ele><time>2026-04-25T14:47:04.001Z</time></trkpt><trkpt lat="45.62251" lon="11.1967133"><ele>461.00000000000006</ele><time>2026-04-25T14:47:05.001Z</time></trkpt><trkpt lat="45.62249" lon="11.19662"><ele>461.0</ele><time>2026-04-25T14:47:06.001Z</time></trkpt><trkpt lat="45.6224467" lon="11.1965467"><ele>461.0</ele><time>2026-04-25T14:47:07.001Z</time></trkpt><trkpt lat="45.62239" lon="11.196485"><ele>461.00000000000006</ele><time>2026-04-25T14:47:08.001Z</time></trkpt><trkpt lat="45.6223" lon="11.196495"><ele>461.0</ele><time>2026-04-25T14:47:09.001Z</time></trkpt><trkpt lat="45.62223" lon="11.1964617"><ele>461.0</ele><time>2026-04-25T14:47:10.001Z</time></trkpt><trkpt lat="45.622165" lon="11.1964417"><ele>461.49999999999994</ele><time>2026-04-25T14:47:11.001Z</time></trkpt><trkpt lat="45.62207" lon="11.1964617"><ele>462.0</ele><time>2026-04-25T14:47:12.001Z</time></trkpt><trkpt lat="45.621995" lon="11.1964267"><ele>462.5</ele><time>2026-04-25T14:47:13.001Z</time></trkpt><trkpt lat="45.6219167" lon="11.1963967"><ele>463.0</ele><time>2026-04-25T14:47:14.001Z</time></trkpt><trkpt lat="45.6218533" lon="11.1963633"><ele>463.49999999999994</ele><time>2026-04-25T14:47:15.001Z</time></trkpt><trkpt lat="45.6217667" lon="11.1962633"><ele>464.0</ele><time>2026-04-25T14:47:17.001Z</time></trkpt><trkpt lat="45.6216933" lon="11.1961483"><ele>464.0</ele><time>2026-04-25T14:47:19.001Z</time></trkpt><trkpt lat="45.6216133" lon="11.1960283"><ele>464.0</ele><time>2026-04-25T14:47:21.001Z</time></trkpt><trkpt lat="45.6215333" lon="11.195945"><ele>464.0</ele><time>2026-04-25T14:47:23.001Z</time></trkpt><trkpt lat="45.6214867" lon="11.1957967"><ele>464.0</ele><time>2026-04-25T14:47:25.001Z</time></trkpt><trkpt lat="45.621465" lon="11.1956317"><ele>464.0</ele><time>2026-04-25T14:47:27.001Z</time></trkpt><trkpt lat="45.6214567" lon="11.19554"><ele>467.1428571428572</ele><time>2026-04-25T14:47:28.001Z</time></trkpt><trkpt lat="45.621455" lon="11.1954367"><ele>470.28571428571433</ele><time>2026-04-25T14:47:29.001Z</time></trkpt><trkpt lat="45.6214383" lon="11.1953433"><ele>473.42857142857144</ele><time>2026-04-25T14:47:30.001Z</time></trkpt><trkpt lat="45.6214217" lon="11.1952467"><ele>476.5714285714286</ele><time>2026-04-25T14:47:31.001Z</time></trkpt><trkpt lat="45.62141" lon="11.1951517"><ele>479.7142857142858</ele><time>2026-04-25T14:47:32.001Z</time></trkpt><trkpt lat="45.6214017" lon="11.1950467"><ele>482.85714285714283</ele><time>2026-04-25T14:47:33.001Z</time></trkpt><trkpt lat="45.6213917" lon="11.19494"><ele>486.0</ele><time>2026-04-25T14:47:34.001Z</time></trkpt><trkpt lat="45.6213817" lon="11.1948433"><ele>490.0</ele><time>2026-04-25T14:47:35.001Z</time></trkpt><trkpt lat="45.62136" lon="11.19467"><ele>494.0</ele><time>2026-04-25T14:47:37.001Z</time></trkpt><trkpt lat="45.62133" lon="11.194505"><ele>498.0</ele><time>2026-04-25T14:47:39.001Z</time></trkpt><trkpt lat="45.6212933" lon="11.1943483"><ele>502.0</ele><time>2026-04-25T14:47:41.001Z</time></trkpt><trkpt lat="45.6212333" lon="11.1942133"><ele>502.0</ele><time>2026-04-25T14:47:43.001Z</time></trkpt><trkpt lat="45.6211667" lon="11.1940717"><ele>502.00000000000006</ele><time>2026-04-25T14:47:45.001Z</time></trkpt><trkpt lat="45.6211033" lon="11.1939167"><ele>502.00000000000006</ele><time>2026-04-25T14:47:47.001Z</time></trkpt><trkpt lat="45.6210483" lon="11.193785"><ele>502.0</ele><time>2026-04-25T14:47:49.001Z</time></trkpt><trkpt lat="45.620995" lon="11.1936867"><ele>502.0</ele><time>2026-04-25T14:47:51.001Z</time></trkpt><trkpt lat="45.6209533" lon="11.1936167"><ele>502.0</ele><time>2026-04-25T14:47:54.001Z</time></trkpt><trkpt lat="45.620965" lon="11.1937067"><ele>502.00000000000006</ele><time>2026-04-25T14:48:00.001Z</time></trkpt><trkpt lat="45.621035" lon="11.193875"><ele>502.00000000000006</ele><time>2026-04-25T14:48:02.001Z</time></trkpt><trkpt lat="45.6210933" lon="11.194"><ele>502.0</ele><time>2026-04-25T14:48:03.001Z</time></trkpt><trkpt lat="45.6211633" lon="11.1941333"><ele>502.0</ele><time>2026-04-25T14:48:04.001Z</time></trkpt><trkpt lat="45.6212383" lon="11.194275"><ele>502.0</ele><time>2026-04-25T14:48:05.001Z</time></trkpt><trkpt lat="45.6213017" lon="11.1944233"><ele>502.0</ele><time>2026-04-25T14:48:06.001Z</time></trkpt><trkpt lat="45.6213367" lon="11.1946117"><ele>502.0</ele><time>2026-04-25T14:48:07.001Z</time></trkpt><trkpt lat="45.621375" lon="11.1948317"><ele>502.0</ele><time>2026-04-25T14:48:08.001Z</time></trkpt><trkpt lat="45.621405" lon="11.1950833"><ele>498.0</ele><time>2026-04-25T14:48:09.001Z</time></trkpt><trkpt lat="45.62143" lon="11.1953167"><ele>494.0</ele><time>2026-04-25T14:48:10.001Z</time></trkpt><trkpt lat="45.6214533" lon="11.1955183"><ele>490.0</ele><time>2026-04-25T14:48:11.001Z</time></trkpt><trkpt lat="45.6214667" lon="11.1957067"><ele>486.0</ele><time>2026-04-25T14:48:12.001Z</time></trkpt><trkpt lat="45.621485" lon="11.1958617"><ele>480.5</ele><time>2026-04-25T14:48:13.001Z</time></trkpt><trkpt lat="45.62151" lon="11.1960117"><ele>475.0</ele><time>2026-04-25T14:48:14.001Z</time></trkpt><trkpt lat="45.6215767" lon="11.196165"><ele>469.5</ele><time>2026-04-25T14:48:15.001Z</time></trkpt><trkpt lat="45.62167" lon="11.1963083"><ele>464.0</ele><time>2026-04-25T14:48:16.001Z</time></trkpt><trkpt lat="45.62178" lon="11.1964383"><ele>463.25</ele><time>2026-04-25T14:48:17.001Z</time></trkpt><trkpt lat="45.6219083" lon="11.196555"><ele>462.5</ele><time>2026-04-25T14:48:18.001Z</time></trkpt><trkpt lat="45.6220283" lon="11.1966283"><ele>461.75</ele><time>2026-04-25T14:48:19.001Z</time></trkpt><trkpt lat="45.622145" lon="11.1966667"><ele>461.0</ele><time>2026-04-25T14:48:20.001Z</time></trkpt><trkpt lat="45.6222333" lon="11.1967067"><ele>461.0</ele><time>2026-04-25T14:48:21.001Z</time></trkpt><trkpt lat="45.622305" lon="11.1967333"><ele>461.0</ele><time>2026-04-25T14:48:22.001Z</time></trkpt><trkpt lat="45.622395" lon="11.1967317"><ele>461.0</ele><time>2026-04-25T14:48:24.001Z</time></trkpt><trkpt lat="45.6222167" lon="11.19671"><ele>461.0</ele><time>2026-04-25T14:48:40.001Z</time></trkpt><trkpt lat="45.622125" lon="11.1966933"><ele>461.0</ele><time>2026-04-25T14:48:42.001Z</time></trkpt><trkpt lat="45.6220033" lon="11.1966283"><ele>461.49999999999994</ele><time>2026-04-25T14:48:44.001Z</time></trkpt><trkpt lat="45.6219333" lon="11.1965817"><ele>462.0</ele><time>2026-04-25T14:48:45.001Z</time></trkpt><trkpt lat="45.6218633" lon="11.1965367"><ele>462.5</ele><time>2026-04-25T14:48:46.001Z</time></trkpt><trkpt lat="45.6217933" lon="11.19648"><ele>463.0</ele><time>2026-04-25T14:48:47.001Z</time></trkpt><trkpt lat="45.6217217" lon="11.1964067"><ele>463.49999999999994</ele><time>2026-04-25T14:48:48.002Z</time></trkpt><trkpt lat="45.6216533" lon="11.1963083"><ele>464.0</ele><time>2026-04-25T14:48:49.001Z</time></trkpt><trkpt lat="45.6216083" lon="11.1961567"><ele>464.0</ele><time>2026-04-25T14:48:50.001Z</time></trkpt><trkpt lat="45.62156" lon="11.1960217"><ele>464.0</ele><time>2026-04-25T14:48:51.001Z</time></trkpt><trkpt lat="45.6215083" lon="11.195915"><ele>464.0</ele><time>2026-04-25T14:48:52.001Z</time></trkpt><trkpt lat="45.6214767" lon="11.1957933"><ele>464.0</ele><time>2026-04-25T14:48:53.001Z</time></trkpt><trkpt lat="45.6214567" lon="11.1956683"><ele>464.0</ele><time>2026-04-25T14:48:54.001Z</time></trkpt><trkpt lat="45.6214567" lon="11.1955417"><ele>468.4</ele><time>2026-04-25T14:48:55.001Z</time></trkpt><trkpt lat="45.6214483" lon="11.1954033"><ele>472.79999999999995</ele><time>2026-04-25T14:48:56.001Z</time></trkpt><trkpt lat="45.6214283" lon="11.1952633"><ele>477.20000000000005</ele><time>2026-04-25T14:48:57.001Z</time></trkpt><trkpt lat="45.6214083" lon="11.1951283"><ele>481.6</ele><time>2026-04-25T14:48:58.001Z</time></trkpt><trkpt lat="45.6213933" lon="11.1949983"><ele>486.0</ele><time>2026-04-25T14:48:59.001Z</time></trkpt><trkpt lat="45.6213833" lon="11.1948617"><ele>490.0</ele><time>2026-04-25T14:49:00.001Z</time></trkpt><trkpt lat="45.62136" lon="11.1947033"><ele>494.0</ele><time>2026-04-25T14:49:01.001Z</time></trkpt><trkpt lat="45.6213333" lon="11.1945283"><ele>498.0</ele><time>2026-04-25T14:49:02.001Z</time></trkpt><trkpt lat="45.6212783" lon="11.1943383"><ele>502.0</ele><time>2026-04-25T14:49:03.001Z</time></trkpt><trkpt lat="45.6211917" lon="11.1941217"><ele>495.6666666666667</ele><time>2026-04-25T14:49:04.001Z</time></trkpt><trkpt lat="45.6210967" lon="11.1938867"><ele>489.33333333333337</ele><time>2026-04-25T14:49:05.001Z</time></trkpt><trkpt lat="45.6209967" lon="11.1936633"><ele>483.0</ele><time>2026-04-25T14:49:06.001Z</time></trkpt><trkpt lat="45.6208967" lon="11.1934517"><ele>483.0</ele><time>2026-04-25T14:49:07.001Z</time></trkpt><trkpt lat="45.62079" lon="11.1932667"><ele>483.0</ele><time>2026-04-25T14:49:08.001Z</time></trkpt><trkpt lat="45.620675" lon="11.1931217"><ele>483.0</ele><time>2026-04-25T14:49:09.001Z</time></trkpt><trkpt lat="45.6205517" lon="11.19302"><ele>480.75</ele><time>2026-04-25T14:49:10.001Z</time></trkpt><trkpt lat="45.6204433" lon="11.19293"><ele>478.5</ele><time>2026-04-25T14:49:11.001Z</time></trkpt><trkpt lat="45.620355" lon="11.1928217"><ele>476.25</ele><time>2026-04-25T14:49:12.001Z</time></trkpt><trkpt lat="45.620285" lon="11.1926917"><ele>474.0</ele><time>2026-04-25T14:49:13.001Z</time></trkpt><trkpt lat="45.6202233" lon="11.19253"><ele>477.33333333333337</ele><time>2026-04-25T14:49:14.001Z</time></trkpt><trkpt lat="45.6201933" lon="11.1923367"><ele>480.6666666666667</ele><time>2026-04-25T14:49:15.002Z</time></trkpt><trkpt lat="45.6201683" lon="11.192115"><ele>484.0</ele><time>2026-04-25T14:49:16.001Z</time></trkpt><trkpt lat="45.6201533" lon="11.1918717"><ele>484.0</ele><time>2026-04-25T14:49:17.001Z</time></trkpt><trkpt lat="45.62017" lon="11.1915983"><ele>484.0</ele><time>2026-04-25T14:49:18.001Z</time></trkpt><trkpt lat="45.6201933" lon="11.19137"><ele>484.0</ele><time>2026-04-25T14:49:19.001Z</time></trkpt><trkpt lat="45.6202333" lon="11.1911567"><ele>485.6666666666667</ele><time>2026-04-25T14:49:20.001Z</time></trkpt><trkpt lat="45.620295" lon="11.1909567"><ele>487.33333333333337</ele><time>2026-04-25T14:49:21.001Z</time></trkpt><trkpt lat="45.6203583" lon="11.1907583"><ele>489.0</ele><time>2026-04-25T14:49:22.001Z</time></trkpt><trkpt lat="45.6204483" lon="11.1905633"><ele>489.0</ele><time>2026-04-25T14:49:23.001Z</time></trkpt><trkpt lat="45.6206317" lon="11.1903967"><ele>489.0</ele><time>2026-04-25T14:49:24.001Z</time></trkpt><trkpt lat="45.6207983" lon="11.1902"><ele>489.0</ele><time>2026-04-25T14:49:25.001Z</time></trkpt><trkpt lat="45.62095" lon="11.1900217"><ele>489.0</ele><time>2026-04-25T14:49:26.001Z</time></trkpt><trkpt lat="45.62109" lon="11.18985"><ele>489.0</ele><time>2026-04-25T14:49:27.001Z</time></trkpt><trkpt lat="45.621245" lon="11.1897"><ele>489.0</ele><time>2026-04-25T14:49:28.001Z</time></trkpt><trkpt lat="45.621395" lon="11.1895433"><ele>494.66666666666663</ele><time>2026-04-25T14:49:29.001Z</time></trkpt><trkpt lat="45.6215317" lon="11.189385"><ele>500.3333333333333</ele><time>2026-04-25T14:49:30.001Z</time></trkpt><trkpt lat="45.62167" lon="11.189235"><ele>506.0</ele><time>2026-04-25T14:49:31.001Z</time></trkpt><trkpt lat="45.6218017" lon="11.1890833"><ele>506.75</ele><time>2026-04-25T14:49:32.001Z</time></trkpt><trkpt lat="45.6219267" lon="11.18894"><ele>507.5</ele><time>2026-04-25T14:49:33.001Z</time></trkpt><trkpt lat="45.6220417" lon="11.1888133"><ele>508.25</ele><time>2026-04-25T14:49:34.001Z</time></trkpt><trkpt lat="45.6221383" lon="11.18868"><ele>509.0</ele><time>2026-04-25T14:49:35.001Z</time></trkpt><trkpt lat="45.6222133" lon="11.1885217"><ele>511.79999999999995</ele><time>2026-04-25T14:49:36.001Z</time></trkpt><trkpt lat="45.6222883" lon="11.1883617"><ele>514.5999999999999</ele><time>2026-04-25T14:49:37.001Z</time></trkpt><trkpt lat="45.6223383" lon="11.188205"><ele>517.4</ele><time>2026-04-25T14:49:38.001Z</time></trkpt><trkpt lat="45.62236" lon="11.18807"><ele>520.1999999999999</ele><time>2026-04-25T14:49:39.001Z</time></trkpt><trkpt lat="45.6223483" lon="11.187955"><ele>523.0</ele><time>2026-04-25T14:49:40.001Z</time></trkpt><trkpt lat="45.622355" lon="11.1878517"><ele>523.0</ele><time>2026-04-25T14:49:41.001Z</time></trkpt><trkpt lat="45.62241" lon="11.187725"><ele>523.0</ele><time>2026-04-25T14:49:43.001Z</time></trkpt><trkpt lat="45.6224717" lon="11.1877567"><ele>523.0</ele><time>2026-04-25T14:49:45.001Z</time></trkpt><trkpt lat="45.6224967" lon="11.18784"><ele>523.0</ele><time>2026-04-25T14:49:46.001Z</time></trkpt><trkpt lat="45.6224967" lon="11.1879767"><ele>523.0</ele><time>2026-04-25T14:49:47.001Z</time></trkpt><trkpt lat="45.6224717" lon="11.18813"><ele>523.0</ele><time>2026-04-25T14:49:48.001Z</time></trkpt><trkpt lat="45.6224333" lon="11.1883017"><ele>523.0</ele><time>2026-04-25T14:49:49.001Z</time></trkpt><trkpt lat="45.6224017" lon="11.18847"><ele>523.0</ele><time>2026-04-25T14:49:50.001Z</time></trkpt><trkpt lat="45.6223667" lon="11.188625"><ele>523.0</ele><time>2026-04-25T14:49:51.001Z</time></trkpt><trkpt lat="45.6223283" lon="11.1887867"><ele>523.0</ele><time>2026-04-25T14:49:52.001Z</time></trkpt><trkpt lat="45.6222583" lon="11.188935"><ele>526.25</ele><time>2026-04-25T14:49:53.001Z</time></trkpt><trkpt lat="45.62218" lon="11.18907"><ele>529.5</ele><time>2026-04-25T14:49:54.002Z</time></trkpt><trkpt lat="45.6220983" lon="11.18921"><ele>532.75</ele><time>2026-04-25T14:49:55.001Z</time></trkpt><trkpt lat="45.6220067" lon="11.1893717"><ele>536.0</ele><time>2026-04-25T14:49:56.001Z</time></trkpt><trkpt lat="45.621915" lon="11.1895233"><ele>531.8</ele><time>2026-04-25T14:49:57.001Z</time></trkpt><trkpt lat="45.62183" lon="11.18966"><ele>527.6</ele><time>2026-04-25T14:49:58.001Z</time></trkpt><trkpt lat="45.6217467" lon="11.1897667"><ele>523.4</ele><time>2026-04-25T14:49:59.001Z</time></trkpt><trkpt lat="45.6216767" lon="11.189845"><ele>519.2</ele><time>2026-04-25T14:50:00.001Z</time></trkpt><trkpt lat="45.6216267" lon="11.1899317"><ele>515.0</ele><time>2026-04-25T14:50:01.001Z</time></trkpt><trkpt lat="45.6215833" lon="11.1900217"><ele>515.0</ele><time>2026-04-25T14:50:02.001Z</time></trkpt><trkpt lat="45.6215883" lon="11.190165"><ele>515.0</ele><time>2026-04-25T14:50:04.001Z</time></trkpt><trkpt lat="45.62166" lon="11.1901417"><ele>515.0</ele><time>2026-04-25T14:50:06.001Z</time></trkpt><trkpt lat="45.621725" lon="11.1900567"><ele>515.0</ele><time>2026-04-25T14:50:07.001Z</time></trkpt><trkpt lat="45.6217933" lon="11.18993"><ele>515.0</ele><time>2026-04-25T14:50:08.001Z</time></trkpt><trkpt lat="45.6218683" lon="11.18979"><ele>512.75</ele><time>2026-04-25T14:50:09.001Z</time></trkpt><trkpt lat="45.62194" lon="11.189665"><ele>510.5</ele><time>2026-04-25T14:50:10.001Z</time></trkpt><trkpt lat="45.6220383" lon="11.1895417"><ele>508.25</ele><time>2026-04-25T14:50:11.001Z</time></trkpt><trkpt lat="45.6221517" lon="11.1893983"><ele>506.0</ele><time>2026-04-25T14:50:12.001Z</time></trkpt><trkpt lat="45.6222567" lon="11.1892633"><ele>511.66666666666663</ele><time>2026-04-25T14:50:13.001Z</time></trkpt><trkpt lat="45.6223683" lon="11.18912"><ele>517.3333333333334</ele><time>2026-04-25T14:50:14.001Z</time></trkpt><trkpt lat="45.6224717" lon="11.1889467"><ele>523.0</ele><time>2026-04-25T14:50:15.001Z</time></trkpt><trkpt lat="45.622565" lon="11.18876"><ele>523.0</ele><time>2026-04-25T14:50:16.001Z</time></trkpt><trkpt lat="45.6226367" lon="11.188565"><ele>523.0</ele><time>2026-04-25T14:50:17.001Z</time></trkpt><trkpt lat="45.6226967" lon="11.188395"><ele>523.0</ele><time>2026-04-25T14:50:18.001Z</time></trkpt><trkpt lat="45.6227617" lon="11.1882517"><ele>523.0</ele><time>2026-04-25T14:50:19.001Z</time></trkpt><trkpt lat="45.6228383" lon="11.1881233"><ele>526.5</ele><time>2026-04-25T14:50:20.001Z</time></trkpt><trkpt lat="45.6229433" lon="11.187995"><ele>530.0</ele><time>2026-04-25T14:50:21.001Z</time></trkpt><trkpt lat="45.62306" lon="11.1878667"><ele>533.5</ele><time>2026-04-25T14:50:22.001Z</time></trkpt><trkpt lat="45.62319" lon="11.1877417"><ele>537.0</ele><time>2026-04-25T14:50:23.001Z</time></trkpt><trkpt lat="45.6233083" lon="11.1876383"><ele>537.0</ele><time>2026-04-25T14:50:24.001Z</time></trkpt><trkpt lat="45.6234167" lon="11.187555"><ele>537.0</ele><time>2026-04-25T14:50:25.001Z</time></trkpt><trkpt lat="45.623525" lon="11.187475"><ele>537.0</ele><time>2026-04-25T14:50:26.001Z</time></trkpt><trkpt lat="45.6236083" lon="11.1874067"><ele>537.0</ele><time>2026-04-25T14:50:27.001Z</time></trkpt><trkpt lat="45.6237317" lon="11.1873433"><ele>538.75</ele><time>2026-04-25T14:50:28.001Z</time></trkpt><trkpt lat="45.62385" lon="11.1872783"><ele>540.5</ele><time>2026-04-25T14:50:29.001Z</time></trkpt><trkpt lat="45.62397" lon="11.1871967"><ele>542.25</ele><time>2026-04-25T14:50:30.001Z</time></trkpt><trkpt lat="45.6240767" lon="11.1871083"><ele>544.0</ele><time>2026-04-25T14:50:31.001Z</time></trkpt><trkpt lat="45.62417" lon="11.1869883"><ele>544.0</ele><time>2026-04-25T14:50:32.001Z</time></trkpt><trkpt lat="45.6242417" lon="11.186875"><ele>544.0</ele><time>2026-04-25T14:50:33.001Z</time></trkpt><trkpt lat="45.624315" lon="11.1867617"><ele>544.0</ele><time>2026-04-25T14:50:34.001Z</time></trkpt><trkpt lat="45.6243783" lon="11.186675"><ele>544.0</ele><time>2026-04-25T14:50:35.001Z</time></trkpt><trkpt lat="45.62444" lon="11.1866067"><ele>544.0</ele><time>2026-04-25T14:50:36.001Z</time></trkpt><trkpt lat="45.6245067" lon="11.1865417"><ele>544.9999999999999</ele><time>2026-04-25T14:50:37.001Z</time></trkpt><trkpt lat="45.6245683" lon="11.1864917"><ele>546.0</ele><time>2026-04-25T14:50:38.001Z</time></trkpt><trkpt lat="45.6246333" lon="11.1864417"><ele>547.0</ele><time>2026-04-25T14:50:39.001Z</time></trkpt><trkpt lat="45.6247067" lon="11.186405"><ele>548.0</ele><time>2026-04-25T14:50:40.001Z</time></trkpt><trkpt lat="45.62477" lon="11.1863717"><ele>549.0</ele><time>2026-04-25T14:50:41.001Z</time></trkpt><trkpt lat="45.624845" lon="11.1863633"><ele>549.9999999999999</ele><time>2026-04-25T14:50:42.001Z</time></trkpt><trkpt lat="45.62492" lon="11.1863733"><ele>551.0</ele><time>2026-04-25T14:50:43.001Z</time></trkpt><trkpt lat="45.625005" lon="11.1863767"><ele>551.0</ele><time>2026-04-25T14:50:44.001Z</time></trkpt><trkpt lat="45.6251017" lon="11.18639"><ele>551.0</ele><time>2026-04-25T14:50:45.001Z</time></trkpt><trkpt lat="45.6251917" lon="11.1863967"><ele>551.0</ele><time>2026-04-25T14:50:46.001Z</time></trkpt><trkpt lat="45.6252783" lon="11.186385"><ele>551.0</ele><time>2026-04-25T14:50:47.001Z</time></trkpt><trkpt lat="45.6253633" lon="11.18635"><ele>551.0</ele><time>2026-04-25T14:50:48.001Z</time></trkpt><trkpt lat="45.6254517" lon="11.1862967"><ele>555.5</ele><time>2026-04-25T14:50:49.001Z</time></trkpt><trkpt lat="45.6255283" lon="11.1861767"><ele>560.0</ele><time>2026-04-25T14:50:50.001Z</time></trkpt><trkpt lat="45.6256083" lon="11.1860417"><ele>564.5</ele><time>2026-04-25T14:50:51.001Z</time></trkpt><trkpt lat="45.6256817" lon="11.18588"><ele>569.0</ele><time>2026-04-25T14:50:52.001Z</time></trkpt><trkpt lat="45.625765" lon="11.1857667"><ele>570.0</ele><time>2026-04-25T14:50:53.001Z</time></trkpt><trkpt lat="45.62586" lon="11.1856533"><ele>571.0</ele><time>2026-04-25T14:50:54.001Z</time></trkpt><trkpt lat="45.6259533" lon="11.1855617"><ele>572.0</ele><time>2026-04-25T14:50:55.001Z</time></trkpt><trkpt lat="45.62605" lon="11.1854867"><ele>573.0</ele><time>2026-04-25T14:50:56.001Z</time></trkpt><trkpt lat="45.6261517" lon="11.1854133"><ele>576.0</ele><time>2026-04-25T14:50:57.001Z</time></trkpt><trkpt lat="45.626265" lon="11.1853167"><ele>579.0</ele><time>2026-04-25T14:50:58.001Z</time></trkpt><trkpt lat="45.62637" lon="11.1851933"><ele>582.0</ele><time>2026-04-25T14:50:59.001Z</time></trkpt><trkpt lat="45.6264767" lon="11.1850633"><ele>585.0</ele><time>2026-04-25T14:51:00.001Z</time></trkpt><trkpt lat="45.6265867" lon="11.1849267"><ele>583.25</ele><time>2026-04-25T14:51:01.001Z</time></trkpt><trkpt lat="45.62668" lon="11.184775"><ele>581.5</ele><time>2026-04-25T14:51:02.001Z</time></trkpt><trkpt lat="45.6267783" lon="11.1846433"><ele>579.75</ele><time>2026-04-25T14:51:03.001Z</time></trkpt><trkpt lat="45.6268617" lon="11.18453"><ele>578.0</ele><time>2026-04-25T14:51:04.001Z</time></trkpt><trkpt lat="45.62694" lon="11.1844317"><ele>582.5</ele><time>2026-04-25T14:51:05.001Z</time></trkpt><trkpt lat="45.62702" lon="11.184325"><ele>587.0</ele><time>2026-04-25T14:51:06.001Z</time></trkpt><trkpt lat="45.6271017" lon="11.1842033"><ele>591.5</ele><time>2026-04-25T14:51:07.001Z</time></trkpt><trkpt lat="45.627175" lon="11.18407"><ele>596.0</ele><time>2026-04-25T14:51:08.001Z</time></trkpt><trkpt lat="45.6272483" lon="11.183935"><ele>596.0</ele><time>2026-04-25T14:51:09.001Z</time></trkpt><trkpt lat="45.6273" lon="11.1837817"><ele>596.0</ele><time>2026-04-25T14:51:10.001Z</time></trkpt><trkpt lat="45.6273433" lon="11.1836117"><ele>596.0</ele><time>2026-04-25T14:51:11.001Z</time></trkpt><trkpt lat="45.627375" lon="11.183465"><ele>596.0</ele><time>2026-04-25T14:51:12.001Z</time></trkpt><trkpt lat="45.6274133" lon="11.1833333"><ele>596.0</ele><time>2026-04-25T14:51:13.001Z</time></trkpt><trkpt lat="45.6274667" lon="11.1832133"><ele>596.0</ele><time>2026-04-25T14:51:14.001Z</time></trkpt><trkpt lat="45.627535" lon="11.183115"><ele>596.0</ele><time>2026-04-25T14:51:15.001Z</time></trkpt><trkpt lat="45.6276217" lon="11.18304"><ele>596.0</ele><time>2026-04-25T14:51:16.001Z</time></trkpt><trkpt lat="45.6277333" lon="11.1829867"><ele>596.0</ele><time>2026-04-25T14:51:17.001Z</time></trkpt><trkpt lat="45.6278583" lon="11.1829483"><ele>599.75</ele><time>2026-04-25T14:51:18.002Z</time></trkpt><trkpt lat="45.6279883" lon="11.182915"><ele>603.5</ele><time>2026-04-25T14:51:19.001Z</time></trkpt><trkpt lat="45.62811" lon="11.1828817"><ele>607.25</ele><time>2026-04-25T14:51:20.001Z</time></trkpt><trkpt lat="45.6282333" lon="11.18284"><ele>611.0</ele><time>2026-04-25T14:51:21.001Z</time></trkpt><trkpt lat="45.628345" lon="11.1828167"><ele>611.0</ele><time>2026-04-25T14:51:22.001Z</time></trkpt><trkpt lat="45.6284317" lon="11.1827817"><ele>611.0</ele><time>2026-04-25T14:51:23.001Z</time></trkpt><trkpt lat="45.6285133" lon="11.18274"><ele>611.0</ele><time>2026-04-25T14:51:24.001Z</time></trkpt><trkpt lat="45.6285833" lon="11.1826833"><ele>611.0</ele><time>2026-04-25T14:51:25.001Z</time></trkpt><trkpt lat="45.6286417" lon="11.1826217"><ele>611.0</ele><time>2026-04-25T14:51:26.001Z</time></trkpt><trkpt lat="45.6287233" lon="11.1825483"><ele>611.0</ele><time>2026-04-25T14:51:28.001Z</time></trkpt><trkpt lat="45.6287283" lon="11.1826483"><ele>611.0</ele><time>2026-04-25T14:51:34.002Z</time></trkpt><trkpt lat="45.628625" lon="11.1827483"><ele>611.0</ele><time>2026-04-25T14:51:36.001Z</time></trkpt><trkpt lat="45.6285617" lon="11.1827917"><ele>611.0</ele><time>2026-04-25T14:51:37.001Z</time></trkpt><trkpt lat="45.6284983" lon="11.1828417"><ele>611.0</ele><time>2026-04-25T14:51:38.001Z</time></trkpt><trkpt lat="45.62844" lon="11.1828817"><ele>611.0</ele><time>2026-04-25T14:51:39.001Z</time></trkpt><trkpt lat="45.6283717" lon="11.18292"><ele>611.0</ele><time>2026-04-25T14:51:40.001Z</time></trkpt><trkpt lat="45.6282967" lon="11.1829617"><ele>611.0</ele><time>2026-04-25T14:51:41.001Z</time></trkpt><trkpt lat="45.6282283" lon="11.183015"><ele>611.0</ele><time>2026-04-25T14:51:42.001Z</time></trkpt><trkpt lat="45.6281567" lon="11.1830667"><ele>611.0</ele><time>2026-04-25T14:51:43.001Z</time></trkpt><trkpt lat="45.628075" lon="11.18312"><ele>611.0</ele><time>2026-04-25T14:51:44.001Z</time></trkpt><trkpt lat="45.6279917" lon="11.1831733"><ele>611.0</ele><time>2026-04-25T14:51:45.001Z</time></trkpt><trkpt lat="45.6279" lon="11.1832133"><ele>611.0</ele><time>2026-04-25T14:51:46.001Z</time></trkpt><trkpt lat="45.6278083" lon="11.1832433"><ele>608.0</ele><time>2026-04-25T14:51:47.001Z</time></trkpt><trkpt lat="45.6277217" lon="11.1832917"><ele>605.0</ele><time>2026-04-25T14:51:48.001Z</time></trkpt><trkpt lat="45.627635" lon="11.1833417"><ele>602.0</ele><time>2026-04-25T14:51:49.001Z</time></trkpt><trkpt lat="45.6275633" lon="11.1834133"><ele>599.0</ele><time>2026-04-25T14:51:50.001Z</time></trkpt><trkpt lat="45.6275083" lon="11.1835067"><ele>596.0</ele><time>2026-04-25T14:51:51.001Z</time></trkpt><trkpt lat="45.62747" lon="11.1836367"><ele>596.0</ele><time>2026-04-25T14:51:52.001Z</time></trkpt><trkpt lat="45.627455" lon="11.183795"><ele>596.0</ele><time>2026-04-25T14:51:53.001Z</time></trkpt><trkpt lat="45.62746" lon="11.1839667"><ele>596.0</ele><time>2026-04-25T14:51:54.001Z</time></trkpt><trkpt lat="45.6274667" lon="11.1841383"><ele>596.0</ele><time>2026-04-25T14:51:55.001Z</time></trkpt><trkpt lat="45.6274767" lon="11.1843117"><ele>599.75</ele><time>2026-04-25T14:51:56.001Z</time></trkpt><trkpt lat="45.6274567" lon="11.184475"><ele>603.5</ele><time>2026-04-25T14:51:57.001Z</time></trkpt><trkpt lat="45.62742" lon="11.184635"><ele>607.25</ele><time>2026-04-25T14:51:58.001Z</time></trkpt><trkpt lat="45.6273567" lon="11.1848017"><ele>611.0</ele><time>2026-04-25T14:51:59.001Z</time></trkpt><trkpt lat="45.6272867" lon="11.1849533"><ele>617.75</ele><time>2026-04-25T14:52:00.001Z</time></trkpt><trkpt lat="45.6272267" lon="11.18511"><ele>624.5</ele><time>2026-04-25T14:52:01.001Z</time></trkpt><trkpt lat="45.6271617" lon="11.1852483"><ele>631.25</ele><time>2026-04-25T14:52:02.001Z</time></trkpt><trkpt lat="45.6271033" lon="11.1854117"><ele>638.0</ele><time>2026-04-25T14:52:03.001Z</time></trkpt><trkpt lat="45.6270483" lon="11.1855883"><ele>641.75</ele><time>2026-04-25T14:52:04.001Z</time></trkpt><trkpt lat="45.62702" lon="11.1857783"><ele>645.5</ele><time>2026-04-25T14:52:05.001Z</time></trkpt><trkpt lat="45.6270033" lon="11.1859867"><ele>649.25</ele><time>2026-04-25T14:52:06.001Z</time></trkpt><trkpt lat="45.6269817" lon="11.1861933"><ele>653.0</ele><time>2026-04-25T14:52:07.001Z</time></trkpt><trkpt lat="45.6269533" lon="11.1863833"><ele>644.75</ele><time>2026-04-25T14:52:08.001Z</time></trkpt><trkpt lat="45.6269067" lon="11.186575"><ele>636.5</ele><time>2026-04-25T14:52:09.002Z</time></trkpt><trkpt lat="45.62685" lon="11.1867367"><ele>628.25</ele><time>2026-04-25T14:52:10.001Z</time></trkpt><trkpt lat="45.62679" lon="11.186895"><ele>620.0</ele><time>2026-04-25T14:52:11.001Z</time></trkpt><trkpt lat="45.6266967" lon="11.18699"><ele>620.0</ele><time>2026-04-25T14:52:12.001Z</time></trkpt><trkpt lat="45.6266233" lon="11.187125"><ele>620.0</ele><time>2026-04-25T14:52:13.001Z</time></trkpt><trkpt lat="45.626565" lon="11.1872917"><ele>620.0</ele><time>2026-04-25T14:52:14.001Z</time></trkpt><trkpt lat="45.6265017" lon="11.1874633"><ele>620.0</ele><time>2026-04-25T14:52:15.001Z</time></trkpt><trkpt lat="45.6264383" lon="11.187635"><ele>625.0</ele><time>2026-04-25T14:52:16.002Z</time></trkpt><trkpt lat="45.6263783" lon="11.1878133"><ele>630.0</ele><time>2026-04-25T14:52:17.001Z</time></trkpt><trkpt lat="45.62631" lon="11.1879917"><ele>635.0</ele><time>2026-04-25T14:52:18.001Z</time></trkpt><trkpt lat="45.6262583" lon="11.188175"><ele>640.0</ele><time>2026-04-25T14:52:19.001Z</time></trkpt><trkpt lat="45.6262083" lon="11.1883533"><ele>635.25</ele><time>2026-04-25T14:52:20.001Z</time></trkpt><trkpt lat="45.6261667" lon="11.1885217"><ele>630.5</ele><time>2026-04-25T14:52:21.001Z</time></trkpt><trkpt lat="45.626115" lon="11.1886817"><ele>625.75</ele><time>2026-04-25T14:52:22.001Z</time></trkpt><trkpt lat="45.626035" lon="11.1888433"><ele>621.0</ele><time>2026-04-25T14:52:23.001Z</time></trkpt><trkpt lat="45.6259317" lon="11.1890017"><ele>626.5</ele><time>2026-04-25T14:52:24.001Z</time></trkpt><trkpt lat="45.625825" lon="11.1891433"><ele>632.0</ele><time>2026-04-25T14:52:25.001Z</time></trkpt><trkpt lat="45.6257267" lon="11.18928"><ele>637.5</ele><time>2026-04-25T14:52:26.001Z</time></trkpt><trkpt lat="45.6256367" lon="11.1894"><ele>643.0</ele><time>2026-04-25T14:52:27.001Z</time></trkpt><trkpt lat="45.6255583" lon="11.18953"><ele>643.0</ele><time>2026-04-25T14:52:28.001Z</time></trkpt><trkpt lat="45.6254833" lon="11.18968"><ele>643.0</ele><time>2026-04-25T14:52:29.001Z</time></trkpt><trkpt lat="45.6254083" lon="11.1898583"><ele>643.0</ele><time>2026-04-25T14:52:30.001Z</time></trkpt><trkpt lat="45.625345" lon="11.190045"><ele>643.0</ele><time>2026-04-25T14:52:31.001Z</time></trkpt><trkpt lat="45.6252833" lon="11.19021"><ele>643.5999999999999</ele><time>2026-04-25T14:52:32.001Z</time></trkpt><trkpt lat="45.6252067" lon="11.1903583"><ele>644.1999999999999</ele><time>2026-04-25T14:52:33.001Z</time></trkpt><trkpt lat="45.6251317" lon="11.1904917"><ele>644.8</ele><time>2026-04-25T14:52:34.001Z</time></trkpt><trkpt lat="45.6250633" lon="11.1905967"><ele>645.4</ele><time>2026-04-25T14:52:35.001Z</time></trkpt><trkpt lat="45.6250133" lon="11.1907133"><ele>646.0</ele><time>2026-04-25T14:52:36.001Z</time></trkpt><trkpt lat="45.624975" lon="11.19084"><ele>646.0</ele><time>2026-04-25T14:52:37.001Z</time></trkpt><trkpt lat="45.6249617" lon="11.1909767"><ele>646.0</ele><time>2026-04-25T14:52:38.001Z</time></trkpt><trkpt lat="45.62495" lon="11.1911133"><ele>646.0</ele><time>2026-04-25T14:52:39.001Z</time></trkpt><trkpt lat="45.6249483" lon="11.1912533"><ele>646.0</ele><time>2026-04-25T14:52:40.001Z</time></trkpt><trkpt lat="45.624965" lon="11.19139"><ele>646.0</ele><time>2026-04-25T14:52:41.001Z</time></trkpt><trkpt lat="45.6249617" lon="11.1915117"><ele>646.4</ele><time>2026-04-25T14:52:42.001Z</time></trkpt><trkpt lat="45.6250067" lon="11.19161"><ele>646.8</ele><time>2026-04-25T14:52:43.001Z</time></trkpt><trkpt lat="45.62507" lon="11.1916883"><ele>647.1999999999999</ele><time>2026-04-25T14:52:44.001Z</time></trkpt><trkpt lat="45.6251583" lon="11.19176"><ele>647.5999999999999</ele><time>2026-04-25T14:52:45.001Z</time></trkpt><trkpt lat="45.6252667" lon="11.19185"><ele>648.0</ele><time>2026-04-25T14:52:46.001Z</time></trkpt><trkpt lat="45.625375" lon="11.1919617"><ele>650.75</ele><time>2026-04-25T14:52:47.001Z</time></trkpt><trkpt lat="45.6254867" lon="11.192075"><ele>653.5</ele><time>2026-04-25T14:52:48.001Z</time></trkpt><trkpt lat="45.6256" lon="11.1922017"><ele>656.25</ele><time>2026-04-25T14:52:49.001Z</time></trkpt><trkpt lat="45.6257167" lon="11.1923283"><ele>659.0</ele><time>2026-04-25T14:52:50.001Z</time></trkpt><trkpt lat="45.6258133" lon="11.1924667"><ele>659.0</ele><time>2026-04-25T14:52:51.001Z</time></trkpt><trkpt lat="45.6258967" lon="11.19262"><ele>659.0</ele><time>2026-04-25T14:52:52.001Z</time></trkpt><trkpt lat="45.6259767" lon="11.1927917"><ele>659.0</ele><time>2026-04-25T14:52:53.001Z</time></trkpt><trkpt lat="45.6260583" lon="11.1929833"><ele>659.0</ele><time>2026-04-25T14:52:54.001Z</time></trkpt><trkpt lat="45.6261267" lon="11.1931733"><ele>665.25</ele><time>2026-04-25T14:52:55.001Z</time></trkpt><trkpt lat="45.62619" lon="11.1933517"><ele>671.5</ele><time>2026-04-25T14:52:56.001Z</time></trkpt><trkpt lat="45.6262617" lon="11.1934933"><ele>677.75</ele><time>2026-04-25T14:52:57.001Z</time></trkpt><trkpt lat="45.6263333" lon="11.1936467"><ele>684.0</ele><time>2026-04-25T14:52:58.001Z</time></trkpt><trkpt lat="45.6264017" lon="11.1938017"><ele>684.0</ele><time>2026-04-25T14:52:59.001Z</time></trkpt><trkpt lat="45.6264767" lon="11.1939483"><ele>684.0</ele><time>2026-04-25T14:53:00.001Z</time></trkpt><trkpt lat="45.62655" lon="11.1940883"><ele>684.0</ele><time>2026-04-25T14:53:01.001Z</time></trkpt><trkpt lat="45.6266333" lon="11.1942183"><ele>684.0</ele><time>2026-04-25T14:53:02.001Z</time></trkpt><trkpt lat="45.62673" lon="11.1943183"><ele>683.0</ele><time>2026-04-25T14:53:03.001Z</time></trkpt><trkpt lat="45.6268283" lon="11.1944033"><ele>682.0</ele><time>2026-04-25T14:53:04.001Z</time></trkpt><trkpt lat="45.6269283" lon="11.19447"><ele>681.0</ele><time>2026-04-25T14:53:05.001Z</time></trkpt><trkpt lat="45.6270233" lon="11.194515"><ele>680.0</ele><time>2026-04-25T14:53:06.001Z</time></trkpt><trkpt lat="45.6271233" lon="11.1945767"><ele>679.0</ele><time>2026-04-25T14:53:07.001Z</time></trkpt><trkpt lat="45.6272017" lon="11.1946467"><ele>681.0</ele><time>2026-04-25T14:53:08.001Z</time></trkpt><trkpt lat="45.62726" lon="11.1947267"><ele>683.0</ele><time>2026-04-25T14:53:09.001Z</time></trkpt><trkpt lat="45.6273083" lon="11.19484"><ele>685.0</ele><time>2026-04-25T14:53:10.001Z</time></trkpt><trkpt lat="45.6273583" lon="11.1949867"><ele>687.0</ele><time>2026-04-25T14:53:11.001Z</time></trkpt><trkpt lat="45.627425" lon="11.1951233"><ele>689.0</ele><time>2026-04-25T14:53:12.001Z</time></trkpt><trkpt lat="45.6275233" lon="11.195235"><ele>689.0</ele><time>2026-04-25T14:53:13.001Z</time></trkpt><trkpt lat="45.62764" lon="11.1953067"><ele>689.0</ele><time>2026-04-25T14:53:14.001Z</time></trkpt><trkpt lat="45.6277783" lon="11.195375"><ele>689.0</ele><time>2026-04-25T14:53:15.001Z</time></trkpt><trkpt lat="45.6279417" lon="11.1954333"><ele>689.0</ele><time>2026-04-25T14:53:16.001Z</time></trkpt><trkpt lat="45.6281267" lon="11.1954833"><ele>691.3333333333333</ele><time>2026-04-25T14:53:17.001Z</time></trkpt><trkpt lat="45.6283133" lon="11.19554"><ele>693.6666666666666</ele><time>2026-04-25T14:53:18.001Z</time></trkpt><trkpt lat="45.6284883" lon="11.1956133"><ele>696.0</ele><time>2026-04-25T14:53:19.001Z</time></trkpt><trkpt lat="45.6286383" lon="11.195705"><ele>700.0</ele><time>2026-04-25T14:53:20.001Z</time></trkpt><trkpt lat="45.6287533" lon="11.1957933"><ele>704.0</ele><time>2026-04-25T14:53:21.001Z</time></trkpt><trkpt lat="45.6288467" lon="11.1959"><ele>708.0</ele><time>2026-04-25T14:53:22.001Z</time></trkpt><trkpt lat="45.6289517" lon="11.195965"><ele>712.0</ele><time>2026-04-25T14:53:23.001Z</time></trkpt><trkpt lat="45.6290767" lon="11.195985"><ele>712.0</ele><time>2026-04-25T14:53:24.001Z</time></trkpt><trkpt lat="45.6292117" lon="11.1959817"><ele>712.0</ele><time>2026-04-25T14:53:25.001Z</time></trkpt><trkpt lat="45.6293517" lon="11.195965"><ele>712.0</ele><time>2026-04-25T14:53:26.001Z</time></trkpt><trkpt lat="45.6295017" lon="11.1959183"><ele>712.0</ele><time>2026-04-25T14:53:27.001Z</time></trkpt><trkpt lat="45.629645" lon="11.1958633"><ele>712.8</ele><time>2026-04-25T14:53:28.001Z</time></trkpt><trkpt lat="45.629775" lon="11.1958233"><ele>713.6</ele><time>2026-04-25T14:53:29.002Z</time></trkpt><trkpt lat="45.6298867" lon="11.1957883"><ele>714.4</ele><time>2026-04-25T14:53:30.001Z</time></trkpt><trkpt lat="45.6299867" lon="11.195785"><ele>715.1999999999999</ele><time>2026-04-25T14:53:31.001Z</time></trkpt><trkpt lat="45.6300683" lon="11.1958117"><ele>716.0</ele><time>2026-04-25T14:53:32.001Z</time></trkpt><trkpt lat="45.6301433" lon="11.195845"><ele>716.0</ele><time>2026-04-25T14:53:33.001Z</time></trkpt><trkpt lat="45.6302533" lon="11.19583"><ele>716.0</ele><time>2026-04-25T14:53:35.001Z</time></trkpt><trkpt lat="45.6302967" lon="11.1957283"><ele>716.0</ele><time>2026-04-25T14:53:37.001Z</time></trkpt><trkpt lat="45.6302333" lon="11.1956067"><ele>716.0</ele><time>2026-04-25T14:53:39.001Z</time></trkpt><trkpt lat="45.6301467" lon="11.1955483"><ele>716.0</ele><time>2026-04-25T14:53:40.001Z</time></trkpt><trkpt lat="45.6300583" lon="11.195495"><ele>724.25</ele><time>2026-04-25T14:53:41.001Z</time></trkpt><trkpt lat="45.629965" lon="11.195425"><ele>732.5</ele><time>2026-04-25T14:53:42.001Z</time></trkpt><trkpt lat="45.62986" lon="11.19534"><ele>740.75</ele><time>2026-04-25T14:53:43.001Z</time></trkpt><trkpt lat="45.629745" lon="11.1952283"><ele>749.0</ele><time>2026-04-25T14:53:44.001Z</time></trkpt><trkpt lat="45.629625" lon="11.1951217"><ele>749.0</ele><time>2026-04-25T14:53:45.002Z</time></trkpt><trkpt lat="45.629505" lon="11.195005"><ele>749.0</ele><time>2026-04-25T14:53:46.001Z</time></trkpt><trkpt lat="45.6293933" lon="11.1948883"><ele>749.0</ele><time>2026-04-25T14:53:47.001Z</time></trkpt><trkpt lat="45.6293067" lon="11.1947233"><ele>749.0</ele><time>2026-04-25T14:53:48.001Z</time></trkpt><trkpt lat="45.629225" lon="11.19461"><ele>750.0</ele><time>2026-04-25T14:53:49.001Z</time></trkpt><trkpt lat="45.6291467" lon="11.1944767"><ele>751.0</ele><time>2026-04-25T14:53:50.001Z</time></trkpt><trkpt lat="45.6290667" lon="11.1943017"><ele>752.0</ele><time>2026-04-25T14:53:51.001Z</time></trkpt><trkpt lat="45.62898" lon="11.1941267"><ele>753.0</ele><time>2026-04-25T14:53:52.001Z</time></trkpt><trkpt lat="45.6288867" lon="11.1939567"><ele>752.25</ele><time>2026-04-25T14:53:53.001Z</time></trkpt><trkpt lat="45.62878" lon="11.1938133"><ele>751.5</ele><time>2026-04-25T14:53:54.001Z</time></trkpt><trkpt lat="45.6286767" lon="11.1936783"><ele>750.75</ele><time>2026-04-25T14:53:55.001Z</time></trkpt><trkpt lat="45.6285867" lon="11.193545"><ele>750.0</ele><time>2026-04-25T14:53:56.001Z</time></trkpt><trkpt lat="45.62852" lon="11.1934017"><ele>750.0</ele><time>2026-04-25T14:53:57.001Z</time></trkpt><trkpt lat="45.6284667" lon="11.19323"><ele>750.0</ele><time>2026-04-25T14:53:58.001Z</time></trkpt><trkpt lat="45.6284" lon="11.193035"><ele>750.0</ele><time>2026-04-25T14:53:59.001Z</time></trkpt><trkpt lat="45.628325" lon="11.1928233"><ele>750.0</ele><time>2026-04-25T14:54:00.001Z</time></trkpt><trkpt lat="45.6282467" lon="11.1926317"><ele>754.25</ele><time>2026-04-25T14:54:01.001Z</time></trkpt><trkpt lat="45.6281833" lon="11.1924533"><ele>758.5</ele><time>2026-04-25T14:54:02.001Z</time></trkpt><trkpt lat="45.6281283" lon="11.19229"><ele>762.75</ele><time>2026-04-25T14:54:03.001Z</time></trkpt><trkpt lat="45.6280867" lon="11.1921067"><ele>767.0</ele><time>2026-04-25T14:54:04.001Z</time></trkpt><trkpt lat="45.6280567" lon="11.1919433"><ele>770.75</ele><time>2026-04-25T14:54:05.001Z</time></trkpt><trkpt lat="45.62803" lon="11.1917583"><ele>774.5</ele><time>2026-04-25T14:54:06.001Z</time></trkpt><trkpt lat="45.6279967" lon="11.1915967"><ele>778.25</ele><time>2026-04-25T14:54:07.001Z</time></trkpt><trkpt lat="45.6279367" lon="11.1914117"><ele>782.0</ele><time>2026-04-25T14:54:08.001Z</time></trkpt><trkpt lat="45.6278683" lon="11.19124"><ele>776.25</ele><time>2026-04-25T14:54:09.001Z</time></trkpt><trkpt lat="45.6278067" lon="11.1910767"><ele>770.5</ele><time>2026-04-25T14:54:10.001Z</time></trkpt><trkpt lat="45.6277417" lon="11.19093"><ele>764.75</ele><time>2026-04-25T14:54:11.001Z</time></trkpt><trkpt lat="45.6276867" lon="11.1907967"><ele>759.0</ele><time>2026-04-25T14:54:12.001Z</time></trkpt><trkpt lat="45.62766" lon="11.1906733"><ele>759.0</ele><time>2026-04-25T14:54:13.001Z</time></trkpt><trkpt lat="45.6276883" lon="11.1905267"><ele>759.0</ele><time>2026-04-25T14:54:14.001Z</time></trkpt><trkpt lat="45.6277383" lon="11.1903817"><ele>759.0</ele><time>2026-04-25T14:54:15.001Z</time></trkpt><trkpt lat="45.6278117" lon="11.1902683"><ele>759.0</ele><time>2026-04-25T14:54:16.001Z</time></trkpt><trkpt lat="45.6279117" lon="11.190165"><ele>763.0</ele><time>2026-04-25T14:54:17.001Z</time></trkpt><trkpt lat="45.6280183" lon="11.1900883"><ele>767.0</ele><time>2026-04-25T14:54:18.001Z</time></trkpt><trkpt lat="45.6281133" lon="11.1900067"><ele>771.0</ele><time>2026-04-25T14:54:19.001Z</time></trkpt><trkpt lat="45.628205" lon="11.1899283"><ele>775.0</ele><time>2026-04-25T14:54:20.001Z</time></trkpt><trkpt lat="45.628275" lon="11.18986"><ele>779.0</ele><time>2026-04-25T14:54:21.001Z</time></trkpt><trkpt lat="45.628335" lon="11.18981"><ele>779.0</ele><time>2026-04-25T14:54:22.002Z</time></trkpt><trkpt lat="45.6283967" lon="11.1897833"><ele>779.0</ele><time>2026-04-25T14:54:23.001Z</time></trkpt><trkpt lat="45.628435" lon="11.1898933"><ele>779.0</ele><time>2026-04-25T14:54:26.001Z</time></trkpt><trkpt lat="45.6284033" lon="11.1900267"><ele>779.0</ele><time>2026-04-25T14:54:27.001Z</time></trkpt><trkpt lat="45.6283583" lon="11.1902067"><ele>779.0</ele><time>2026-04-25T14:54:28.001Z</time></trkpt><trkpt lat="45.6283" lon="11.190395"><ele>782.0</ele><time>2026-04-25T14:54:29.001Z</time></trkpt><trkpt lat="45.6282717" lon="11.190555"><ele>785.0</ele><time>2026-04-25T14:54:30.001Z</time></trkpt><trkpt lat="45.62827" lon="11.19071"><ele>788.0</ele><time>2026-04-25T14:54:31.001Z</time></trkpt><trkpt lat="45.6283083" lon="11.190855"><ele>791.0</ele><time>2026-04-25T14:54:32.001Z</time></trkpt><trkpt lat="45.628375" lon="11.1910033"><ele>791.5</ele><time>2026-04-25T14:54:33.001Z</time></trkpt><trkpt lat="45.6284667" lon="11.19115"><ele>792.0</ele><time>2026-04-25T14:54:34.001Z</time></trkpt><trkpt lat="45.6285867" lon="11.1912867"><ele>792.5</ele><time>2026-04-25T14:54:35.001Z</time></trkpt><trkpt lat="45.6287167" lon="11.191405"><ele>793.0</ele><time>2026-04-25T14:54:36.001Z</time></trkpt><trkpt lat="45.62882" lon="11.1915417"><ele>799.25</ele><time>2026-04-25T14:54:37.001Z</time></trkpt><trkpt lat="45.62891" lon="11.19167"><ele>805.5</ele><time>2026-04-25T14:54:38.001Z</time></trkpt><trkpt lat="45.6289983" lon="11.19177"><ele>811.75</ele><time>2026-04-25T14:54:39.001Z</time></trkpt><trkpt lat="45.6290883" lon="11.191875"><ele>818.0</ele><time>2026-04-25T14:54:40.001Z</time></trkpt><trkpt lat="45.629195" lon="11.19195"><ele>818.0</ele><time>2026-04-25T14:54:41.001Z</time></trkpt><trkpt lat="45.6293183" lon="11.1920117"><ele>818.0</ele><time>2026-04-25T14:54:42.001Z</time></trkpt><trkpt lat="45.62946" lon="11.19205"><ele>818.0</ele><time>2026-04-25T14:54:43.001Z</time></trkpt><trkpt lat="45.6295883" lon="11.1921033"><ele>818.0</ele><time>2026-04-25T14:54:44.001Z</time></trkpt><trkpt lat="45.6297117" lon="11.1921767"><ele>819.25</ele><time>2026-04-25T14:54:45.001Z</time></trkpt><trkpt lat="45.6298233" lon="11.1922467"><ele>820.5</ele><time>2026-04-25T14:54:46.001Z</time></trkpt><trkpt lat="45.629955" lon="11.1923283"><ele>821.75</ele><time>2026-04-25T14:54:47.001Z</time></trkpt><trkpt lat="45.6301083" lon="11.192385"><ele>823.0</ele><time>2026-04-25T14:54:48.001Z</time></trkpt><trkpt lat="45.6302617" lon="11.1924267"><ele>828.5</ele><time>2026-04-25T14:54:49.001Z</time></trkpt><trkpt lat="45.63041" lon="11.1924517"><ele>834.0</ele><time>2026-04-25T14:54:50.001Z</time></trkpt><trkpt lat="45.6305467" lon="11.1924867"><ele>839.5</ele><time>2026-04-25T14:54:51.001Z</time></trkpt><trkpt lat="45.6306833" lon="11.1924967"><ele>845.0</ele><time>2026-04-25T14:54:52.001Z</time></trkpt><trkpt lat="45.6308183" lon="11.1925533"><ele>845.0</ele><time>2026-04-25T14:54:53.001Z</time></trkpt><trkpt lat="45.630945" lon="11.19262"><ele>845.0</ele><time>2026-04-25T14:54:54.002Z</time></trkpt><trkpt lat="45.631075" lon="11.1926567"><ele>845.0</ele><time>2026-04-25T14:54:55.001Z</time></trkpt><trkpt lat="45.6311967" lon="11.1926917"><ele>845.0</ele><time>2026-04-25T14:54:56.001Z</time></trkpt><trkpt lat="45.6313067" lon="11.1927283"><ele>845.6666666666667</ele><time>2026-04-25T14:54:57.001Z</time></trkpt><trkpt lat="45.6314083" lon="11.19276"><ele>846.3333333333334</ele><time>2026-04-25T14:54:58.001Z</time></trkpt><trkpt lat="45.6314933" lon="11.192785"><ele>847.0</ele><time>2026-04-25T14:54:59.001Z</time></trkpt><trkpt lat="45.6315783" lon="11.1928033"><ele>847.6666666666667</ele><time>2026-04-25T14:55:00.001Z</time></trkpt><trkpt lat="45.6316567" lon="11.1928217"><ele>848.3333333333334</ele><time>2026-04-25T14:55:01.001Z</time></trkpt><trkpt lat="45.6317317" lon="11.1928117"><ele>849.0</ele><time>2026-04-25T14:55:02.001Z</time></trkpt><trkpt lat="45.6317967" lon="11.1927733"><ele>849.0</ele><time>2026-04-25T14:55:03.001Z</time></trkpt><trkpt lat="45.6318683" lon="11.1927117"><ele>849.0</ele><time>2026-04-25T14:55:04.001Z</time></trkpt><trkpt lat="45.63193" lon="11.19263"><ele>849.0</ele><time>2026-04-25T14:55:05.001Z</time></trkpt><trkpt lat="45.6320017" lon="11.19255"><ele>849.0</ele><time>2026-04-25T14:55:06.001Z</time></trkpt><trkpt lat="45.63207" lon="11.1924733"><ele>849.0</ele><time>2026-04-25T14:55:07.001Z</time></trkpt><trkpt lat="45.6321433" lon="11.1923967"><ele>849.0</ele><time>2026-04-25T14:55:08.002Z</time></trkpt><trkpt lat="45.6321917" lon="11.192305"><ele>849.1666666666666</ele><time>2026-04-25T14:55:09.001Z</time></trkpt><trkpt lat="45.6322467" lon="11.1922083"><ele>849.3333333333333</ele><time>2026-04-25T14:55:10.001Z</time></trkpt><trkpt lat="45.6323017" lon="11.1921"><ele>849.5</ele><time>2026-04-25T14:55:11.001Z</time></trkpt><trkpt lat="45.63237" lon="11.1920367"><ele>849.6666666666666</ele><time>2026-04-25T14:55:12.001Z</time></trkpt><trkpt lat="45.632445" lon="11.1920017"><ele>849.8333333333333</ele><time>2026-04-25T14:55:13.001Z</time></trkpt><trkpt lat="45.6324983" lon="11.191935"><ele>850.0</ele><time>2026-04-25T14:55:14.001Z</time></trkpt><trkpt lat="45.6325433" lon="11.1918483"><ele>850.0</ele><time>2026-04-25T14:55:15.001Z</time></trkpt><trkpt lat="45.6325817" lon="11.1917733"><ele>850.0</ele><time>2026-04-25T14:55:16.001Z</time></trkpt><trkpt lat="45.6326467" lon="11.19168"><ele>850.0</ele><time>2026-04-25T14:55:18.001Z</time></trkpt><trkpt lat="45.63263" lon="11.1915383"><ele>850.0</ele><time>2026-04-25T14:55:42Z</time></trkpt><trkpt lat="45.6326" lon="11.1913767"><ele>850.0</ele><time>2026-04-25T14:55:44.001Z</time></trkpt><trkpt lat="45.6326017" lon="11.1912517"><ele>855.3333333333333</ele><time>2026-04-25T14:55:45Z</time></trkpt><trkpt lat="45.63262" lon="11.1910867"><ele>860.6666666666667</ele><time>2026-04-25T14:55:46Z</time></trkpt><trkpt lat="45.6326583" lon="11.1908617"><ele>866.0</ele><time>2026-04-25T14:55:47Z</time></trkpt><trkpt lat="45.6327283" lon="11.19057"><ele>855.0</ele><time>2026-04-25T14:55:48Z</time></trkpt><trkpt lat="45.6328067" lon="11.190305"><ele>844.0</ele><time>2026-04-25T14:55:49Z</time></trkpt><trkpt lat="45.6328783" lon="11.1900767"><ele>833.0</ele><time>2026-04-25T14:55:50Z</time></trkpt><trkpt lat="45.6329417" lon="11.1898617"><ele>835.0</ele><time>2026-04-25T14:55:51Z</time></trkpt><trkpt lat="45.6330133" lon="11.1896933"><ele>837.0</ele><time>2026-04-25T14:55:52Z</time></trkpt><trkpt lat="45.633095" lon="11.189545"><ele>839.0</ele><time>2026-04-25T14:55:53Z</time></trkpt><trkpt lat="45.6331683" lon="11.1894183"><ele>841.0</ele><time>2026-04-25T14:55:54Z</time></trkpt><trkpt lat="45.6332283" lon="11.189295"><ele>841.0</ele><time>2026-04-25T14:55:55Z</time></trkpt><trkpt lat="45.6332617" lon="11.189155"><ele>841.0</ele><time>2026-04-25T14:55:56Z</time></trkpt><trkpt lat="45.6332667" lon="11.1889917"><ele>841.0</ele><time>2026-04-25T14:55:57Z</time></trkpt><trkpt lat="45.6332367" lon="11.1888067"><ele>841.0</ele><time>2026-04-25T14:55:58Z</time></trkpt><trkpt lat="45.63319" lon="11.1885983"><ele>841.5</ele><time>2026-04-25T14:55:59Z</time></trkpt><trkpt lat="45.6331433" lon="11.188395"><ele>842.0</ele><time>2026-04-25T14:56:00Z</time></trkpt><trkpt lat="45.6330933" lon="11.188205"><ele>842.5</ele><time>2026-04-25T14:56:01Z</time></trkpt><trkpt lat="45.6330483" lon="11.188045"><ele>843.0</ele><time>2026-04-25T14:56:02Z</time></trkpt><trkpt lat="45.6330083" lon="11.1878983"><ele>843.0</ele><time>2026-04-25T14:56:03Z</time></trkpt><trkpt lat="45.6329867" lon="11.1877567"><ele>843.0</ele><time>2026-04-25T14:56:04Z</time></trkpt><trkpt lat="45.632995" lon="11.1876233"><ele>843.0</ele><time>2026-04-25T14:56:05Z</time></trkpt><trkpt lat="45.6330367" lon="11.1875133"><ele>843.0</ele><time>2026-04-25T14:56:06Z</time></trkpt><trkpt lat="45.633135" lon="11.187415"><ele>843.0</ele><time>2026-04-25T14:56:07Z</time></trkpt><trkpt lat="45.633275" lon="11.1873433"><ele>842.75</ele><time>2026-04-25T14:56:08Z</time></trkpt><trkpt lat="45.6334167" lon="11.18727"><ele>842.5</ele><time>2026-04-25T14:56:09Z</time></trkpt><trkpt lat="45.6335367" lon="11.1871917"><ele>842.25</ele><time>2026-04-25T14:56:10Z</time></trkpt><trkpt lat="45.633655" lon="11.1870783"><ele>842.0</ele><time>2026-04-25T14:56:11Z</time></trkpt><trkpt lat="45.6337667" lon="11.1869333"><ele>841.0</ele><time>2026-04-25T14:56:12Z</time></trkpt><trkpt lat="45.6338733" lon="11.18674"><ele>840.0</ele><time>2026-04-25T14:56:13Z</time></trkpt><trkpt lat="45.633955" lon="11.1865267"><ele>839.0</ele><time>2026-04-25T14:56:14Z</time></trkpt><trkpt lat="45.6340517" lon="11.18632"><ele>839.0</ele><time>2026-04-25T14:56:15Z</time></trkpt><trkpt lat="45.6341417" lon="11.186155"><ele>839.0</ele><time>2026-04-25T14:56:16Z</time></trkpt><trkpt lat="45.6342267" lon="11.18598"><ele>839.0</ele><time>2026-04-25T14:56:17Z</time></trkpt><trkpt lat="45.6343017" lon="11.1857883"><ele>839.0</ele><time>2026-04-25T14:56:18Z</time></trkpt><trkpt lat="45.6343617" lon="11.1855967"><ele>839.8000000000001</ele><time>2026-04-25T14:56:19Z</time></trkpt><trkpt lat="45.6344083" lon="11.1854383"><ele>840.6</ele><time>2026-04-25T14:56:20Z</time></trkpt><trkpt lat="45.6344433" lon="11.1853017"><ele>841.4</ele><time>2026-04-25T14:56:21Z</time></trkpt><trkpt lat="45.6344933" lon="11.1852017"><ele>842.2</ele><time>2026-04-25T14:56:22Z</time></trkpt><trkpt lat="45.63457" lon="11.1851267"><ele>843.0</ele><time>2026-04-25T14:56:23.001Z</time></trkpt><trkpt lat="45.6346783" lon="11.18506"><ele>843.0</ele><time>2026-04-25T14:56:24Z</time></trkpt><trkpt lat="45.63481" lon="11.1850167"><ele>843.0</ele><time>2026-04-25T14:56:25Z</time></trkpt><trkpt lat="45.634915" lon="11.1849517"><ele>843.0</ele><time>2026-04-25T14:56:26Z</time></trkpt><trkpt lat="45.63502" lon="11.1849017"><ele>843.0</ele><time>2026-04-25T14:56:27Z</time></trkpt><trkpt lat="45.63512" lon="11.1848817"><ele>843.0</ele><time>2026-04-25T14:56:28Z</time></trkpt><trkpt lat="45.6352233" lon="11.1848767"><ele>843.0</ele><time>2026-04-25T14:56:29Z</time></trkpt><trkpt lat="45.63533" lon="11.1848867"><ele>843.0</ele><time>2026-04-25T14:56:30Z</time></trkpt><trkpt lat="45.6354383" lon="11.1849"><ele>843.0</ele><time>2026-04-25T14:56:31Z</time></trkpt><trkpt lat="45.63554" lon="11.1849167"><ele>843.0</ele><time>2026-04-25T14:56:32Z</time></trkpt><trkpt lat="45.6356333" lon="11.184915"><ele>843.8</ele><time>2026-04-25T14:56:33Z</time></trkpt><trkpt lat="45.6357317" lon="11.1848767"><ele>844.5999999999999</ele><time>2026-04-25T14:56:34Z</time></trkpt><trkpt lat="45.6358267" lon="11.184815"><ele>845.4000000000001</ele><time>2026-04-25T14:56:35Z</time></trkpt><trkpt lat="45.63592" lon="11.1847567"><ele>846.2</ele><time>2026-04-25T14:56:36Z</time></trkpt><trkpt lat="45.6360217" lon="11.1847183"><ele>847.0</ele><time>2026-04-25T14:56:37Z</time></trkpt><trkpt lat="45.636125" lon="11.1846783"><ele>846.8</ele><time>2026-04-25T14:56:38Z</time></trkpt><trkpt lat="45.636225" lon="11.1846583"><ele>846.6</ele><time>2026-04-25T14:56:39Z</time></trkpt><trkpt lat="45.6363117" lon="11.184625"><ele>846.4</ele><time>2026-04-25T14:56:40Z</time></trkpt><trkpt lat="45.6364" lon="11.18458"><ele>846.1999999999999</ele><time>2026-04-25T14:56:41Z</time></trkpt><trkpt lat="45.6364833" lon="11.1845217"><ele>846.0</ele><time>2026-04-25T14:56:42Z</time></trkpt><trkpt lat="45.6365683" lon="11.184455"><ele>846.0</ele><time>2026-04-25T14:56:43Z</time></trkpt><trkpt lat="45.6366583" lon="11.1843967"><ele>846.0</ele><time>2026-04-25T14:56:44Z</time></trkpt><trkpt lat="45.6367433" lon="11.1843433"><ele>846.0</ele><time>2026-04-25T14:56:45Z</time></trkpt><trkpt lat="45.6368367" lon="11.1843"><ele>846.0</ele><time>2026-04-25T14:56:46Z</time></trkpt><trkpt lat="45.636935" lon="11.1842933"><ele>846.0</ele><time>2026-04-25T14:56:47Z</time></trkpt><trkpt lat="45.6370383" lon="11.184315"><ele>848.0</ele><time>2026-04-25T14:56:48Z</time></trkpt><trkpt lat="45.6371367" lon="11.1843617"><ele>850.0</ele><time>2026-04-25T14:56:49Z</time></trkpt><trkpt lat="45.63723" lon="11.1844117"><ele>851.9999999999999</ele><time>2026-04-25T14:56:50Z</time></trkpt><trkpt lat="45.6373167" lon="11.184495"><ele>854.0</ele><time>2026-04-25T14:56:51Z</time></trkpt><trkpt lat="45.637415" lon="11.1845517"><ele>856.0</ele><time>2026-04-25T14:56:52Z</time></trkpt><trkpt lat="45.637505" lon="11.1845883"><ele>856.0</ele><time>2026-04-25T14:56:53Z</time></trkpt><trkpt lat="45.6376033" lon="11.1845967"><ele>856.0</ele><time>2026-04-25T14:56:54Z</time></trkpt><trkpt lat="45.6377083" lon="11.1845517"><ele>856.0</ele><time>2026-04-25T14:56:55Z</time></trkpt><trkpt lat="45.6378083" lon="11.18447"><ele>856.0</ele><time>2026-04-25T14:56:56Z</time></trkpt><trkpt lat="45.6379283" lon="11.184385"><ele>856.75</ele><time>2026-04-25T14:56:57Z</time></trkpt><trkpt lat="45.6380583" lon="11.1843033"><ele>857.5</ele><time>2026-04-25T14:56:58Z</time></trkpt><trkpt lat="45.6381983" lon="11.18424"><ele>858.25</ele><time>2026-04-25T14:56:59Z</time></trkpt><trkpt lat="45.6383317" lon="11.1841683"><ele>859.0</ele><time>2026-04-25T14:57:00Z</time></trkpt><trkpt lat="45.6384533" lon="11.184085"><ele>860.0</ele><time>2026-04-25T14:57:01Z</time></trkpt><trkpt lat="45.6385683" lon="11.184005"><ele>861.0000000000001</ele><time>2026-04-25T14:57:02Z</time></trkpt><trkpt lat="45.63866" lon="11.1839333"><ele>862.0000000000001</ele><time>2026-04-25T14:57:03Z</time></trkpt><trkpt lat="45.63873" lon="11.1838683"><ele>863.0</ele><time>2026-04-25T14:57:04Z</time></trkpt><trkpt lat="45.63879" lon="11.1838017"><ele>864.0</ele><time>2026-04-25T14:57:05Z</time></trkpt><trkpt lat="45.6388283" lon="11.183725"><ele>866.0</ele><time>2026-04-25T14:57:06Z</time></trkpt><trkpt lat="45.6388433" lon="11.1835733"><ele>868.0</ele><time>2026-04-25T14:57:08Z</time></trkpt><trkpt lat="45.638765" lon="11.1834567"><ele>870.0</ele><time>2026-04-25T14:57:10Z</time></trkpt><trkpt lat="45.638685" lon="11.1833367"><ele>872.0</ele><time>2026-04-25T14:57:12Z</time></trkpt><trkpt lat="45.6386517" lon="11.18317"><ele>872.8333333333334</ele><time>2026-04-25T14:57:14Z</time></trkpt><trkpt lat="45.6386617" lon="11.183065"><ele>873.6666666666667</ele><time>2026-04-25T14:57:15Z</time></trkpt><trkpt lat="45.6386767" lon="11.1829483"><ele>874.5</ele><time>2026-04-25T14:57:16Z</time></trkpt><trkpt lat="45.6387033" lon="11.18284"><ele>875.3333333333333</ele><time>2026-04-25T14:57:17Z</time></trkpt><trkpt lat="45.6387433" lon="11.1827317"><ele>876.1666666666666</ele><time>2026-04-25T14:57:18Z</time></trkpt><trkpt lat="45.6387933" lon="11.1826333"><ele>877.0</ele><time>2026-04-25T14:57:19Z</time></trkpt><trkpt lat="45.6388717" lon="11.182535"><ele>877.0</ele><time>2026-04-25T14:57:20Z</time></trkpt><trkpt lat="45.63895" lon="11.1824433"><ele>877.0</ele><time>2026-04-25T14:57:21Z</time></trkpt><trkpt lat="45.6390517" lon="11.18236"><ele>877.0</ele><time>2026-04-25T14:57:22Z</time></trkpt><trkpt lat="45.63916" lon="11.18228"><ele>877.0</ele><time>2026-04-25T14:57:23Z</time></trkpt><trkpt lat="45.639255" lon="11.1822033"><ele>877.0</ele><time>2026-04-25T14:57:24Z</time></trkpt><trkpt lat="45.6393483" lon="11.1821217"><ele>876.6</ele><time>2026-04-25T14:57:25Z</time></trkpt><trkpt lat="45.6394367" lon="11.1820417"><ele>876.2</ele><time>2026-04-25T14:57:26Z</time></trkpt><trkpt lat="45.6395117" lon="11.1819483"><ele>875.8</ele><time>2026-04-25T14:57:27Z</time></trkpt><trkpt lat="45.6395767" lon="11.181835"><ele>875.4</ele><time>2026-04-25T14:57:28Z</time></trkpt><trkpt lat="45.6396233" lon="11.1816917"><ele>875.0</ele><time>2026-04-25T14:57:29Z</time></trkpt><trkpt lat="45.6396467" lon="11.181515"><ele>879.5</ele><time>2026-04-25T14:57:30Z</time></trkpt><trkpt lat="45.639665" lon="11.1813183"><ele>884.0</ele><time>2026-04-25T14:57:31Z</time></trkpt><trkpt lat="45.6396783" lon="11.1811167"><ele>888.5</ele><time>2026-04-25T14:57:32Z</time></trkpt><trkpt lat="45.6396933" lon="11.1809367"><ele>893.0</ele><time>2026-04-25T14:57:33Z</time></trkpt><trkpt lat="45.6397" lon="11.1807733"><ele>891.2</ele><time>2026-04-25T14:57:34Z</time></trkpt><trkpt lat="45.6397267" lon="11.1806483"><ele>889.4</ele><time>2026-04-25T14:57:35Z</time></trkpt><trkpt lat="45.6397617" lon="11.1805417"><ele>887.6000000000001</ele><time>2026-04-25T14:57:36Z</time></trkpt><trkpt lat="45.6398183" lon="11.180435"><ele>885.8000000000001</ele><time>2026-04-25T14:57:37Z</time></trkpt><trkpt lat="45.6399" lon="11.1803333"><ele>884.0</ele><time>2026-04-25T14:57:38Z</time></trkpt><trkpt lat="45.6400117" lon="11.18024"><ele>884.0</ele><time>2026-04-25T14:57:38.999Z</time></trkpt><trkpt lat="45.6401283" lon="11.1801617"><ele>884.0000000000001</ele><time>2026-04-25T14:57:40Z</time></trkpt><trkpt lat="45.6402433" lon="11.1801033"><ele>884.0000000000001</ele><time>2026-04-25T14:57:41Z</time></trkpt><trkpt lat="45.640335" lon="11.180045"><ele>884.0</ele><time>2026-04-25T14:57:42Z</time></trkpt><trkpt lat="45.6404167" lon="11.1799733"><ele>884.0</ele><time>2026-04-25T14:57:43Z</time></trkpt><trkpt lat="45.6404883" lon="11.17988"><ele>886.0</ele><time>2026-04-25T14:57:44.001Z</time></trkpt><trkpt lat="45.6405367" lon="11.179775"><ele>888.0000000000001</ele><time>2026-04-25T14:57:45Z</time></trkpt><trkpt lat="45.6405567" lon="11.1796633"><ele>890.0000000000001</ele><time>2026-04-25T14:57:46Z</time></trkpt><trkpt lat="45.6405633" lon="11.1795433"><ele>892.0</ele><time>2026-04-25T14:57:47Z</time></trkpt><trkpt lat="45.64056" lon="11.1794033"><ele>894.0</ele><time>2026-04-25T14:57:48Z</time></trkpt><trkpt lat="45.6405383" lon="11.1792517"><ele>894.0</ele><time>2026-04-25T14:57:49Z</time></trkpt><trkpt lat="45.6405017" lon="11.1791"><ele>894.0000000000001</ele><time>2026-04-25T14:57:50Z</time></trkpt><trkpt lat="45.6404683" lon="11.17896"><ele>894.0000000000001</ele><time>2026-04-25T14:57:51Z</time></trkpt><trkpt lat="45.64045" lon="11.17885"><ele>894.0</ele><time>2026-04-25T14:57:52Z</time></trkpt><trkpt lat="45.6404533" lon="11.1786833"><ele>894.0</ele><time>2026-04-25T14:57:54Z</time></trkpt><trkpt lat="45.640465" lon="11.17859"><ele>893.4000000000001</ele><time>2026-04-25T14:57:55Z</time></trkpt><trkpt lat="45.6405017" lon="11.178495"><ele>892.8000000000001</ele><time>2026-04-25T14:57:56Z</time></trkpt><trkpt lat="45.640565" lon="11.17838"><ele>892.1999999999999</ele><time>2026-04-25T14:57:57Z</time></trkpt><trkpt lat="45.6406333" lon="11.1782683"><ele>891.5999999999999</ele><time>2026-04-25T14:57:58Z</time></trkpt><trkpt lat="45.6407133" lon="11.1781267"><ele>891.0</ele><time>2026-04-25T14:57:59Z</time></trkpt><trkpt lat="45.6407833" lon="11.1779683"><ele>891.0</ele><time>2026-04-25T14:58:00Z</time></trkpt><trkpt lat="45.6408417" lon="11.177825"><ele>890.9999999999999</ele><time>2026-04-25T14:58:01Z</time></trkpt><trkpt lat="45.640885" lon="11.1777033"><ele>890.9999999999999</ele><time>2026-04-25T14:58:02Z</time></trkpt><trkpt lat="45.6409183" lon="11.1775967"><ele>891.0</ele><time>2026-04-25T14:58:03Z</time></trkpt><trkpt lat="45.64096" lon="11.1774583"><ele>891.0</ele><time>2026-04-25T14:58:05Z</time></trkpt><trkpt lat="45.64099" lon="11.1773717"><ele>893.4</ele><time>2026-04-25T14:58:07Z</time></trkpt><trkpt lat="45.6410183" lon="11.1772433"><ele>895.8</ele><time>2026-04-25T14:58:23Z</time></trkpt><trkpt lat="45.6409867" lon="11.177095"><ele>898.1999999999999</ele><time>2026-04-25T14:58:25Z</time></trkpt><trkpt lat="45.6409617" lon="11.1769617"><ele>900.5999999999999</ele><time>2026-04-25T14:58:26Z</time></trkpt><trkpt lat="45.6409117" lon="11.1768033"><ele>903.0</ele><time>2026-04-25T14:58:27Z</time></trkpt><trkpt lat="45.6408617" lon="11.1766067"><ele>906.25</ele><time>2026-04-25T14:58:28Z</time></trkpt><trkpt lat="45.6408083" lon="11.1764233"><ele>909.5</ele><time>2026-04-25T14:58:29Z</time></trkpt><trkpt lat="45.6407583" lon="11.1762633"><ele>912.75</ele><time>2026-04-25T14:58:30Z</time></trkpt><trkpt lat="45.6407417" lon="11.1761017"><ele>916.0</ele><time>2026-04-25T14:58:31Z</time></trkpt><trkpt lat="45.6407383" lon="11.1759533"><ele>916.0</ele><time>2026-04-25T14:58:32Z</time></trkpt><trkpt lat="45.64074" lon="11.1758"><ele>915.9999999999999</ele><time>2026-04-25T14:58:33Z</time></trkpt><trkpt lat="45.6407433" lon="11.17566"><ele>915.9999999999999</ele><time>2026-04-25T14:58:34Z</time></trkpt><trkpt lat="45.64076" lon="11.175525"><ele>916.0</ele><time>2026-04-25T14:58:35Z</time></trkpt><trkpt lat="45.6407817" lon="11.1753933"><ele>916.0</ele><time>2026-04-25T14:58:36Z</time></trkpt><trkpt lat="45.6408167" lon="11.1752633"><ele>915.25</ele><time>2026-04-25T14:58:37Z</time></trkpt><trkpt lat="45.6408533" lon="11.1751183"><ele>914.5</ele><time>2026-04-25T14:58:38Z</time></trkpt><trkpt lat="45.6409083" lon="11.1749833"><ele>913.75</ele><time>2026-04-25T14:58:39Z</time></trkpt><trkpt lat="45.6409717" lon="11.17484"><ele>913.0</ele><time>2026-04-25T14:58:40Z</time></trkpt><trkpt lat="45.6410367" lon="11.1747"><ele>913.0</ele><time>2026-04-25T14:58:41Z</time></trkpt><trkpt lat="45.6410967" lon="11.174585"><ele>913.0</ele><time>2026-04-25T14:58:42Z</time></trkpt><trkpt lat="45.6411433" lon="11.1744617"><ele>913.0</ele><time>2026-04-25T14:58:43Z</time></trkpt><trkpt lat="45.6411767" lon="11.1743117"><ele>913.0</ele><time>2026-04-25T14:58:44Z</time></trkpt><trkpt lat="45.6411867" lon="11.1741567"><ele>913.0</ele><time>2026-04-25T14:58:45Z</time></trkpt><trkpt lat="45.6411683" lon="11.1740067"><ele>915.4</ele><time>2026-04-25T14:58:46Z</time></trkpt><trkpt lat="45.64113" lon="11.1738683"><ele>917.8</ele><time>2026-04-25T14:58:47Z</time></trkpt><trkpt lat="45.64109" lon="11.1737117"><ele>920.2</ele><time>2026-04-25T14:58:48Z</time></trkpt><trkpt lat="45.6410833" lon="11.1735517"><ele>922.6</ele><time>2026-04-25T14:58:49Z</time></trkpt><trkpt lat="45.6410867" lon="11.1733917"><ele>925.0</ele><time>2026-04-25T14:58:50Z</time></trkpt><trkpt lat="45.641085" lon="11.17323"><ele>928.6</ele><time>2026-04-25T14:58:51Z</time></trkpt><trkpt lat="45.641045" lon="11.1730783"><ele>932.2</ele><time>2026-04-25T14:58:52Z</time></trkpt><trkpt lat="45.6410017" lon="11.172935"><ele>935.8</ele><time>2026-04-25T14:58:53Z</time></trkpt><trkpt lat="45.6409383" lon="11.1728117"><ele>939.4</ele><time>2026-04-25T14:58:54Z</time></trkpt><trkpt lat="45.6408517" lon="11.1727333"><ele>943.0</ele><time>2026-04-25T14:58:55Z</time></trkpt><trkpt lat="45.6407667" lon="11.1726417"><ele>943.0</ele><time>2026-04-25T14:58:56Z</time></trkpt><trkpt lat="45.6406867" lon="11.172545"><ele>943.0</ele><time>2026-04-25T14:58:57Z</time></trkpt><trkpt lat="45.6406167" lon="11.1724"><ele>943.0</ele><time>2026-04-25T14:58:58Z</time></trkpt><trkpt lat="45.64056" lon="11.17224"><ele>943.0</ele><time>2026-04-25T14:58:59Z</time></trkpt><trkpt lat="45.6405133" lon="11.1720833"><ele>948.0</ele><time>2026-04-25T14:59:00Z</time></trkpt><trkpt lat="45.64048" lon="11.1719233"><ele>953.0</ele><time>2026-04-25T14:59:01Z</time></trkpt><trkpt lat="45.6404717" lon="11.1717483"><ele>958.0</ele><time>2026-04-25T14:59:02Z</time></trkpt><trkpt lat="45.6404667" lon="11.1715633"><ele>963.0</ele><time>2026-04-25T14:59:03Z</time></trkpt><trkpt lat="45.6404533" lon="11.1713883"><ele>965.6666666666666</ele><time>2026-04-25T14:59:04Z</time></trkpt><trkpt lat="45.6404517" lon="11.1712383"><ele>968.3333333333333</ele><time>2026-04-25T14:59:05Z</time></trkpt><trkpt lat="45.640455" lon="11.17111"><ele>971.0</ele><time>2026-04-25T14:59:06Z</time></trkpt><trkpt lat="45.640475" lon="11.1710033"><ele>973.6666666666666</ele><time>2026-04-25T14:59:07Z</time></trkpt><trkpt lat="45.6404817" lon="11.170885"><ele>976.3333333333333</ele><time>2026-04-25T14:59:08Z</time></trkpt><trkpt lat="45.6404733" lon="11.1707667"><ele>979.0</ele><time>2026-04-25T14:59:09Z</time></trkpt><trkpt lat="45.6404517" lon="11.1706733"><ele>979.6</ele><time>2026-04-25T14:59:10Z</time></trkpt><trkpt lat="45.640415" lon="11.1705833"><ele>980.2</ele><time>2026-04-25T14:59:11Z</time></trkpt><trkpt lat="45.6403383" lon="11.1705"><ele>980.8000000000001</ele><time>2026-04-25T14:59:12Z</time></trkpt><trkpt lat="45.6402283" lon="11.1704183"><ele>981.4000000000001</ele><time>2026-04-25T14:59:13Z</time></trkpt><trkpt lat="45.6400883" lon="11.1703283"><ele>982.0</ele><time>2026-04-25T14:59:14Z</time></trkpt><trkpt lat="45.6399183" lon="11.1702483"><ele>982.0</ele><time>2026-04-25T14:59:15Z</time></trkpt><trkpt lat="45.639765" lon="11.1701733"><ele>982.0</ele><time>2026-04-25T14:59:16Z</time></trkpt><trkpt lat="45.6396317" lon="11.170115"><ele>982.0</ele><time>2026-04-25T14:59:17Z</time></trkpt><trkpt lat="45.6395317" lon="11.170065"><ele>982.0</ele><time>2026-04-25T14:59:18Z</time></trkpt><trkpt lat="45.6394417" lon="11.1700283"><ele>983.2</ele><time>2026-04-25T14:59:19Z</time></trkpt><trkpt lat="45.639365" lon="11.1699533"><ele>984.4000000000001</ele><time>2026-04-25T14:59:20Z</time></trkpt><trkpt lat="45.63931" lon="11.1698367"><ele>985.5999999999999</ele><time>2026-04-25T14:59:21Z</time></trkpt><trkpt lat="45.6392567" lon="11.16973"><ele>986.8</ele><time>2026-04-25T14:59:22Z</time></trkpt><trkpt lat="45.6392217" lon="11.1696083"><ele>988.0</ele><time>2026-04-25T14:59:23Z</time></trkpt><trkpt lat="45.639195" lon="11.1695017"><ele>987.9999999999999</ele><time>2026-04-25T14:59:24Z</time></trkpt><trkpt lat="45.6391767" lon="11.169415"><ele>988.0</ele><time>2026-04-25T14:59:25Z</time></trkpt><trkpt lat="45.6391033" lon="11.16941"><ele>988.0</ele><time>2026-04-25T14:59:27Z</time></trkpt><trkpt lat="45.6390533" lon="11.1694767"><ele>988.0</ele><time>2026-04-25T14:59:28Z</time></trkpt><trkpt lat="45.6389883" lon="11.1695883"><ele>987.9999999999999</ele><time>2026-04-25T14:59:29Z</time></trkpt><trkpt lat="45.6389117" lon="11.1697167"><ele>988.0</ele><time>2026-04-25T14:59:30Z</time></trkpt><trkpt lat="45.638835" lon="11.16984"><ele>989.75</ele><time>2026-04-25T14:59:31Z</time></trkpt><trkpt lat="45.638735" lon="11.169995"><ele>991.5</ele><time>2026-04-25T14:59:32Z</time></trkpt><trkpt lat="45.6386283" lon="11.1701483"><ele>993.25</ele><time>2026-04-25T14:59:33Z</time></trkpt><trkpt lat="45.6385467" lon="11.1703"><ele>995.0</ele><time>2026-04-25T14:59:34Z</time></trkpt><trkpt lat="45.6384583" lon="11.1704617"><ele>995.0</ele><time>2026-04-25T14:59:35Z</time></trkpt><trkpt lat="45.63838" lon="11.1706317"><ele>995.0</ele><time>2026-04-25T14:59:36Z</time></trkpt><trkpt lat="45.6383133" lon="11.1707667"><ele>995.0</ele><time>2026-04-25T14:59:37Z</time></trkpt><trkpt lat="45.6382433" lon="11.1708983"><ele>995.0</ele><time>2026-04-25T14:59:38Z</time></trkpt><trkpt lat="45.6381717" lon="11.1710267"><ele>990.75</ele><time>2026-04-25T14:59:39Z</time></trkpt><trkpt lat="45.638065" lon="11.1711517"><ele>986.5</ele><time>2026-04-25T14:59:40Z</time></trkpt><trkpt lat="45.63796" lon="11.17125"><ele>982.25</ele><time>2026-04-25T14:59:41Z</time></trkpt><trkpt lat="45.637865" lon="11.17135"><ele>978.0</ele><time>2026-04-25T14:59:42Z</time></trkpt><trkpt lat="45.637775" lon="11.17145"><ele>981.0</ele><time>2026-04-25T14:59:43Z</time></trkpt><trkpt lat="45.6376883" lon="11.17156"><ele>984.0</ele><time>2026-04-25T14:59:44Z</time></trkpt><trkpt lat="45.6375967" lon="11.1716783"><ele>987.0</ele><time>2026-04-25T14:59:45Z</time></trkpt><trkpt lat="45.6375083" lon="11.1718067"><ele>990.0</ele><time>2026-04-25T14:59:46Z</time></trkpt><trkpt lat="45.6374017" lon="11.17195"><ele>990.0</ele><time>2026-04-25T14:59:47Z</time></trkpt><trkpt lat="45.6372967" lon="11.1720517"><ele>990.0</ele><time>2026-04-25T14:59:48Z</time></trkpt><trkpt lat="45.6371783" lon="11.1721483"><ele>990.0</ele><time>2026-04-25T14:59:49Z</time></trkpt><trkpt lat="45.6370667" lon="11.1722633"><ele>990.0</ele><time>2026-04-25T14:59:50Z</time></trkpt><trkpt lat="45.6369517" lon="11.172395"><ele>993.25</ele><time>2026-04-25T14:59:51Z</time></trkpt><trkpt lat="45.63684" lon="11.172515"><ele>996.5</ele><time>2026-04-25T14:59:52Z</time></trkpt><trkpt lat="45.6367583" lon="11.17264"><ele>999.75</ele><time>2026-04-25T14:59:53Z</time></trkpt><trkpt lat="45.63665" lon="11.1727267"><ele>1003.0</ele><time>2026-04-25T14:59:54Z</time></trkpt><trkpt lat="45.6365467" lon="11.17281"><ele>1003.0</ele><time>2026-04-25T14:59:55Z</time></trkpt><trkpt lat="45.63643" lon="11.172875"><ele>1003.0</ele><time>2026-04-25T14:59:56Z</time></trkpt><trkpt lat="45.6363183" lon="11.1729367"><ele>1003.0</ele><time>2026-04-25T14:59:57Z</time></trkpt><trkpt lat="45.6362067" lon="11.1729683"><ele>1003.0</ele><time>2026-04-25T14:59:58Z</time></trkpt><trkpt lat="45.6360867" lon="11.1729517"><ele>1008.5</ele><time>2026-04-25T14:59:59Z</time></trkpt><trkpt lat="45.6359517" lon="11.1729133"><ele>1014.0</ele><time>2026-04-25T15:00:00Z</time></trkpt><trkpt lat="45.635805" lon="11.17285"><ele>1019.5</ele><time>2026-04-25T15:00:01Z</time></trkpt><trkpt lat="45.635665" lon="11.1727983"><ele>1025.0</ele><time>2026-04-25T15:00:02Z</time></trkpt><trkpt lat="45.6355167" lon="11.1727783"><ele>1025.0</ele><time>2026-04-25T15:00:03Z</time></trkpt><trkpt lat="45.6353583" lon="11.1727633"><ele>1025.0</ele><time>2026-04-25T15:00:04Z</time></trkpt><trkpt lat="45.635215" lon="11.1727933"><ele>1025.0</ele><time>2026-04-25T15:00:05Z</time></trkpt><trkpt lat="45.6350933" lon="11.17283"><ele>1025.0</ele><time>2026-04-25T15:00:06Z</time></trkpt><trkpt lat="45.63497" lon="11.1728567"><ele>1025.5</ele><time>2026-04-25T15:00:07Z</time></trkpt><trkpt lat="45.6348667" lon="11.1728617"><ele>1026.0</ele><time>2026-04-25T15:00:08Z</time></trkpt><trkpt lat="45.634755" lon="11.1728433"><ele>1026.5</ele><time>2026-04-25T15:00:09Z</time></trkpt><trkpt lat="45.6346417" lon="11.1727933"><ele>1027.0</ele><time>2026-04-25T15:00:10Z</time></trkpt><trkpt lat="45.634525" lon="11.172715"><ele>1022.5</ele><time>2026-04-25T15:00:11Z</time></trkpt><trkpt lat="45.634415" lon="11.1726083"><ele>1018.0</ele><time>2026-04-25T15:00:12Z</time></trkpt><trkpt lat="45.634315" lon="11.1724667"><ele>1013.5</ele><time>2026-04-25T15:00:13Z</time></trkpt><trkpt lat="45.6342167" lon="11.1723083"><ele>1009.0</ele><time>2026-04-25T15:00:14Z</time></trkpt><trkpt lat="45.6341117" lon="11.172135"><ele>1024.3333333333333</ele><time>2026-04-25T15:00:15Z</time></trkpt><trkpt lat="45.63399" lon="11.1719633"><ele>1039.6666666666667</ele><time>2026-04-25T15:00:16Z</time></trkpt><trkpt lat="45.6338667" lon="11.1718083"><ele>1055.0</ele><time>2026-04-25T15:00:17Z</time></trkpt><trkpt lat="45.6337283" lon="11.1716967"><ele>1061.25</ele><time>2026-04-25T15:00:18Z</time></trkpt><trkpt lat="45.6335933" lon="11.1716"><ele>1067.5</ele><time>2026-04-25T15:00:19Z</time></trkpt><trkpt lat="45.6334667" lon="11.1715067"><ele>1073.75</ele><time>2026-04-25T15:00:20Z</time></trkpt><trkpt lat="45.6333233" lon="11.1714417"><ele>1080.0</ele><time>2026-04-25T15:00:21Z</time></trkpt><trkpt lat="45.6331833" lon="11.171395"><ele>1080.0</ele><time>2026-04-25T15:00:22.001Z</time></trkpt><trkpt lat="45.6330467" lon="11.1713883"><ele>1080.0</ele><time>2026-04-25T15:00:23Z</time></trkpt><trkpt lat="45.632915" lon="11.171435"><ele>1080.0</ele><time>2026-04-25T15:00:24Z</time></trkpt><trkpt lat="45.6327583" lon="11.1715183"><ele>1080.0</ele><time>2026-04-25T15:00:25Z</time></trkpt><trkpt lat="45.6325967" lon="11.1715833"><ele>1067.3333333333333</ele><time>2026-04-25T15:00:26Z</time></trkpt><trkpt lat="45.6324233" lon="11.1716567"><ele>1054.6666666666665</ele><time>2026-04-25T15:00:27Z</time></trkpt><trkpt lat="45.6322783" lon="11.1717333"><ele>1042.0</ele><time>2026-04-25T15:00:28Z</time></trkpt><trkpt lat="45.63215" lon="11.1718183"><ele>1042.0</ele><time>2026-04-25T15:00:29Z</time></trkpt><trkpt lat="45.6320067" lon="11.17191"><ele>1042.0</ele><time>2026-04-25T15:00:30Z</time></trkpt><trkpt lat="45.6318817" lon="11.1720433"><ele>1042.0</ele><time>2026-04-25T15:00:31Z</time></trkpt><trkpt lat="45.631775" lon="11.1721783"><ele>1037.5</ele><time>2026-04-25T15:00:32Z</time></trkpt><trkpt lat="45.6316583" lon="11.1722933"><ele>1033.0</ele><time>2026-04-25T15:00:33Z</time></trkpt><trkpt lat="45.6315283" lon="11.172395"><ele>1028.5</ele><time>2026-04-25T15:00:34Z</time></trkpt><trkpt lat="45.6314067" lon="11.17252"><ele>1024.0</ele><time>2026-04-25T15:00:35Z</time></trkpt><trkpt lat="45.631285" lon="11.1726067"><ele>1024.0</ele><time>2026-04-25T15:00:36Z</time></trkpt><trkpt lat="45.6311667" lon="11.17268"><ele>1024.0</ele><time>2026-04-25T15:00:37Z</time></trkpt><trkpt lat="45.6310267" lon="11.17273"><ele>1024.0</ele><time>2026-04-25T15:00:38Z</time></trkpt><trkpt lat="45.6309033" lon="11.1727767"><ele>1024.0</ele><time>2026-04-25T15:00:39Z</time></trkpt><trkpt lat="45.63076" lon="11.1727917"><ele>1027.5</ele><time>2026-04-25T15:00:40Z</time></trkpt><trkpt lat="45.6306117" lon="11.17279"><ele>1031.0</ele><time>2026-04-25T15:00:41Z</time></trkpt><trkpt lat="45.630455" lon="11.1727767"><ele>1034.5</ele><time>2026-04-25T15:00:42Z</time></trkpt><trkpt lat="45.6303167" lon="11.17277"><ele>1038.0</ele><time>2026-04-25T15:00:43Z</time></trkpt><trkpt lat="45.63019" lon="11.1727583"><ele>1038.25</ele><time>2026-04-25T15:00:44Z</time></trkpt><trkpt lat="45.6300533" lon="11.172705"><ele>1038.5</ele><time>2026-04-25T15:00:45Z</time></trkpt><trkpt lat="45.6299283" lon="11.1726533"><ele>1038.75</ele><time>2026-04-25T15:00:46Z</time></trkpt><trkpt lat="45.6298" lon="11.172575"><ele>1039.0</ele><time>2026-04-25T15:00:47Z</time></trkpt><trkpt lat="45.6296683" lon="11.172515"><ele>1039.0</ele><time>2026-04-25T15:00:48Z</time></trkpt><trkpt lat="45.6295483" lon="11.1724533"><ele>1039.0</ele><time>2026-04-25T15:00:49Z</time></trkpt><trkpt lat="45.62942" lon="11.1723867"><ele>1039.0</ele><time>2026-04-25T15:00:50Z</time></trkpt><trkpt lat="45.6292967" lon="11.1723317"><ele>1039.0</ele><time>2026-04-25T15:00:51Z</time></trkpt><trkpt lat="45.629175" lon="11.1722733"><ele>1042.25</ele><time>2026-04-25T15:00:52Z</time></trkpt><trkpt lat="45.6290683" lon="11.1721967"><ele>1045.5</ele><time>2026-04-25T15:00:53Z</time></trkpt><trkpt lat="45.62897" lon="11.1720667"><ele>1048.75</ele><time>2026-04-25T15:00:54Z</time></trkpt><trkpt lat="45.62888" lon="11.1719217"><ele>1052.0</ele><time>2026-04-25T15:00:55Z</time></trkpt><trkpt lat="45.6287783" lon="11.171755"><ele>1052.0</ele><time>2026-04-25T15:00:56Z</time></trkpt><trkpt lat="45.6286717" lon="11.1715667"><ele>1052.0</ele><time>2026-04-25T15:00:57Z</time></trkpt><trkpt lat="45.6285683" lon="11.171395"><ele>1052.0</ele><time>2026-04-25T15:00:58Z</time></trkpt><trkpt lat="45.6284933" lon="11.171225"><ele>1049.0</ele><time>2026-04-25T15:00:59Z</time></trkpt><trkpt lat="45.62844" lon="11.171055"><ele>1046.0</ele><time>2026-04-25T15:01:00Z</time></trkpt><trkpt lat="45.6284167" lon="11.170865"><ele>1043.0</ele><time>2026-04-25T15:01:01Z</time></trkpt><trkpt lat="45.6284283" lon="11.1706583"><ele>1040.0</ele><time>2026-04-25T15:01:02Z</time></trkpt><trkpt lat="45.628485" lon="11.1704733"><ele>1039.6666666666667</ele><time>2026-04-25T15:01:03Z</time></trkpt><trkpt lat="45.6285983" lon="11.1703183"><ele>1039.3333333333333</ele><time>2026-04-25T15:01:04Z</time></trkpt><trkpt lat="45.6287167" lon="11.170175"><ele>1039.0</ele><time>2026-04-25T15:01:05Z</time></trkpt><trkpt lat="45.6288367" lon="11.1700017"><ele>1045.6666666666665</ele><time>2026-04-25T15:01:06Z</time></trkpt><trkpt lat="45.6289383" lon="11.1698283"><ele>1052.3333333333333</ele><time>2026-04-25T15:01:07Z</time></trkpt><trkpt lat="45.6290533" lon="11.1696817"><ele>1059.0</ele><time>2026-04-25T15:01:08Z</time></trkpt><trkpt lat="45.629175" lon="11.1695733"><ele>1059.0</ele><time>2026-04-25T15:01:09Z</time></trkpt><trkpt lat="45.6292833" lon="11.16948"><ele>1059.0</ele><time>2026-04-25T15:01:10Z</time></trkpt><trkpt lat="45.6293783" lon="11.1693733"><ele>1059.0</ele><time>2026-04-25T15:01:11Z</time></trkpt><trkpt lat="45.62944" lon="11.16924"><ele>1059.0</ele><time>2026-04-25T15:01:12Z</time></trkpt><trkpt lat="45.6294567" lon="11.169095"><ele>1061.1666666666667</ele><time>2026-04-25T15:01:13Z</time></trkpt><trkpt lat="45.6294733" lon="11.1689783"><ele>1063.3333333333333</ele><time>2026-04-25T15:01:14Z</time></trkpt><trkpt lat="45.6294983" lon="11.168895"><ele>1065.5</ele><time>2026-04-25T15:01:15Z</time></trkpt><trkpt lat="45.6295533" lon="11.1688467"><ele>1067.6666666666665</ele><time>2026-04-25T15:01:16Z</time></trkpt><trkpt lat="45.6296517" lon="11.1689033"><ele>1069.8333333333333</ele><time>2026-04-25T15:01:18Z</time></trkpt><trkpt lat="45.629685" lon="11.1690233"><ele>1072.0</ele><time>2026-04-25T15:01:19Z</time></trkpt><trkpt lat="45.6296767" lon="11.1691917"><ele>1068.6666666666665</ele><time>2026-04-25T15:01:20Z</time></trkpt><trkpt lat="45.629625" lon="11.1694167"><ele>1065.3333333333333</ele><time>2026-04-25T15:01:21Z</time></trkpt><trkpt lat="45.629535" lon="11.1696767"><ele>1062.0</ele><time>2026-04-25T15:01:22Z</time></trkpt><trkpt lat="45.6294317" lon="11.1699483"><ele>1062.0</ele><time>2026-04-25T15:01:23Z</time></trkpt><trkpt lat="45.6293333" lon="11.1701667"><ele>1062.0</ele><time>2026-04-25T15:01:24Z</time></trkpt><trkpt lat="45.6292533" lon="11.17033"><ele>1062.0</ele><time>2026-04-25T15:01:25Z</time></trkpt><trkpt lat="45.62918" lon="11.1705083"><ele>1062.0</ele><time>2026-04-25T15:01:26Z</time></trkpt><trkpt lat="45.6291383" lon="11.1706433"><ele>1062.0</ele><time>2026-04-25T15:01:27Z</time></trkpt><trkpt lat="45.62914" lon="11.1707683"><ele>1062.0</ele><time>2026-04-25T15:01:28Z</time></trkpt><trkpt lat="45.6291767" lon="11.1708917"><ele>1062.0</ele><time>2026-04-25T15:01:29Z</time></trkpt><trkpt lat="45.629255" lon="11.1709533"><ele>1062.0</ele><time>2026-04-25T15:01:30Z</time></trkpt><trkpt lat="45.6293517" lon="11.1709683"><ele>1064.0</ele><time>2026-04-25T15:01:31.001Z</time></trkpt><trkpt lat="45.6294733" lon="11.170955"><ele>1066.0</ele><time>2026-04-25T15:01:32Z</time></trkpt><trkpt lat="45.629645" lon="11.170905"><ele>1068.0</ele><time>2026-04-25T15:01:33.001Z</time></trkpt><trkpt lat="45.6298333" lon="11.1708583"><ele>1072.3333333333333</ele><time>2026-04-25T15:01:34Z</time></trkpt><trkpt lat="45.63003" lon="11.17085"><ele>1076.6666666666665</ele><time>2026-04-25T15:01:35Z</time></trkpt><trkpt lat="45.6302217" lon="11.1708633"><ele>1081.0</ele><time>2026-04-25T15:01:36Z</time></trkpt><trkpt lat="45.6303967" lon="11.17089"><ele>1082.6</ele><time>2026-04-25T15:01:37Z</time></trkpt><trkpt lat="45.6305333" lon="11.1709217"><ele>1084.1999999999998</ele><time>2026-04-25T15:01:38.001Z</time></trkpt><trkpt lat="45.6306167" lon="11.1709867"><ele>1085.8000000000002</ele><time>2026-04-25T15:01:39Z</time></trkpt><trkpt lat="45.63069" lon="11.1709967"><ele>1087.4</ele><time>2026-04-25T15:01:40Z</time></trkpt><trkpt lat="45.63076" lon="11.17098"><ele>1089.0</ele><time>2026-04-25T15:01:41Z</time></trkpt><trkpt lat="45.630805" lon="11.17088"><ele>1089.0</ele><time>2026-04-25T15:01:43Z</time></trkpt><trkpt lat="45.63073" lon="11.1707933"><ele>1089.0</ele><time>2026-04-25T15:01:45Z</time></trkpt><trkpt lat="45.630665" lon="11.1707767"><ele>1089.0</ele><time>2026-04-25T15:01:46Z</time></trkpt><trkpt lat="45.6305883" lon="11.1707733"><ele>1089.0</ele><time>2026-04-25T15:01:47Z</time></trkpt><trkpt lat="45.6304917" lon="11.1707517"><ele>1089.0</ele><time>2026-04-25T15:01:48Z</time></trkpt><trkpt lat="45.6303783" lon="11.1707083"><ele>1088.4</ele><time>2026-04-25T15:01:49Z</time></trkpt><trkpt lat="45.6302867" lon="11.1706467"><ele>1087.8000000000002</ele><time>2026-04-25T15:01:50Z</time></trkpt><trkpt lat="45.6302117" lon="11.1705567"><ele>1087.1999999999998</ele><time>2026-04-25T15:01:51.001Z</time></trkpt><trkpt lat="45.6301767" lon="11.1704433"><ele>1086.6</ele><time>2026-04-25T15:01:52Z</time></trkpt><trkpt lat="45.6301717" lon="11.1703167"><ele>1086.0</ele><time>2026-04-25T15:01:53Z</time></trkpt><trkpt lat="45.6301933" lon="11.1701883"><ele>1086.0</ele><time>2026-04-25T15:01:54Z</time></trkpt><trkpt lat="45.6302467" lon="11.1700617"><ele>1086.0</ele><time>2026-04-25T15:01:55Z</time></trkpt><trkpt lat="45.6303317" lon="11.1699017"><ele>1086.0</ele><time>2026-04-25T15:01:56Z</time></trkpt><trkpt lat="45.63043" lon="11.1697"><ele>1086.0</ele><time>2026-04-25T15:01:57Z</time></trkpt><trkpt lat="45.6305167" lon="11.1694933"><ele>1093.5</ele><time>2026-04-25T15:01:58Z</time></trkpt><trkpt lat="45.6305983" lon="11.1693083"><ele>1101.0</ele><time>2026-04-25T15:01:59Z</time></trkpt><trkpt lat="45.6306683" lon="11.169165"><ele>1108.5</ele><time>2026-04-25T15:02:00Z</time></trkpt><trkpt lat="45.6307483" lon="11.1690283"><ele>1116.0</ele><time>2026-04-25T15:02:01Z</time></trkpt><trkpt lat="45.6308217" lon="11.16888"><ele>1116.75</ele><time>2026-04-25T15:02:02Z</time></trkpt><trkpt lat="45.6308683" lon="11.1686983"><ele>1117.5</ele><time>2026-04-25T15:02:03Z</time></trkpt><trkpt lat="45.6308817" lon="11.1684967"><ele>1118.25</ele><time>2026-04-25T15:02:04Z</time></trkpt><trkpt lat="45.6308817" lon="11.16829"><ele>1119.0</ele><time>2026-04-25T15:02:05Z</time></trkpt><trkpt lat="45.630865" lon="11.16809"><ele>1122.75</ele><time>2026-04-25T15:02:06Z</time></trkpt><trkpt lat="45.6308283" lon="11.1678983"><ele>1126.5</ele><time>2026-04-25T15:02:07Z</time></trkpt><trkpt lat="45.6307717" lon="11.1676933"><ele>1130.25</ele><time>2026-04-25T15:02:08Z</time></trkpt><trkpt lat="45.6307067" lon="11.1675317"><ele>1134.0</ele><time>2026-04-25T15:02:09Z</time></trkpt><trkpt lat="45.63063" lon="11.16739"><ele>1133.75</ele><time>2026-04-25T15:02:10Z</time></trkpt><trkpt lat="45.6305383" lon="11.1672583"><ele>1133.5</ele><time>2026-04-25T15:02:11Z</time></trkpt><trkpt lat="45.63042" lon="11.1671517"><ele>1133.25</ele><time>2026-04-25T15:02:12Z</time></trkpt><trkpt lat="45.6303" lon="11.1670667"><ele>1133.0</ele><time>2026-04-25T15:02:13Z</time></trkpt><trkpt lat="45.6301967" lon="11.1669983"><ele>1133.0</ele><time>2026-04-25T15:02:14Z</time></trkpt><trkpt lat="45.6301033" lon="11.1669117"><ele>1133.0</ele><time>2026-04-25T15:02:15Z</time></trkpt><trkpt lat="45.6300333" lon="11.16681"><ele>1133.0</ele><time>2026-04-25T15:02:16Z</time></trkpt><trkpt lat="45.6299883" lon="11.1666867"><ele>1133.0</ele><time>2026-04-25T15:02:17Z</time></trkpt><trkpt lat="45.62996" lon="11.1665333"><ele>1133.0</ele><time>2026-04-25T15:02:18Z</time></trkpt><trkpt lat="45.6299483" lon="11.1663633"><ele>1134.75</ele><time>2026-04-25T15:02:19Z</time></trkpt><trkpt lat="45.6299283" lon="11.1661683"><ele>1136.5</ele><time>2026-04-25T15:02:20Z</time></trkpt><trkpt lat="45.629905" lon="11.1659717"><ele>1138.25</ele><time>2026-04-25T15:02:21Z</time></trkpt><trkpt lat="45.6298933" lon="11.1657867"><ele>1140.0</ele><time>2026-04-25T15:02:22Z</time></trkpt><trkpt lat="45.629885" lon="11.1656317"><ele>1140.0</ele><time>2026-04-25T15:02:23Z</time></trkpt><trkpt lat="45.62988" lon="11.165475"><ele>1140.0</ele><time>2026-04-25T15:02:24Z</time></trkpt><trkpt lat="45.6298733" lon="11.1653317"><ele>1140.0</ele><time>2026-04-25T15:02:25Z</time></trkpt><trkpt lat="45.6298683" lon="11.16521"><ele>1140.0</ele><time>2026-04-25T15:02:26Z</time></trkpt><trkpt lat="45.629865" lon="11.1650967"><ele>1140.0</ele><time>2026-04-25T15:02:27Z</time></trkpt><trkpt lat="45.6298683" lon="11.1650017"><ele>1140.0</ele><time>2026-04-25T15:02:28Z</time></trkpt><trkpt lat="45.6298767" lon="11.1648767"><ele>1139.1666666666667</ele><time>2026-04-25T15:02:30Z</time></trkpt><trkpt lat="45.629915" lon="11.16476"><ele>1138.3333333333333</ele><time>2026-04-25T15:03:06Z</time></trkpt><trkpt lat="45.6300017" lon="11.16472"><ele>1137.5</ele><time>2026-04-25T15:03:08Z</time></trkpt><trkpt lat="45.6300783" lon="11.1647433"><ele>1136.6666666666665</ele><time>2026-04-25T15:03:09Z</time></trkpt><trkpt lat="45.6301633" lon="11.1647867"><ele>1135.8333333333333</ele><time>2026-04-25T15:03:10Z</time></trkpt><trkpt lat="45.6302517" lon="11.1648267"><ele>1135.0</ele><time>2026-04-25T15:03:11Z</time></trkpt><trkpt lat="45.6303383" lon="11.1648733"><ele>1135.0</ele><time>2026-04-25T15:03:12Z</time></trkpt><trkpt lat="45.6304333" lon="11.1649167"><ele>1135.0</ele><time>2026-04-25T15:03:13Z</time></trkpt><trkpt lat="45.6305267" lon="11.1649617"><ele>1135.0</ele><time>2026-04-25T15:03:14Z</time></trkpt><trkpt lat="45.6306233" lon="11.1650067"><ele>1135.0</ele><time>2026-04-25T15:03:15Z</time></trkpt><trkpt lat="45.6307217" lon="11.1650517"><ele>1135.0</ele><time>2026-04-25T15:03:16Z</time></trkpt><trkpt lat="45.6308183" lon="11.165105"><ele>1135.0</ele><time>2026-04-25T15:03:17Z</time></trkpt><trkpt lat="45.6309217" lon="11.1651567"><ele>1135.0</ele><time>2026-04-25T15:03:18Z</time></trkpt><trkpt lat="45.6310233" lon="11.165195"><ele>1135.0</ele><time>2026-04-25T15:03:19Z</time></trkpt><trkpt lat="45.63112" lon="11.1652133"><ele>1135.0</ele><time>2026-04-25T15:03:20Z</time></trkpt><trkpt lat="45.6312233" lon="11.1651983"><ele>1135.0</ele><time>2026-04-25T15:03:21Z</time></trkpt><trkpt lat="45.6313167" lon="11.1651717"><ele>1135.8333333333333</ele><time>2026-04-25T15:03:22Z</time></trkpt><trkpt lat="45.6314017" lon="11.1651383"><ele>1136.6666666666665</ele><time>2026-04-25T15:03:23Z</time></trkpt><trkpt lat="45.6314833" lon="11.1650983"><ele>1137.5</ele><time>2026-04-25T15:03:24Z</time></trkpt><trkpt lat="45.6315567" lon="11.1650617"><ele>1138.3333333333333</ele><time>2026-04-25T15:03:25Z</time></trkpt><trkpt lat="45.6316217" lon="11.1650183"><ele>1139.1666666666667</ele><time>2026-04-25T15:03:26Z</time></trkpt><trkpt lat="45.6316733" lon="11.1649517"><ele>1140.0</ele><time>2026-04-25T15:03:27Z</time></trkpt><trkpt lat="45.63171" lon="11.16487"><ele>1139.6</ele><time>2026-04-25T15:03:28Z</time></trkpt><trkpt lat="45.6316983" lon="11.16471"><ele>1139.2</ele><time>2026-04-25T15:03:30Z</time></trkpt><trkpt lat="45.6316333" lon="11.1646333"><ele>1138.8</ele><time>2026-04-25T15:03:31Z</time></trkpt><trkpt lat="45.63154" lon="11.1645883"><ele>1138.4</ele><time>2026-04-25T15:03:32Z</time></trkpt><trkpt lat="45.6314583" lon="11.1645417"><ele>1138.0</ele><time>2026-04-25T15:03:33Z</time></trkpt><trkpt lat="45.6313967" lon="11.164495"><ele>1138.0</ele><time>2026-04-25T15:03:34Z</time></trkpt><trkpt lat="45.6312967" lon="11.1643767"><ele>1138.0</ele><time>2026-04-25T15:03:36Z</time></trkpt><trkpt lat="45.6312567" lon="11.1643017"><ele>1138.0</ele><time>2026-04-25T15:03:37Z</time></trkpt><trkpt lat="45.6312283" lon="11.1642117"><ele>1138.0</ele><time>2026-04-25T15:03:38Z</time></trkpt><trkpt lat="45.6312017" lon="11.16411"><ele>1138.0</ele><time>2026-04-25T15:03:39Z</time></trkpt><trkpt lat="45.6311733" lon="11.1639933"><ele>1138.0</ele><time>2026-04-25T15:03:40Z</time></trkpt><trkpt lat="45.6311383" lon="11.16387"><ele>1132.6</ele><time>2026-04-25T15:03:41Z</time></trkpt><trkpt lat="45.63112" lon="11.16374"><ele>1127.1999999999998</ele><time>2026-04-25T15:03:42Z</time></trkpt><trkpt lat="45.6311" lon="11.1635883"><ele>1121.8</ele><time>2026-04-25T15:03:43Z</time></trkpt><trkpt lat="45.631085" lon="11.1634183"><ele>1116.3999999999999</ele><time>2026-04-25T15:03:44Z</time></trkpt><trkpt lat="45.6310783" lon="11.163255"><ele>1111.0</ele><time>2026-04-25T15:03:45Z</time></trkpt><trkpt lat="45.6310717" lon="11.1630783"><ele>1109.8</ele><time>2026-04-25T15:03:46Z</time></trkpt><trkpt lat="45.6310583" lon="11.16291"><ele>1108.6</ele><time>2026-04-25T15:03:47Z</time></trkpt><trkpt lat="45.63105" lon="11.1627633"><ele>1107.4</ele><time>2026-04-25T15:03:48Z</time></trkpt><trkpt lat="45.6310567" lon="11.16263"><ele>1106.2</ele><time>2026-04-25T15:03:49Z</time></trkpt><trkpt lat="45.6310783" lon="11.1624967"><ele>1105.0</ele><time>2026-04-25T15:03:50Z</time></trkpt><trkpt lat="45.6311133" lon="11.1623617"><ele>1106.1666666666665</ele><time>2026-04-25T15:03:51Z</time></trkpt><trkpt lat="45.6311433" lon="11.1622417"><ele>1107.3333333333333</ele><time>2026-04-25T15:03:52Z</time></trkpt><trkpt lat="45.631165" lon="11.162135"><ele>1108.5</ele><time>2026-04-25T15:03:53Z</time></trkpt><trkpt lat="45.631175" lon="11.162"><ele>1109.6666666666667</ele><time>2026-04-25T15:03:54Z</time></trkpt><trkpt lat="45.631145" lon="11.1618833"><ele>1110.8333333333335</ele><time>2026-04-25T15:03:55Z</time></trkpt><trkpt lat="45.6311083" lon="11.1617683"><ele>1112.0</ele><time>2026-04-25T15:03:56Z</time></trkpt><trkpt lat="45.6310633" lon="11.16166"><ele>1109.6666666666667</ele><time>2026-04-25T15:03:57Z</time></trkpt><trkpt lat="45.6310167" lon="11.16155"><ele>1107.3333333333335</ele><time>2026-04-25T15:03:58Z</time></trkpt><trkpt lat="45.6309867" lon="11.1614417"><ele>1105.0</ele><time>2026-04-25T15:03:59Z</time></trkpt><trkpt lat="45.630975" lon="11.1613233"><ele>1102.6666666666667</ele><time>2026-04-25T15:04:00Z</time></trkpt><trkpt lat="45.6309833" lon="11.1612033"><ele>1100.3333333333333</ele><time>2026-04-25T15:04:01Z</time></trkpt><trkpt lat="45.6310117" lon="11.161095"><ele>1098.0</ele><time>2026-04-25T15:04:02Z</time></trkpt><trkpt lat="45.63106" lon="11.1610033"><ele>1098.6666666666667</ele><time>2026-04-25T15:04:03Z</time></trkpt><trkpt lat="45.6311183" lon="11.1609267"><ele>1099.3333333333333</ele><time>2026-04-25T15:04:04Z</time></trkpt><trkpt lat="45.6311917" lon="11.1609067"><ele>1100.0</ele><time>2026-04-25T15:04:05Z</time></trkpt><trkpt lat="45.6312733" lon="11.1609083"><ele>1100.6666666666665</ele><time>2026-04-25T15:04:06Z</time></trkpt><trkpt lat="45.6313467" lon="11.1609017"><ele>1101.3333333333333</ele><time>2026-04-25T15:04:07Z</time></trkpt><trkpt lat="45.6314067" lon="11.1608717"><ele>1102.0</ele><time>2026-04-25T15:04:08Z</time></trkpt><trkpt lat="45.6314717" lon="11.1607867"><ele>1102.0</ele><time>2026-04-25T15:04:10Z</time></trkpt><trkpt lat="45.6314733" lon="11.16068"><ele>1102.0</ele><time>2026-04-25T15:04:41Z</time></trkpt><trkpt lat="45.6313767" lon="11.160625"><ele>1102.0</ele><time>2026-04-25T15:04:43Z</time></trkpt><trkpt lat="45.6313017" lon="11.16062"><ele>1102.0</ele><time>2026-04-25T15:04:44Z</time></trkpt><trkpt lat="45.6312117" lon="11.1606083"><ele>1102.0</ele><time>2026-04-25T15:04:45Z</time></trkpt><trkpt lat="45.6311133" lon="11.1605883"><ele>1102.0</ele><time>2026-04-25T15:04:46Z</time></trkpt><trkpt lat="45.6310133" lon="11.1605667"><ele>1099.5</ele><time>2026-04-25T15:04:47Z</time></trkpt><trkpt lat="45.63091" lon="11.1605467"><ele>1097.0</ele><time>2026-04-25T15:04:48Z</time></trkpt><trkpt lat="45.63078" lon="11.160535"><ele>1094.5</ele><time>2026-04-25T15:04:49Z</time></trkpt><trkpt lat="45.630635" lon="11.1605333"><ele>1092.0</ele><time>2026-04-25T15:04:50Z</time></trkpt><trkpt lat="45.6304567" lon="11.1605133"><ele>1090.0</ele><time>2026-04-25T15:04:51Z</time></trkpt><trkpt lat="45.630285" lon="11.160505"><ele>1088.0</ele><time>2026-04-25T15:04:52Z</time></trkpt><trkpt lat="45.63012" lon="11.1604783"><ele>1086.0</ele><time>2026-04-25T15:04:53Z</time></trkpt><trkpt lat="45.6299617" lon="11.16042"><ele>1086.0</ele><time>2026-04-25T15:04:54Z</time></trkpt><trkpt lat="45.6298233" lon="11.1603467"><ele>1086.0</ele><time>2026-04-25T15:04:55Z</time></trkpt><trkpt lat="45.6296933" lon="11.1602683"><ele>1086.0</ele><time>2026-04-25T15:04:56Z</time></trkpt><trkpt lat="45.6295633" lon="11.1602083"><ele>1086.0</ele><time>2026-04-25T15:04:57Z</time></trkpt><trkpt lat="45.6294333" lon="11.160185"><ele>1086.5</ele><time>2026-04-25T15:04:58Z</time></trkpt><trkpt lat="45.6292983" lon="11.16021"><ele>1087.0</ele><time>2026-04-25T15:04:59Z</time></trkpt><trkpt lat="45.6291633" lon="11.1602583"><ele>1087.5</ele><time>2026-04-25T15:05:00Z</time></trkpt><trkpt lat="45.6290383" lon="11.160335"><ele>1088.0</ele><time>2026-04-25T15:05:01Z</time></trkpt><trkpt lat="45.628915" lon="11.1604267"><ele>1088.0</ele><time>2026-04-25T15:05:02Z</time></trkpt><trkpt lat="45.6288067" lon="11.1605067"><ele>1088.0</ele><time>2026-04-25T15:05:03Z</time></trkpt><trkpt lat="45.6287" lon="11.16061"><ele>1088.0</ele><time>2026-04-25T15:05:04Z</time></trkpt><trkpt lat="45.6285983" lon="11.1607183"><ele>1088.0</ele><time>2026-04-25T15:05:05Z</time></trkpt><trkpt lat="45.6285183" lon="11.1608517"><ele>1087.75</ele><time>2026-04-25T15:05:06Z</time></trkpt><trkpt lat="45.6284467" lon="11.1609983"><ele>1087.5</ele><time>2026-04-25T15:05:07Z</time></trkpt><trkpt lat="45.628365" lon="11.16116"><ele>1087.25</ele><time>2026-04-25T15:05:08Z</time></trkpt><trkpt lat="45.6282767" lon="11.1613217"><ele>1087.0</ele><time>2026-04-25T15:05:09Z</time></trkpt><trkpt lat="45.6281967" lon="11.16148"><ele>1089.25</ele><time>2026-04-25T15:05:10Z</time></trkpt><trkpt lat="45.6281217" lon="11.1616217"><ele>1091.5</ele><time>2026-04-25T15:05:11Z</time></trkpt><trkpt lat="45.6280433" lon="11.16176"><ele>1093.75</ele><time>2026-04-25T15:05:12Z</time></trkpt><trkpt lat="45.6279667" lon="11.1618983"><ele>1096.0</ele><time>2026-04-25T15:05:13Z</time></trkpt><trkpt lat="45.6279033" lon="11.162035"><ele>1096.0</ele><time>2026-04-25T15:05:14Z</time></trkpt><trkpt lat="45.62785" lon="11.1621767"><ele>1096.0</ele><time>2026-04-25T15:05:15Z</time></trkpt><trkpt lat="45.6278067" lon="11.1623217"><ele>1096.0</ele><time>2026-04-25T15:05:16Z</time></trkpt><trkpt lat="45.6277633" lon="11.1624367"><ele>1096.0</ele><time>2026-04-25T15:05:17Z</time></trkpt><trkpt lat="45.6276933" lon="11.1625433"><ele>1096.0</ele><time>2026-04-25T15:05:18Z</time></trkpt><trkpt lat="45.62761" lon="11.1626017"><ele>1095.6</ele><time>2026-04-25T15:05:19Z</time></trkpt><trkpt lat="45.62752" lon="11.1626183"><ele>1095.1999999999998</ele><time>2026-04-25T15:05:20Z</time></trkpt><trkpt lat="45.62742" lon="11.1625833"><ele>1094.8000000000002</ele><time>2026-04-25T15:05:21.001Z</time></trkpt><trkpt lat="45.6273183" lon="11.1624883"><ele>1094.4</ele><time>2026-04-25T15:05:22Z</time></trkpt><trkpt lat="45.62724" lon="11.16235"><ele>1094.0</ele><time>2026-04-25T15:05:23Z</time></trkpt><trkpt lat="45.62717" lon="11.16217"><ele>1094.5</ele><time>2026-04-25T15:05:24Z</time></trkpt><trkpt lat="45.6270983" lon="11.16198"><ele>1095.0</ele><time>2026-04-25T15:05:25Z</time></trkpt><trkpt lat="45.62704" lon="11.1618033"><ele>1095.5</ele><time>2026-04-25T15:05:26Z</time></trkpt><trkpt lat="45.6269933" lon="11.1616567"><ele>1096.0</ele><time>2026-04-25T15:05:27Z</time></trkpt><trkpt lat="45.62693" lon="11.16153"><ele>1096.0</ele><time>2026-04-25T15:05:28Z</time></trkpt><trkpt lat="45.626855" lon="11.1614183"><ele>1096.0</ele><time>2026-04-25T15:05:29Z</time></trkpt><trkpt lat="45.62676" lon="11.1613417"><ele>1096.0</ele><time>2026-04-25T15:05:30Z</time></trkpt><trkpt lat="45.6266467" lon="11.1612933"><ele>1096.0</ele><time>2026-04-25T15:05:31Z</time></trkpt><trkpt lat="45.6265183" lon="11.16126"><ele>1096.0</ele><time>2026-04-25T15:05:32Z</time></trkpt><trkpt lat="45.6263833" lon="11.1612483"><ele>1096.0</ele><time>2026-04-25T15:05:33Z</time></trkpt><trkpt lat="45.6262517" lon="11.161245"><ele>1096.0</ele><time>2026-04-25T15:05:34Z</time></trkpt><trkpt lat="45.62612" lon="11.1612467"><ele>1096.0</ele><time>2026-04-25T15:05:35Z</time></trkpt><trkpt lat="45.6259783" lon="11.161255"><ele>1099.6666666666665</ele><time>2026-04-25T15:05:36Z</time></trkpt><trkpt lat="45.6258317" lon="11.1612683"><ele>1103.3333333333333</ele><time>2026-04-25T15:05:37Z</time></trkpt><trkpt lat="45.6256833" lon="11.16129"><ele>1107.0</ele><time>2026-04-25T15:05:38Z</time></trkpt><trkpt lat="45.6255167" lon="11.1613067"><ele>1107.0</ele><time>2026-04-25T15:05:39Z</time></trkpt><trkpt lat="45.6253433" lon="11.1613233"><ele>1107.0</ele><time>2026-04-25T15:05:40Z</time></trkpt><trkpt lat="45.62516" lon="11.1613383"><ele>1107.0</ele><time>2026-04-25T15:05:41Z</time></trkpt><trkpt lat="45.62498" lon="11.1613567"><ele>1108.6666666666667</ele><time>2026-04-25T15:05:42Z</time></trkpt><trkpt lat="45.6248167" lon="11.1613733"><ele>1110.3333333333335</ele><time>2026-04-25T15:05:43Z</time></trkpt><trkpt lat="45.6246417" lon="11.161365"><ele>1112.0</ele><time>2026-04-25T15:05:44Z</time></trkpt><trkpt lat="45.624475" lon="11.16134"><ele>1114.75</ele><time>2026-04-25T15:05:45Z</time></trkpt><trkpt lat="45.6243117" lon="11.16129"><ele>1117.5</ele><time>2026-04-25T15:05:46Z</time></trkpt><trkpt lat="45.6241733" lon="11.1612467"><ele>1120.25</ele><time>2026-04-25T15:05:47Z</time></trkpt><trkpt lat="45.62405" lon="11.1611967"><ele>1123.0</ele><time>2026-04-25T15:05:48Z</time></trkpt><trkpt lat="45.6239367" lon="11.1611467"><ele>1123.0</ele><time>2026-04-25T15:05:49Z</time></trkpt><trkpt lat="45.62383" lon="11.1611083"><ele>1123.0</ele><time>2026-04-25T15:05:50Z</time></trkpt><trkpt lat="45.623735" lon="11.1610817"><ele>1123.0</ele><time>2026-04-25T15:05:51Z</time></trkpt><trkpt lat="45.623645" lon="11.1610567"><ele>1123.0</ele><time>2026-04-25T15:05:52Z</time></trkpt><trkpt lat="45.6235633" lon="11.16104"><ele>1123.0</ele><time>2026-04-25T15:05:53Z</time></trkpt><trkpt lat="45.6234833" lon="11.1610033"><ele>1124.0</ele><time>2026-04-25T15:05:54Z</time></trkpt><trkpt lat="45.6233967" lon="11.1609467"><ele>1125.0</ele><time>2026-04-25T15:05:55Z</time></trkpt><trkpt lat="45.6233033" lon="11.160885"><ele>1126.0</ele><time>2026-04-25T15:05:56Z</time></trkpt><trkpt lat="45.6232167" lon="11.1608283"><ele>1127.0</ele><time>2026-04-25T15:05:57Z</time></trkpt><trkpt lat="45.6231417" lon="11.1607567"><ele>1128.0</ele><time>2026-04-25T15:05:58Z</time></trkpt><trkpt lat="45.6230817" lon="11.16069"><ele>1129.3333333333333</ele><time>2026-04-25T15:05:59Z</time></trkpt><trkpt lat="45.62304" lon="11.1606017"><ele>1130.6666666666667</ele><time>2026-04-25T15:06:00Z</time></trkpt><trkpt lat="45.62303" lon="11.16049"><ele>1132.0</ele><time>2026-04-25T15:06:01Z</time></trkpt><trkpt lat="45.6230117" lon="11.16037"><ele>1133.3333333333335</ele><time>2026-04-25T15:06:02Z</time></trkpt><trkpt lat="45.6229967" lon="11.1602367"><ele>1134.6666666666667</ele><time>2026-04-25T15:06:03Z</time></trkpt><trkpt lat="45.6229417" lon="11.160145"><ele>1136.0</ele><time>2026-04-25T15:06:04Z</time></trkpt><trkpt lat="45.6228517" lon="11.1601067"><ele>1132.3999999999999</ele><time>2026-04-25T15:06:05Z</time></trkpt><trkpt lat="45.6227567" lon="11.1600883"><ele>1128.8</ele><time>2026-04-25T15:06:06Z</time></trkpt><trkpt lat="45.6226483" lon="11.1601067"><ele>1125.1999999999998</ele><time>2026-04-25T15:06:07Z</time></trkpt><trkpt lat="45.6225367" lon="11.1601167"><ele>1121.6</ele><time>2026-04-25T15:06:08Z</time></trkpt><trkpt lat="45.6224467" lon="11.16012"><ele>1118.0</ele><time>2026-04-25T15:06:09Z</time></trkpt><trkpt lat="45.6223567" lon="11.1601"><ele>1118.0</ele><time>2026-04-25T15:06:10Z</time></trkpt><trkpt lat="45.622285" lon="11.1600567"><ele>1118.0</ele><time>2026-04-25T15:06:11Z</time></trkpt><trkpt lat="45.62223" lon="11.1599883"><ele>1118.0</ele><time>2026-04-25T15:06:12Z</time></trkpt><trkpt lat="45.6221817" lon="11.1599083"><ele>1118.0</ele><time>2026-04-25T15:06:13Z</time></trkpt><trkpt lat="45.6221683" lon="11.159795"><ele>1118.0</ele><time>2026-04-25T15:06:14Z</time></trkpt><trkpt lat="45.622165" lon="11.1596783"><ele>1118.0</ele><time>2026-04-25T15:06:15Z</time></trkpt><trkpt lat="45.6221833" lon="11.15956"><ele>1118.8333333333335</ele><time>2026-04-25T15:06:16Z</time></trkpt><trkpt lat="45.6222183" lon="11.159455"><ele>1119.6666666666667</ele><time>2026-04-25T15:06:17Z</time></trkpt><trkpt lat="45.6222533" lon="11.15936"><ele>1120.5</ele><time>2026-04-25T15:06:18Z</time></trkpt><trkpt lat="45.6222817" lon="11.1592617"><ele>1121.3333333333333</ele><time>2026-04-25T15:06:19Z</time></trkpt><trkpt lat="45.6223133" lon="11.1591533"><ele>1122.1666666666665</ele><time>2026-04-25T15:06:20Z</time></trkpt><trkpt lat="45.62231" lon="11.1590617"><ele>1123.0</ele><time>2026-04-25T15:06:21Z</time></trkpt><trkpt lat="45.6222117" lon="11.1589333"><ele>1125.25</ele><time>2026-04-25T15:06:23Z</time></trkpt><trkpt lat="45.6221067" lon="11.1588917"><ele>1127.5</ele><time>2026-04-25T15:06:24Z</time></trkpt><trkpt lat="45.6219833" lon="11.1588733"><ele>1129.75</ele><time>2026-04-25T15:06:25Z</time></trkpt><trkpt lat="45.6218567" lon="11.15887"><ele>1132.0</ele><time>2026-04-25T15:06:26Z</time></trkpt><trkpt lat="45.621735" lon="11.1589183"><ele>1128.0</ele><time>2026-04-25T15:06:27Z</time></trkpt><trkpt lat="45.6216317" lon="11.1589833"><ele>1124.0</ele><time>2026-04-25T15:06:28Z</time></trkpt><trkpt lat="45.6215383" lon="11.1590383"><ele>1120.0</ele><time>2026-04-25T15:06:29Z</time></trkpt><trkpt lat="45.6214717" lon="11.15911"><ele>1116.0</ele><time>2026-04-25T15:06:30Z</time></trkpt><trkpt lat="45.6214133" lon="11.15915"><ele>1112.0</ele><time>2026-04-25T15:06:31Z</time></trkpt><trkpt lat="45.6213067" lon="11.1591683"><ele>1110.2</ele><time>2026-04-25T15:06:33Z</time></trkpt><trkpt lat="45.6212433" lon="11.1591717"><ele>1108.4</ele><time>2026-04-25T15:06:34Z</time></trkpt><trkpt lat="45.6211233" lon="11.1592233"><ele>1106.6</ele><time>2026-04-25T15:06:36Z</time></trkpt><trkpt lat="45.62106" lon="11.1592883"><ele>1104.8</ele><time>2026-04-25T15:06:37Z</time></trkpt><trkpt lat="45.6209983" lon="11.1593883"><ele>1103.0</ele><time>2026-04-25T15:06:38Z</time></trkpt><trkpt lat="45.6209333" lon="11.1594883"><ele>1100.4</ele><time>2026-04-25T15:06:39Z</time></trkpt><trkpt lat="45.6208633" lon="11.1595867"><ele>1097.8</ele><time>2026-04-25T15:06:40Z</time></trkpt><trkpt lat="45.6207883" lon="11.1596783"><ele>1095.2</ele><time>2026-04-25T15:06:41Z</time></trkpt><trkpt lat="45.6207117" lon="11.1597633"><ele>1092.6</ele><time>2026-04-25T15:06:42Z</time></trkpt><trkpt lat="45.620635" lon="11.1598317"><ele>1090.0</ele><time>2026-04-25T15:06:43Z</time></trkpt><trkpt lat="45.6205483" lon="11.1599"><ele>1089.2</ele><time>2026-04-25T15:06:44Z</time></trkpt><trkpt lat="45.6204617" lon="11.1599633"><ele>1088.4</ele><time>2026-04-25T15:06:45Z</time></trkpt><trkpt lat="45.6203633" lon="11.1599967"><ele>1087.6</ele><time>2026-04-25T15:06:46Z</time></trkpt><trkpt lat="45.620265" lon="11.16"><ele>1086.8</ele><time>2026-04-25T15:06:47Z</time></trkpt><trkpt lat="45.6201617" lon="11.1599917"><ele>1086.0</ele><time>2026-04-25T15:06:48Z</time></trkpt><trkpt lat="45.62005" lon="11.159965"><ele>1086.0</ele><time>2026-04-25T15:06:49Z</time></trkpt><trkpt lat="45.619945" lon="11.15993"><ele>1086.0</ele><time>2026-04-25T15:06:50Z</time></trkpt><trkpt lat="45.6198433" lon="11.1598783"><ele>1086.0</ele><time>2026-04-25T15:06:51Z</time></trkpt><trkpt lat="45.6197467" lon="11.1598217"><ele>1086.0</ele><time>2026-04-25T15:06:52Z</time></trkpt><trkpt lat="45.6196483" lon="11.159765"><ele>1086.0</ele><time>2026-04-25T15:06:53Z</time></trkpt><trkpt lat="45.6195483" lon="11.15971"><ele>1083.5</ele><time>2026-04-25T15:06:54Z</time></trkpt><trkpt lat="45.6194467" lon="11.1596567"><ele>1081.0</ele><time>2026-04-25T15:06:55Z</time></trkpt><trkpt lat="45.6193417" lon="11.1595883"><ele>1078.5</ele><time>2026-04-25T15:06:56Z</time></trkpt><trkpt lat="45.6192317" lon="11.15952"><ele>1076.0</ele><time>2026-04-25T15:06:57Z</time></trkpt><trkpt lat="45.61913" lon="11.159455"><ele>1076.0</ele><time>2026-04-25T15:06:58Z</time></trkpt><trkpt lat="45.6190283" lon="11.1593867"><ele>1076.0</ele><time>2026-04-25T15:06:59Z</time></trkpt><trkpt lat="45.6189267" lon="11.159305"><ele>1076.0</ele><time>2026-04-25T15:07:00Z</time></trkpt><trkpt lat="45.6188233" lon="11.15922"><ele>1076.0</ele><time>2026-04-25T15:07:01Z</time></trkpt><trkpt lat="45.6187017" lon="11.1591283"><ele>1074.75</ele><time>2026-04-25T15:07:02Z</time></trkpt><trkpt lat="45.618565" lon="11.1590283"><ele>1073.5</ele><time>2026-04-25T15:07:03Z</time></trkpt><trkpt lat="45.6184317" lon="11.15895"><ele>1072.25</ele><time>2026-04-25T15:07:04Z</time></trkpt><trkpt lat="45.618305" lon="11.1588917"><ele>1071.0</ele><time>2026-04-25T15:07:05Z</time></trkpt><trkpt lat="45.6181933" lon="11.1588667"><ele>1071.0</ele><time>2026-04-25T15:07:06Z</time></trkpt><trkpt lat="45.6180833" lon="11.1588317"><ele>1071.0</ele><time>2026-04-25T15:07:07Z</time></trkpt><trkpt lat="45.6179767" lon="11.1587883"><ele>1071.0</ele><time>2026-04-25T15:07:08Z</time></trkpt><trkpt lat="45.617875" lon="11.15875"><ele>1071.0</ele><time>2026-04-25T15:07:09Z</time></trkpt><trkpt lat="45.6177767" lon="11.1587017"><ele>1071.0</ele><time>2026-04-25T15:07:10Z</time></trkpt><trkpt lat="45.61768" lon="11.1586417"><ele>1073.3999999999999</ele><time>2026-04-25T15:07:11Z</time></trkpt><trkpt lat="45.6175833" lon="11.158575"><ele>1075.8</ele><time>2026-04-25T15:07:12Z</time></trkpt><trkpt lat="45.6174933" lon="11.158495"><ele>1078.1999999999998</ele><time>2026-04-25T15:07:13Z</time></trkpt><trkpt lat="45.617415" lon="11.1584083"><ele>1080.6</ele><time>2026-04-25T15:07:14Z</time></trkpt><trkpt lat="45.61734" lon="11.1583283"><ele>1083.0</ele><time>2026-04-25T15:07:15Z</time></trkpt><trkpt lat="45.6172733" lon="11.1582167"><ele>1081.8</ele><time>2026-04-25T15:07:16Z</time></trkpt><trkpt lat="45.6172083" lon="11.1581167"><ele>1080.6</ele><time>2026-04-25T15:07:17Z</time></trkpt><trkpt lat="45.617135" lon="11.158015"><ele>1079.4</ele><time>2026-04-25T15:07:18Z</time></trkpt><trkpt lat="45.6170617" lon="11.1579"><ele>1078.2</ele><time>2026-04-25T15:07:19Z</time></trkpt><trkpt lat="45.6169783" lon="11.157795"><ele>1077.0</ele><time>2026-04-25T15:07:20Z</time></trkpt><trkpt lat="45.6168983" lon="11.1577017"><ele>1077.0</ele><time>2026-04-25T15:07:21Z</time></trkpt><trkpt lat="45.616815" lon="11.1576217"><ele>1077.0</ele><time>2026-04-25T15:07:22Z</time></trkpt><trkpt lat="45.6167267" lon="11.15755"><ele>1077.0</ele><time>2026-04-25T15:07:23Z</time></trkpt><trkpt lat="45.6166333" lon="11.1575067"><ele>1077.0</ele><time>2026-04-25T15:07:24Z</time></trkpt><trkpt lat="45.616535" lon="11.15747"><ele>1077.0</ele><time>2026-04-25T15:07:25Z</time></trkpt><trkpt lat="45.61643" lon="11.157445"><ele>1077.0</ele><time>2026-04-25T15:07:26Z</time></trkpt><trkpt lat="45.616325" lon="11.15742"><ele>1077.0</ele><time>2026-04-25T15:07:27Z</time></trkpt><trkpt lat="45.6162217" lon="11.15739"><ele>1077.0</ele><time>2026-04-25T15:07:28Z</time></trkpt><trkpt lat="45.6161167" lon="11.1573617"><ele>1077.0</ele><time>2026-04-25T15:07:29Z</time></trkpt><trkpt lat="45.6160167" lon="11.1573483"><ele>1077.0</ele><time>2026-04-25T15:07:30Z</time></trkpt><trkpt lat="45.61593" lon="11.15735"><ele>1075.0</ele><time>2026-04-25T15:07:31Z</time></trkpt><trkpt lat="45.6158367" lon="11.1573583"><ele>1073.0</ele><time>2026-04-25T15:07:32Z</time></trkpt><trkpt lat="45.6157467" lon="11.157385"><ele>1071.0</ele><time>2026-04-25T15:07:33Z</time></trkpt><trkpt lat="45.6156667" lon="11.157445"><ele>1069.0</ele><time>2026-04-25T15:07:34Z</time></trkpt><trkpt lat="45.615585" lon="11.1575117"><ele>1067.0</ele><time>2026-04-25T15:07:35Z</time></trkpt><trkpt lat="45.6155133" lon="11.1575733"><ele>1067.0</ele><time>2026-04-25T15:07:36Z</time></trkpt><trkpt lat="45.61544" lon="11.15762"><ele>1067.0</ele><time>2026-04-25T15:07:37Z</time></trkpt><trkpt lat="45.6153633" lon="11.1576533"><ele>1067.0</ele><time>2026-04-25T15:07:38.001Z</time></trkpt><trkpt lat="45.6152817" lon="11.1576733"><ele>1067.0</ele><time>2026-04-25T15:07:39Z</time></trkpt><trkpt lat="45.6152017" lon="11.15769"><ele>1067.0</ele><time>2026-04-25T15:07:40Z</time></trkpt><trkpt lat="45.6151333" lon="11.1577033"><ele>1067.0</ele><time>2026-04-25T15:07:41Z</time></trkpt><trkpt lat="45.61507" lon="11.1577183"><ele>1065.8333333333335</ele><time>2026-04-25T15:07:42Z</time></trkpt><trkpt lat="45.6150033" lon="11.1577283"><ele>1064.6666666666667</ele><time>2026-04-25T15:07:43Z</time></trkpt><trkpt lat="45.61493" lon="11.1577367"><ele>1063.5</ele><time>2026-04-25T15:07:44Z</time></trkpt><trkpt lat="45.614865" lon="11.157725"><ele>1062.3333333333333</ele><time>2026-04-25T15:07:45Z</time></trkpt><trkpt lat="45.6148017" lon="11.157725"><ele>1061.1666666666665</ele><time>2026-04-25T15:07:46Z</time></trkpt><trkpt lat="45.6146733" lon="11.1577233"><ele>1060.0</ele><time>2026-04-25T15:07:48Z</time></trkpt><trkpt lat="45.6146083" lon="11.1577217"><ele>1060.0</ele><time>2026-04-25T15:07:49Z</time></trkpt><trkpt lat="45.61454" lon="11.1577267"><ele>1060.0</ele><time>2026-04-25T15:07:50Z</time></trkpt><trkpt lat="45.6144733" lon="11.1577333"><ele>1060.0</ele><time>2026-04-25T15:07:51Z</time></trkpt><trkpt lat="45.6144067" lon="11.1577367"><ele>1060.0</ele><time>2026-04-25T15:07:52Z</time></trkpt><trkpt lat="45.6143417" lon="11.1577517"><ele>1060.0</ele><time>2026-04-25T15:07:53Z</time></trkpt><trkpt lat="45.614215" lon="11.1577667"><ele>1060.0</ele><time>2026-04-25T15:07:55Z</time></trkpt><trkpt lat="45.61415" lon="11.157775"><ele>1058.5714285714284</ele><time>2026-04-25T15:07:56Z</time></trkpt><trkpt lat="45.61408" lon="11.15778"><ele>1057.142857142857</ele><time>2026-04-25T15:07:57Z</time></trkpt><trkpt lat="45.6140133" lon="11.15779"><ele>1055.7142857142858</ele><time>2026-04-25T15:07:58Z</time></trkpt><trkpt lat="45.6139433" lon="11.1578117"><ele>1054.2857142857142</ele><time>2026-04-25T15:07:59Z</time></trkpt><trkpt lat="45.613875" lon="11.1578233"><ele>1052.857142857143</ele><time>2026-04-25T15:08:00Z</time></trkpt><trkpt lat="45.6138017" lon="11.15784"><ele>1051.4285714285713</ele><time>2026-04-25T15:08:01Z</time></trkpt><trkpt lat="45.6137317" lon="11.1578533"><ele>1050.0</ele><time>2026-04-25T15:08:02Z</time></trkpt><trkpt lat="45.6136667" lon="11.1578617"><ele>1047.8</ele><time>2026-04-25T15:08:03Z</time></trkpt><trkpt lat="45.6135317" lon="11.1578783"><ele>1045.6</ele><time>2026-04-25T15:08:05Z</time></trkpt><trkpt lat="45.6134617" lon="11.1578883"><ele>1043.4</ele><time>2026-04-25T15:08:06Z</time></trkpt><trkpt lat="45.6133967" lon="11.157895"><ele>1041.2</ele><time>2026-04-25T15:08:07Z</time></trkpt><trkpt lat="45.613325" lon="11.1578933"><ele>1039.0</ele><time>2026-04-25T15:08:08Z</time></trkpt><trkpt lat="45.6132067" lon="11.15787"><ele>1039.0</ele><time>2026-04-25T15:08:10Z</time></trkpt><trkpt lat="45.613115" lon="11.1578167"><ele>1039.0</ele><time>2026-04-25T15:08:12Z</time></trkpt><trkpt lat="45.6130283" lon="11.1577517"><ele>1039.0</ele><time>2026-04-25T15:08:15Z</time></trkpt><trkpt lat="45.612965" lon="11.1576817"><ele>1039.0</ele><time>2026-04-25T15:08:17Z</time></trkpt><trkpt lat="45.6129033" lon="11.1575967"><ele>1039.0</ele><time>2026-04-25T15:08:19Z</time></trkpt><trkpt lat="45.6128317" lon="11.157495"><ele>1036.8</ele><time>2026-04-25T15:08:21Z</time></trkpt><trkpt lat="45.6127633" lon="11.157395"><ele>1034.6000000000001</ele><time>2026-04-25T15:08:23Z</time></trkpt><trkpt lat="45.61269" lon="11.157305"><ele>1032.4</ele><time>2026-04-25T15:08:25Z</time></trkpt><trkpt lat="45.6126017" lon="11.15723"><ele>1030.2</ele><time>2026-04-25T15:08:27Z</time></trkpt><trkpt lat="45.6125167" lon="11.1571833"><ele>1028.0</ele><time>2026-04-25T15:08:29Z</time></trkpt><trkpt lat="45.6124333" lon="11.1571433"><ele>1027.5</ele><time>2026-04-25T15:08:31Z</time></trkpt><trkpt lat="45.612335" lon="11.1571233"><ele>1027.0</ele><time>2026-04-25T15:08:33Z</time></trkpt><trkpt lat="45.6122117" lon="11.1571117"><ele>1026.5</ele><time>2026-04-25T15:08:35Z</time></trkpt><trkpt lat="45.612145" lon="11.1571"><ele>1026.0</ele><time>2026-04-25T15:08:36Z</time></trkpt><trkpt lat="45.6120783" lon="11.157095"><ele>1025.5</ele><time>2026-04-25T15:08:37Z</time></trkpt><trkpt lat="45.6120067" lon="11.1570833"><ele>1025.0</ele><time>2026-04-25T15:08:38Z</time></trkpt><trkpt lat="45.61194" lon="11.1570667"><ele>1023.6666666666667</ele><time>2026-04-25T15:08:39Z</time></trkpt><trkpt lat="45.611875" lon="11.1570467"><ele>1022.3333333333334</ele><time>2026-04-25T15:08:40Z</time></trkpt><trkpt lat="45.6118133" lon="11.157025"><ele>1021.0</ele><time>2026-04-25T15:08:41Z</time></trkpt><trkpt lat="45.611715" lon="11.1569967"><ele>1019.6666666666667</ele><time>2026-04-25T15:08:43Z</time></trkpt><trkpt lat="45.6116117" lon="11.1569733"><ele>1018.3333333333334</ele><time>2026-04-25T15:08:45Z</time></trkpt><trkpt lat="45.6115083" lon="11.1569667"><ele>1017.0</ele><time>2026-04-25T15:08:47Z</time></trkpt><trkpt lat="45.6114117" lon="11.1569533"><ele>1017.0</ele><time>2026-04-25T15:08:49Z</time></trkpt><trkpt lat="45.6113133" lon="11.1569367"><ele>1017.0</ele><time>2026-04-25T15:08:51Z</time></trkpt><trkpt lat="45.6112217" lon="11.15691"><ele>1017.0</ele><time>2026-04-25T15:08:53Z</time></trkpt><trkpt lat="45.6111317" lon="11.1568817"><ele>1017.0</ele><time>2026-04-25T15:08:55Z</time></trkpt><trkpt lat="45.61105" lon="11.1568483"><ele>1017.0</ele><time>2026-04-25T15:08:57Z</time></trkpt><trkpt lat="45.61097" lon="11.1568183"><ele>1013.6</ele><time>2026-04-25T15:08:59Z</time></trkpt><trkpt lat="45.6108883" lon="11.1567833"><ele>1010.2</ele><time>2026-04-25T15:09:02Z</time></trkpt><trkpt lat="45.6108033" lon="11.1567533"><ele>1006.8</ele><time>2026-04-25T15:09:04Z</time></trkpt><trkpt lat="45.6107167" lon="11.1567117"><ele>1003.4</ele><time>2026-04-25T15:09:06Z</time></trkpt><trkpt lat="45.610625" lon="11.1566733"><ele>1000.0</ele><time>2026-04-25T15:09:08Z</time></trkpt><trkpt lat="45.6105267" lon="11.1566417"><ele>1000.0</ele><time>2026-04-25T15:09:10Z</time></trkpt><trkpt lat="45.6104317" lon="11.1565917"><ele>1000.0</ele><time>2026-04-25T15:09:12Z</time></trkpt><trkpt lat="45.610345" lon="11.1565467"><ele>1000.0</ele><time>2026-04-25T15:09:14Z</time></trkpt><trkpt lat="45.61026" lon="11.1565017"><ele>1000.0</ele><time>2026-04-25T15:09:16Z</time></trkpt><trkpt lat="45.6101667" lon="11.15646"><ele>1000.0</ele><time>2026-04-25T15:09:18Z</time></trkpt><trkpt lat="45.610085" lon="11.15643"><ele>994.6</ele><time>2026-04-25T15:09:20.001Z</time></trkpt><trkpt lat="45.6099917" lon="11.1564"><ele>989.2</ele><time>2026-04-25T15:09:22Z</time></trkpt><trkpt lat="45.609885" lon="11.1563783"><ele>983.8</ele><time>2026-04-25T15:09:24Z</time></trkpt><trkpt lat="45.6097883" lon="11.15634"><ele>978.4</ele><time>2026-04-25T15:09:26Z</time></trkpt><trkpt lat="45.6097033" lon="11.1563"><ele>973.0</ele><time>2026-04-25T15:09:28Z</time></trkpt><trkpt lat="45.6096033" lon="11.15626"><ele>972.9999999999999</ele><time>2026-04-25T15:09:30Z</time></trkpt><trkpt lat="45.6095167" lon="11.1562167"><ele>973.0</ele><time>2026-04-25T15:09:32Z</time></trkpt><trkpt lat="45.6094217" lon="11.1561767"><ele>973.0</ele><time>2026-04-25T15:09:34Z</time></trkpt><trkpt lat="45.6093383" lon="11.1561183"><ele>973.0</ele><time>2026-04-25T15:09:36Z</time></trkpt><trkpt lat="45.6092617" lon="11.1560633"><ele>972.9999999999999</ele><time>2026-04-25T15:09:38Z</time></trkpt><trkpt lat="45.6091883" lon="11.1560317"><ele>973.0</ele><time>2026-04-25T15:09:40Z</time></trkpt><trkpt lat="45.609115" lon="11.1560233"><ele>971.6666666666666</ele><time>2026-04-25T15:09:42Z</time></trkpt><trkpt lat="45.6090333" lon="11.1560233"><ele>970.3333333333333</ele><time>2026-04-25T15:09:44Z</time></trkpt><trkpt lat="45.6089733" lon="11.1561017"><ele>969.0</ele><time>2026-04-25T15:09:46Z</time></trkpt><trkpt lat="45.60897" lon="11.15621"><ele>967.6666666666667</ele><time>2026-04-25T15:09:48Z</time></trkpt><trkpt lat="45.6089667" lon="11.1563067"><ele>966.3333333333334</ele><time>2026-04-25T15:09:51Z</time></trkpt><trkpt lat="45.609015" lon="11.1564083"><ele>965.0</ele><time>2026-04-25T15:10:22Z</time></trkpt><trkpt lat="45.60906" lon="11.156475"><ele>964.8571428571429</ele><time>2026-04-25T15:10:24Z</time></trkpt><trkpt lat="45.6091033" lon="11.156555"><ele>964.7142857142858</ele><time>2026-04-25T15:10:34Z</time></trkpt><trkpt lat="45.60914" lon="11.1566283"><ele>964.5714285714287</ele><time>2026-04-25T15:10:36Z</time></trkpt><trkpt lat="45.6091833" lon="11.1567167"><ele>964.4285714285714</ele><time>2026-04-25T15:10:38Z</time></trkpt><trkpt lat="45.6092233" lon="11.1567917"><ele>964.2857142857144</ele><time>2026-04-25T15:10:40Z</time></trkpt><trkpt lat="45.60928" lon="11.1568933"><ele>964.1428571428572</ele><time>2026-04-25T15:10:43Z</time></trkpt><trkpt lat="45.609325" lon="11.1569617"><ele>964.0</ele><time>2026-04-25T15:10:45Z</time></trkpt><trkpt lat="45.6093667" lon="11.15704"><ele>964.0</ele><time>2026-04-25T15:10:47Z</time></trkpt><trkpt lat="45.6094" lon="11.1571217"><ele>964.0000000000001</ele><time>2026-04-25T15:10:49Z</time></trkpt><trkpt lat="45.60943" lon="11.157225"><ele>964.0</ele><time>2026-04-25T15:10:51Z</time></trkpt><trkpt lat="45.60945" lon="11.1573283"><ele>964.0</ele><time>2026-04-25T15:10:53Z</time></trkpt><trkpt lat="45.6094783" lon="11.1574233"><ele>964.0000000000001</ele><time>2026-04-25T15:10:55Z</time></trkpt><trkpt lat="45.609505" lon="11.1575167"><ele>964.0</ele><time>2026-04-25T15:10:57Z</time></trkpt><trkpt lat="45.609545" lon="11.157595"><ele>964.0</ele><time>2026-04-25T15:10:59Z</time></trkpt><trkpt lat="45.6095867" lon="11.157675"><ele>964.7142857142858</ele><time>2026-04-25T15:11:01Z</time></trkpt><trkpt lat="45.6096217" lon="11.15776"><ele>965.4285714285716</ele><time>2026-04-25T15:11:03Z</time></trkpt><trkpt lat="45.6096783" lon="11.1578633"><ele>966.1428571428571</ele><time>2026-04-25T15:11:06Z</time></trkpt><trkpt lat="45.6097133" lon="11.1579517"><ele>966.8571428571429</ele><time>2026-04-25T15:11:08Z</time></trkpt><trkpt lat="45.6097583" lon="11.1580333"><ele>967.5714285714286</ele><time>2026-04-25T15:11:10Z</time></trkpt><trkpt lat="45.6098033" lon="11.1581167"><ele>968.2857142857142</ele><time>2026-04-25T15:11:12Z</time></trkpt><trkpt lat="45.6098367" lon="11.1581933"><ele>968.9999999999999</ele><time>2026-04-25T15:11:14Z</time></trkpt><trkpt lat="45.6098517" lon="11.1582833"><ele>966.5</ele><time>2026-04-25T15:11:16Z</time></trkpt><trkpt lat="45.6098467" lon="11.158375"><ele>964.0</ele><time>2026-04-25T15:11:18Z</time></trkpt><trkpt lat="45.6097883" lon="11.1584683"><ele>961.5</ele><time>2026-04-25T15:11:21Z</time></trkpt><trkpt lat="45.6097333" lon="11.1585283"><ele>959.0</ele><time>2026-04-25T15:11:23Z</time></trkpt><trkpt lat="45.609675" lon="11.1585983"><ele>956.5</ele><time>2026-04-25T15:11:26Z</time></trkpt><trkpt lat="45.6095933" lon="11.1586233"><ele>954.0</ele><time>2026-04-25T15:11:29Z</time></trkpt><trkpt lat="45.6095117" lon="11.1585933"><ele>949.8333333333334</ele><time>2026-04-25T15:11:31Z</time></trkpt><trkpt lat="45.6094317" lon="11.1585383"><ele>945.6666666666667</ele><time>2026-04-25T15:11:33Z</time></trkpt><trkpt lat="45.6093533" lon="11.1585017"><ele>941.5</ele><time>2026-04-25T15:11:35Z</time></trkpt><trkpt lat="45.6092917" lon="11.1584617"><ele>937.3333333333334</ele><time>2026-04-25T15:11:37Z</time></trkpt><trkpt lat="45.609225" lon="11.1583867"><ele>933.1666666666667</ele><time>2026-04-25T15:11:40Z</time></trkpt><trkpt lat="45.60914" lon="11.158425"><ele>929.0</ele><time>2026-04-25T15:11:43Z</time></trkpt><trkpt lat="45.6090733" lon="11.158535"><ele>929.0</ele><time>2026-04-25T15:11:45Z</time></trkpt><trkpt lat="45.60904" lon="11.158625"><ele>929.0000000000001</ele><time>2026-04-25T15:11:46Z</time></trkpt><trkpt lat="45.609005" lon="11.1587967"><ele>929.0000000000001</ele><time>2026-04-25T15:11:48Z</time></trkpt><trkpt lat="45.608985" lon="11.1588867"><ele>929.0</ele><time>2026-04-25T15:11:49Z</time></trkpt><trkpt lat="45.608955" lon="11.1589683"><ele>929.0</ele><time>2026-04-25T15:11:50Z</time></trkpt><trkpt lat="45.60889" lon="11.1591183"><ele>929.5000000000001</ele><time>2026-04-25T15:11:52Z</time></trkpt><trkpt lat="45.60885" lon="11.1592"><ele>930.0</ele><time>2026-04-25T15:11:53Z</time></trkpt><trkpt lat="45.60881" lon="11.1592883"><ele>930.5</ele><time>2026-04-25T15:11:54Z</time></trkpt><trkpt lat="45.6087717" lon="11.1593817"><ele>931.0</ele><time>2026-04-25T15:11:55Z</time></trkpt><trkpt lat="45.6087333" lon="11.1594817"><ele>931.5000000000001</ele><time>2026-04-25T15:11:56Z</time></trkpt><trkpt lat="45.6086967" lon="11.1595817"><ele>932.0</ele><time>2026-04-25T15:11:57Z</time></trkpt><trkpt lat="45.6086617" lon="11.1596883"><ele>929.5714285714287</ele><time>2026-04-25T15:11:58Z</time></trkpt><trkpt lat="45.608635" lon="11.1597833"><ele>927.1428571428571</ele><time>2026-04-25T15:11:59Z</time></trkpt><trkpt lat="45.6086083" lon="11.1598683"><ele>924.7142857142858</ele><time>2026-04-25T15:12:00Z</time></trkpt><trkpt lat="45.6085817" lon="11.1599583"><ele>922.2857142857143</ele><time>2026-04-25T15:12:01Z</time></trkpt><trkpt lat="45.60855" lon="11.1600667"><ele>919.8571428571429</ele><time>2026-04-25T15:12:02Z</time></trkpt><trkpt lat="45.608515" lon="11.1601633"><ele>917.4285714285714</ele><time>2026-04-25T15:12:03Z</time></trkpt><trkpt lat="45.6084783" lon="11.1602683"><ele>915.0</ele><time>2026-04-25T15:12:04Z</time></trkpt><trkpt lat="45.6084467" lon="11.1603567"><ele>915.0</ele><time>2026-04-25T15:12:05Z</time></trkpt><trkpt lat="45.6084017" lon="11.16045"><ele>915.0</ele><time>2026-04-25T15:12:06Z</time></trkpt><trkpt lat="45.6083517" lon="11.1605417"><ele>915.0</ele><time>2026-04-25T15:12:07Z</time></trkpt><trkpt lat="45.60829" lon="11.16063"><ele>915.0</ele><time>2026-04-25T15:12:08Z</time></trkpt><trkpt lat="45.6082267" lon="11.1607217"><ele>915.0</ele><time>2026-04-25T15:12:09Z</time></trkpt><trkpt lat="45.6081683" lon="11.160805"><ele>915.0</ele><time>2026-04-25T15:12:10Z</time></trkpt><trkpt lat="45.6081033" lon="11.16088"><ele>916.0</ele><time>2026-04-25T15:12:11Z</time></trkpt><trkpt lat="45.6080467" lon="11.16097"><ele>917.0</ele><time>2026-04-25T15:12:12Z</time></trkpt><trkpt lat="45.608" lon="11.1610667"><ele>918.0</ele><time>2026-04-25T15:12:13Z</time></trkpt><trkpt lat="45.6079683" lon="11.1611667"><ele>919.0</ele><time>2026-04-25T15:12:14Z</time></trkpt><trkpt lat="45.6079533" lon="11.1612617"><ele>920.0</ele><time>2026-04-25T15:12:15Z</time></trkpt><trkpt lat="45.6079783" lon="11.16143"><ele>921.0</ele><time>2026-04-25T15:12:17Z</time></trkpt><trkpt lat="45.6080917" lon="11.1615033"><ele>921.0</ele><time>2026-04-25T15:12:19Z</time></trkpt><trkpt lat="45.60819" lon="11.1615067"><ele>920.9999999999999</ele><time>2026-04-25T15:12:20Z</time></trkpt><trkpt lat="45.6082867" lon="11.1615017"><ele>920.9999999999999</ele><time>2026-04-25T15:12:21Z</time></trkpt><trkpt lat="45.60837" lon="11.161485"><ele>921.0</ele><time>2026-04-25T15:12:22Z</time></trkpt><trkpt lat="45.6084783" lon="11.1614683"><ele>921.0</ele><time>2026-04-25T15:12:23Z</time></trkpt><trkpt lat="45.60859" lon="11.1614517"><ele>925.5</ele><time>2026-04-25T15:12:24Z</time></trkpt><trkpt lat="45.6087167" lon="11.1614333"><ele>930.0</ele><time>2026-04-25T15:12:25Z</time></trkpt><trkpt lat="45.6088283" lon="11.1614333"><ele>934.5</ele><time>2026-04-25T15:12:26Z</time></trkpt><trkpt lat="45.6089467" lon="11.1614567"><ele>939.0</ele><time>2026-04-25T15:12:27Z</time></trkpt><trkpt lat="45.6090867" lon="11.1614983"><ele>938.5</ele><time>2026-04-25T15:12:28Z</time></trkpt><trkpt lat="45.6092217" lon="11.1615583"><ele>938.0</ele><time>2026-04-25T15:12:29Z</time></trkpt><trkpt lat="45.60934" lon="11.1616067"><ele>937.5</ele><time>2026-04-25T15:12:30Z</time></trkpt><trkpt lat="45.6094567" lon="11.16167"><ele>937.0</ele><time>2026-04-25T15:12:31Z</time></trkpt><trkpt lat="45.6095733" lon="11.161785"><ele>937.0</ele><time>2026-04-25T15:12:32Z</time></trkpt><trkpt lat="45.6096817" lon="11.161925"><ele>937.0</ele><time>2026-04-25T15:12:33Z</time></trkpt><trkpt lat="45.6097783" lon="11.1620733"><ele>937.0</ele><time>2026-04-25T15:12:34Z</time></trkpt><trkpt lat="45.609875" lon="11.1622183"><ele>937.0</ele><time>2026-04-25T15:12:35Z</time></trkpt><trkpt lat="45.6099567" lon="11.162355"><ele>929.75</ele><time>2026-04-25T15:12:36Z</time></trkpt><trkpt lat="45.6100367" lon="11.1624867"><ele>922.5</ele><time>2026-04-25T15:12:37Z</time></trkpt><trkpt lat="45.6101167" lon="11.1626117"><ele>915.25</ele><time>2026-04-25T15:12:38Z</time></trkpt><trkpt lat="45.61019" lon="11.16273"><ele>908.0</ele><time>2026-04-25T15:12:39Z</time></trkpt><trkpt lat="45.6102567" lon="11.1628417"><ele>908.0000000000001</ele><time>2026-04-25T15:12:40Z</time></trkpt><trkpt lat="45.61031" lon="11.1629483"><ele>908.0</ele><time>2026-04-25T15:12:41Z</time></trkpt><trkpt lat="45.610345" lon="11.1630467"><ele>908.0</ele><time>2026-04-25T15:12:42Z</time></trkpt><trkpt lat="45.610365" lon="11.1631517"><ele>908.0</ele><time>2026-04-25T15:12:43Z</time></trkpt><trkpt lat="45.6103633" lon="11.1632633"><ele>908.0000000000001</ele><time>2026-04-25T15:12:44Z</time></trkpt><trkpt lat="45.610325" lon="11.1633933"><ele>908.0</ele><time>2026-04-25T15:12:45Z</time></trkpt><trkpt lat="45.61028" lon="11.16353"><ele>905.8</ele><time>2026-04-25T15:12:46Z</time></trkpt><trkpt lat="45.610235" lon="11.1636567"><ele>903.5999999999999</ele><time>2026-04-25T15:12:47Z</time></trkpt><trkpt lat="45.6101883" lon="11.1637783"><ele>901.4000000000001</ele><time>2026-04-25T15:12:48Z</time></trkpt><trkpt lat="45.6101433" lon="11.1638967"><ele>899.2</ele><time>2026-04-25T15:12:49Z</time></trkpt><trkpt lat="45.610105" lon="11.1640083"><ele>897.0</ele><time>2026-04-25T15:12:50Z</time></trkpt><trkpt lat="45.6100783" lon="11.1641217"><ele>897.0</ele><time>2026-04-25T15:12:51Z</time></trkpt><trkpt lat="45.6100667" lon="11.164245"><ele>897.0</ele><time>2026-04-25T15:12:52Z</time></trkpt><trkpt lat="45.6100717" lon="11.1643583"><ele>897.0</ele><time>2026-04-25T15:12:53Z</time></trkpt><trkpt lat="45.6101033" lon="11.16448"><ele>897.0</ele><time>2026-04-25T15:12:54Z</time></trkpt><trkpt lat="45.6101683" lon="11.1646017"><ele>897.0</ele><time>2026-04-25T15:12:55Z</time></trkpt><trkpt lat="45.6102433" lon="11.1647583"><ele>893.25</ele><time>2026-04-25T15:12:56Z</time></trkpt><trkpt lat="45.61032" lon="11.1649333"><ele>889.5</ele><time>2026-04-25T15:12:57Z</time></trkpt><trkpt lat="45.6103667" lon="11.1651067"><ele>885.75</ele><time>2026-04-25T15:12:58Z</time></trkpt><trkpt lat="45.61039" lon="11.1653333"><ele>882.0</ele><time>2026-04-25T15:12:59Z</time></trkpt><trkpt lat="45.6104067" lon="11.1655267"><ele>891.0</ele><time>2026-04-25T15:13:00Z</time></trkpt><trkpt lat="45.6104233" lon="11.1657133"><ele>900.0</ele><time>2026-04-25T15:13:01Z</time></trkpt><trkpt lat="45.6104417" lon="11.1658983"><ele>909.0</ele><time>2026-04-25T15:13:02Z</time></trkpt><trkpt lat="45.6104717" lon="11.1660733"><ele>918.0</ele><time>2026-04-25T15:13:03Z</time></trkpt><trkpt lat="45.6105267" lon="11.1662317"><ele>918.0</ele><time>2026-04-25T15:13:04Z</time></trkpt><trkpt lat="45.61061" lon="11.1663683"><ele>918.0</ele><time>2026-04-25T15:13:05Z</time></trkpt><trkpt lat="45.6107367" lon="11.1664483"><ele>918.0</ele><time>2026-04-25T15:13:06Z</time></trkpt><trkpt lat="45.6108467" lon="11.1665567"><ele>918.0</ele><time>2026-04-25T15:13:07Z</time></trkpt><trkpt lat="45.6109383" lon="11.166675"><ele>921.5</ele><time>2026-04-25T15:13:08Z</time></trkpt><trkpt lat="45.6110267" lon="11.166805"><ele>925.0</ele><time>2026-04-25T15:13:09Z</time></trkpt><trkpt lat="45.6111" lon="11.1669433"><ele>928.5</ele><time>2026-04-25T15:13:10Z</time></trkpt><trkpt lat="45.6111883" lon="11.1670617"><ele>932.0</ele><time>2026-04-25T15:13:11Z</time></trkpt><trkpt lat="45.6112933" lon="11.1671817"><ele>932.0</ele><time>2026-04-25T15:13:12Z</time></trkpt><trkpt lat="45.6114017" lon="11.16729"><ele>932.0</ele><time>2026-04-25T15:13:13Z</time></trkpt><trkpt lat="45.61151" lon="11.16739"><ele>932.0</ele><time>2026-04-25T15:13:14Z</time></trkpt><trkpt lat="45.6116233" lon="11.1674967"><ele>932.0</ele><time>2026-04-25T15:13:15Z</time></trkpt><trkpt lat="45.6117383" lon="11.1676017"><ele>927.0</ele><time>2026-04-25T15:13:16Z</time></trkpt><trkpt lat="45.611855" lon="11.16768"><ele>922.0</ele><time>2026-04-25T15:13:17Z</time></trkpt><trkpt lat="45.6119683" lon="11.1677617"><ele>917.0</ele><time>2026-04-25T15:13:18Z</time></trkpt><trkpt lat="45.6120833" lon="11.1678533"><ele>912.0</ele><time>2026-04-25T15:13:19Z</time></trkpt><trkpt lat="45.6121967" lon="11.1679583"><ele>912.0</ele><time>2026-04-25T15:13:20Z</time></trkpt><trkpt lat="45.6123" lon="11.1681133"><ele>912.0</ele><time>2026-04-25T15:13:21Z</time></trkpt><trkpt lat="45.6124" lon="11.1682117"><ele>912.0</ele><time>2026-04-25T15:13:22Z</time></trkpt><trkpt lat="45.6124967" lon="11.168305"><ele>912.0</ele><time>2026-04-25T15:13:23Z</time></trkpt><trkpt lat="45.6125867" lon="11.1683767"><ele>907.6666666666666</ele><time>2026-04-25T15:13:24Z</time></trkpt><trkpt lat="45.61267" lon="11.1684417"><ele>903.3333333333333</ele><time>2026-04-25T15:13:25Z</time></trkpt><trkpt lat="45.6127333" lon="11.16853"><ele>899.0</ele><time>2026-04-25T15:13:26Z</time></trkpt><trkpt lat="45.61277" lon="11.1686333"><ele>894.6666666666666</ele><time>2026-04-25T15:13:27Z</time></trkpt><trkpt lat="45.612795" lon="11.1687183"><ele>890.3333333333333</ele><time>2026-04-25T15:13:28Z</time></trkpt><trkpt lat="45.61272" lon="11.16875"><ele>886.0</ele><time>2026-04-25T15:13:30Z</time></trkpt><trkpt lat="45.6126267" lon="11.1688967"><ele>886.0</ele><time>2026-04-25T15:13:32Z</time></trkpt><trkpt lat="45.6125467" lon="11.16898"><ele>886.0</ele><time>2026-04-25T15:13:33Z</time></trkpt><trkpt lat="45.612375" lon="11.169065"><ele>886.0</ele><time>2026-04-25T15:13:34Z</time></trkpt><trkpt lat="45.6121583" lon="11.1691433"><ele>884.0</ele><time>2026-04-25T15:13:35Z</time></trkpt><trkpt lat="45.6118733" lon="11.169205"><ele>882.0</ele><time>2026-04-25T15:13:36Z</time></trkpt><trkpt lat="45.6116467" lon="11.16929"><ele>882.0</ele><time>2026-04-25T15:13:37Z</time></trkpt><trkpt lat="45.6114083" lon="11.16939"><ele>882.0</ele><time>2026-04-25T15:13:38Z</time></trkpt><trkpt lat="45.611175" lon="11.1694767"><ele>876.5</ele><time>2026-04-25T15:13:39Z</time></trkpt><trkpt lat="45.61094" lon="11.1695567"><ele>871.0</ele><time>2026-04-25T15:13:40Z</time></trkpt><trkpt lat="45.6106817" lon="11.1695883"><ele>871.0</ele><time>2026-04-25T15:13:41Z</time></trkpt><trkpt lat="45.61045" lon="11.1696217"><ele>871.0</ele><time>2026-04-25T15:13:42Z</time></trkpt><trkpt lat="45.61023" lon="11.1696467"><ele>869.3333333333333</ele><time>2026-04-25T15:13:43Z</time></trkpt><trkpt lat="45.610035" lon="11.1696683"><ele>867.6666666666667</ele><time>2026-04-25T15:13:44Z</time></trkpt><trkpt lat="45.6098533" lon="11.1696733"><ele>866.0</ele><time>2026-04-25T15:13:45Z</time></trkpt><trkpt lat="45.6096783" lon="11.1696983"><ele>866.0</ele><time>2026-04-25T15:13:46Z</time></trkpt><trkpt lat="45.609505" lon="11.169755"><ele>866.0</ele><time>2026-04-25T15:13:47Z</time></trkpt><trkpt lat="45.6093233" lon="11.1698317"><ele>866.0</ele><time>2026-04-25T15:13:48Z</time></trkpt><trkpt lat="45.6091383" lon="11.16993"><ele>874.6666666666667</ele><time>2026-04-25T15:13:49Z</time></trkpt><trkpt lat="45.6089683" lon="11.1700683"><ele>883.3333333333333</ele><time>2026-04-25T15:13:50Z</time></trkpt><trkpt lat="45.6088117" lon="11.1701767"><ele>892.0</ele><time>2026-04-25T15:13:51Z</time></trkpt><trkpt lat="45.6086633" lon="11.1702883"><ele>886.0</ele><time>2026-04-25T15:13:52Z</time></trkpt><trkpt lat="45.608515" lon="11.17038"><ele>880.0</ele><time>2026-04-25T15:13:53Z</time></trkpt><trkpt lat="45.6083883" lon="11.1705033"><ele>874.0</ele><time>2026-04-25T15:13:54Z</time></trkpt><trkpt lat="45.6082617" lon="11.1706367"><ele>879.75</ele><time>2026-04-25T15:13:55Z</time></trkpt><trkpt lat="45.6081483" lon="11.1707733"><ele>885.5</ele><time>2026-04-25T15:13:56Z</time></trkpt><trkpt lat="45.60806" lon="11.1709317"><ele>891.25</ele><time>2026-04-25T15:13:57Z</time></trkpt><trkpt lat="45.6079783" lon="11.17108"><ele>897.0</ele><time>2026-04-25T15:13:58Z</time></trkpt><trkpt lat="45.607915" lon="11.1712133"><ele>897.0</ele><time>2026-04-25T15:13:59Z</time></trkpt><trkpt lat="45.6078833" lon="11.1713767"><ele>897.0</ele><time>2026-04-25T15:14:00Z</time></trkpt><trkpt lat="45.6078767" lon="11.1715567"><ele>897.0</ele><time>2026-04-25T15:14:01Z</time></trkpt><trkpt lat="45.6078767" lon="11.1717583"><ele>897.0</ele><time>2026-04-25T15:14:02.001Z</time></trkpt><trkpt lat="45.6078983" lon="11.1719633"><ele>898.25</ele><time>2026-04-25T15:14:03Z</time></trkpt><trkpt lat="45.607955" lon="11.17214"><ele>899.5</ele><time>2026-04-25T15:14:04Z</time></trkpt><trkpt lat="45.60801" lon="11.1723083"><ele>900.75</ele><time>2026-04-25T15:14:05Z</time></trkpt><trkpt lat="45.60807" lon="11.1724817"><ele>902.0</ele><time>2026-04-25T15:14:06Z</time></trkpt><trkpt lat="45.6081083" lon="11.1726917"><ele>902.0</ele><time>2026-04-25T15:14:07Z</time></trkpt><trkpt lat="45.6081183" lon="11.172925"><ele>902.0</ele><time>2026-04-25T15:14:08Z</time></trkpt><trkpt lat="45.6081133" lon="11.1731717"><ele>902.0</ele><time>2026-04-25T15:14:09Z</time></trkpt><trkpt lat="45.6081083" lon="11.1734067"><ele>902.25</ele><time>2026-04-25T15:14:10Z</time></trkpt><trkpt lat="45.6080933" lon="11.173615"><ele>902.5</ele><time>2026-04-25T15:14:11Z</time></trkpt><trkpt lat="45.6080733" lon="11.1738183"><ele>902.75</ele><time>2026-04-25T15:14:12Z</time></trkpt><trkpt lat="45.6080683" lon="11.1739917"><ele>903.0</ele><time>2026-04-25T15:14:13Z</time></trkpt><trkpt lat="45.60808" lon="11.174175"><ele>900.5</ele><time>2026-04-25T15:14:14Z</time></trkpt><trkpt lat="45.6081117" lon="11.17437"><ele>898.0</ele><time>2026-04-25T15:14:15Z</time></trkpt><trkpt lat="45.6081633" lon="11.1745433"><ele>895.5</ele><time>2026-04-25T15:14:16Z</time></trkpt><trkpt lat="45.6082317" lon="11.1746867"><ele>893.0</ele><time>2026-04-25T15:14:17Z</time></trkpt><trkpt lat="45.6083133" lon="11.17479"><ele>893.0</ele><time>2026-04-25T15:14:18Z</time></trkpt><trkpt lat="45.6084167" lon="11.174845"><ele>893.0</ele><time>2026-04-25T15:14:19Z</time></trkpt><trkpt lat="45.6085217" lon="11.174875"><ele>893.0</ele><time>2026-04-25T15:14:20Z</time></trkpt><trkpt lat="45.6086383" lon="11.174895"><ele>893.0</ele><time>2026-04-25T15:14:21Z</time></trkpt><trkpt lat="45.6087767" lon="11.1749067"><ele>891.0</ele><time>2026-04-25T15:14:22Z</time></trkpt><trkpt lat="45.6089133" lon="11.1749383"><ele>889.0</ele><time>2026-04-25T15:14:23Z</time></trkpt><trkpt lat="45.6090367" lon="11.17497"><ele>887.0</ele><time>2026-04-25T15:14:24Z</time></trkpt><trkpt lat="45.6091633" lon="11.175"><ele>885.0</ele><time>2026-04-25T15:14:25Z</time></trkpt><trkpt lat="45.6092683" lon="11.1750283"><ele>885.0</ele><time>2026-04-25T15:14:26Z</time></trkpt><trkpt lat="45.6093683" lon="11.17507"><ele>885.0</ele><time>2026-04-25T15:14:27Z</time></trkpt><trkpt lat="45.6094417" lon="11.1751483"><ele>885.0</ele><time>2026-04-25T15:14:28Z</time></trkpt><trkpt lat="45.6094883" lon="11.17523"><ele>885.0</ele><time>2026-04-25T15:14:29Z</time></trkpt><trkpt lat="45.6095017" lon="11.1753367"><ele>885.0</ele><time>2026-04-25T15:14:30Z</time></trkpt><trkpt lat="45.609475" lon="11.17547"><ele>885.0</ele><time>2026-04-25T15:14:31Z</time></trkpt><trkpt lat="45.6094017" lon="11.1756167"><ele>883.75</ele><time>2026-04-25T15:14:32Z</time></trkpt><trkpt lat="45.6092983" lon="11.17578"><ele>882.5</ele><time>2026-04-25T15:14:33Z</time></trkpt><trkpt lat="45.6091983" lon="11.17591"><ele>881.25</ele><time>2026-04-25T15:14:34Z</time></trkpt><trkpt lat="45.60911" lon="11.176015"><ele>880.0</ele><time>2026-04-25T15:14:35Z</time></trkpt><trkpt lat="45.6090517" lon="11.1761183"><ele>879.9999999999999</ele><time>2026-04-25T15:14:36Z</time></trkpt><trkpt lat="45.6090117" lon="11.1761933"><ele>880.0</ele><time>2026-04-25T15:14:37Z</time></trkpt><trkpt lat="45.6089467" lon="11.1762967"><ele>880.0</ele><time>2026-04-25T15:14:39Z</time></trkpt><trkpt lat="45.6088917" lon="11.1761883"><ele>880.0</ele><time>2026-04-25T15:14:42Z</time></trkpt><trkpt lat="45.608905" lon="11.1760667"><ele>879.9999999999999</ele><time>2026-04-25T15:14:44Z</time></trkpt><trkpt lat="45.608925" lon="11.175965"><ele>880.0</ele><time>2026-04-25T15:14:46Z</time></trkpt><trkpt lat="45.6089017" lon="11.1760583"><ele>879.9999999999999</ele><time>2026-04-25T15:14:52Z</time></trkpt><trkpt lat="45.608905" lon="11.1761483"><ele>880.0</ele><time>2026-04-25T15:14:53Z</time></trkpt><trkpt lat="45.6089067" lon="11.1762383"><ele>880.0</ele><time>2026-04-25T15:14:54Z</time></trkpt><trkpt lat="45.6089167" lon="11.1763367"><ele>880.0</ele><time>2026-04-25T15:14:55Z</time></trkpt><trkpt lat="45.6089317" lon="11.1764383"><ele>880.0</ele><time>2026-04-25T15:14:56Z</time></trkpt><trkpt lat="45.6089417" lon="11.1765517"><ele>879.9999999999999</ele><time>2026-04-25T15:14:57Z</time></trkpt><trkpt lat="45.6089533" lon="11.1766867"><ele>880.0</ele><time>2026-04-25T15:14:58Z</time></trkpt><trkpt lat="45.608965" lon="11.1768333"><ele>879.6</ele><time>2026-04-25T15:14:59Z</time></trkpt><trkpt lat="45.60899" lon="11.17697"><ele>879.2</ele><time>2026-04-25T15:15:00Z</time></trkpt><trkpt lat="45.60903" lon="11.1770967"><ele>878.8</ele><time>2026-04-25T15:15:01Z</time></trkpt><trkpt lat="45.6091067" lon="11.1771917"><ele>878.4</ele><time>2026-04-25T15:15:02Z</time></trkpt><trkpt lat="45.609215" lon="11.1772917"><ele>878.0</ele><time>2026-04-25T15:15:03.001Z</time></trkpt><trkpt lat="45.6093517" lon="11.1773817"><ele>878.0</ele><time>2026-04-25T15:15:04Z</time></trkpt><trkpt lat="45.609485" lon="11.1774367"><ele>878.0</ele><time>2026-04-25T15:15:05Z</time></trkpt><trkpt lat="45.609595" lon="11.1775083"><ele>878.0</ele><time>2026-04-25T15:15:06Z</time></trkpt><trkpt lat="45.6096783" lon="11.17759"><ele>878.0</ele><time>2026-04-25T15:15:07Z</time></trkpt><trkpt lat="45.6097483" lon="11.1776983"><ele>882.8</ele><time>2026-04-25T15:15:08Z</time></trkpt><trkpt lat="45.609775" lon="11.1778467"><ele>887.5999999999999</ele><time>2026-04-25T15:15:09Z</time></trkpt><trkpt lat="45.6097717" lon="11.17797"><ele>892.4000000000001</ele><time>2026-04-25T15:15:10Z</time></trkpt><trkpt lat="45.6097433" lon="11.1780967"><ele>897.2</ele><time>2026-04-25T15:15:11Z</time></trkpt><trkpt lat="45.609675" lon="11.1782267"><ele>902.0</ele><time>2026-04-25T15:15:12Z</time></trkpt><trkpt lat="45.609575" lon="11.1783217"><ele>898.2</ele><time>2026-04-25T15:15:13Z</time></trkpt><trkpt lat="45.609445" lon="11.1783817"><ele>894.4000000000001</ele><time>2026-04-25T15:15:14Z</time></trkpt><trkpt lat="45.6093317" lon="11.178425"><ele>890.5999999999999</ele><time>2026-04-25T15:15:15Z</time></trkpt><trkpt lat="45.6092667" lon="11.1784967"><ele>886.8</ele><time>2026-04-25T15:15:16Z</time></trkpt><trkpt lat="45.6092217" lon="11.1785783"><ele>883.0</ele><time>2026-04-25T15:15:17Z</time></trkpt><trkpt lat="45.6092117" lon="11.17867"><ele>883.0</ele><time>2026-04-25T15:15:18Z</time></trkpt><trkpt lat="45.6092383" lon="11.1787867"><ele>883.0</ele><time>2026-04-25T15:15:19.001Z</time></trkpt><trkpt lat="45.609325" lon="11.1789383"><ele>883.0</ele><time>2026-04-25T15:15:20Z</time></trkpt><trkpt lat="45.6094067" lon="11.1790867"><ele>883.0</ele><time>2026-04-25T15:15:21Z</time></trkpt><trkpt lat="45.6094367" lon="11.1792183"><ele>886.0</ele><time>2026-04-25T15:15:22Z</time></trkpt><trkpt lat="45.6094233" lon="11.17936"><ele>889.0</ele><time>2026-04-25T15:15:23Z</time></trkpt><trkpt lat="45.60935" lon="11.1795467"><ele>892.0</ele><time>2026-04-25T15:15:24Z</time></trkpt><trkpt lat="45.6092483" lon="11.1796983"><ele>895.0</ele><time>2026-04-25T15:15:25Z</time></trkpt><trkpt lat="45.609125" lon="11.1798417"><ele>896.8</ele><time>2026-04-25T15:15:26Z</time></trkpt><trkpt lat="45.609005" lon="11.1799533"><ele>898.6</ele><time>2026-04-25T15:15:27Z</time></trkpt><trkpt lat="45.6089067" lon="11.1800283"><ele>900.4000000000001</ele><time>2026-04-25T15:15:28Z</time></trkpt><trkpt lat="45.6088083" lon="11.1800567"><ele>902.2</ele><time>2026-04-25T15:15:29Z</time></trkpt><trkpt lat="45.60872" lon="11.180055"><ele>904.0</ele><time>2026-04-25T15:15:30.001Z</time></trkpt><trkpt lat="45.6086433" lon="11.180015"><ele>904.4285714285714</ele><time>2026-04-25T15:15:31Z</time></trkpt><trkpt lat="45.6085817" lon="11.1799567"><ele>904.8571428571429</ele><time>2026-04-25T15:15:32Z</time></trkpt><trkpt lat="45.6085217" lon="11.1798967"><ele>905.2857142857143</ele><time>2026-04-25T15:15:33Z</time></trkpt><trkpt lat="45.6084633" lon="11.17986"><ele>905.7142857142858</ele><time>2026-04-25T15:15:34Z</time></trkpt><trkpt lat="45.6083983" lon="11.17984"><ele>906.1428571428571</ele><time>2026-04-25T15:15:35Z</time></trkpt><trkpt lat="45.6083317" lon="11.17986"><ele>906.5714285714287</ele><time>2026-04-25T15:15:36Z</time></trkpt><trkpt lat="45.6082617" lon="11.1798917"><ele>907.0000000000001</ele><time>2026-04-25T15:15:37Z</time></trkpt><trkpt lat="45.608185" lon="11.1799383"><ele>906.9999999999999</ele><time>2026-04-25T15:15:38Z</time></trkpt><trkpt lat="45.608115" lon="11.17999"><ele>907.0</ele><time>2026-04-25T15:15:39Z</time></trkpt><trkpt lat="45.6080483" lon="11.1800383"><ele>907.0</ele><time>2026-04-25T15:15:40Z</time></trkpt><trkpt lat="45.6079933" lon="11.1801133"><ele>907.0</ele><time>2026-04-25T15:15:41Z</time></trkpt><trkpt lat="45.6079333" lon="11.180235"><ele>906.9999999999999</ele><time>2026-04-25T15:15:43Z</time></trkpt><trkpt lat="45.6078917" lon="11.1803033"><ele>907.0</ele><time>2026-04-25T15:15:46Z</time></trkpt><trkpt lat="45.6078567" lon="11.1803967"><ele>906.6666666666666</ele><time>2026-04-25T15:16:06Z</time></trkpt><trkpt lat="45.607825" lon="11.180565"><ele>906.3333333333333</ele><time>2026-04-25T15:16:08Z</time></trkpt><trkpt lat="45.6078" lon="11.180655"><ele>906.0</ele><time>2026-04-25T15:16:09Z</time></trkpt><trkpt lat="45.60777" lon="11.180745"><ele>905.6666666666667</ele><time>2026-04-25T15:16:10Z</time></trkpt><trkpt lat="45.60775" lon="11.1808383"><ele>905.3333333333334</ele><time>2026-04-25T15:16:11Z</time></trkpt><trkpt lat="45.607745" lon="11.180945"><ele>905.0</ele><time>2026-04-25T15:16:12Z</time></trkpt><trkpt lat="45.6077267" lon="11.1810817"><ele>905.0</ele><time>2026-04-25T15:16:13Z</time></trkpt><trkpt lat="45.6076933" lon="11.181225"><ele>905.0</ele><time>2026-04-25T15:16:14Z</time></trkpt><trkpt lat="45.6076483" lon="11.1813483"><ele>905.0</ele><time>2026-04-25T15:16:15Z</time></trkpt><trkpt lat="45.6075917" lon="11.1814833"><ele>905.0</ele><time>2026-04-25T15:16:16Z</time></trkpt><trkpt lat="45.6075267" lon="11.1816217"><ele>905.0</ele><time>2026-04-25T15:16:17Z</time></trkpt><trkpt lat="45.6074383" lon="11.1817683"><ele>905.0</ele><time>2026-04-25T15:16:18Z</time></trkpt><trkpt lat="45.60733" lon="11.181895"><ele>905.0</ele><time>2026-04-25T15:16:19Z</time></trkpt><trkpt lat="45.60725" lon="11.18202"><ele>905.0</ele><time>2026-04-25T15:16:20Z</time></trkpt><trkpt lat="45.6071917" lon="11.1821283"><ele>905.0</ele><time>2026-04-25T15:16:21Z</time></trkpt><trkpt lat="45.607185" lon="11.1822783"><ele>904.5</ele><time>2026-04-25T15:16:22Z</time></trkpt><trkpt lat="45.6072067" lon="11.182425"><ele>904.0</ele><time>2026-04-25T15:16:23Z</time></trkpt><trkpt lat="45.6072717" lon="11.1825667"><ele>903.5</ele><time>2026-04-25T15:16:24Z</time></trkpt><trkpt lat="45.6073667" lon="11.1826733"><ele>903.0</ele><time>2026-04-25T15:16:25Z</time></trkpt><trkpt lat="45.6074583" lon="11.1827583"><ele>903.0</ele><time>2026-04-25T15:16:26Z</time></trkpt><trkpt lat="45.607545" lon="11.1828417"><ele>903.0</ele><time>2026-04-25T15:16:27Z</time></trkpt><trkpt lat="45.60761" lon="11.18293"><ele>903.0</ele><time>2026-04-25T15:16:28Z</time></trkpt><trkpt lat="45.6076517" lon="11.1830233"><ele>903.0</ele><time>2026-04-25T15:16:29Z</time></trkpt><trkpt lat="45.607665" lon="11.1831383"><ele>903.0</ele><time>2026-04-25T15:16:30Z</time></trkpt><trkpt lat="45.6076533" lon="11.18326"><ele>903.0</ele><time>2026-04-25T15:16:31Z</time></trkpt><trkpt lat="45.6076183" lon="11.1833833"><ele>900.4</ele><time>2026-04-25T15:16:32Z</time></trkpt><trkpt lat="45.6075933" lon="11.1835167"><ele>897.8</ele><time>2026-04-25T15:16:33Z</time></trkpt><trkpt lat="45.6075867" lon="11.1836517"><ele>895.2</ele><time>2026-04-25T15:16:34Z</time></trkpt><trkpt lat="45.6076017" lon="11.1837733"><ele>892.6</ele><time>2026-04-25T15:16:35Z</time></trkpt><trkpt lat="45.6076417" lon="11.1838983"><ele>890.0</ele><time>2026-04-25T15:16:36Z</time></trkpt><trkpt lat="45.607695" lon="11.184005"><ele>891.0000000000001</ele><time>2026-04-25T15:16:37Z</time></trkpt><trkpt lat="45.607745" lon="11.1841033"><ele>892.0</ele><time>2026-04-25T15:16:38Z</time></trkpt><trkpt lat="45.6078083" lon="11.1841917"><ele>893.0</ele><time>2026-04-25T15:16:39Z</time></trkpt><trkpt lat="45.6078883" lon="11.184265"><ele>894.0</ele><time>2026-04-25T15:16:40Z</time></trkpt><trkpt lat="45.6079683" lon="11.1843117"><ele>895.0000000000001</ele><time>2026-04-25T15:16:41Z</time></trkpt><trkpt lat="45.608045" lon="11.1843283"><ele>896.0</ele><time>2026-04-25T15:16:42Z</time></trkpt><trkpt lat="45.608125" lon="11.1843167"><ele>896.0000000000001</ele><time>2026-04-25T15:16:43Z</time></trkpt><trkpt lat="45.6082083" lon="11.184275"><ele>896.0</ele><time>2026-04-25T15:16:44Z</time></trkpt><trkpt lat="45.6082833" lon="11.18427"><ele>896.0</ele><time>2026-04-25T15:16:45Z</time></trkpt><trkpt lat="45.60836" lon="11.1842817"><ele>896.0</ele><time>2026-04-25T15:16:46Z</time></trkpt><trkpt lat="45.60842" lon="11.1843483"><ele>896.0000000000001</ele><time>2026-04-25T15:16:47Z</time></trkpt><trkpt lat="45.6084617" lon="11.18444"><ele>896.0</ele><time>2026-04-25T15:16:48Z</time></trkpt><trkpt lat="45.6084733" lon="11.1845683"><ele>896.0</ele><time>2026-04-25T15:16:49Z</time></trkpt><trkpt lat="45.60847" lon="11.184705"><ele>895.9999999999999</ele><time>2026-04-25T15:16:50Z</time></trkpt><trkpt lat="45.6084633" lon="11.184835"><ele>895.9999999999999</ele><time>2026-04-25T15:16:51Z</time></trkpt><trkpt lat="45.6084533" lon="11.1849717"><ele>896.0</ele><time>2026-04-25T15:16:52Z</time></trkpt><trkpt lat="45.6084483" lon="11.1851083"><ele>896.0</ele><time>2026-04-25T15:16:53Z</time></trkpt><trkpt lat="45.6084333" lon="11.1852333"><ele>894.3333333333334</ele><time>2026-04-25T15:16:54Z</time></trkpt><trkpt lat="45.6084033" lon="11.18534"><ele>892.6666666666667</ele><time>2026-04-25T15:16:55Z</time></trkpt><trkpt lat="45.6083533" lon="11.185425"><ele>891.0</ele><time>2026-04-25T15:16:56Z</time></trkpt><trkpt lat="45.608285" lon="11.1854817"><ele>889.3333333333333</ele><time>2026-04-25T15:16:57.001Z</time></trkpt><trkpt lat="45.6082167" lon="11.185505"><ele>887.6666666666666</ele><time>2026-04-25T15:16:58.001Z</time></trkpt><trkpt lat="45.6081383" lon="11.1855183"><ele>886.0</ele><time>2026-04-25T15:16:59Z</time></trkpt><trkpt lat="45.6080633" lon="11.185535"><ele>885.9999999999999</ele><time>2026-04-25T15:17:00Z</time></trkpt><trkpt lat="45.6079833" lon="11.185545"><ele>886.0</ele><time>2026-04-25T15:17:01Z</time></trkpt><trkpt lat="45.6079083" lon="11.185555"><ele>886.0</ele><time>2026-04-25T15:17:02Z</time></trkpt><trkpt lat="45.6078333" lon="11.1855717"><ele>886.0</ele><time>2026-04-25T15:17:03Z</time></trkpt><trkpt lat="45.6077617" lon="11.1855883"><ele>885.9999999999999</ele><time>2026-04-25T15:17:04Z</time></trkpt><trkpt lat="45.607685" lon="11.185595"><ele>886.0</ele><time>2026-04-25T15:17:05Z</time></trkpt><trkpt lat="45.6076133" lon="11.1856067"><ele>884.1666666666666</ele><time>2026-04-25T15:17:06Z</time></trkpt><trkpt lat="45.6075367" lon="11.185605"><ele>882.3333333333333</ele><time>2026-04-25T15:17:07Z</time></trkpt><trkpt lat="45.6074617" lon="11.185625"><ele>880.5</ele><time>2026-04-25T15:17:08Z</time></trkpt><trkpt lat="45.607395" lon="11.1856767"><ele>878.6666666666667</ele><time>2026-04-25T15:17:09Z</time></trkpt><trkpt lat="45.607325" lon="11.18573"><ele>876.8333333333334</ele><time>2026-04-25T15:17:10Z</time></trkpt><trkpt lat="45.6072833" lon="11.1858333"><ele>875.0</ele><time>2026-04-25T15:17:11Z</time></trkpt><trkpt lat="45.6072583" lon="11.185945"><ele>875.0</ele><time>2026-04-25T15:17:12Z</time></trkpt><trkpt lat="45.6072617" lon="11.18609"><ele>875.0</ele><time>2026-04-25T15:17:13Z</time></trkpt><trkpt lat="45.6072817" lon="11.1862583"><ele>875.0</ele><time>2026-04-25T15:17:14Z</time></trkpt><trkpt lat="45.6073283" lon="11.1864367"><ele>875.0</ele><time>2026-04-25T15:17:15Z</time></trkpt><trkpt lat="45.6073917" lon="11.1866167"><ele>874.5</ele><time>2026-04-25T15:17:16Z</time></trkpt><trkpt lat="45.6074867" lon="11.1867533"><ele>874.0</ele><time>2026-04-25T15:17:17Z</time></trkpt><trkpt lat="45.6075983" lon="11.1868683"><ele>873.5</ele><time>2026-04-25T15:17:18Z</time></trkpt><trkpt lat="45.6076883" lon="11.1869833"><ele>873.0</ele><time>2026-04-25T15:17:19Z</time></trkpt><trkpt lat="45.6077717" lon="11.187115"><ele>873.0</ele><time>2026-04-25T15:17:20Z</time></trkpt><trkpt lat="45.60782" lon="11.1872933"><ele>873.0</ele><time>2026-04-25T15:17:21Z</time></trkpt><trkpt lat="45.6078383" lon="11.1874967"><ele>873.0</ele><time>2026-04-25T15:17:22Z</time></trkpt><trkpt lat="45.60785" lon="11.1876833"><ele>873.0</ele><time>2026-04-25T15:17:23Z</time></trkpt><trkpt lat="45.60786" lon="11.18787"><ele>873.5999999999999</ele><time>2026-04-25T15:17:24Z</time></trkpt><trkpt lat="45.607855" lon="11.1880317"><ele>874.1999999999999</ele><time>2026-04-25T15:17:25Z</time></trkpt><trkpt lat="45.6078317" lon="11.1881833"><ele>874.8</ele><time>2026-04-25T15:17:26Z</time></trkpt><trkpt lat="45.6077883" lon="11.1883133"><ele>875.4</ele><time>2026-04-25T15:17:27Z</time></trkpt><trkpt lat="45.6077183" lon="11.1884167"><ele>876.0</ele><time>2026-04-25T15:17:28Z</time></trkpt><trkpt lat="45.6076317" lon="11.18847"><ele>872.5</ele><time>2026-04-25T15:17:29Z</time></trkpt><trkpt lat="45.6075167" lon="11.188505"><ele>869.0</ele><time>2026-04-25T15:17:30Z</time></trkpt><trkpt lat="45.6074" lon="11.188505"><ele>865.5</ele><time>2026-04-25T15:17:31Z</time></trkpt><trkpt lat="45.6072817" lon="11.1884967"><ele>862.0</ele><time>2026-04-25T15:17:32Z</time></trkpt><trkpt lat="45.6071767" lon="11.1885267"><ele>862.0</ele><time>2026-04-25T15:17:33Z</time></trkpt><trkpt lat="45.6070833" lon="11.18859"><ele>862.0</ele><time>2026-04-25T15:17:34Z</time></trkpt><trkpt lat="45.6070183" lon="11.1887017"><ele>862.0</ele><time>2026-04-25T15:17:35Z</time></trkpt><trkpt lat="45.6069717" lon="11.1888433"><ele>862.0</ele><time>2026-04-25T15:17:36Z</time></trkpt><trkpt lat="45.6069433" lon="11.188995"><ele>862.0</ele><time>2026-04-25T15:17:37Z</time></trkpt><trkpt lat="45.6069033" lon="11.1891333"><ele>860.5</ele><time>2026-04-25T15:17:38Z</time></trkpt><trkpt lat="45.6068483" lon="11.1892617"><ele>859.0</ele><time>2026-04-25T15:17:39Z</time></trkpt><trkpt lat="45.6067633" lon="11.1893667"><ele>857.5</ele><time>2026-04-25T15:17:40Z</time></trkpt><trkpt lat="45.60666" lon="11.1894633"><ele>856.0</ele><time>2026-04-25T15:17:41Z</time></trkpt><trkpt lat="45.606555" lon="11.1895533"><ele>856.0</ele><time>2026-04-25T15:17:42Z</time></trkpt><trkpt lat="45.6064417" lon="11.1896517"><ele>856.0</ele><time>2026-04-25T15:17:43Z</time></trkpt><trkpt lat="45.60633" lon="11.18974"><ele>856.0</ele><time>2026-04-25T15:17:44Z</time></trkpt><trkpt lat="45.60621" lon="11.1898367"><ele>856.0</ele><time>2026-04-25T15:17:45Z</time></trkpt><trkpt lat="45.60609" lon="11.1899333"><ele>854.25</ele><time>2026-04-25T15:17:46Z</time></trkpt><trkpt lat="45.6059717" lon="11.19004"><ele>852.5</ele><time>2026-04-25T15:17:47Z</time></trkpt><trkpt lat="45.6058567" lon="11.1901467"><ele>850.75</ele><time>2026-04-25T15:17:48Z</time></trkpt><trkpt lat="45.6057533" lon="11.1902683"><ele>849.0</ele><time>2026-04-25T15:17:49Z</time></trkpt><trkpt lat="45.6056483" lon="11.1903917"><ele>849.0</ele><time>2026-04-25T15:17:50Z</time></trkpt><trkpt lat="45.60554" lon="11.1905283"><ele>849.0</ele><time>2026-04-25T15:17:51Z</time></trkpt><trkpt lat="45.6054333" lon="11.1906517"><ele>849.0</ele><time>2026-04-25T15:17:52Z</time></trkpt><trkpt lat="45.6053217" lon="11.1907767"><ele>849.0</ele><time>2026-04-25T15:17:53Z</time></trkpt><trkpt lat="45.6052083" lon="11.1909067"><ele>850.75</ele><time>2026-04-25T15:17:54Z</time></trkpt><trkpt lat="45.6051033" lon="11.1910483"><ele>852.5</ele><time>2026-04-25T15:17:55Z</time></trkpt><trkpt lat="45.6049967" lon="11.191205"><ele>854.25</ele><time>2026-04-25T15:17:56Z</time></trkpt><trkpt lat="45.604895" lon="11.1913617"><ele>856.0</ele><time>2026-04-25T15:17:57Z</time></trkpt><trkpt lat="45.60481" lon="11.1915283"><ele>857.25</ele><time>2026-04-25T15:17:58Z</time></trkpt><trkpt lat="45.6047333" lon="11.191695"><ele>858.5</ele><time>2026-04-25T15:17:59Z</time></trkpt><trkpt lat="45.60466" lon="11.1918467"><ele>859.75</ele><time>2026-04-25T15:18:00Z</time></trkpt><trkpt lat="45.6045867" lon="11.191995"><ele>861.0</ele><time>2026-04-25T15:18:01Z</time></trkpt><trkpt lat="45.6044967" lon="11.1921283"><ele>864.0</ele><time>2026-04-25T15:18:02Z</time></trkpt><trkpt lat="45.6043983" lon="11.192235"><ele>867.0</ele><time>2026-04-25T15:18:03Z</time></trkpt><trkpt lat="45.6043" lon="11.192335"><ele>870.0</ele><time>2026-04-25T15:18:04Z</time></trkpt><trkpt lat="45.604195" lon="11.1924517"><ele>873.0</ele><time>2026-04-25T15:18:05Z</time></trkpt><trkpt lat="45.6041083" lon="11.1925733"><ele>873.0</ele><time>2026-04-25T15:18:06Z</time></trkpt><trkpt lat="45.6040417" lon="11.19272"><ele>873.0</ele><time>2026-04-25T15:18:07Z</time></trkpt><trkpt lat="45.6039683" lon="11.192855"><ele>873.0</ele><time>2026-04-25T15:18:08Z</time></trkpt><trkpt lat="45.6038783" lon="11.1929817"><ele>873.0</ele><time>2026-04-25T15:18:09Z</time></trkpt><trkpt lat="45.6037683" lon="11.1930933"><ele>875.25</ele><time>2026-04-25T15:18:10Z</time></trkpt><trkpt lat="45.6036433" lon="11.1932"><ele>877.5</ele><time>2026-04-25T15:18:11Z</time></trkpt><trkpt lat="45.6035083" lon="11.1933"><ele>879.75</ele><time>2026-04-25T15:18:12Z</time></trkpt><trkpt lat="45.6033833" lon="11.19339"><ele>882.0</ele><time>2026-04-25T15:18:13Z</time></trkpt><trkpt lat="45.6032633" lon="11.193475"><ele>882.0</ele><time>2026-04-25T15:18:14Z</time></trkpt><trkpt lat="45.6031517" lon="11.1935717"><ele>882.0</ele><time>2026-04-25T15:18:15Z</time></trkpt><trkpt lat="45.6030483" lon="11.19366"><ele>882.0</ele><time>2026-04-25T15:18:16Z</time></trkpt><trkpt lat="45.602935" lon="11.1937567"><ele>882.0</ele><time>2026-04-25T15:18:17Z</time></trkpt><trkpt lat="45.602825" lon="11.193875"><ele>882.0</ele><time>2026-04-25T15:18:18Z</time></trkpt><trkpt lat="45.602725" lon="11.1939983"><ele>882.0</ele><time>2026-04-25T15:18:19Z</time></trkpt><trkpt lat="45.6026217" lon="11.19415"><ele>882.0</ele><time>2026-04-25T15:18:20Z</time></trkpt><trkpt lat="45.6025317" lon="11.1943117"><ele>882.0</ele><time>2026-04-25T15:18:21Z</time></trkpt><trkpt lat="45.6024433" lon="11.1944733"><ele>882.0</ele><time>2026-04-25T15:18:22Z</time></trkpt><trkpt lat="45.60236" lon="11.194635"><ele>882.0</ele><time>2026-04-25T15:18:23Z</time></trkpt><trkpt lat="45.60228" lon="11.1947983"><ele>882.0</ele><time>2026-04-25T15:18:24Z</time></trkpt><trkpt lat="45.602195" lon="11.194965"><ele>882.0</ele><time>2026-04-25T15:18:25Z</time></trkpt><trkpt lat="45.6021183" lon="11.1951333"><ele>880.25</ele><time>2026-04-25T15:18:26Z</time></trkpt><trkpt lat="45.602045" lon="11.195295"><ele>878.5</ele><time>2026-04-25T15:18:27Z</time></trkpt><trkpt lat="45.6019683" lon="11.19546"><ele>876.75</ele><time>2026-04-25T15:18:28Z</time></trkpt><trkpt lat="45.601905" lon="11.195585"><ele>875.0</ele><time>2026-04-25T15:18:29Z</time></trkpt><trkpt lat="45.6018533" lon="11.1956783"><ele>875.0</ele><time>2026-04-25T15:18:30Z</time></trkpt><trkpt lat="45.6018083" lon="11.1957533"><ele>875.0</ele><time>2026-04-25T15:18:31Z</time></trkpt><trkpt lat="45.6017433" lon="11.195815"><ele>875.0</ele><time>2026-04-25T15:18:33Z</time></trkpt></trkseg><trkseg><trkpt lat="45.5822667" lon="11.1821467"><ele>823.0</ele><time>2026-04-25T15:36:47.002Z</time></trkpt><trkpt lat="45.5821617" lon="11.18206"><ele>823.0</ele><time>2026-04-25T15:36:49.002Z</time></trkpt><trkpt lat="45.5820717" lon="11.1819667"><ele>823.0</ele><time>2026-04-25T15:36:51.002Z</time></trkpt><trkpt lat="45.5819767" lon="11.1818933"><ele>823.0</ele><time>2026-04-25T15:36:53.002Z</time></trkpt><trkpt lat="45.5819067" lon="11.18184"><ele>823.0</ele><time>2026-04-25T15:36:54.002Z</time></trkpt><trkpt lat="45.5818267" lon="11.1817817"><ele>823.5999999999999</ele><time>2026-04-25T15:36:55.002Z</time></trkpt><trkpt lat="45.5817267" lon="11.1817033"><ele>824.1999999999999</ele><time>2026-04-25T15:36:56.002Z</time></trkpt><trkpt lat="45.5816267" lon="11.1816367"><ele>824.8</ele><time>2026-04-25T15:36:57.002Z</time></trkpt><trkpt lat="45.5815233" lon="11.181565"><ele>825.4</ele><time>2026-04-25T15:36:58.002Z</time></trkpt><trkpt lat="45.5814267" lon="11.1815067"><ele>826.0</ele><time>2026-04-25T15:36:59.002Z</time></trkpt><trkpt lat="45.581325" lon="11.1814367"><ele>825.1999999999999</ele><time>2026-04-25T15:37:00.002Z</time></trkpt><trkpt lat="45.58123" lon="11.181365"><ele>824.4</ele><time>2026-04-25T15:37:01.002Z</time></trkpt><trkpt lat="45.581145" lon="11.1813033"><ele>823.6</ele><time>2026-04-25T15:37:02.003Z</time></trkpt><trkpt lat="45.5810517" lon="11.1812517"><ele>822.8</ele><time>2026-04-25T15:37:03.002Z</time></trkpt><trkpt lat="45.5809583" lon="11.18126"><ele>822.0</ele><time>2026-04-25T15:37:04.002Z</time></trkpt><trkpt lat="45.580865" lon="11.1813117"><ele>822.0</ele><time>2026-04-25T15:37:05.002Z</time></trkpt><trkpt lat="45.5808" lon="11.1814033"><ele>822.0</ele><time>2026-04-25T15:37:06.002Z</time></trkpt><trkpt lat="45.5807517" lon="11.1815083"><ele>822.0</ele><time>2026-04-25T15:37:07.002Z</time></trkpt><trkpt lat="45.5807" lon="11.1816117"><ele>822.0</ele><time>2026-04-25T15:37:08.002Z</time></trkpt><trkpt lat="45.5806383" lon="11.18171"><ele>822.0</ele><time>2026-04-25T15:37:09.002Z</time></trkpt><trkpt lat="45.58057" lon="11.1818067"><ele>822.0</ele><time>2026-04-25T15:37:10.002Z</time></trkpt><trkpt lat="45.5804917" lon="11.1819033"><ele>822.0</ele><time>2026-04-25T15:37:11.002Z</time></trkpt><trkpt lat="45.5804017" lon="11.1819783"><ele>822.0</ele><time>2026-04-25T15:37:12.002Z</time></trkpt><trkpt lat="45.58032" lon="11.1820483"><ele>822.0</ele><time>2026-04-25T15:37:13.002Z</time></trkpt><trkpt lat="45.580225" lon="11.1821117"><ele>822.0</ele><time>2026-04-25T15:37:14.002Z</time></trkpt><trkpt lat="45.5801233" lon="11.1821567"><ele>820.8</ele><time>2026-04-25T15:37:15.002Z</time></trkpt><trkpt lat="45.580015" lon="11.1821967"><ele>819.6</ele><time>2026-04-25T15:37:16.002Z</time></trkpt><trkpt lat="45.579905" lon="11.18223"><ele>818.4</ele><time>2026-04-25T15:37:17.002Z</time></trkpt><trkpt lat="45.5798017" lon="11.1822883"><ele>817.1999999999999</ele><time>2026-04-25T15:37:18.002Z</time></trkpt><trkpt lat="45.579705" lon="11.1823617"><ele>816.0</ele><time>2026-04-25T15:37:19.002Z</time></trkpt><trkpt lat="45.5796467" lon="11.182475"><ele>816.0</ele><time>2026-04-25T15:37:20.002Z</time></trkpt><trkpt lat="45.5796" lon="11.1826167"><ele>816.0</ele><time>2026-04-25T15:37:21.002Z</time></trkpt><trkpt lat="45.5795633" lon="11.18276"><ele>816.0</ele><time>2026-04-25T15:37:22.002Z</time></trkpt><trkpt lat="45.5795383" lon="11.182895"><ele>816.0</ele><time>2026-04-25T15:37:23.002Z</time></trkpt><trkpt lat="45.5795167" lon="11.1830067"><ele>816.0</ele><time>2026-04-25T15:37:24.002Z</time></trkpt><trkpt lat="45.5794667" lon="11.1831267"><ele>816.5999999999999</ele><time>2026-04-25T15:37:25.002Z</time></trkpt><trkpt lat="45.5794033" lon="11.18324"><ele>817.2</ele><time>2026-04-25T15:37:26.002Z</time></trkpt><trkpt lat="45.57933" lon="11.1833317"><ele>817.8</ele><time>2026-04-25T15:37:27.002Z</time></trkpt><trkpt lat="45.5792517" lon="11.18342"><ele>818.4000000000001</ele><time>2026-04-25T15:37:28.002Z</time></trkpt><trkpt lat="45.579175" lon="11.18347"><ele>819.0</ele><time>2026-04-25T15:37:29.002Z</time></trkpt><trkpt lat="45.5790883" lon="11.1834883"><ele>819.0</ele><time>2026-04-25T15:37:30.002Z</time></trkpt><trkpt lat="45.5790083" lon="11.1834767"><ele>819.0</ele><time>2026-04-25T15:37:31.002Z</time></trkpt><trkpt lat="45.5789283" lon="11.18344"><ele>819.0</ele><time>2026-04-25T15:37:32.002Z</time></trkpt><trkpt lat="45.5788517" lon="11.1833617"><ele>819.0</ele><time>2026-04-25T15:37:33.002Z</time></trkpt><trkpt lat="45.5787717" lon="11.1832233"><ele>819.0</ele><time>2026-04-25T15:37:34.002Z</time></trkpt><trkpt lat="45.5786917" lon="11.18307"><ele>817.75</ele><time>2026-04-25T15:37:35.002Z</time></trkpt><trkpt lat="45.5785783" lon="11.1829367"><ele>816.5</ele><time>2026-04-25T15:37:36.002Z</time></trkpt><trkpt lat="45.5784533" lon="11.182815"><ele>815.25</ele><time>2026-04-25T15:37:37.002Z</time></trkpt><trkpt lat="45.578325" lon="11.1827017"><ele>814.0</ele><time>2026-04-25T15:37:38.002Z</time></trkpt><trkpt lat="45.578195" lon="11.18259"><ele>814.0</ele><time>2026-04-25T15:37:39.002Z</time></trkpt><trkpt lat="45.5780817" lon="11.1824967"><ele>814.0</ele><time>2026-04-25T15:37:40.002Z</time></trkpt><trkpt lat="45.5779783" lon="11.182405"><ele>814.0</ele><time>2026-04-25T15:37:41.002Z</time></trkpt><trkpt lat="45.577885" lon="11.18234"><ele>814.0</ele><time>2026-04-25T15:37:42.002Z</time></trkpt><trkpt lat="45.5777867" lon="11.1822933"><ele>813.1666666666666</ele><time>2026-04-25T15:37:43.002Z</time></trkpt><trkpt lat="45.5776983" lon="11.1822983"><ele>812.3333333333333</ele><time>2026-04-25T15:37:44.002Z</time></trkpt><trkpt lat="45.5776233" lon="11.1823383"><ele>811.5</ele><time>2026-04-25T15:37:45.002Z</time></trkpt><trkpt lat="45.5775683" lon="11.1824083"><ele>810.6666666666667</ele><time>2026-04-25T15:37:46.002Z</time></trkpt><trkpt lat="45.5775133" lon="11.18251"><ele>809.8333333333334</ele><time>2026-04-25T15:37:47.002Z</time></trkpt><trkpt lat="45.57744" lon="11.1826367"><ele>809.0</ele><time>2026-04-25T15:37:48.002Z</time></trkpt><trkpt lat="45.577375" lon="11.1827667"><ele>809.0</ele><time>2026-04-25T15:37:49.002Z</time></trkpt><trkpt lat="45.5772883" lon="11.18287"><ele>809.0</ele><time>2026-04-25T15:37:50.002Z</time></trkpt><trkpt lat="45.5771967" lon="11.1829467"><ele>809.0</ele><time>2026-04-25T15:37:51.002Z</time></trkpt><trkpt lat="45.5770983" lon="11.1829983"><ele>809.0</ele><time>2026-04-25T15:37:52.002Z</time></trkpt><trkpt lat="45.57699" lon="11.1830067"><ele>809.0</ele><time>2026-04-25T15:37:53.002Z</time></trkpt><trkpt lat="45.5768883" lon="11.1829717"><ele>809.25</ele><time>2026-04-25T15:37:54.002Z</time></trkpt><trkpt lat="45.57677" lon="11.1829067"><ele>809.5</ele><time>2026-04-25T15:37:55.002Z</time></trkpt><trkpt lat="45.5766317" lon="11.18283"><ele>809.75</ele><time>2026-04-25T15:37:56.002Z</time></trkpt><trkpt lat="45.57648" lon="11.1827483"><ele>810.0</ele><time>2026-04-25T15:37:57.002Z</time></trkpt><trkpt lat="45.57632" lon="11.18269"><ele>807.0</ele><time>2026-04-25T15:37:58.002Z</time></trkpt><trkpt lat="45.576165" lon="11.1826283"><ele>804.0</ele><time>2026-04-25T15:37:59.002Z</time></trkpt><trkpt lat="45.576015" lon="11.18258"><ele>801.0</ele><time>2026-04-25T15:38:00.002Z</time></trkpt><trkpt lat="45.57586" lon="11.1825267"><ele>801.0</ele><time>2026-04-25T15:38:01.002Z</time></trkpt><trkpt lat="45.5757133" lon="11.1824883"><ele>801.0</ele><time>2026-04-25T15:38:02.002Z</time></trkpt><trkpt lat="45.575565" lon="11.18244"><ele>801.0</ele><time>2026-04-25T15:38:03.002Z</time></trkpt><trkpt lat="45.57542" lon="11.1824133"><ele>801.0</ele><time>2026-04-25T15:38:04.002Z</time></trkpt><trkpt lat="45.5752717" lon="11.182385"><ele>800.25</ele><time>2026-04-25T15:38:05.002Z</time></trkpt><trkpt lat="45.57513" lon="11.18236"><ele>799.5</ele><time>2026-04-25T15:38:06.002Z</time></trkpt><trkpt lat="45.5749833" lon="11.1823767"><ele>798.75</ele><time>2026-04-25T15:38:07.002Z</time></trkpt><trkpt lat="45.5748417" lon="11.182415"><ele>798.0</ele><time>2026-04-25T15:38:08.002Z</time></trkpt><trkpt lat="45.574695" lon="11.1824433"><ele>798.0</ele><time>2026-04-25T15:38:09.002Z</time></trkpt><trkpt lat="45.5745467" lon="11.1824583"><ele>798.0</ele><time>2026-04-25T15:38:10.002Z</time></trkpt><trkpt lat="45.5743933" lon="11.1824633"><ele>798.0</ele><time>2026-04-25T15:38:11.002Z</time></trkpt><trkpt lat="45.5742317" lon="11.18246"><ele>797.6666666666667</ele><time>2026-04-25T15:38:12.002Z</time></trkpt><trkpt lat="45.574065" lon="11.1824717"><ele>797.3333333333334</ele><time>2026-04-25T15:38:13.002Z</time></trkpt><trkpt lat="45.5739017" lon="11.1824467"><ele>797.0</ele><time>2026-04-25T15:38:14.002Z</time></trkpt><trkpt lat="45.5737417" lon="11.18241"><ele>797.25</ele><time>2026-04-25T15:38:15.002Z</time></trkpt><trkpt lat="45.5735967" lon="11.1823733"><ele>797.5</ele><time>2026-04-25T15:38:16.002Z</time></trkpt><trkpt lat="45.5734583" lon="11.1823317"><ele>797.75</ele><time>2026-04-25T15:38:17.003Z</time></trkpt><trkpt lat="45.5733183" lon="11.182295"><ele>798.0</ele><time>2026-04-25T15:38:18.002Z</time></trkpt><trkpt lat="45.5731667" lon="11.182255"><ele>799.3333333333333</ele><time>2026-04-25T15:38:19.002Z</time></trkpt><trkpt lat="45.5730183" lon="11.1822317"><ele>800.6666666666666</ele><time>2026-04-25T15:38:20.002Z</time></trkpt><trkpt lat="45.57287" lon="11.182225"><ele>802.0</ele><time>2026-04-25T15:38:21.002Z</time></trkpt><trkpt lat="45.5727167" lon="11.1822367"><ele>802.0</ele><time>2026-04-25T15:38:22.002Z</time></trkpt><trkpt lat="45.5725767" lon="11.1822667"><ele>802.0</ele><time>2026-04-25T15:38:23.002Z</time></trkpt><trkpt lat="45.57244" lon="11.1823083"><ele>802.0</ele><time>2026-04-25T15:38:24.002Z</time></trkpt><trkpt lat="45.572315" lon="11.1823533"><ele>802.0</ele><time>2026-04-25T15:38:25.002Z</time></trkpt><trkpt lat="45.5721833" lon="11.1823783"><ele>802.0</ele><time>2026-04-25T15:38:26.002Z</time></trkpt><trkpt lat="45.5720533" lon="11.1824"><ele>802.0</ele><time>2026-04-25T15:38:27.002Z</time></trkpt><trkpt lat="45.571935" lon="11.1824383"><ele>802.0</ele><time>2026-04-25T15:38:28.002Z</time></trkpt><trkpt lat="45.5718167" lon="11.1824983"><ele>802.0</ele><time>2026-04-25T15:38:29.002Z</time></trkpt><trkpt lat="45.5717033" lon="11.1825783"><ele>801.75</ele><time>2026-04-25T15:38:30.002Z</time></trkpt><trkpt lat="45.571595" lon="11.1826667"><ele>801.5</ele><time>2026-04-25T15:38:31.002Z</time></trkpt><trkpt lat="45.57148" lon="11.1827367"><ele>801.25</ele><time>2026-04-25T15:38:32.002Z</time></trkpt><trkpt lat="45.5713633" lon="11.1827817"><ele>801.0</ele><time>2026-04-25T15:38:33.002Z</time></trkpt><trkpt lat="45.571255" lon="11.1827883"><ele>800.25</ele><time>2026-04-25T15:38:34.002Z</time></trkpt><trkpt lat="45.57115" lon="11.182765"><ele>799.5</ele><time>2026-04-25T15:38:35.002Z</time></trkpt><trkpt lat="45.5710467" lon="11.1826933"><ele>798.75</ele><time>2026-04-25T15:38:36.002Z</time></trkpt><trkpt lat="45.570935" lon="11.18256"><ele>798.0</ele><time>2026-04-25T15:38:37.002Z</time></trkpt><trkpt lat="45.5708283" lon="11.1823933"><ele>793.0</ele><time>2026-04-25T15:38:38.002Z</time></trkpt><trkpt lat="45.5707183" lon="11.1822367"><ele>788.0</ele><time>2026-04-25T15:38:39.002Z</time></trkpt><trkpt lat="45.5706033" lon="11.1821083"><ele>783.0</ele><time>2026-04-25T15:38:40.002Z</time></trkpt><trkpt lat="45.5704733" lon="11.1820033"><ele>784.5</ele><time>2026-04-25T15:38:41.002Z</time></trkpt><trkpt lat="45.5703483" lon="11.18194"><ele>786.0</ele><time>2026-04-25T15:38:42.002Z</time></trkpt><trkpt lat="45.5702217" lon="11.18188"><ele>787.5</ele><time>2026-04-25T15:38:43.002Z</time></trkpt><trkpt lat="45.57009" lon="11.1818533"><ele>789.0</ele><time>2026-04-25T15:38:44.002Z</time></trkpt><trkpt lat="45.56995" lon="11.1818167"><ele>789.0</ele><time>2026-04-25T15:38:45.002Z</time></trkpt><trkpt lat="45.5698133" lon="11.181795"><ele>789.0</ele><time>2026-04-25T15:38:46.002Z</time></trkpt><trkpt lat="45.569675" lon="11.1817817"><ele>789.0</ele><time>2026-04-25T15:38:47.002Z</time></trkpt><trkpt lat="45.5695367" lon="11.181765"><ele>789.0</ele><time>2026-04-25T15:38:48.002Z</time></trkpt><trkpt lat="45.5694117" lon="11.1817417"><ele>789.0</ele><time>2026-04-25T15:38:49.002Z</time></trkpt><trkpt lat="45.5693017" lon="11.1817167"><ele>789.0</ele><time>2026-04-25T15:38:50.002Z</time></trkpt><trkpt lat="45.5692" lon="11.1816533"><ele>789.0</ele><time>2026-04-25T15:38:51.002Z</time></trkpt><trkpt lat="45.569095" lon="11.1815617"><ele>789.0</ele><time>2026-04-25T15:38:52.002Z</time></trkpt><trkpt lat="45.5689917" lon="11.181445"><ele>789.0</ele><time>2026-04-25T15:38:53.002Z</time></trkpt><trkpt lat="45.5689017" lon="11.1813433"><ele>789.0</ele><time>2026-04-25T15:38:54.002Z</time></trkpt><trkpt lat="45.568825" lon="11.1812383"><ele>789.0</ele><time>2026-04-25T15:38:55.002Z</time></trkpt><trkpt lat="45.5687633" lon="11.181125"><ele>789.0</ele><time>2026-04-25T15:38:56.002Z</time></trkpt><trkpt lat="45.56872" lon="11.1809583"><ele>789.0</ele><time>2026-04-25T15:38:57.002Z</time></trkpt><trkpt lat="45.568685" lon="11.1807867"><ele>790.75</ele><time>2026-04-25T15:38:58.003Z</time></trkpt><trkpt lat="45.5686667" lon="11.1806"><ele>792.5</ele><time>2026-04-25T15:38:59.002Z</time></trkpt><trkpt lat="45.5686633" lon="11.1804117"><ele>794.25</ele><time>2026-04-25T15:39:00.002Z</time></trkpt><trkpt lat="45.5686683" lon="11.180235"><ele>796.0</ele><time>2026-04-25T15:39:01.002Z</time></trkpt><trkpt lat="45.5686733" lon="11.1800883"><ele>796.0</ele><time>2026-04-25T15:39:02.002Z</time></trkpt><trkpt lat="45.56867" lon="11.17992"><ele>796.0</ele><time>2026-04-25T15:39:03.002Z</time></trkpt><trkpt lat="45.56867" lon="11.17977"><ele>796.0</ele><time>2026-04-25T15:39:04.002Z</time></trkpt><trkpt lat="45.5686617" lon="11.1796317"><ele>796.0</ele><time>2026-04-25T15:39:05.002Z</time></trkpt><trkpt lat="45.56864" lon="11.1795167"><ele>796.0</ele><time>2026-04-25T15:39:06.002Z</time></trkpt><trkpt lat="45.568605" lon="11.17942"><ele>796.8</ele><time>2026-04-25T15:39:07.002Z</time></trkpt><trkpt lat="45.568555" lon="11.1793517"><ele>797.5999999999999</ele><time>2026-04-25T15:39:08.002Z</time></trkpt><trkpt lat="45.5684917" lon="11.1793417"><ele>798.4</ele><time>2026-04-25T15:39:09.002Z</time></trkpt><trkpt lat="45.56839" lon="11.1795083"><ele>799.2</ele><time>2026-04-25T15:39:11.002Z</time></trkpt><trkpt lat="45.5683317" lon="11.17967"><ele>800.0</ele><time>2026-04-25T15:39:12.002Z</time></trkpt><trkpt lat="45.5682767" lon="11.17985"><ele>799.0</ele><time>2026-04-25T15:39:13.003Z</time></trkpt><trkpt lat="45.5682267" lon="11.1800333"><ele>798.0</ele><time>2026-04-25T15:39:14.002Z</time></trkpt><trkpt lat="45.56818" lon="11.18021"><ele>797.0</ele><time>2026-04-25T15:39:15.002Z</time></trkpt><trkpt lat="45.5681283" lon="11.18039"><ele>796.0</ele><time>2026-04-25T15:39:16.002Z</time></trkpt><trkpt lat="45.5680767" lon="11.1805583"><ele>798.0</ele><time>2026-04-25T15:39:17.002Z</time></trkpt><trkpt lat="45.5680083" lon="11.1807283"><ele>800.0</ele><time>2026-04-25T15:39:18.002Z</time></trkpt><trkpt lat="45.5679317" lon="11.1808883"><ele>802.0</ele><time>2026-04-25T15:39:19.002Z</time></trkpt><trkpt lat="45.56784" lon="11.18104"><ele>804.0</ele><time>2026-04-25T15:39:20.002Z</time></trkpt><trkpt lat="45.5677267" lon="11.18117"><ele>803.25</ele><time>2026-04-25T15:39:21.002Z</time></trkpt><trkpt lat="45.5676017" lon="11.181285"><ele>802.5</ele><time>2026-04-25T15:39:22.002Z</time></trkpt><trkpt lat="45.567475" lon="11.1813933"><ele>801.75</ele><time>2026-04-25T15:39:23.002Z</time></trkpt><trkpt lat="45.567355" lon="11.181525"><ele>801.0</ele><time>2026-04-25T15:39:24.002Z</time></trkpt><trkpt lat="45.56724" lon="11.1816383"><ele>801.0</ele><time>2026-04-25T15:39:25.002Z</time></trkpt><trkpt lat="45.567125" lon="11.181745"><ele>801.0</ele><time>2026-04-25T15:39:26.002Z</time></trkpt><trkpt lat="45.56701" lon="11.18186"><ele>801.0</ele><time>2026-04-25T15:39:27.002Z</time></trkpt><trkpt lat="45.5668983" lon="11.1820033"><ele>801.0</ele><time>2026-04-25T15:39:28.002Z</time></trkpt><trkpt lat="45.5667933" lon="11.1821433"><ele>800.5</ele><time>2026-04-25T15:39:29.002Z</time></trkpt><trkpt lat="45.5667017" lon="11.1822817"><ele>800.0</ele><time>2026-04-25T15:39:30.002Z</time></trkpt><trkpt lat="45.5665933" lon="11.1824083"><ele>799.5</ele><time>2026-04-25T15:39:31.002Z</time></trkpt><trkpt lat="45.5664917" lon="11.1825283"><ele>799.0</ele><time>2026-04-25T15:39:32.002Z</time></trkpt><trkpt lat="45.5663833" lon="11.18263"><ele>799.0</ele><time>2026-04-25T15:39:33.002Z</time></trkpt><trkpt lat="45.566265" lon="11.1827133"><ele>799.0</ele><time>2026-04-25T15:39:34.002Z</time></trkpt><trkpt lat="45.5661417" lon="11.1827967"><ele>799.0</ele><time>2026-04-25T15:39:35.003Z</time></trkpt><trkpt lat="45.5660217" lon="11.182855"><ele>799.0</ele><time>2026-04-25T15:39:36.002Z</time></trkpt><trkpt lat="45.5658983" lon="11.1828933"><ele>795.0</ele><time>2026-04-25T15:39:37.002Z</time></trkpt><trkpt lat="45.565775" lon="11.1829183"><ele>791.0</ele><time>2026-04-25T15:39:38.002Z</time></trkpt><trkpt lat="45.5656633" lon="11.18297"><ele>787.0</ele><time>2026-04-25T15:39:39.002Z</time></trkpt><trkpt lat="45.565565" lon="11.1830567"><ele>783.0</ele><time>2026-04-25T15:39:40.002Z</time></trkpt><trkpt lat="45.565475" lon="11.1831567"><ele>784.0</ele><time>2026-04-25T15:39:41.003Z</time></trkpt><trkpt lat="45.5653833" lon="11.1832383"><ele>785.0</ele><time>2026-04-25T15:39:42.002Z</time></trkpt><trkpt lat="45.565285" lon="11.183285"><ele>786.0</ele><time>2026-04-25T15:39:43.002Z</time></trkpt><trkpt lat="45.5651833" lon="11.1833067"><ele>787.0</ele><time>2026-04-25T15:39:44.002Z</time></trkpt><trkpt lat="45.5650733" lon="11.1833017"><ele>788.0</ele><time>2026-04-25T15:39:45.002Z</time></trkpt><trkpt lat="45.56496" lon="11.183265"><ele>788.0</ele><time>2026-04-25T15:39:46.003Z</time></trkpt><trkpt lat="45.5648467" lon="11.1831833"><ele>788.0</ele><time>2026-04-25T15:39:47.002Z</time></trkpt><trkpt lat="45.5647367" lon="11.1830767"><ele>788.0</ele><time>2026-04-25T15:39:48.002Z</time></trkpt><trkpt lat="45.5646367" lon="11.18297"><ele>788.0</ele><time>2026-04-25T15:39:49.002Z</time></trkpt><trkpt lat="45.56455" lon="11.1828483"><ele>786.25</ele><time>2026-04-25T15:39:50.002Z</time></trkpt><trkpt lat="45.5644817" lon="11.1827167"><ele>784.5</ele><time>2026-04-25T15:39:51.002Z</time></trkpt><trkpt lat="45.5644183" lon="11.182585"><ele>782.75</ele><time>2026-04-25T15:39:52.002Z</time></trkpt><trkpt lat="45.56434" lon="11.1824633"><ele>781.0</ele><time>2026-04-25T15:39:53.002Z</time></trkpt><trkpt lat="45.5642733" lon="11.1823233"><ele>778.1999999999999</ele><time>2026-04-25T15:39:54.002Z</time></trkpt><trkpt lat="45.5642133" lon="11.18221"><ele>775.4</ele><time>2026-04-25T15:39:55.002Z</time></trkpt><trkpt lat="45.5641417" lon="11.1820817"><ele>772.6</ele><time>2026-04-25T15:39:56.002Z</time></trkpt><trkpt lat="45.5640667" lon="11.181965"><ele>769.8</ele><time>2026-04-25T15:39:57.002Z</time></trkpt><trkpt lat="45.5639833" lon="11.18188"><ele>767.0</ele><time>2026-04-25T15:39:58.002Z</time></trkpt><trkpt lat="45.5638783" lon="11.1818017"><ele>767.0</ele><time>2026-04-25T15:39:59.002Z</time></trkpt><trkpt lat="45.56376" lon="11.1817583"><ele>767.0</ele><time>2026-04-25T15:40:00.002Z</time></trkpt><trkpt lat="45.5636483" lon="11.1817033"><ele>767.0</ele><time>2026-04-25T15:40:01.002Z</time></trkpt><trkpt lat="45.563535" lon="11.18166"><ele>767.0</ele><time>2026-04-25T15:40:02.002Z</time></trkpt><trkpt lat="45.5634267" lon="11.1816217"><ele>767.0</ele><time>2026-04-25T15:40:03.002Z</time></trkpt><trkpt lat="45.56332" lon="11.18157"><ele>767.0</ele><time>2026-04-25T15:40:04.002Z</time></trkpt><trkpt lat="45.5632217" lon="11.1814933"><ele>767.0</ele><time>2026-04-25T15:40:05.002Z</time></trkpt><trkpt lat="45.5631283" lon="11.1814033"><ele>767.0</ele><time>2026-04-25T15:40:06.002Z</time></trkpt><trkpt lat="45.5630383" lon="11.1813067"><ele>764.0</ele><time>2026-04-25T15:40:07.002Z</time></trkpt><trkpt lat="45.5629533" lon="11.1812233"><ele>761.0</ele><time>2026-04-25T15:40:08.002Z</time></trkpt><trkpt lat="45.562865" lon="11.181145"><ele>758.0</ele><time>2026-04-25T15:40:09.002Z</time></trkpt><trkpt lat="45.5627633" lon="11.18108"><ele>755.0</ele><time>2026-04-25T15:40:10.002Z</time></trkpt><trkpt lat="45.5626567" lon="11.181065"><ele>752.0</ele><time>2026-04-25T15:40:11.002Z</time></trkpt><trkpt lat="45.5625417" lon="11.1810833"><ele>752.4000000000001</ele><time>2026-04-25T15:40:12.002Z</time></trkpt><trkpt lat="45.5624383" lon="11.1811283"><ele>752.8000000000001</ele><time>2026-04-25T15:40:13.002Z</time></trkpt><trkpt lat="45.5623517" lon="11.1811867"><ele>753.2</ele><time>2026-04-25T15:40:14.002Z</time></trkpt><trkpt lat="45.562285" lon="11.1812883"><ele>753.6</ele><time>2026-04-25T15:40:15.002Z</time></trkpt><trkpt lat="45.5622483" lon="11.1814183"><ele>754.0</ele><time>2026-04-25T15:40:16.002Z</time></trkpt><trkpt lat="45.5622483" lon="11.181575"><ele>754.0</ele><time>2026-04-25T15:40:17.002Z</time></trkpt><trkpt lat="45.562255" lon="11.1817317"><ele>754.0</ele><time>2026-04-25T15:40:18.002Z</time></trkpt><trkpt lat="45.5622567" lon="11.1818783"><ele>754.0</ele><time>2026-04-25T15:40:19.002Z</time></trkpt><trkpt lat="45.5622433" lon="11.1820283"><ele>754.0</ele><time>2026-04-25T15:40:20.002Z</time></trkpt><trkpt lat="45.562205" lon="11.18217"><ele>754.0</ele><time>2026-04-25T15:40:21.002Z</time></trkpt><trkpt lat="45.5621333" lon="11.1822967"><ele>754.6</ele><time>2026-04-25T15:40:22.002Z</time></trkpt><trkpt lat="45.5620433" lon="11.1823767"><ele>755.2</ele><time>2026-04-25T15:40:23.002Z</time></trkpt><trkpt lat="45.5619367" lon="11.1824317"><ele>755.8000000000001</ele><time>2026-04-25T15:40:24.002Z</time></trkpt><trkpt lat="45.5618283" lon="11.1824633"><ele>756.4000000000001</ele><time>2026-04-25T15:40:25.002Z</time></trkpt><trkpt lat="45.56172" lon="11.1824683"><ele>757.0</ele><time>2026-04-25T15:40:26.002Z</time></trkpt><trkpt lat="45.5616133" lon="11.1824583"><ele>753.6</ele><time>2026-04-25T15:40:27.002Z</time></trkpt><trkpt lat="45.5615133" lon="11.18244"><ele>750.2</ele><time>2026-04-25T15:40:28.002Z</time></trkpt><trkpt lat="45.561415" lon="11.1824417"><ele>746.8</ele><time>2026-04-25T15:40:29.002Z</time></trkpt><trkpt lat="45.5613167" lon="11.1824567"><ele>743.4</ele><time>2026-04-25T15:40:30.002Z</time></trkpt><trkpt lat="45.5612283" lon="11.182485"><ele>740.0</ele><time>2026-04-25T15:40:31.002Z</time></trkpt><trkpt lat="45.5611417" lon="11.1825817"><ele>737.8</ele><time>2026-04-25T15:40:32.002Z</time></trkpt><trkpt lat="45.5610567" lon="11.1826883"><ele>735.6</ele><time>2026-04-25T15:40:33.002Z</time></trkpt><trkpt lat="45.5609717" lon="11.1828067"><ele>733.4000000000001</ele><time>2026-04-25T15:40:34.002Z</time></trkpt><trkpt lat="45.5608933" lon="11.1829167"><ele>731.2</ele><time>2026-04-25T15:40:35.002Z</time></trkpt><trkpt lat="45.5608267" lon="11.183005"><ele>729.0</ele><time>2026-04-25T15:40:36.002Z</time></trkpt><trkpt lat="45.56077" lon="11.1830717"><ele>729.0</ele><time>2026-04-25T15:40:37.002Z</time></trkpt><trkpt lat="45.5607083" lon="11.1831283"><ele>729.0</ele><time>2026-04-25T15:40:38.002Z</time></trkpt><trkpt lat="45.56065" lon="11.183165"><ele>729.0</ele><time>2026-04-25T15:40:39.002Z</time></trkpt><trkpt lat="45.5605533" lon="11.1832083"><ele>729.0</ele><time>2026-04-25T15:40:41.002Z</time></trkpt><trkpt lat="45.5604833" lon="11.1831833"><ele>729.0</ele><time>2026-04-25T15:40:43.002Z</time></trkpt><trkpt lat="45.5604767" lon="11.18308"><ele>729.0</ele><time>2026-04-25T15:40:45.002Z</time></trkpt><trkpt lat="45.560525" lon="11.1829983"><ele>729.0</ele><time>2026-04-25T15:40:46.002Z</time></trkpt><trkpt lat="45.560605" lon="11.1828833"><ele>729.0</ele><time>2026-04-25T15:40:47.002Z</time></trkpt><trkpt lat="45.5606983" lon="11.1827317"><ele>729.0</ele><time>2026-04-25T15:40:48.002Z</time></trkpt><trkpt lat="45.56078" lon="11.1825633"><ele>729.0</ele><time>2026-04-25T15:40:49.002Z</time></trkpt><trkpt lat="45.5608483" lon="11.182415"><ele>728.8333333333334</ele><time>2026-04-25T15:40:50.002Z</time></trkpt><trkpt lat="45.5609083" lon="11.182285"><ele>728.6666666666666</ele><time>2026-04-25T15:40:51.002Z</time></trkpt><trkpt lat="45.5609683" lon="11.1821817"><ele>728.5</ele><time>2026-04-25T15:40:52.002Z</time></trkpt><trkpt lat="45.561025" lon="11.1821017"><ele>728.3333333333333</ele><time>2026-04-25T15:40:53.002Z</time></trkpt><trkpt lat="45.5610933" lon="11.1820533"><ele>728.1666666666666</ele><time>2026-04-25T15:40:54.002Z</time></trkpt><trkpt lat="45.5611617" lon="11.1820183"><ele>728.0</ele><time>2026-04-25T15:40:55.002Z</time></trkpt><trkpt lat="45.561235" lon="11.1819883"><ele>728.0</ele><time>2026-04-25T15:40:56.002Z</time></trkpt><trkpt lat="45.5612983" lon="11.18196"><ele>728.0</ele><time>2026-04-25T15:40:57.003Z</time></trkpt><trkpt lat="45.5613717" lon="11.1819617"><ele>728.0</ele><time>2026-04-25T15:40:58.002Z</time></trkpt><trkpt lat="45.5614517" lon="11.1819683"><ele>728.0</ele><time>2026-04-25T15:40:59.002Z</time></trkpt><trkpt lat="45.5615283" lon="11.18193"><ele>728.0</ele><time>2026-04-25T15:41:00.002Z</time></trkpt><trkpt lat="45.5616017" lon="11.181885"><ele>728.0</ele><time>2026-04-25T15:41:01.002Z</time></trkpt><trkpt lat="45.5616683" lon="11.1818117"><ele>728.0</ele><time>2026-04-25T15:41:02.002Z</time></trkpt><trkpt lat="45.561705" lon="11.181715"><ele>728.0</ele><time>2026-04-25T15:41:03.002Z</time></trkpt><trkpt lat="45.5616767" lon="11.1815267"><ele>728.0</ele><time>2026-04-25T15:41:05.002Z</time></trkpt><trkpt lat="45.5615933" lon="11.1813917"><ele>728.0</ele><time>2026-04-25T15:41:06.002Z</time></trkpt><trkpt lat="45.5615" lon="11.18125"><ele>727.75</ele><time>2026-04-25T15:41:07.002Z</time></trkpt><trkpt lat="45.5614167" lon="11.1810983"><ele>727.5</ele><time>2026-04-25T15:41:08.002Z</time></trkpt><trkpt lat="45.5613483" lon="11.1809633"><ele>727.25</ele><time>2026-04-25T15:41:09.002Z</time></trkpt><trkpt lat="45.5612817" lon="11.1808283"><ele>727.0</ele><time>2026-04-25T15:41:10.002Z</time></trkpt><trkpt lat="45.5612267" lon="11.1807017"><ele>722.3333333333334</ele><time>2026-04-25T15:41:11.002Z</time></trkpt><trkpt lat="45.5611783" lon="11.1805817"><ele>717.6666666666667</ele><time>2026-04-25T15:41:12.002Z</time></trkpt><trkpt lat="45.561135" lon="11.1804617"><ele>713.0</ele><time>2026-04-25T15:41:13.002Z</time></trkpt><trkpt lat="45.5610867" lon="11.1803583"><ele>708.3333333333334</ele><time>2026-04-25T15:41:14.002Z</time></trkpt><trkpt lat="45.5610483" lon="11.1802667"><ele>703.6666666666666</ele><time>2026-04-25T15:41:15.002Z</time></trkpt><trkpt lat="45.5610267" lon="11.1801733"><ele>699.0</ele><time>2026-04-25T15:41:16.002Z</time></trkpt><trkpt lat="45.560995" lon="11.1800733"><ele>699.0</ele><time>2026-04-25T15:41:17.002Z</time></trkpt><trkpt lat="45.56099" lon="11.1799783"><ele>699.0</ele><time>2026-04-25T15:41:18.002Z</time></trkpt><trkpt lat="45.56106" lon="11.1798417"><ele>699.0</ele><time>2026-04-25T15:41:20.002Z</time></trkpt><trkpt lat="45.5611133" lon="11.1797183"><ele>699.0</ele><time>2026-04-25T15:41:22.002Z</time></trkpt><trkpt lat="45.5610633" lon="11.17966"><ele>699.0</ele><time>2026-04-25T15:41:24.002Z</time></trkpt><trkpt lat="45.56095" lon="11.1796983"><ele>699.0</ele><time>2026-04-25T15:41:26.002Z</time></trkpt><trkpt lat="45.560865" lon="11.179795"><ele>699.0</ele><time>2026-04-25T15:41:28.002Z</time></trkpt><trkpt lat="45.5608267" lon="11.179945"><ele>699.0</ele><time>2026-04-25T15:41:30.002Z</time></trkpt><trkpt lat="45.5608483" lon="11.1801267"><ele>699.0</ele><time>2026-04-25T15:41:32.002Z</time></trkpt><trkpt lat="45.5608683" lon="11.18022"><ele>699.0</ele><time>2026-04-25T15:41:33.002Z</time></trkpt><trkpt lat="45.56089" lon="11.18032"><ele>699.0</ele><time>2026-04-25T15:41:34.002Z</time></trkpt><trkpt lat="45.5609183" lon="11.18041"><ele>699.0</ele><time>2026-04-25T15:41:35.002Z</time></trkpt><trkpt lat="45.5609467" lon="11.1804967"><ele>699.0</ele><time>2026-04-25T15:41:36.003Z</time></trkpt><trkpt lat="45.5609867" lon="11.18058"><ele>699.0</ele><time>2026-04-25T15:41:37.002Z</time></trkpt><trkpt lat="45.5610233" lon="11.1806567"><ele>699.0</ele><time>2026-04-25T15:41:38.002Z</time></trkpt><trkpt lat="45.5610517" lon="11.1807417"><ele>699.0</ele><time>2026-04-25T15:41:39.002Z</time></trkpt><trkpt lat="45.5609567" lon="11.1806783"><ele>699.0</ele><time>2026-04-25T15:41:44.002Z</time></trkpt><trkpt lat="45.5609217" lon="11.1806033"><ele>699.0</ele><time>2026-04-25T15:41:45.002Z</time></trkpt><trkpt lat="45.5608567" lon="11.1804433"><ele>699.0</ele><time>2026-04-25T15:41:47.002Z</time></trkpt><trkpt lat="45.56081" lon="11.1802717"><ele>699.0</ele><time>2026-04-25T15:41:49.002Z</time></trkpt><trkpt lat="45.5607667" lon="11.1801817"><ele>699.0</ele><time>2026-04-25T15:41:50.002Z</time></trkpt><trkpt lat="45.5607283" lon="11.1800933"><ele>699.0</ele><time>2026-04-25T15:41:51.002Z</time></trkpt><trkpt lat="45.5606883" lon="11.1800083"><ele>696.3333333333334</ele><time>2026-04-25T15:41:52.002Z</time></trkpt><trkpt lat="45.560655" lon="11.17982"><ele>693.6666666666666</ele><time>2026-04-25T15:41:54.002Z</time></trkpt><trkpt lat="45.5606583" lon="11.1797083"><ele>691.0</ele><time>2026-04-25T15:41:55.002Z</time></trkpt><trkpt lat="45.5606733" lon="11.1796083"><ele>688.3333333333333</ele><time>2026-04-25T15:41:56.002Z</time></trkpt><trkpt lat="45.5607067" lon="11.17952"><ele>685.6666666666666</ele><time>2026-04-25T15:41:57.002Z</time></trkpt><trkpt lat="45.56075" lon="11.17944"><ele>683.0</ele><time>2026-04-25T15:41:58.002Z</time></trkpt><trkpt lat="45.5607983" lon="11.17937"><ele>683.0</ele><time>2026-04-25T15:41:59.002Z</time></trkpt><trkpt lat="45.560905" lon="11.1792983"><ele>683.0</ele><time>2026-04-25T15:42:01.002Z</time></trkpt><trkpt lat="45.5609667" lon="11.1792767"><ele>683.0</ele><time>2026-04-25T15:42:02.002Z</time></trkpt><trkpt lat="45.561045" lon="11.1792883"><ele>683.0</ele><time>2026-04-25T15:42:03.002Z</time></trkpt><trkpt lat="45.561135" lon="11.1792883"><ele>683.0</ele><time>2026-04-25T15:42:04.002Z</time></trkpt><trkpt lat="45.5612" lon="11.1792567"><ele>683.0</ele><time>2026-04-25T15:42:05.002Z</time></trkpt><trkpt lat="45.5612633" lon="11.1791967"><ele>684.5</ele><time>2026-04-25T15:42:06.002Z</time></trkpt><trkpt lat="45.5613" lon="11.1791083"><ele>686.0</ele><time>2026-04-25T15:42:07.002Z</time></trkpt><trkpt lat="45.5613033" lon="11.1790117"><ele>687.5</ele><time>2026-04-25T15:42:08.002Z</time></trkpt><trkpt lat="45.5612883" lon="11.1789"><ele>689.0</ele><time>2026-04-25T15:42:09.002Z</time></trkpt><trkpt lat="45.561265" lon="11.1787683"><ele>690.5</ele><time>2026-04-25T15:42:10.002Z</time></trkpt><trkpt lat="45.56125" lon="11.1786433"><ele>692.0</ele><time>2026-04-25T15:42:11.002Z</time></trkpt><trkpt lat="45.5612417" lon="11.1785133"><ele>692.0</ele><time>2026-04-25T15:42:12.002Z</time></trkpt><trkpt lat="45.56124" lon="11.17837"><ele>692.0</ele><time>2026-04-25T15:42:13.002Z</time></trkpt><trkpt lat="45.561255" lon="11.178235"><ele>692.0</ele><time>2026-04-25T15:42:14.002Z</time></trkpt><trkpt lat="45.5612767" lon="11.1781183"><ele>692.0</ele><time>2026-04-25T15:42:15.002Z</time></trkpt><trkpt lat="45.5613183" lon="11.17803"><ele>692.0</ele><time>2026-04-25T15:42:16.002Z</time></trkpt><trkpt lat="45.5613633" lon="11.177935"><ele>692.0</ele><time>2026-04-25T15:42:17.002Z</time></trkpt><trkpt lat="45.561395" lon="11.1778183"><ele>690.5</ele><time>2026-04-25T15:42:18.002Z</time></trkpt><trkpt lat="45.5614117" lon="11.1777017"><ele>689.0</ele><time>2026-04-25T15:42:19.002Z</time></trkpt><trkpt lat="45.56141" lon="11.1775817"><ele>687.5</ele><time>2026-04-25T15:42:20.002Z</time></trkpt><trkpt lat="45.5613783" lon="11.1774767"><ele>686.0</ele><time>2026-04-25T15:42:21.002Z</time></trkpt><trkpt lat="45.5613217" lon="11.1773633"><ele>684.5</ele><time>2026-04-25T15:42:22.002Z</time></trkpt><trkpt lat="45.56126" lon="11.1772483"><ele>683.0</ele><time>2026-04-25T15:42:23.002Z</time></trkpt><trkpt lat="45.5612383" lon="11.1771467"><ele>680.3333333333333</ele><time>2026-04-25T15:42:24.002Z</time></trkpt><trkpt lat="45.5612133" lon="11.17704"><ele>677.6666666666666</ele><time>2026-04-25T15:42:25.002Z</time></trkpt><trkpt lat="45.5611967" lon="11.1769217"><ele>675.0</ele><time>2026-04-25T15:42:26.002Z</time></trkpt><trkpt lat="45.5611933" lon="11.17682"><ele>672.3333333333334</ele><time>2026-04-25T15:42:27.002Z</time></trkpt><trkpt lat="45.561205" lon="11.176695"><ele>669.6666666666667</ele><time>2026-04-25T15:42:28.002Z</time></trkpt><trkpt lat="45.5612283" lon="11.176565"><ele>667.0</ele><time>2026-04-25T15:42:29.002Z</time></trkpt><trkpt lat="45.5612633" lon="11.1764633"><ele>663.0</ele><time>2026-04-25T15:42:30.002Z</time></trkpt><trkpt lat="45.5613083" lon="11.17637"><ele>659.0</ele><time>2026-04-25T15:42:31.002Z</time></trkpt><trkpt lat="45.5613483" lon="11.176295"><ele>655.0</ele><time>2026-04-25T15:42:32.002Z</time></trkpt><trkpt lat="45.5614333" lon="11.1762433"><ele>651.0</ele><time>2026-04-25T15:42:34.002Z</time></trkpt><trkpt lat="45.5614883" lon="11.176295"><ele>647.0</ele><time>2026-04-25T15:42:35.002Z</time></trkpt><trkpt lat="45.5615767" lon="11.1763233"><ele>643.0</ele><time>2026-04-25T15:42:37.002Z</time></trkpt><trkpt lat="45.56166" lon="11.1762767"><ele>643.0</ele><time>2026-04-25T15:42:39.002Z</time></trkpt><trkpt lat="45.5616317" lon="11.1761817"><ele>643.0</ele><time>2026-04-25T15:42:41.002Z</time></trkpt><trkpt lat="45.5615817" lon="11.17612"><ele>643.0</ele><time>2026-04-25T15:42:42.002Z</time></trkpt><trkpt lat="45.5615233" lon="11.1760667"><ele>643.0</ele><time>2026-04-25T15:42:43.002Z</time></trkpt><trkpt lat="45.5614517" lon="11.17602"><ele>643.0</ele><time>2026-04-25T15:42:44.002Z</time></trkpt><trkpt lat="45.56139" lon="11.1759983"><ele>643.0</ele><time>2026-04-25T15:42:45.002Z</time></trkpt><trkpt lat="45.56126" lon="11.17602"><ele>643.0</ele><time>2026-04-25T15:42:47.002Z</time></trkpt><trkpt lat="45.5612033" lon="11.1760767"><ele>643.0</ele><time>2026-04-25T15:42:48.002Z</time></trkpt><trkpt lat="45.5611617" lon="11.17616"><ele>643.0</ele><time>2026-04-25T15:42:49.002Z</time></trkpt><trkpt lat="45.5611317" lon="11.1762617"><ele>643.0</ele><time>2026-04-25T15:42:50.002Z</time></trkpt><trkpt lat="45.5611" lon="11.1763617"><ele>643.0</ele><time>2026-04-25T15:42:51.002Z</time></trkpt><trkpt lat="45.561075" lon="11.1764567"><ele>643.0</ele><time>2026-04-25T15:42:52.002Z</time></trkpt><trkpt lat="45.561045" lon="11.176545"><ele>643.0</ele><time>2026-04-25T15:42:53.002Z</time></trkpt><trkpt lat="45.56101" lon="11.1766317"><ele>643.4285714285714</ele><time>2026-04-25T15:42:54.002Z</time></trkpt><trkpt lat="45.5609817" lon="11.176715"><ele>643.8571428571429</ele><time>2026-04-25T15:42:55.002Z</time></trkpt><trkpt lat="45.5609517" lon="11.176805"><ele>644.2857142857143</ele><time>2026-04-25T15:42:56.002Z</time></trkpt><trkpt lat="45.5609383" lon="11.1769117"><ele>644.7142857142858</ele><time>2026-04-25T15:42:57.002Z</time></trkpt><trkpt lat="45.5609317" lon="11.1770017"><ele>645.1428571428571</ele><time>2026-04-25T15:42:58.002Z</time></trkpt><trkpt lat="45.5609267" lon="11.1770967"><ele>645.5714285714287</ele><time>2026-04-25T15:42:59.002Z</time></trkpt><trkpt lat="45.560905" lon="11.1772017"><ele>646.0</ele><time>2026-04-25T15:43:00.002Z</time></trkpt><trkpt lat="45.5608817" lon="11.1772983"><ele>646.6666666666667</ele><time>2026-04-25T15:43:01.002Z</time></trkpt><trkpt lat="45.5608633" lon="11.177395"><ele>647.3333333333334</ele><time>2026-04-25T15:43:02.002Z</time></trkpt><trkpt lat="45.56084" lon="11.1775"><ele>648.0</ele><time>2026-04-25T15:43:03.002Z</time></trkpt><trkpt lat="45.56081" lon="11.1776033"><ele>648.6666666666666</ele><time>2026-04-25T15:43:04.002Z</time></trkpt><trkpt lat="45.5607817" lon="11.1777017"><ele>649.3333333333333</ele><time>2026-04-25T15:43:05.002Z</time></trkpt><trkpt lat="45.5607583" lon="11.1778133"><ele>650.0</ele><time>2026-04-25T15:43:06.002Z</time></trkpt><trkpt lat="45.5607333" lon="11.1779067"><ele>650.0</ele><time>2026-04-25T15:43:07.002Z</time></trkpt><trkpt lat="45.5606983" lon="11.177995"><ele>650.0</ele><time>2026-04-25T15:43:08.002Z</time></trkpt><trkpt lat="45.5606533" lon="11.1780783"><ele>650.0</ele><time>2026-04-25T15:43:09.002Z</time></trkpt><trkpt lat="45.5605883" lon="11.1781383"><ele>650.0</ele><time>2026-04-25T15:43:10.002Z</time></trkpt><trkpt lat="45.5605117" lon="11.17818"><ele>650.0</ele><time>2026-04-25T15:43:11.002Z</time></trkpt><trkpt lat="45.56043" lon="11.1782083"><ele>650.0</ele><time>2026-04-25T15:43:12.002Z</time></trkpt><trkpt lat="45.560345" lon="11.17822"><ele>649.8333333333333</ele><time>2026-04-25T15:43:13.002Z</time></trkpt><trkpt lat="45.5602567" lon="11.178225"><ele>649.6666666666666</ele><time>2026-04-25T15:43:14.002Z</time></trkpt><trkpt lat="45.56017" lon="11.1782133"><ele>649.5</ele><time>2026-04-25T15:43:15.002Z</time></trkpt><trkpt lat="45.5600917" lon="11.1782183"><ele>649.3333333333334</ele><time>2026-04-25T15:43:16.002Z</time></trkpt><trkpt lat="45.560015" lon="11.1782317"><ele>649.1666666666667</ele><time>2026-04-25T15:43:17.002Z</time></trkpt><trkpt lat="45.5599" lon="11.1782717"><ele>649.0</ele><time>2026-04-25T15:43:19.002Z</time></trkpt><trkpt lat="45.5598217" lon="11.1783433"><ele>649.0</ele><time>2026-04-25T15:43:21.002Z</time></trkpt><trkpt lat="45.5598717" lon="11.17821"><ele>649.0</ele><time>2026-04-25T15:43:27.002Z</time></trkpt><trkpt lat="45.5599217" lon="11.1781483"><ele>649.0</ele><time>2026-04-25T15:43:28.002Z</time></trkpt><trkpt lat="45.5599833" lon="11.1780933"><ele>649.0</ele><time>2026-04-25T15:43:29.002Z</time></trkpt><trkpt lat="45.56004" lon="11.17804"><ele>649.0</ele><time>2026-04-25T15:43:30.002Z</time></trkpt><trkpt lat="45.5601067" lon="11.1780017"><ele>649.0</ele><time>2026-04-25T15:43:31.002Z</time></trkpt><trkpt lat="45.5602217" lon="11.1779433"><ele>649.1666666666667</ele><time>2026-04-25T15:43:33.002Z</time></trkpt><trkpt lat="45.5603217" lon="11.177855"><ele>649.3333333333334</ele><time>2026-04-25T15:43:35.002Z</time></trkpt><trkpt lat="45.56037" lon="11.1777867"><ele>649.5</ele><time>2026-04-25T15:43:36.002Z</time></trkpt><trkpt lat="45.560425" lon="11.1777167"><ele>649.6666666666666</ele><time>2026-04-25T15:43:37.002Z</time></trkpt><trkpt lat="45.5604667" lon="11.177635"><ele>649.8333333333333</ele><time>2026-04-25T15:43:38.002Z</time></trkpt><trkpt lat="45.5605033" lon="11.1775517"><ele>650.0</ele><time>2026-04-25T15:43:39.002Z</time></trkpt><trkpt lat="45.5605233" lon="11.177455"><ele>650.0</ele><time>2026-04-25T15:43:40.002Z</time></trkpt><trkpt lat="45.5605433" lon="11.1773567"><ele>650.0</ele><time>2026-04-25T15:43:41.002Z</time></trkpt><trkpt lat="45.560545" lon="11.17722"><ele>650.0</ele><time>2026-04-25T15:43:42.002Z</time></trkpt><trkpt lat="45.56055" lon="11.1770883"><ele>650.0</ele><time>2026-04-25T15:43:43.002Z</time></trkpt><trkpt lat="45.560555" lon="11.17697"><ele>650.0</ele><time>2026-04-25T15:43:44.002Z</time></trkpt><trkpt lat="45.5605467" lon="11.1768567"><ele>650.0</ele><time>2026-04-25T15:43:45.002Z</time></trkpt><trkpt lat="45.5605317" lon="11.1767333"><ele>649.4285714285714</ele><time>2026-04-25T15:43:46.002Z</time></trkpt><trkpt lat="45.5605117" lon="11.1766383"><ele>648.8571428571429</ele><time>2026-04-25T15:43:47.002Z</time></trkpt><trkpt lat="45.5605067" lon="11.1765483"><ele>648.2857142857143</ele><time>2026-04-25T15:43:48.002Z</time></trkpt><trkpt lat="45.5605" lon="11.1764483"><ele>647.7142857142858</ele><time>2026-04-25T15:43:49.002Z</time></trkpt><trkpt lat="45.560495" lon="11.1763467"><ele>647.1428571428571</ele><time>2026-04-25T15:43:50.002Z</time></trkpt><trkpt lat="45.5605033" lon="11.1762433"><ele>646.5714285714287</ele><time>2026-04-25T15:43:51.003Z</time></trkpt><trkpt lat="45.5605017" lon="11.1761383"><ele>646.0</ele><time>2026-04-25T15:43:52.002Z</time></trkpt><trkpt lat="45.5605117" lon="11.1760267"><ele>644.3333333333334</ele><time>2026-04-25T15:43:53.002Z</time></trkpt><trkpt lat="45.5605267" lon="11.1759167"><ele>642.6666666666667</ele><time>2026-04-25T15:43:54.002Z</time></trkpt><trkpt lat="45.5605417" lon="11.175795"><ele>641.0</ele><time>2026-04-25T15:43:55.002Z</time></trkpt><trkpt lat="45.5605617" lon="11.1756633"><ele>639.3333333333334</ele><time>2026-04-25T15:43:56.002Z</time></trkpt><trkpt lat="45.5605817" lon="11.1755317"><ele>637.6666666666666</ele><time>2026-04-25T15:43:57.002Z</time></trkpt><trkpt lat="45.560605" lon="11.1754083"><ele>636.0</ele><time>2026-04-25T15:43:58.002Z</time></trkpt><trkpt lat="45.56065" lon="11.1753033"><ele>633.0</ele><time>2026-04-25T15:43:59.002Z</time></trkpt><trkpt lat="45.56068" lon="11.1751867"><ele>630.0</ele><time>2026-04-25T15:44:00.002Z</time></trkpt><trkpt lat="45.5607017" lon="11.175095"><ele>627.0</ele><time>2026-04-25T15:44:01.002Z</time></trkpt><trkpt lat="45.56074" lon="11.1749817"><ele>624.0</ele><time>2026-04-25T15:44:02.002Z</time></trkpt><trkpt lat="45.5607983" lon="11.174885"><ele>621.0</ele><time>2026-04-25T15:44:03.002Z</time></trkpt><trkpt lat="45.560855" lon="11.1747967"><ele>618.0</ele><time>2026-04-25T15:44:04.002Z</time></trkpt><trkpt lat="45.5609033" lon="11.1747383"><ele>618.8</ele><time>2026-04-25T15:44:05.002Z</time></trkpt><trkpt lat="45.561005" lon="11.17468"><ele>619.5999999999999</ele><time>2026-04-25T15:44:07.002Z</time></trkpt><trkpt lat="45.5610683" lon="11.1746967"><ele>620.4000000000001</ele><time>2026-04-25T15:44:08.002Z</time></trkpt><trkpt lat="45.561145" lon="11.17478"><ele>621.2</ele><time>2026-04-25T15:44:09.002Z</time></trkpt><trkpt lat="45.5612183" lon="11.1748667"><ele>622.0</ele><time>2026-04-25T15:44:10.002Z</time></trkpt><trkpt lat="45.5612867" lon="11.174965"><ele>622.0</ele><time>2026-04-25T15:44:11.002Z</time></trkpt><trkpt lat="45.5613517" lon="11.175075"><ele>622.0</ele><time>2026-04-25T15:44:12.002Z</time></trkpt><trkpt lat="45.5614033" lon="11.1751783"><ele>622.0</ele><time>2026-04-25T15:44:13.002Z</time></trkpt><trkpt lat="45.56145" lon="11.1752717"><ele>622.0</ele><time>2026-04-25T15:44:14.002Z</time></trkpt><trkpt lat="45.561505" lon="11.1753533"><ele>622.0</ele><time>2026-04-25T15:44:15.002Z</time></trkpt><trkpt lat="45.5615633" lon="11.1754133"><ele>622.0</ele><time>2026-04-25T15:44:16.002Z</time></trkpt><trkpt lat="45.5616617" lon="11.1755367"><ele>622.0</ele><time>2026-04-25T15:44:18.002Z</time></trkpt><trkpt lat="45.5617467" lon="11.175585"><ele>622.0</ele><time>2026-04-25T15:44:20.002Z</time></trkpt><trkpt lat="45.561805" lon="11.17552"><ele>622.0</ele><time>2026-04-25T15:44:23.002Z</time></trkpt><trkpt lat="45.5618033" lon="11.1753117"><ele>622.0</ele><time>2026-04-25T15:44:26.002Z</time></trkpt><trkpt lat="45.5617883" lon="11.17517"><ele>622.0</ele><time>2026-04-25T15:44:27.002Z</time></trkpt><trkpt lat="45.5617567" lon="11.17501"><ele>622.0</ele><time>2026-04-25T15:44:28.002Z</time></trkpt><trkpt lat="45.5617417" lon="11.17492"><ele>622.0</ele><time>2026-04-25T15:44:29.002Z</time></trkpt><trkpt lat="45.5617233" lon="11.1748067"><ele>622.0</ele><time>2026-04-25T15:44:30.002Z</time></trkpt><trkpt lat="45.5617167" lon="11.1746967"><ele>622.0</ele><time>2026-04-25T15:44:31.002Z</time></trkpt><trkpt lat="45.561725" lon="11.1745867"><ele>622.0</ele><time>2026-04-25T15:44:32.002Z</time></trkpt><trkpt lat="45.5617383" lon="11.174395"><ele>622.0</ele><time>2026-04-25T15:44:34.002Z</time></trkpt><trkpt lat="45.561755" lon="11.174285"><ele>619.1666666666667</ele><time>2026-04-25T15:44:35.002Z</time></trkpt><trkpt lat="45.5617617" lon="11.1741717"><ele>616.3333333333334</ele><time>2026-04-25T15:44:36.002Z</time></trkpt><trkpt lat="45.561775" lon="11.17405"><ele>613.5</ele><time>2026-04-25T15:44:37.002Z</time></trkpt><trkpt lat="45.5617917" lon="11.1739167"><ele>610.6666666666666</ele><time>2026-04-25T15:44:38.002Z</time></trkpt><trkpt lat="45.56181" lon="11.1738083"><ele>607.8333333333333</ele><time>2026-04-25T15:44:39.002Z</time></trkpt><trkpt lat="45.5618433" lon="11.1737083"><ele>605.0</ele><time>2026-04-25T15:44:40.002Z</time></trkpt><trkpt lat="45.5618817" lon="11.17361"><ele>605.1666666666666</ele><time>2026-04-25T15:44:41.002Z</time></trkpt><trkpt lat="45.56193" lon="11.1735233"><ele>605.3333333333333</ele><time>2026-04-25T15:44:42.002Z</time></trkpt><trkpt lat="45.56199" lon="11.173445"><ele>605.5</ele><time>2026-04-25T15:44:43.002Z</time></trkpt><trkpt lat="45.56205" lon="11.1733717"><ele>605.6666666666666</ele><time>2026-04-25T15:44:44.003Z</time></trkpt><trkpt lat="45.5621083" lon="11.17329"><ele>605.8333333333334</ele><time>2026-04-25T15:44:45.002Z</time></trkpt><trkpt lat="45.5621667" lon="11.1732233"><ele>606.0</ele><time>2026-04-25T15:44:46.002Z</time></trkpt><trkpt lat="45.56223" lon="11.1731817"><ele>600.6666666666666</ele><time>2026-04-25T15:44:47.003Z</time></trkpt><trkpt lat="45.56229" lon="11.173145"><ele>595.3333333333334</ele><time>2026-04-25T15:44:48.002Z</time></trkpt><trkpt lat="45.5623533" lon="11.17312"><ele>590.0</ele><time>2026-04-25T15:44:49.002Z</time></trkpt><trkpt lat="45.5624733" lon="11.1731133"><ele>584.6666666666667</ele><time>2026-04-25T15:44:51.002Z</time></trkpt><trkpt lat="45.5625433" lon="11.1731083"><ele>579.3333333333334</ele><time>2026-04-25T15:44:52.002Z</time></trkpt><trkpt lat="45.562605" lon="11.1730817"><ele>574.0</ele><time>2026-04-25T15:44:53.002Z</time></trkpt><trkpt lat="45.5626617" lon="11.1730183"><ele>574.0</ele><time>2026-04-25T15:44:54.002Z</time></trkpt><trkpt lat="45.5627117" lon="11.17295"><ele>574.0</ele><time>2026-04-25T15:44:55.002Z</time></trkpt><trkpt lat="45.562805" lon="11.1728267"><ele>574.0</ele><time>2026-04-25T15:44:57.002Z</time></trkpt><trkpt lat="45.5628583" lon="11.172765"><ele>574.0</ele><time>2026-04-25T15:44:58.002Z</time></trkpt><trkpt lat="45.5629083" lon="11.172705"><ele>574.0</ele><time>2026-04-25T15:44:59.002Z</time></trkpt><trkpt lat="45.5630083" lon="11.1726183"><ele>574.0</ele><time>2026-04-25T15:45:01.002Z</time></trkpt><trkpt lat="45.56309" lon="11.1725683"><ele>576.6666666666667</ele><time>2026-04-25T15:45:03.002Z</time></trkpt><trkpt lat="45.5631667" lon="11.1725333"><ele>579.3333333333334</ele><time>2026-04-25T15:45:05.002Z</time></trkpt><trkpt lat="45.563255" lon="11.1725267"><ele>582.0</ele><time>2026-04-25T15:45:07.002Z</time></trkpt><trkpt lat="45.563335" lon="11.1725133"><ele>584.6666666666666</ele><time>2026-04-25T15:45:09.002Z</time></trkpt><trkpt lat="45.5634017" lon="11.17249"><ele>587.3333333333333</ele><time>2026-04-25T15:45:11.002Z</time></trkpt><trkpt lat="45.5634683" lon="11.1724733"><ele>590.0</ele><time>2026-04-25T15:45:13.002Z</time></trkpt><trkpt lat="45.563535" lon="11.172455"><ele>590.0</ele><time>2026-04-25T15:45:15.002Z</time></trkpt><trkpt lat="45.5636067" lon="11.1724533"><ele>590.0</ele><time>2026-04-25T15:45:17.002Z</time></trkpt><trkpt lat="45.5636933" lon="11.172445"><ele>590.0</ele><time>2026-04-25T15:45:19.002Z</time></trkpt><trkpt lat="45.563765" lon="11.17243"><ele>590.0</ele><time>2026-04-25T15:45:21.002Z</time></trkpt><trkpt lat="45.56381" lon="11.1723433"><ele>590.0</ele><time>2026-04-25T15:45:23.002Z</time></trkpt><trkpt lat="45.5638217" lon="11.1722217"><ele>590.0</ele><time>2026-04-25T15:45:25.002Z</time></trkpt><trkpt lat="45.5637933" lon="11.172085"><ele>592.2</ele><time>2026-04-25T15:45:27.002Z</time></trkpt><trkpt lat="45.56374" lon="11.1719567"><ele>594.4</ele><time>2026-04-25T15:45:29.002Z</time></trkpt><trkpt lat="45.5637067" lon="11.171835"><ele>596.6</ele><time>2026-04-25T15:45:31.002Z</time></trkpt><trkpt lat="45.56368" lon="11.1717017"><ele>598.8</ele><time>2026-04-25T15:45:33.002Z</time></trkpt><trkpt lat="45.5636617" lon="11.1715683"><ele>601.0</ele><time>2026-04-25T15:45:35.002Z</time></trkpt><trkpt lat="45.563655" lon="11.171435"><ele>594.4</ele><time>2026-04-25T15:45:37.002Z</time></trkpt><trkpt lat="45.5636467" lon="11.1712733"><ele>587.8</ele><time>2026-04-25T15:45:39.002Z</time></trkpt><trkpt lat="45.5636217" lon="11.1710917"><ele>581.1999999999999</ele><time>2026-04-25T15:45:41.002Z</time></trkpt><trkpt lat="45.5636033" lon="11.1710017"><ele>574.6</ele><time>2026-04-25T15:45:42.002Z</time></trkpt><trkpt lat="45.5635883" lon="11.1709083"><ele>568.0</ele><time>2026-04-25T15:45:43.002Z</time></trkpt><trkpt lat="45.5635617" lon="11.1707333"><ele>567.4285714285714</ele><time>2026-04-25T15:45:45.003Z</time></trkpt><trkpt lat="45.563555" lon="11.1706417"><ele>566.8571428571428</ele><time>2026-04-25T15:45:46.002Z</time></trkpt><trkpt lat="45.5635433" lon="11.1705533"><ele>566.2857142857142</ele><time>2026-04-25T15:45:47.002Z</time></trkpt><trkpt lat="45.5635267" lon="11.1704617"><ele>565.7142857142857</ele><time>2026-04-25T15:45:48.002Z</time></trkpt><trkpt lat="45.563515" lon="11.1703683"><ele>565.1428571428571</ele><time>2026-04-25T15:45:49.002Z</time></trkpt><trkpt lat="45.5635083" lon="11.1702583"><ele>564.5714285714286</ele><time>2026-04-25T15:45:50.002Z</time></trkpt><trkpt lat="45.5635017" lon="11.1701467"><ele>564.0</ele><time>2026-04-25T15:45:51.002Z</time></trkpt><trkpt lat="45.5635033" lon="11.1700267"><ele>564.0</ele><time>2026-04-25T15:45:52.002Z</time></trkpt><trkpt lat="45.5635133" lon="11.1699017"><ele>564.0</ele><time>2026-04-25T15:45:53.002Z</time></trkpt><trkpt lat="45.563535" lon="11.1697767"><ele>564.0</ele><time>2026-04-25T15:45:54.002Z</time></trkpt><trkpt lat="45.56355" lon="11.1696583"><ele>564.0</ele><time>2026-04-25T15:45:55.003Z</time></trkpt><trkpt lat="45.563565" lon="11.1695383"><ele>564.0</ele><time>2026-04-25T15:45:56.002Z</time></trkpt><trkpt lat="45.5635883" lon="11.1693983"><ele>564.0</ele><time>2026-04-25T15:45:57.002Z</time></trkpt><trkpt lat="45.56361" lon="11.1692917"><ele>563.0</ele><time>2026-04-25T15:45:58.002Z</time></trkpt><trkpt lat="45.5636367" lon="11.1691917"><ele>562.0</ele><time>2026-04-25T15:45:59.002Z</time></trkpt><trkpt lat="45.5636683" lon="11.1690883"><ele>561.0</ele><time>2026-04-25T15:46:00.002Z</time></trkpt><trkpt lat="45.563695" lon="11.1689833"><ele>560.0</ele><time>2026-04-25T15:46:01.002Z</time></trkpt><trkpt lat="45.5637117" lon="11.1688317"><ele>559.0</ele><time>2026-04-25T15:46:02.002Z</time></trkpt><trkpt lat="45.5637283" lon="11.1686667"><ele>561.0</ele><time>2026-04-25T15:46:03.002Z</time></trkpt><trkpt lat="45.5637283" lon="11.1685133"><ele>563.0</ele><time>2026-04-25T15:46:04.002Z</time></trkpt><trkpt lat="45.5637367" lon="11.1683733"><ele>565.0</ele><time>2026-04-25T15:46:05.003Z</time></trkpt><trkpt lat="45.563745" lon="11.1682283"><ele>567.0</ele><time>2026-04-25T15:46:06.002Z</time></trkpt><trkpt lat="45.5637583" lon="11.1680917"><ele>569.0</ele><time>2026-04-25T15:46:07.002Z</time></trkpt><trkpt lat="45.5637733" lon="11.1679567"><ele>569.0</ele><time>2026-04-25T15:46:08.002Z</time></trkpt><trkpt lat="45.5637917" lon="11.1678217"><ele>569.0</ele><time>2026-04-25T15:46:09.002Z</time></trkpt><trkpt lat="45.563825" lon="11.1676817"><ele>569.0</ele><time>2026-04-25T15:46:10.002Z</time></trkpt><trkpt lat="45.5638583" lon="11.1675333"><ele>569.0</ele><time>2026-04-25T15:46:11.002Z</time></trkpt><trkpt lat="45.5639017" lon="11.1674"><ele>569.0</ele><time>2026-04-25T15:46:12.002Z</time></trkpt><trkpt lat="45.5639567" lon="11.16729"><ele>565.4</ele><time>2026-04-25T15:46:13.002Z</time></trkpt><trkpt lat="45.56401" lon="11.1671717"><ele>561.8</ele><time>2026-04-25T15:46:14.002Z</time></trkpt><trkpt lat="45.5640617" lon="11.167035"><ele>558.2</ele><time>2026-04-25T15:46:15.002Z</time></trkpt><trkpt lat="45.5641083" lon="11.1669067"><ele>554.6</ele><time>2026-04-25T15:46:16.002Z</time></trkpt><trkpt lat="45.5641517" lon="11.16678"><ele>551.0</ele><time>2026-04-25T15:46:17.002Z</time></trkpt><trkpt lat="45.5641933" lon="11.1666467"><ele>548.6</ele><time>2026-04-25T15:46:18.002Z</time></trkpt><trkpt lat="45.564235" lon="11.166515"><ele>546.2</ele><time>2026-04-25T15:46:19.002Z</time></trkpt><trkpt lat="45.564275" lon="11.1663783"><ele>543.8</ele><time>2026-04-25T15:46:20.002Z</time></trkpt><trkpt lat="45.56431" lon="11.1662417"><ele>541.4</ele><time>2026-04-25T15:46:21.002Z</time></trkpt><trkpt lat="45.56434" lon="11.1660933"><ele>539.0</ele><time>2026-04-25T15:46:22.002Z</time></trkpt><trkpt lat="45.5643717" lon="11.165965"><ele>539.0</ele><time>2026-04-25T15:46:23.002Z</time></trkpt><trkpt lat="45.5643983" lon="11.1658267"><ele>539.0</ele><time>2026-04-25T15:46:24.002Z</time></trkpt><trkpt lat="45.5644183" lon="11.165685"><ele>539.0</ele><time>2026-04-25T15:46:25.002Z</time></trkpt><trkpt lat="45.564435" lon="11.1655333"><ele>539.0</ele><time>2026-04-25T15:46:26.002Z</time></trkpt><trkpt lat="45.564445" lon="11.1653833"><ele>539.0</ele><time>2026-04-25T15:46:27.002Z</time></trkpt><trkpt lat="45.5644533" lon="11.1652383"><ele>536.6</ele><time>2026-04-25T15:46:28.002Z</time></trkpt><trkpt lat="45.56445" lon="11.1651033"><ele>534.2</ele><time>2026-04-25T15:46:29.002Z</time></trkpt><trkpt lat="45.5644517" lon="11.1649717"><ele>531.8000000000001</ele><time>2026-04-25T15:46:30.002Z</time></trkpt><trkpt lat="45.56445" lon="11.1648417"><ele>529.4</ele><time>2026-04-25T15:46:31.002Z</time></trkpt><trkpt lat="45.56445" lon="11.1647133"><ele>527.0</ele><time>2026-04-25T15:46:32.002Z</time></trkpt><trkpt lat="45.5644567" lon="11.1645867"><ele>526.4</ele><time>2026-04-25T15:46:33.002Z</time></trkpt><trkpt lat="45.56445" lon="11.1644517"><ele>525.8000000000001</ele><time>2026-04-25T15:46:34.002Z</time></trkpt><trkpt lat="45.56444" lon="11.1643133"><ele>525.2</ele><time>2026-04-25T15:46:35.002Z</time></trkpt><trkpt lat="45.5644267" lon="11.1641733"><ele>524.6</ele><time>2026-04-25T15:46:36.002Z</time></trkpt><trkpt lat="45.56441" lon="11.1640317"><ele>524.0</ele><time>2026-04-25T15:46:37.002Z</time></trkpt><trkpt lat="45.5643917" lon="11.163885"><ele>523.6</ele><time>2026-04-25T15:46:38.003Z</time></trkpt><trkpt lat="45.5643767" lon="11.1637367"><ele>523.2</ele><time>2026-04-25T15:46:39.002Z</time></trkpt><trkpt lat="45.564365" lon="11.163595"><ele>522.8000000000001</ele><time>2026-04-25T15:46:40.002Z</time></trkpt><trkpt lat="45.5643533" lon="11.1634517"><ele>522.4</ele><time>2026-04-25T15:46:41.002Z</time></trkpt><trkpt lat="45.5643367" lon="11.1633033"><ele>522.0</ele><time>2026-04-25T15:46:42.002Z</time></trkpt><trkpt lat="45.5643317" lon="11.1631533"><ele>521.8000000000001</ele><time>2026-04-25T15:46:43.002Z</time></trkpt><trkpt lat="45.5643183" lon="11.1630117"><ele>521.6</ele><time>2026-04-25T15:46:44.002Z</time></trkpt><trkpt lat="45.5643017" lon="11.162875"><ele>521.4000000000001</ele><time>2026-04-25T15:46:45.002Z</time></trkpt><trkpt lat="45.564285" lon="11.1627333"><ele>521.2</ele><time>2026-04-25T15:46:46.002Z</time></trkpt><trkpt lat="45.5642667" lon="11.1625983"><ele>521.0</ele><time>2026-04-25T15:46:47.002Z</time></trkpt><trkpt lat="45.56425" lon="11.1624683"><ele>520.6</ele><time>2026-04-25T15:46:48.002Z</time></trkpt><trkpt lat="45.564225" lon="11.1623533"><ele>520.2</ele><time>2026-04-25T15:46:49.002Z</time></trkpt><trkpt lat="45.5642117" lon="11.1622283"><ele>519.8</ele><time>2026-04-25T15:46:50.002Z</time></trkpt><trkpt lat="45.5642" lon="11.1621017"><ele>519.4</ele><time>2026-04-25T15:46:51.002Z</time></trkpt><trkpt lat="45.56419" lon="11.161965"><ele>519.0</ele><time>2026-04-25T15:46:52.002Z</time></trkpt><trkpt lat="45.5641883" lon="11.1618183"><ele>519.0</ele><time>2026-04-25T15:46:53.002Z</time></trkpt><trkpt lat="45.5641883" lon="11.161665"><ele>519.0</ele><time>2026-04-25T15:46:54.002Z</time></trkpt><trkpt lat="45.56419" lon="11.161525"><ele>519.0</ele><time>2026-04-25T15:46:55.002Z</time></trkpt><trkpt lat="45.5642" lon="11.1613867"><ele>519.0</ele><time>2026-04-25T15:46:56.002Z</time></trkpt><trkpt lat="45.5642017" lon="11.1612433"><ele>519.0</ele><time>2026-04-25T15:46:57.002Z</time></trkpt><trkpt lat="45.5642067" lon="11.1610967"><ele>518.2</ele><time>2026-04-25T15:46:58.002Z</time></trkpt><trkpt lat="45.5642183" lon="11.160945"><ele>517.4</ele><time>2026-04-25T15:46:59.002Z</time></trkpt><trkpt lat="45.5642317" lon="11.160805"><ele>516.6</ele><time>2026-04-25T15:47:00.002Z</time></trkpt><trkpt lat="45.564255" lon="11.160675"><ele>515.8</ele><time>2026-04-25T15:47:01.002Z</time></trkpt><trkpt lat="45.5642833" lon="11.1605383"><ele>515.0</ele><time>2026-04-25T15:47:02.002Z</time></trkpt><trkpt lat="45.564315" lon="11.1603967"><ele>513.2</ele><time>2026-04-25T15:47:03.002Z</time></trkpt><trkpt lat="45.5643533" lon="11.16024"><ele>511.4</ele><time>2026-04-25T15:47:04.002Z</time></trkpt><trkpt lat="45.5643867" lon="11.1600967"><ele>509.6</ele><time>2026-04-25T15:47:05.002Z</time></trkpt><trkpt lat="45.56442" lon="11.1599567"><ele>507.8</ele><time>2026-04-25T15:47:06.002Z</time></trkpt><trkpt lat="45.5644483" lon="11.1598217"><ele>506.0</ele><time>2026-04-25T15:47:07.002Z</time></trkpt><trkpt lat="45.564475" lon="11.1597033"><ele>504.4</ele><time>2026-04-25T15:47:08.002Z</time></trkpt><trkpt lat="45.5644867" lon="11.1595933"><ele>502.8</ele><time>2026-04-25T15:47:09.002Z</time></trkpt><trkpt lat="45.5645" lon="11.1594567"><ele>501.19999999999993</ele><time>2026-04-25T15:47:10.002Z</time></trkpt><trkpt lat="45.5645067" lon="11.1593217"><ele>499.59999999999997</ele><time>2026-04-25T15:47:11.002Z</time></trkpt><trkpt lat="45.5645083" lon="11.1591833"><ele>498.0</ele><time>2026-04-25T15:47:12.002Z</time></trkpt><trkpt lat="45.5645" lon="11.15904"><ele>496.6666666666667</ele><time>2026-04-25T15:47:13.002Z</time></trkpt><trkpt lat="45.56449" lon="11.1589117"><ele>495.33333333333337</ele><time>2026-04-25T15:47:14.002Z</time></trkpt><trkpt lat="45.5644733" lon="11.1588067"><ele>494.0</ele><time>2026-04-25T15:47:15.002Z</time></trkpt><trkpt lat="45.564455" lon="11.1587"><ele>492.6666666666667</ele><time>2026-04-25T15:47:16.002Z</time></trkpt><trkpt lat="45.5644483" lon="11.1585983"><ele>491.33333333333337</ele><time>2026-04-25T15:47:17.002Z</time></trkpt><trkpt lat="45.5644483" lon="11.1585033"><ele>490.0</ele><time>2026-04-25T15:47:18.002Z</time></trkpt><trkpt lat="45.56446" lon="11.1583267"><ele>488.2</ele><time>2026-04-25T15:47:20.002Z</time></trkpt><trkpt lat="45.5645133" lon="11.1581617"><ele>486.4</ele><time>2026-04-25T15:47:22.002Z</time></trkpt><trkpt lat="45.56453" lon="11.1580733"><ele>484.6</ele><time>2026-04-25T15:47:23.002Z</time></trkpt><trkpt lat="45.56456" lon="11.157895"><ele>482.8</ele><time>2026-04-25T15:47:25.002Z</time></trkpt><trkpt lat="45.5645617" lon="11.1577983"><ele>481.0</ele><time>2026-04-25T15:47:26.002Z</time></trkpt><trkpt lat="45.5645483" lon="11.1576883"><ele>481.0</ele><time>2026-04-25T15:47:27.002Z</time></trkpt><trkpt lat="45.564485" lon="11.1575883"><ele>481.0</ele><time>2026-04-25T15:47:29.002Z</time></trkpt><trkpt lat="45.5644317" lon="11.1577517"><ele>481.0</ele><time>2026-04-25T15:47:32.002Z</time></trkpt><trkpt lat="45.5644133" lon="11.15793"><ele>481.0</ele><time>2026-04-25T15:47:33.002Z</time></trkpt><trkpt lat="45.5643783" lon="11.15809"><ele>483.25</ele><time>2026-04-25T15:47:34.002Z</time></trkpt><trkpt lat="45.5643167" lon="11.1582467"><ele>485.5</ele><time>2026-04-25T15:47:35.002Z</time></trkpt><trkpt lat="45.5642683" lon="11.158415"><ele>487.75</ele><time>2026-04-25T15:47:36.002Z</time></trkpt><trkpt lat="45.5642383" lon="11.1585833"><ele>490.0</ele><time>2026-04-25T15:47:37.002Z</time></trkpt><trkpt lat="45.5642283" lon="11.15874"><ele>490.00000000000006</ele><time>2026-04-25T15:47:38.002Z</time></trkpt><trkpt lat="45.5642233" lon="11.1588717"><ele>490.0</ele><time>2026-04-25T15:47:39.002Z</time></trkpt><trkpt lat="45.5642217" lon="11.1589833"><ele>490.0</ele><time>2026-04-25T15:47:40.002Z</time></trkpt><trkpt lat="45.5642133" lon="11.1590883"><ele>490.0</ele><time>2026-04-25T15:47:41.002Z</time></trkpt><trkpt lat="45.56418" lon="11.1592367"><ele>490.00000000000006</ele><time>2026-04-25T15:47:43.002Z</time></trkpt><trkpt lat="45.5641" lon="11.159205"><ele>490.0</ele><time>2026-04-25T15:47:46.002Z</time></trkpt><trkpt lat="45.5640817" lon="11.159085"><ele>490.0</ele><time>2026-04-25T15:47:47.002Z</time></trkpt><trkpt lat="45.56408" lon="11.1588783"><ele>490.0</ele><time>2026-04-25T15:47:48.002Z</time></trkpt><trkpt lat="45.5640967" lon="11.15864"><ele>490.0</ele><time>2026-04-25T15:47:49.002Z</time></trkpt><trkpt lat="45.5641417" lon="11.1583967"><ele>487.75</ele><time>2026-04-25T15:47:50.002Z</time></trkpt><trkpt lat="45.564165" lon="11.1581583"><ele>485.5</ele><time>2026-04-25T15:47:51.002Z</time></trkpt><trkpt lat="45.5641767" lon="11.1579667"><ele>483.25</ele><time>2026-04-25T15:47:52.002Z</time></trkpt><trkpt lat="45.5641933" lon="11.1578"><ele>481.0</ele><time>2026-04-25T15:47:53.002Z</time></trkpt><trkpt lat="45.5642167" lon="11.15767"><ele>481.00000000000006</ele><time>2026-04-25T15:47:54.002Z</time></trkpt><trkpt lat="45.56425" lon="11.1575567"><ele>481.0</ele><time>2026-04-25T15:47:55.002Z</time></trkpt><trkpt lat="45.5642533" lon="11.157465"><ele>481.0</ele><time>2026-04-25T15:47:56.002Z</time></trkpt><trkpt lat="45.564235" lon="11.1573633"><ele>481.0</ele><time>2026-04-25T15:47:58.002Z</time></trkpt><trkpt lat="45.564165" lon="11.1574783"><ele>481.00000000000006</ele><time>2026-04-25T15:48:01.002Z</time></trkpt><trkpt lat="45.564145" lon="11.1576217"><ele>481.0</ele><time>2026-04-25T15:48:02.002Z</time></trkpt><trkpt lat="45.5641133" lon="11.1577917"><ele>481.0</ele><time>2026-04-25T15:48:03.002Z</time></trkpt><trkpt lat="45.5640867" lon="11.1579233"><ele>481.0</ele><time>2026-04-25T15:48:04.002Z</time></trkpt><trkpt lat="45.5640533" lon="11.1580217"><ele>481.0</ele><time>2026-04-25T15:48:05.002Z</time></trkpt><trkpt lat="45.5639767" lon="11.157905"><ele>481.0</ele><time>2026-04-25T15:48:09.002Z</time></trkpt><trkpt lat="45.5639517" lon="11.1577617"><ele>481.0</ele><time>2026-04-25T15:48:10.002Z</time></trkpt><trkpt lat="45.5639383" lon="11.1576"><ele>481.00000000000006</ele><time>2026-04-25T15:48:11.002Z</time></trkpt><trkpt lat="45.5639017" lon="11.1574517"><ele>481.0</ele><time>2026-04-25T15:48:12.002Z</time></trkpt><trkpt lat="45.5638683" lon="11.1573367"><ele>481.0</ele><time>2026-04-25T15:48:13.002Z</time></trkpt><trkpt lat="45.5638717" lon="11.1572267"><ele>481.0</ele><time>2026-04-25T15:48:14.002Z</time></trkpt><trkpt lat="45.5638867" lon="11.1571217"><ele>481.00000000000006</ele><time>2026-04-25T15:48:15.002Z</time></trkpt><trkpt lat="45.5639" lon="11.15702"><ele>481.0</ele><time>2026-04-25T15:48:16.002Z</time></trkpt><trkpt lat="45.56391" lon="11.156855"><ele>470.0</ele><time>2026-04-25T15:48:18.002Z</time></trkpt><trkpt lat="45.5638683" lon="11.156785"><ele>470.0</ele><time>2026-04-25T15:48:20.002Z</time></trkpt></trkseg></trk></gpx>